<?xml version="1.0" encoding="UTF-8" standalone="no" ?>
<gpx xmlns="http://www.topografix.com/GPX/1/1" xmlns:xsi="http://www.w3.org/2001/XMLSchema-instance" xsi:schemaLocation="http://www.topografix.com/GPX/1/1 http://www.topografix.com/GPX/1/1/gpx.xsd" version="1.1" creator="VisuGPX - https://www.visugpx.com">
  <metadata>
    <name>Feclaz skating 9 fev</name>
    <desc><![CDATA[Skating Feclaz piste les 3 croix   boucle verte]]></desc>
  </metadata>
  <trk>
    <name><![CDATA[Tracé actuel: 09 FEV 2014 11:00]]></name>
    <trkseg>
      <trkpt lat="45.64467" lon="5.98554">
        <ele>1307.05</ele>
        <time>2014-02-09T10:04:08Z</time>
      </trkpt>
      <trkpt lat="45.64467" lon="5.98551">
        <ele>1306.57</ele>
        <time>2014-02-09T10:04:48Z</time>
      </trkpt>
      <trkpt lat="45.64467" lon="5.98547">
        <ele>1306.57</ele>
        <time>2014-02-09T10:05:25Z</time>
      </trkpt>
      <trkpt lat="45.64468" lon="5.98545">
        <ele>1306.57</ele>
        <time>2014-02-09T10:05:57Z</time>
      </trkpt>
      <trkpt lat="45.64467" lon="5.98548">
        <ele>1306.57</ele>
        <time>2014-02-09T10:06:33Z</time>
      </trkpt>
      <trkpt lat="45.64469" lon="5.98551">
        <ele>1307.53</ele>
        <time>2014-02-09T10:07:15Z</time>
      </trkpt>
      <trkpt lat="45.64468" lon="5.98548">
        <ele>1307.53</ele>
        <time>2014-02-09T10:07:52Z</time>
      </trkpt>
      <trkpt lat="45.64467" lon="5.98548">
        <ele>1308.01</ele>
        <time>2014-02-09T10:08:09Z</time>
      </trkpt>
      <trkpt lat="45.64468" lon="5.98549">
        <ele>1308.97</ele>
        <time>2014-02-09T10:08:18Z</time>
      </trkpt>
      <trkpt lat="45.64469" lon="5.9855">
        <ele>1308.97</ele>
        <time>2014-02-09T10:08:34Z</time>
      </trkpt>
      <trkpt lat="45.64469" lon="5.9855">
        <ele>1309.45</ele>
        <time>2014-02-09T10:08:46Z</time>
      </trkpt>
      <trkpt lat="45.64469" lon="5.98548">
        <ele>1309.45</ele>
        <time>2014-02-09T10:08:58Z</time>
      </trkpt>
      <trkpt lat="45.64468" lon="5.9855">
        <ele>1308.97</ele>
        <time>2014-02-09T10:09:10Z</time>
      </trkpt>
      <trkpt lat="45.6447" lon="5.98554">
        <ele>1308.97</ele>
        <time>2014-02-09T10:09:29Z</time>
      </trkpt>
      <trkpt lat="45.64472" lon="5.98552">
        <ele>1309.45</ele>
        <time>2014-02-09T10:09:43Z</time>
      </trkpt>
      <trkpt lat="45.64471" lon="5.98551">
        <ele>1308.97</ele>
        <time>2014-02-09T10:09:56Z</time>
      </trkpt>
      <trkpt lat="45.6447" lon="5.98553">
        <ele>1309.93</ele>
        <time>2014-02-09T10:10:16Z</time>
      </trkpt>
      <trkpt lat="45.64472" lon="5.98551">
        <ele>1309.93</ele>
        <time>2014-02-09T10:10:28Z</time>
      </trkpt>
      <trkpt lat="45.64472" lon="5.98548">
        <ele>1309.93</ele>
        <time>2014-02-09T10:10:50Z</time>
      </trkpt>
      <trkpt lat="45.64471" lon="5.98552">
        <ele>1309.93</ele>
        <time>2014-02-09T10:11:08Z</time>
      </trkpt>
      <trkpt lat="45.6447" lon="5.98554">
        <ele>1308.97</ele>
        <time>2014-02-09T10:11:29Z</time>
      </trkpt>
      <trkpt lat="45.6447" lon="5.98553">
        <ele>1309.45</ele>
        <time>2014-02-09T10:11:48Z</time>
      </trkpt>
      <trkpt lat="45.64491" lon="5.98568">
        <ele>1309.45</ele>
        <time>2014-02-09T10:12:02Z</time>
      </trkpt>
      <trkpt lat="45.64495" lon="5.9857">
        <ele>1309.45</ele>
        <time>2014-02-09T10:12:04Z</time>
      </trkpt>
      <trkpt lat="45.64515" lon="5.98579">
        <ele>1309.93</ele>
        <time>2014-02-09T10:12:13Z</time>
      </trkpt>
      <trkpt lat="45.64531" lon="5.98585">
        <ele>1311.38</ele>
        <time>2014-02-09T10:12:21Z</time>
      </trkpt>
      <trkpt lat="45.6455" lon="5.9859">
        <ele>1311.86</ele>
        <time>2014-02-09T10:12:30Z</time>
      </trkpt>
      <trkpt lat="45.64566" lon="5.98591">
        <ele>1313.3</ele>
        <time>2014-02-09T10:12:37Z</time>
      </trkpt>
      <trkpt lat="45.64579" lon="5.9859">
        <ele>1314.26</ele>
        <time>2014-02-09T10:12:44Z</time>
      </trkpt>
      <trkpt lat="45.64596" lon="5.98582">
        <ele>1315.22</ele>
        <time>2014-02-09T10:12:53Z</time>
      </trkpt>
      <trkpt lat="45.64607" lon="5.98576">
        <ele>1316.18</ele>
        <time>2014-02-09T10:13:00Z</time>
      </trkpt>
      <trkpt lat="45.64612" lon="5.98572">
        <ele>1316.18</ele>
        <time>2014-02-09T10:13:03Z</time>
      </trkpt>
      <trkpt lat="45.64627" lon="5.98561">
        <ele>1318.59</ele>
        <time>2014-02-09T10:13:13Z</time>
      </trkpt>
      <trkpt lat="45.64639" lon="5.98551">
        <ele>1318.59</ele>
        <time>2014-02-09T10:13:20Z</time>
      </trkpt>
      <trkpt lat="45.64651" lon="5.98541">
        <ele>1320.03</ele>
        <time>2014-02-09T10:13:28Z</time>
      </trkpt>
      <trkpt lat="45.64659" lon="5.98531">
        <ele>1321.47</ele>
        <time>2014-02-09T10:13:35Z</time>
      </trkpt>
      <trkpt lat="45.64671" lon="5.9852">
        <ele>1322.43</ele>
        <time>2014-02-09T10:13:43Z</time>
      </trkpt>
      <trkpt lat="45.64681" lon="5.98511">
        <ele>1322.43</ele>
        <time>2014-02-09T10:13:50Z</time>
      </trkpt>
      <trkpt lat="45.64691" lon="5.98503">
        <ele>1322.91</ele>
        <time>2014-02-09T10:13:56Z</time>
      </trkpt>
      <trkpt lat="45.64693" lon="5.98499">
        <ele>1322.91</ele>
        <time>2014-02-09T10:14:11Z</time>
      </trkpt>
      <trkpt lat="45.64696" lon="5.98495">
        <ele>1322.91</ele>
        <time>2014-02-09T10:14:21Z</time>
      </trkpt>
      <trkpt lat="45.64699" lon="5.98491">
        <ele>1322.91</ele>
        <time>2014-02-09T10:14:31Z</time>
      </trkpt>
      <trkpt lat="45.64697" lon="5.98486">
        <ele>1323.87</ele>
        <time>2014-02-09T10:14:41Z</time>
      </trkpt>
      <trkpt lat="45.64692" lon="5.98476">
        <ele>1323.39</ele>
        <time>2014-02-09T10:14:46Z</time>
      </trkpt>
      <trkpt lat="45.64682" lon="5.98466">
        <ele>1323.87</ele>
        <time>2014-02-09T10:14:51Z</time>
      </trkpt>
      <trkpt lat="45.6467" lon="5.98452">
        <ele>1326.28</ele>
        <time>2014-02-09T10:15:01Z</time>
      </trkpt>
      <trkpt lat="45.64663" lon="5.98444">
        <ele>1327.72</ele>
        <time>2014-02-09T10:15:06Z</time>
      </trkpt>
      <trkpt lat="45.64658" lon="5.98437">
        <ele>1327.24</ele>
        <time>2014-02-09T10:15:12Z</time>
      </trkpt>
      <trkpt lat="45.64657" lon="5.98437">
        <ele>1328.68</ele>
        <time>2014-02-09T10:15:31Z</time>
      </trkpt>
      <trkpt lat="45.64653" lon="5.98421">
        <ele>1327.72</ele>
        <time>2014-02-09T10:15:36Z</time>
      </trkpt>
      <trkpt lat="45.6465" lon="5.9841">
        <ele>1327.24</ele>
        <time>2014-02-09T10:15:38Z</time>
      </trkpt>
      <trkpt lat="45.64648" lon="5.98404">
        <ele>1326.28</ele>
        <time>2014-02-09T10:15:39Z</time>
      </trkpt>
      <trkpt lat="45.64632" lon="5.98339">
        <ele>1323.87</ele>
        <time>2014-02-09T10:15:52Z</time>
      </trkpt>
      <trkpt lat="45.64621" lon="5.98327">
        <ele>1324.35</ele>
        <time>2014-02-09T10:15:58Z</time>
      </trkpt>
      <trkpt lat="45.64618" lon="5.98326">
        <ele>1324.35</ele>
        <time>2014-02-09T10:15:59Z</time>
      </trkpt>
      <trkpt lat="45.64615" lon="5.98325">
        <ele>1324.35</ele>
        <time>2014-02-09T10:16:00Z</time>
      </trkpt>
      <trkpt lat="45.64601" lon="5.98323">
        <ele>1322.91</ele>
        <time>2014-02-09T10:16:04Z</time>
      </trkpt>
      <trkpt lat="45.6456" lon="5.98308">
        <ele>1320.51</ele>
        <time>2014-02-09T10:16:16Z</time>
      </trkpt>
      <trkpt lat="45.64556" lon="5.98308">
        <ele>1319.55</ele>
        <time>2014-02-09T10:16:18Z</time>
      </trkpt>
      <trkpt lat="45.64552" lon="5.98309">
        <ele>1320.51</ele>
        <time>2014-02-09T10:16:32Z</time>
      </trkpt>
      <trkpt lat="45.64552" lon="5.98308">
        <ele>1319.55</ele>
        <time>2014-02-09T10:16:49Z</time>
      </trkpt>
      <trkpt lat="45.64549" lon="5.98306">
        <ele>1319.55</ele>
        <time>2014-02-09T10:17:02Z</time>
      </trkpt>
      <trkpt lat="45.64546" lon="5.98307">
        <ele>1319.07</ele>
        <time>2014-02-09T10:17:17Z</time>
      </trkpt>
      <trkpt lat="45.64544" lon="5.98304">
        <ele>1319.55</ele>
        <time>2014-02-09T10:17:30Z</time>
      </trkpt>
      <trkpt lat="45.64541" lon="5.98301">
        <ele>1319.07</ele>
        <time>2014-02-09T10:17:48Z</time>
      </trkpt>
      <trkpt lat="45.64541" lon="5.98298">
        <ele>1319.07</ele>
        <time>2014-02-09T10:18:11Z</time>
      </trkpt>
      <trkpt lat="45.6454" lon="5.98296">
        <ele>1318.59</ele>
        <time>2014-02-09T10:18:36Z</time>
      </trkpt>
      <trkpt lat="45.64541" lon="5.98294">
        <ele>1319.07</ele>
        <time>2014-02-09T10:18:51Z</time>
      </trkpt>
      <trkpt lat="45.64539" lon="5.98292">
        <ele>1319.55</ele>
        <time>2014-02-09T10:19:16Z</time>
      </trkpt>
      <trkpt lat="45.6454" lon="5.98292">
        <ele>1320.03</ele>
        <time>2014-02-09T10:19:42Z</time>
      </trkpt>
      <trkpt lat="45.64539" lon="5.98291">
        <ele>1319.55</ele>
        <time>2014-02-09T10:20:02Z</time>
      </trkpt>
      <trkpt lat="45.64539" lon="5.98292">
        <ele>1320.51</ele>
        <time>2014-02-09T10:20:24Z</time>
      </trkpt>
      <trkpt lat="45.64539" lon="5.98293">
        <ele>1320.99</ele>
        <time>2014-02-09T10:20:43Z</time>
      </trkpt>
      <trkpt lat="45.64539" lon="5.98296">
        <ele>1320.99</ele>
        <time>2014-02-09T10:21:06Z</time>
      </trkpt>
      <trkpt lat="45.64539" lon="5.983">
        <ele>1321.47</ele>
        <time>2014-02-09T10:21:34Z</time>
      </trkpt>
      <trkpt lat="45.64526" lon="5.983">
        <ele>1321.47</ele>
        <time>2014-02-09T10:21:56Z</time>
      </trkpt>
      <trkpt lat="45.64529" lon="5.98293">
        <ele>1321.95</ele>
        <time>2014-02-09T10:22:20Z</time>
      </trkpt>
      <trkpt lat="45.64527" lon="5.98291">
        <ele>1321.95</ele>
        <time>2014-02-09T10:22:46Z</time>
      </trkpt>
      <trkpt lat="45.64533" lon="5.98297">
        <ele>1320.99</ele>
        <time>2014-02-09T10:23:13Z</time>
      </trkpt>
      <trkpt lat="45.64534" lon="5.98296">
        <ele>1320.51</ele>
        <time>2014-02-09T10:23:40Z</time>
      </trkpt>
      <trkpt lat="45.64539" lon="5.98294">
        <ele>1320.51</ele>
        <time>2014-02-09T10:24:08Z</time>
      </trkpt>
      <trkpt lat="45.64538" lon="5.98297">
        <ele>1320.03</ele>
        <time>2014-02-09T10:24:30Z</time>
      </trkpt>
      <trkpt lat="45.64534" lon="5.98299">
        <ele>1320.51</ele>
        <time>2014-02-09T10:24:56Z</time>
      </trkpt>
      <trkpt lat="45.64532" lon="5.98304">
        <ele>1320.51</ele>
        <time>2014-02-09T10:25:25Z</time>
      </trkpt>
      <trkpt lat="45.64543" lon="5.98303">
        <ele>1319.55</ele>
        <time>2014-02-09T10:25:42Z</time>
      </trkpt>
      <trkpt lat="45.64548" lon="5.98306">
        <ele>1320.03</ele>
        <time>2014-02-09T10:25:56Z</time>
      </trkpt>
      <trkpt lat="45.64548" lon="5.98306">
        <ele>1320.51</ele>
        <time>2014-02-09T10:26:25Z</time>
      </trkpt>
      <trkpt lat="45.64549" lon="5.98308">
        <ele>1320.51</ele>
        <time>2014-02-09T10:26:39Z</time>
      </trkpt>
      <trkpt lat="45.64548" lon="5.98306">
        <ele>1320.51</ele>
        <time>2014-02-09T10:26:52Z</time>
      </trkpt>
      <trkpt lat="45.64549" lon="5.98306">
        <ele>1320.99</ele>
        <time>2014-02-09T10:27:11Z</time>
      </trkpt>
      <trkpt lat="45.64549" lon="5.98304">
        <ele>1321.47</ele>
        <time>2014-02-09T10:27:24Z</time>
      </trkpt>
      <trkpt lat="45.64549" lon="5.98305">
        <ele>1321.47</ele>
        <time>2014-02-09T10:27:35Z</time>
      </trkpt>
      <trkpt lat="45.64549" lon="5.98306">
        <ele>1321.95</ele>
        <time>2014-02-09T10:27:52Z</time>
      </trkpt>
      <trkpt lat="45.64548" lon="5.98305">
        <ele>1322.91</ele>
        <time>2014-02-09T10:28:08Z</time>
      </trkpt>
      <trkpt lat="45.64548" lon="5.98305">
        <ele>1321.95</ele>
        <time>2014-02-09T10:28:21Z</time>
      </trkpt>
      <trkpt lat="45.6455" lon="5.98309">
        <ele>1322.43</ele>
        <time>2014-02-09T10:28:41Z</time>
      </trkpt>
      <trkpt lat="45.6455" lon="5.98309">
        <ele>1322.91</ele>
        <time>2014-02-09T10:29:00Z</time>
      </trkpt>
      <trkpt lat="45.64553" lon="5.98309">
        <ele>1322.91</ele>
        <time>2014-02-09T10:29:22Z</time>
      </trkpt>
      <trkpt lat="45.64554" lon="5.9831">
        <ele>1322.91</ele>
        <time>2014-02-09T10:29:23Z</time>
      </trkpt>
      <trkpt lat="45.64555" lon="5.9831">
        <ele>1322.43</ele>
        <time>2014-02-09T10:29:24Z</time>
      </trkpt>
      <trkpt lat="45.64557" lon="5.9831">
        <ele>1322.43</ele>
        <time>2014-02-09T10:29:25Z</time>
      </trkpt>
      <trkpt lat="45.6456" lon="5.98311">
        <ele>1323.39</ele>
        <time>2014-02-09T10:29:26Z</time>
      </trkpt>
      <trkpt lat="45.64562" lon="5.98311">
        <ele>1322.91</ele>
        <time>2014-02-09T10:29:27Z</time>
      </trkpt>
      <trkpt lat="45.64564" lon="5.98312">
        <ele>1323.39</ele>
        <time>2014-02-09T10:29:28Z</time>
      </trkpt>
      <trkpt lat="45.64566" lon="5.98313">
        <ele>1322.91</ele>
        <time>2014-02-09T10:29:29Z</time>
      </trkpt>
      <trkpt lat="45.64569" lon="5.98313">
        <ele>1322.91</ele>
        <time>2014-02-09T10:29:30Z</time>
      </trkpt>
      <trkpt lat="45.64571" lon="5.98313">
        <ele>1323.39</ele>
        <time>2014-02-09T10:29:31Z</time>
      </trkpt>
      <trkpt lat="45.64574" lon="5.98314">
        <ele>1323.39</ele>
        <time>2014-02-09T10:29:32Z</time>
      </trkpt>
      <trkpt lat="45.64576" lon="5.98315">
        <ele>1323.87</ele>
        <time>2014-02-09T10:29:33Z</time>
      </trkpt>
      <trkpt lat="45.64579" lon="5.98316">
        <ele>1323.39</ele>
        <time>2014-02-09T10:29:34Z</time>
      </trkpt>
      <trkpt lat="45.64581" lon="5.98317">
        <ele>1323.87</ele>
        <time>2014-02-09T10:29:35Z</time>
      </trkpt>
      <trkpt lat="45.64583" lon="5.98318">
        <ele>1323.39</ele>
        <time>2014-02-09T10:29:36Z</time>
      </trkpt>
      <trkpt lat="45.64586" lon="5.98319">
        <ele>1324.35</ele>
        <time>2014-02-09T10:29:37Z</time>
      </trkpt>
      <trkpt lat="45.64588" lon="5.9832">
        <ele>1324.35</ele>
        <time>2014-02-09T10:29:38Z</time>
      </trkpt>
      <trkpt lat="45.64589" lon="5.98321">
        <ele>1324.35</ele>
        <time>2014-02-09T10:29:39Z</time>
      </trkpt>
      <trkpt lat="45.64595" lon="5.98324">
        <ele>1325.31</ele>
        <time>2014-02-09T10:29:42Z</time>
      </trkpt>
      <trkpt lat="45.64598" lon="5.98325">
        <ele>1325.31</ele>
        <time>2014-02-09T10:29:43Z</time>
      </trkpt>
      <trkpt lat="45.64601" lon="5.98326">
        <ele>1325.31</ele>
        <time>2014-02-09T10:29:44Z</time>
      </trkpt>
      <trkpt lat="45.64604" lon="5.98325">
        <ele>1324.83</ele>
        <time>2014-02-09T10:29:45Z</time>
      </trkpt>
      <trkpt lat="45.64607" lon="5.98324">
        <ele>1325.31</ele>
        <time>2014-02-09T10:29:46Z</time>
      </trkpt>
      <trkpt lat="45.64609" lon="5.98324">
        <ele>1325.31</ele>
        <time>2014-02-09T10:29:47Z</time>
      </trkpt>
      <trkpt lat="45.64611" lon="5.98324">
        <ele>1325.31</ele>
        <time>2014-02-09T10:29:48Z</time>
      </trkpt>
      <trkpt lat="45.64613" lon="5.98324">
        <ele>1326.28</ele>
        <time>2014-02-09T10:29:49Z</time>
      </trkpt>
      <trkpt lat="45.64615" lon="5.98325">
        <ele>1326.28</ele>
        <time>2014-02-09T10:29:50Z</time>
      </trkpt>
      <trkpt lat="45.64617" lon="5.98325">
        <ele>1326.76</ele>
        <time>2014-02-09T10:29:51Z</time>
      </trkpt>
      <trkpt lat="45.64618" lon="5.98325">
        <ele>1326.76</ele>
        <time>2014-02-09T10:29:52Z</time>
      </trkpt>
      <trkpt lat="45.6462" lon="5.98326">
        <ele>1327.24</ele>
        <time>2014-02-09T10:29:53Z</time>
      </trkpt>
      <trkpt lat="45.64621" lon="5.98327">
        <ele>1327.72</ele>
        <time>2014-02-09T10:29:54Z</time>
      </trkpt>
      <trkpt lat="45.64623" lon="5.98328">
        <ele>1326.76</ele>
        <time>2014-02-09T10:29:55Z</time>
      </trkpt>
      <trkpt lat="45.64625" lon="5.9833">
        <ele>1327.24</ele>
        <time>2014-02-09T10:29:56Z</time>
      </trkpt>
      <trkpt lat="45.64627" lon="5.98331">
        <ele>1327.24</ele>
        <time>2014-02-09T10:29:57Z</time>
      </trkpt>
      <trkpt lat="45.64629" lon="5.98332">
        <ele>1327.72</ele>
        <time>2014-02-09T10:29:58Z</time>
      </trkpt>
      <trkpt lat="45.64631" lon="5.98333">
        <ele>1327.24</ele>
        <time>2014-02-09T10:29:59Z</time>
      </trkpt>
      <trkpt lat="45.64632" lon="5.98335">
        <ele>1327.24</ele>
        <time>2014-02-09T10:30:00Z</time>
      </trkpt>
      <trkpt lat="45.64639" lon="5.98359">
        <ele>1327.72</ele>
        <time>2014-02-09T10:30:07Z</time>
      </trkpt>
      <trkpt lat="45.6464" lon="5.98362">
        <ele>1327.72</ele>
        <time>2014-02-09T10:30:08Z</time>
      </trkpt>
      <trkpt lat="45.64643" lon="5.98375">
        <ele>1327.24</ele>
        <time>2014-02-09T10:30:11Z</time>
      </trkpt>
      <trkpt lat="45.64649" lon="5.98404">
        <ele>1327.72</ele>
        <time>2014-02-09T10:30:19Z</time>
      </trkpt>
      <trkpt lat="45.64653" lon="5.98413">
        <ele>1329.16</ele>
        <time>2014-02-09T10:30:22Z</time>
      </trkpt>
      <trkpt lat="45.64656" lon="5.98429">
        <ele>1331.08</ele>
        <time>2014-02-09T10:30:32Z</time>
      </trkpt>
      <trkpt lat="45.64669" lon="5.98448">
        <ele>1330.6</ele>
        <time>2014-02-09T10:30:42Z</time>
      </trkpt>
      <trkpt lat="45.64671" lon="5.98452">
        <ele>1330.6</ele>
        <time>2014-02-09T10:30:43Z</time>
      </trkpt>
      <trkpt lat="45.64694" lon="5.98475">
        <ele>1327.24</ele>
        <time>2014-02-09T10:30:48Z</time>
      </trkpt>
      <trkpt lat="45.64724" lon="5.98497">
        <ele>1326.76</ele>
        <time>2014-02-09T10:30:55Z</time>
      </trkpt>
      <trkpt lat="45.64746" lon="5.98509">
        <ele>1326.76</ele>
        <time>2014-02-09T10:31:03Z</time>
      </trkpt>
      <trkpt lat="45.64751" lon="5.98522">
        <ele>1326.76</ele>
        <time>2014-02-09T10:31:08Z</time>
      </trkpt>
      <trkpt lat="45.6475" lon="5.98564">
        <ele>1325.8</ele>
        <time>2014-02-09T10:31:20Z</time>
      </trkpt>
      <trkpt lat="45.64754" lon="5.98579">
        <ele>1325.31</ele>
        <time>2014-02-09T10:31:32Z</time>
      </trkpt>
      <trkpt lat="45.64755" lon="5.98579">
        <ele>1325.8</ele>
        <time>2014-02-09T10:31:54Z</time>
      </trkpt>
      <trkpt lat="45.64755" lon="5.9858">
        <ele>1325.31</ele>
        <time>2014-02-09T10:32:21Z</time>
      </trkpt>
      <trkpt lat="45.64756" lon="5.9858">
        <ele>1325.31</ele>
        <time>2014-02-09T10:32:54Z</time>
      </trkpt>
      <trkpt lat="45.64756" lon="5.9858">
        <ele>1324.83</ele>
        <time>2014-02-09T10:33:21Z</time>
      </trkpt>
      <trkpt lat="45.64756" lon="5.98581">
        <ele>1324.83</ele>
        <time>2014-02-09T10:33:50Z</time>
      </trkpt>
      <trkpt lat="45.64759" lon="5.9858">
        <ele>1324.35</ele>
        <time>2014-02-09T10:34:09Z</time>
      </trkpt>
      <trkpt lat="45.6476" lon="5.9858">
        <ele>1323.87</ele>
        <time>2014-02-09T10:34:29Z</time>
      </trkpt>
      <trkpt lat="45.64759" lon="5.9858">
        <ele>1322.91</ele>
        <time>2014-02-09T10:35:01Z</time>
      </trkpt>
      <trkpt lat="45.64759" lon="5.98581">
        <ele>1322.91</ele>
        <time>2014-02-09T10:35:31Z</time>
      </trkpt>
      <trkpt lat="45.64759" lon="5.9858">
        <ele>1322.43</ele>
        <time>2014-02-09T10:36:04Z</time>
      </trkpt>
      <trkpt lat="45.64759" lon="5.9858">
        <ele>1321.95</ele>
        <time>2014-02-09T10:36:39Z</time>
      </trkpt>
      <trkpt lat="45.64756" lon="5.98579">
        <ele>1321.47</ele>
        <time>2014-02-09T10:37:09Z</time>
      </trkpt>
      <trkpt lat="45.64755" lon="5.9858">
        <ele>1321.95</ele>
        <time>2014-02-09T10:37:26Z</time>
      </trkpt>
      <trkpt lat="45.64756" lon="5.98581">
        <ele>1322.43</ele>
        <time>2014-02-09T10:37:40Z</time>
      </trkpt>
      <trkpt lat="45.64757" lon="5.98581">
        <ele>1322.43</ele>
        <time>2014-02-09T10:37:58Z</time>
      </trkpt>
      <trkpt lat="45.64757" lon="5.98581">
        <ele>1321.95</ele>
        <time>2014-02-09T10:38:17Z</time>
      </trkpt>
      <trkpt lat="45.64757" lon="5.98582">
        <ele>1322.91</ele>
        <time>2014-02-09T10:38:41Z</time>
      </trkpt>
      <trkpt lat="45.64758" lon="5.98581">
        <ele>1321.95</ele>
        <time>2014-02-09T10:39:08Z</time>
      </trkpt>
      <trkpt lat="45.64759" lon="5.98583">
        <ele>1322.43</ele>
        <time>2014-02-09T10:39:11Z</time>
      </trkpt>
      <trkpt lat="45.6477" lon="5.98601">
        <ele>1322.43</ele>
        <time>2014-02-09T10:39:19Z</time>
      </trkpt>
      <trkpt lat="45.64778" lon="5.9862">
        <ele>1321.95</ele>
        <time>2014-02-09T10:39:24Z</time>
      </trkpt>
      <trkpt lat="45.64782" lon="5.98633">
        <ele>1321.47</ele>
        <time>2014-02-09T10:39:27Z</time>
      </trkpt>
      <trkpt lat="45.64809" lon="5.987">
        <ele>1319.07</ele>
        <time>2014-02-09T10:39:41Z</time>
      </trkpt>
      <trkpt lat="45.64826" lon="5.98723">
        <ele>1319.07</ele>
        <time>2014-02-09T10:39:48Z</time>
      </trkpt>
      <trkpt lat="45.64836" lon="5.98732">
        <ele>1319.55</ele>
        <time>2014-02-09T10:39:52Z</time>
      </trkpt>
      <trkpt lat="45.64859" lon="5.98747">
        <ele>1320.99</ele>
        <time>2014-02-09T10:40:03Z</time>
      </trkpt>
      <trkpt lat="45.64866" lon="5.98751">
        <ele>1321.47</ele>
        <time>2014-02-09T10:40:06Z</time>
      </trkpt>
      <trkpt lat="45.64869" lon="5.98751">
        <ele>1321.47</ele>
        <time>2014-02-09T10:40:07Z</time>
      </trkpt>
      <trkpt lat="45.64871" lon="5.98752">
        <ele>1321.47</ele>
        <time>2014-02-09T10:40:08Z</time>
      </trkpt>
      <trkpt lat="45.64874" lon="5.98753">
        <ele>1321.95</ele>
        <time>2014-02-09T10:40:09Z</time>
      </trkpt>
      <trkpt lat="45.64876" lon="5.98754">
        <ele>1321.95</ele>
        <time>2014-02-09T10:40:10Z</time>
      </trkpt>
      <trkpt lat="45.64879" lon="5.98755">
        <ele>1321.47</ele>
        <time>2014-02-09T10:40:11Z</time>
      </trkpt>
      <trkpt lat="45.64881" lon="5.98756">
        <ele>1321.95</ele>
        <time>2014-02-09T10:40:12Z</time>
      </trkpt>
      <trkpt lat="45.64884" lon="5.98756">
        <ele>1321.95</ele>
        <time>2014-02-09T10:40:13Z</time>
      </trkpt>
      <trkpt lat="45.64886" lon="5.98758">
        <ele>1321.95</ele>
        <time>2014-02-09T10:40:14Z</time>
      </trkpt>
      <trkpt lat="45.64889" lon="5.98758">
        <ele>1321.47</ele>
        <time>2014-02-09T10:40:15Z</time>
      </trkpt>
      <trkpt lat="45.64892" lon="5.98759">
        <ele>1322.43</ele>
        <time>2014-02-09T10:40:16Z</time>
      </trkpt>
      <trkpt lat="45.64896" lon="5.98759">
        <ele>1321.95</ele>
        <time>2014-02-09T10:40:17Z</time>
      </trkpt>
      <trkpt lat="45.64899" lon="5.9876">
        <ele>1321.95</ele>
        <time>2014-02-09T10:40:18Z</time>
      </trkpt>
      <trkpt lat="45.64902" lon="5.9876">
        <ele>1321.95</ele>
        <time>2014-02-09T10:40:19Z</time>
      </trkpt>
      <trkpt lat="45.64906" lon="5.9876">
        <ele>1321.47</ele>
        <time>2014-02-09T10:40:20Z</time>
      </trkpt>
      <trkpt lat="45.64909" lon="5.9876">
        <ele>1321.47</ele>
        <time>2014-02-09T10:40:21Z</time>
      </trkpt>
      <trkpt lat="45.64913" lon="5.98761">
        <ele>1321.95</ele>
        <time>2014-02-09T10:40:22Z</time>
      </trkpt>
      <trkpt lat="45.64916" lon="5.98762">
        <ele>1321.47</ele>
        <time>2014-02-09T10:40:23Z</time>
      </trkpt>
      <trkpt lat="45.64919" lon="5.98762">
        <ele>1321.47</ele>
        <time>2014-02-09T10:40:24Z</time>
      </trkpt>
      <trkpt lat="45.64922" lon="5.98763">
        <ele>1321.47</ele>
        <time>2014-02-09T10:40:25Z</time>
      </trkpt>
      <trkpt lat="45.64925" lon="5.98763">
        <ele>1321.47</ele>
        <time>2014-02-09T10:40:26Z</time>
      </trkpt>
      <trkpt lat="45.64928" lon="5.98764">
        <ele>1321.47</ele>
        <time>2014-02-09T10:40:27Z</time>
      </trkpt>
      <trkpt lat="45.64931" lon="5.98764">
        <ele>1321.95</ele>
        <time>2014-02-09T10:40:28Z</time>
      </trkpt>
      <trkpt lat="45.64934" lon="5.98764">
        <ele>1321.95</ele>
        <time>2014-02-09T10:40:29Z</time>
      </trkpt>
      <trkpt lat="45.64937" lon="5.98764">
        <ele>1321.95</ele>
        <time>2014-02-09T10:40:30Z</time>
      </trkpt>
      <trkpt lat="45.6494" lon="5.98764">
        <ele>1321.95</ele>
        <time>2014-02-09T10:40:31Z</time>
      </trkpt>
      <trkpt lat="45.64942" lon="5.98765">
        <ele>1321.95</ele>
        <time>2014-02-09T10:40:32Z</time>
      </trkpt>
      <trkpt lat="45.64945" lon="5.98765">
        <ele>1321.47</ele>
        <time>2014-02-09T10:40:33Z</time>
      </trkpt>
      <trkpt lat="45.64947" lon="5.98765">
        <ele>1321.95</ele>
        <time>2014-02-09T10:40:34Z</time>
      </trkpt>
      <trkpt lat="45.6495" lon="5.98766">
        <ele>1322.43</ele>
        <time>2014-02-09T10:40:35Z</time>
      </trkpt>
      <trkpt lat="45.64955" lon="5.98767">
        <ele>1322.43</ele>
        <time>2014-02-09T10:40:37Z</time>
      </trkpt>
      <trkpt lat="45.64958" lon="5.98768">
        <ele>1322.43</ele>
        <time>2014-02-09T10:40:38Z</time>
      </trkpt>
      <trkpt lat="45.6496" lon="5.98768">
        <ele>1322.43</ele>
        <time>2014-02-09T10:40:39Z</time>
      </trkpt>
      <trkpt lat="45.64963" lon="5.98768">
        <ele>1322.43</ele>
        <time>2014-02-09T10:40:40Z</time>
      </trkpt>
      <trkpt lat="45.64965" lon="5.98769">
        <ele>1322.43</ele>
        <time>2014-02-09T10:40:41Z</time>
      </trkpt>
      <trkpt lat="45.64967" lon="5.98769">
        <ele>1322.91</ele>
        <time>2014-02-09T10:40:42Z</time>
      </trkpt>
      <trkpt lat="45.6497" lon="5.98769">
        <ele>1322.43</ele>
        <time>2014-02-09T10:40:43Z</time>
      </trkpt>
      <trkpt lat="45.64972" lon="5.98769">
        <ele>1322.43</ele>
        <time>2014-02-09T10:40:44Z</time>
      </trkpt>
      <trkpt lat="45.64974" lon="5.98768">
        <ele>1322.43</ele>
        <time>2014-02-09T10:40:45Z</time>
      </trkpt>
      <trkpt lat="45.64976" lon="5.98769">
        <ele>1322.91</ele>
        <time>2014-02-09T10:40:46Z</time>
      </trkpt>
      <trkpt lat="45.64977" lon="5.98771">
        <ele>1322.91</ele>
        <time>2014-02-09T10:40:47Z</time>
      </trkpt>
      <trkpt lat="45.64979" lon="5.98772">
        <ele>1323.39</ele>
        <time>2014-02-09T10:40:48Z</time>
      </trkpt>
      <trkpt lat="45.64979" lon="5.98773">
        <ele>1322.91</ele>
        <time>2014-02-09T10:40:49Z</time>
      </trkpt>
      <trkpt lat="45.6498" lon="5.98775">
        <ele>1323.39</ele>
        <time>2014-02-09T10:40:50Z</time>
      </trkpt>
      <trkpt lat="45.64981" lon="5.98776">
        <ele>1322.91</ele>
        <time>2014-02-09T10:40:51Z</time>
      </trkpt>
      <trkpt lat="45.64981" lon="5.98778">
        <ele>1323.39</ele>
        <time>2014-02-09T10:40:52Z</time>
      </trkpt>
      <trkpt lat="45.64982" lon="5.9878">
        <ele>1322.91</ele>
        <time>2014-02-09T10:40:53Z</time>
      </trkpt>
      <trkpt lat="45.64982" lon="5.98781">
        <ele>1322.91</ele>
        <time>2014-02-09T10:40:54Z</time>
      </trkpt>
      <trkpt lat="45.64983" lon="5.98783">
        <ele>1322.91</ele>
        <time>2014-02-09T10:40:55Z</time>
      </trkpt>
      <trkpt lat="45.64983" lon="5.98785">
        <ele>1323.39</ele>
        <time>2014-02-09T10:40:57Z</time>
      </trkpt>
      <trkpt lat="45.64981" lon="5.98802">
        <ele>1321.95</ele>
        <time>2014-02-09T10:41:02Z</time>
      </trkpt>
      <trkpt lat="45.64977" lon="5.9882">
        <ele>1320.99</ele>
        <time>2014-02-09T10:41:06Z</time>
      </trkpt>
      <trkpt lat="45.64953" lon="5.98834">
        <ele>1319.07</ele>
        <time>2014-02-09T10:41:16Z</time>
      </trkpt>
      <trkpt lat="45.64933" lon="5.98844">
        <ele>1319.07</ele>
        <time>2014-02-09T10:41:25Z</time>
      </trkpt>
      <trkpt lat="45.64922" lon="5.98851">
        <ele>1320.03</ele>
        <time>2014-02-09T10:41:33Z</time>
      </trkpt>
      <trkpt lat="45.64907" lon="5.98857">
        <ele>1319.55</ele>
        <time>2014-02-09T10:41:40Z</time>
      </trkpt>
      <trkpt lat="45.64901" lon="5.98859">
        <ele>1320.51</ele>
        <time>2014-02-09T10:41:45Z</time>
      </trkpt>
      <trkpt lat="45.64893" lon="5.98864">
        <ele>1320.51</ele>
        <time>2014-02-09T10:41:50Z</time>
      </trkpt>
      <trkpt lat="45.64881" lon="5.98869">
        <ele>1320.99</ele>
        <time>2014-02-09T10:41:57Z</time>
      </trkpt>
      <trkpt lat="45.64865" lon="5.98881">
        <ele>1322.43</ele>
        <time>2014-02-09T10:42:07Z</time>
      </trkpt>
      <trkpt lat="45.64854" lon="5.98899">
        <ele>1322.91</ele>
        <time>2014-02-09T10:42:15Z</time>
      </trkpt>
      <trkpt lat="45.64851" lon="5.98904">
        <ele>1322.91</ele>
        <time>2014-02-09T10:42:17Z</time>
      </trkpt>
      <trkpt lat="45.64841" lon="5.98915">
        <ele>1320.99</ele>
        <time>2014-02-09T10:42:20Z</time>
      </trkpt>
      <trkpt lat="45.6482" lon="5.98923">
        <ele>1319.55</ele>
        <time>2014-02-09T10:42:24Z</time>
      </trkpt>
      <trkpt lat="45.64776" lon="5.98926">
        <ele>1315.22</ele>
        <time>2014-02-09T10:42:33Z</time>
      </trkpt>
      <trkpt lat="45.64761" lon="5.98968">
        <ele>1312.82</ele>
        <time>2014-02-09T10:42:38Z</time>
      </trkpt>
      <trkpt lat="45.6476" lon="5.98978">
        <ele>1311.86</ele>
        <time>2014-02-09T10:42:39Z</time>
      </trkpt>
      <trkpt lat="45.64765" lon="5.99038">
        <ele>1311.86</ele>
        <time>2014-02-09T10:42:50Z</time>
      </trkpt>
      <trkpt lat="45.64765" lon="5.99038">
        <ele>1311.86</ele>
        <time>2014-02-09T10:43:03Z</time>
      </trkpt>
      <trkpt lat="45.64766" lon="5.99038">
        <ele>1311.86</ele>
        <time>2014-02-09T10:43:13Z</time>
      </trkpt>
      <trkpt lat="45.6477" lon="5.99048">
        <ele>1313.3</ele>
        <time>2014-02-09T10:43:19Z</time>
      </trkpt>
      <trkpt lat="45.64774" lon="5.99066">
        <ele>1315.7</ele>
        <time>2014-02-09T10:43:30Z</time>
      </trkpt>
      <trkpt lat="45.64777" lon="5.99083">
        <ele>1318.59</ele>
        <time>2014-02-09T10:43:38Z</time>
      </trkpt>
      <trkpt lat="45.64776" lon="5.99086">
        <ele>1318.1</ele>
        <time>2014-02-09T10:43:39Z</time>
      </trkpt>
      <trkpt lat="45.64782" lon="5.99123">
        <ele>1317.14</ele>
        <time>2014-02-09T10:43:48Z</time>
      </trkpt>
      <trkpt lat="45.64785" lon="5.99134">
        <ele>1317.14</ele>
        <time>2014-02-09T10:43:51Z</time>
      </trkpt>
      <trkpt lat="45.64786" lon="5.99138">
        <ele>1317.62</ele>
        <time>2014-02-09T10:43:52Z</time>
      </trkpt>
      <trkpt lat="45.64787" lon="5.99142">
        <ele>1318.1</ele>
        <time>2014-02-09T10:43:53Z</time>
      </trkpt>
      <trkpt lat="45.64789" lon="5.99145">
        <ele>1317.62</ele>
        <time>2014-02-09T10:43:54Z</time>
      </trkpt>
      <trkpt lat="45.6479" lon="5.99149">
        <ele>1317.62</ele>
        <time>2014-02-09T10:43:55Z</time>
      </trkpt>
      <trkpt lat="45.64792" lon="5.99151">
        <ele>1317.62</ele>
        <time>2014-02-09T10:43:56Z</time>
      </trkpt>
      <trkpt lat="45.64794" lon="5.99154">
        <ele>1318.1</ele>
        <time>2014-02-09T10:43:57Z</time>
      </trkpt>
      <trkpt lat="45.64796" lon="5.99156">
        <ele>1318.1</ele>
        <time>2014-02-09T10:43:58Z</time>
      </trkpt>
      <trkpt lat="45.64797" lon="5.99159">
        <ele>1317.62</ele>
        <time>2014-02-09T10:43:59Z</time>
      </trkpt>
      <trkpt lat="45.648" lon="5.99162">
        <ele>1318.1</ele>
        <time>2014-02-09T10:44:01Z</time>
      </trkpt>
      <trkpt lat="45.64801" lon="5.99163">
        <ele>1318.59</ele>
        <time>2014-02-09T10:44:02Z</time>
      </trkpt>
      <trkpt lat="45.64802" lon="5.99164">
        <ele>1318.59</ele>
        <time>2014-02-09T10:44:03Z</time>
      </trkpt>
      <trkpt lat="45.64803" lon="5.99167">
        <ele>1319.55</ele>
        <time>2014-02-09T10:44:04Z</time>
      </trkpt>
      <trkpt lat="45.64803" lon="5.99169">
        <ele>1319.55</ele>
        <time>2014-02-09T10:44:05Z</time>
      </trkpt>
      <trkpt lat="45.64804" lon="5.99171">
        <ele>1319.07</ele>
        <time>2014-02-09T10:44:06Z</time>
      </trkpt>
      <trkpt lat="45.64809" lon="5.99176">
        <ele>1318.59</ele>
        <time>2014-02-09T10:44:08Z</time>
      </trkpt>
      <trkpt lat="45.64814" lon="5.99177">
        <ele>1317.62</ele>
        <time>2014-02-09T10:44:09Z</time>
      </trkpt>
      <trkpt lat="45.64819" lon="5.9918">
        <ele>1317.62</ele>
        <time>2014-02-09T10:44:10Z</time>
      </trkpt>
      <trkpt lat="45.64822" lon="5.99183">
        <ele>1317.14</ele>
        <time>2014-02-09T10:44:11Z</time>
      </trkpt>
      <trkpt lat="45.64825" lon="5.99188">
        <ele>1317.14</ele>
        <time>2014-02-09T10:44:12Z</time>
      </trkpt>
      <trkpt lat="45.64827" lon="5.99192">
        <ele>1316.66</ele>
        <time>2014-02-09T10:44:13Z</time>
      </trkpt>
      <trkpt lat="45.64828" lon="5.99197">
        <ele>1317.14</ele>
        <time>2014-02-09T10:44:14Z</time>
      </trkpt>
      <trkpt lat="45.64831" lon="5.99203">
        <ele>1316.66</ele>
        <time>2014-02-09T10:44:16Z</time>
      </trkpt>
      <trkpt lat="45.64832" lon="5.99206">
        <ele>1317.14</ele>
        <time>2014-02-09T10:44:17Z</time>
      </trkpt>
      <trkpt lat="45.64832" lon="5.9921">
        <ele>1316.66</ele>
        <time>2014-02-09T10:44:18Z</time>
      </trkpt>
      <trkpt lat="45.64833" lon="5.99213">
        <ele>1317.14</ele>
        <time>2014-02-09T10:44:19Z</time>
      </trkpt>
      <trkpt lat="45.64833" lon="5.99217">
        <ele>1317.14</ele>
        <time>2014-02-09T10:44:20Z</time>
      </trkpt>
      <trkpt lat="45.64834" lon="5.9922">
        <ele>1317.14</ele>
        <time>2014-02-09T10:44:21Z</time>
      </trkpt>
      <trkpt lat="45.64835" lon="5.99223">
        <ele>1317.62</ele>
        <time>2014-02-09T10:44:22Z</time>
      </trkpt>
      <trkpt lat="45.64835" lon="5.99226">
        <ele>1317.14</ele>
        <time>2014-02-09T10:44:23Z</time>
      </trkpt>
      <trkpt lat="45.64836" lon="5.9923">
        <ele>1317.14</ele>
        <time>2014-02-09T10:44:24Z</time>
      </trkpt>
      <trkpt lat="45.64836" lon="5.99234">
        <ele>1317.14</ele>
        <time>2014-02-09T10:44:25Z</time>
      </trkpt>
      <trkpt lat="45.64837" lon="5.99251">
        <ele>1317.62</ele>
        <time>2014-02-09T10:44:30Z</time>
      </trkpt>
      <trkpt lat="45.64837" lon="5.99254">
        <ele>1317.62</ele>
        <time>2014-02-09T10:44:31Z</time>
      </trkpt>
      <trkpt lat="45.64838" lon="5.99257">
        <ele>1317.62</ele>
        <time>2014-02-09T10:44:32Z</time>
      </trkpt>
      <trkpt lat="45.64838" lon="5.9926">
        <ele>1318.1</ele>
        <time>2014-02-09T10:44:33Z</time>
      </trkpt>
      <trkpt lat="45.64838" lon="5.99262">
        <ele>1318.1</ele>
        <time>2014-02-09T10:44:34Z</time>
      </trkpt>
      <trkpt lat="45.64839" lon="5.99278">
        <ele>1319.07</ele>
        <time>2014-02-09T10:44:39Z</time>
      </trkpt>
      <trkpt lat="45.6484" lon="5.99281">
        <ele>1318.59</ele>
        <time>2014-02-09T10:44:40Z</time>
      </trkpt>
      <trkpt lat="45.64841" lon="5.99287">
        <ele>1318.59</ele>
        <time>2014-02-09T10:44:42Z</time>
      </trkpt>
      <trkpt lat="45.64842" lon="5.9929">
        <ele>1319.07</ele>
        <time>2014-02-09T10:44:43Z</time>
      </trkpt>
      <trkpt lat="45.64843" lon="5.99293">
        <ele>1319.07</ele>
        <time>2014-02-09T10:44:44Z</time>
      </trkpt>
      <trkpt lat="45.64844" lon="5.99296">
        <ele>1319.07</ele>
        <time>2014-02-09T10:44:45Z</time>
      </trkpt>
      <trkpt lat="45.64844" lon="5.99299">
        <ele>1320.03</ele>
        <time>2014-02-09T10:44:46Z</time>
      </trkpt>
      <trkpt lat="45.64844" lon="5.99302">
        <ele>1320.03</ele>
        <time>2014-02-09T10:44:47Z</time>
      </trkpt>
      <trkpt lat="45.64846" lon="5.99308">
        <ele>1320.03</ele>
        <time>2014-02-09T10:44:49Z</time>
      </trkpt>
      <trkpt lat="45.64848" lon="5.9931">
        <ele>1319.55</ele>
        <time>2014-02-09T10:44:50Z</time>
      </trkpt>
      <trkpt lat="45.64852" lon="5.99314">
        <ele>1320.03</ele>
        <time>2014-02-09T10:44:52Z</time>
      </trkpt>
      <trkpt lat="45.64853" lon="5.99316">
        <ele>1320.03</ele>
        <time>2014-02-09T10:44:53Z</time>
      </trkpt>
      <trkpt lat="45.64855" lon="5.99317">
        <ele>1320.51</ele>
        <time>2014-02-09T10:44:54Z</time>
      </trkpt>
      <trkpt lat="45.64856" lon="5.99319">
        <ele>1320.51</ele>
        <time>2014-02-09T10:44:55Z</time>
      </trkpt>
      <trkpt lat="45.64858" lon="5.99321">
        <ele>1320.51</ele>
        <time>2014-02-09T10:44:56Z</time>
      </trkpt>
      <trkpt lat="45.64859" lon="5.99322">
        <ele>1320.51</ele>
        <time>2014-02-09T10:44:57Z</time>
      </trkpt>
      <trkpt lat="45.64859" lon="5.99324">
        <ele>1320.99</ele>
        <time>2014-02-09T10:44:58Z</time>
      </trkpt>
      <trkpt lat="45.64861" lon="5.99326">
        <ele>1320.51</ele>
        <time>2014-02-09T10:44:59Z</time>
      </trkpt>
      <trkpt lat="45.64862" lon="5.99328">
        <ele>1321.47</ele>
        <time>2014-02-09T10:45:00Z</time>
      </trkpt>
      <trkpt lat="45.64863" lon="5.9933">
        <ele>1320.99</ele>
        <time>2014-02-09T10:45:01Z</time>
      </trkpt>
      <trkpt lat="45.64864" lon="5.99332">
        <ele>1321.47</ele>
        <time>2014-02-09T10:45:02Z</time>
      </trkpt>
      <trkpt lat="45.64865" lon="5.99335">
        <ele>1321.47</ele>
        <time>2014-02-09T10:45:03Z</time>
      </trkpt>
      <trkpt lat="45.64866" lon="5.99338">
        <ele>1321.47</ele>
        <time>2014-02-09T10:45:05Z</time>
      </trkpt>
      <trkpt lat="45.64866" lon="5.99341">
        <ele>1321.47</ele>
        <time>2014-02-09T10:45:06Z</time>
      </trkpt>
      <trkpt lat="45.64867" lon="5.99343">
        <ele>1321.95</ele>
        <time>2014-02-09T10:45:07Z</time>
      </trkpt>
      <trkpt lat="45.64868" lon="5.99346">
        <ele>1321.95</ele>
        <time>2014-02-09T10:45:08Z</time>
      </trkpt>
      <trkpt lat="45.64868" lon="5.99349">
        <ele>1321.47</ele>
        <time>2014-02-09T10:45:09Z</time>
      </trkpt>
      <trkpt lat="45.64869" lon="5.99353">
        <ele>1321.95</ele>
        <time>2014-02-09T10:45:10Z</time>
      </trkpt>
      <trkpt lat="45.64869" lon="5.99355">
        <ele>1321.95</ele>
        <time>2014-02-09T10:45:11Z</time>
      </trkpt>
      <trkpt lat="45.6487" lon="5.99358">
        <ele>1321.95</ele>
        <time>2014-02-09T10:45:12Z</time>
      </trkpt>
      <trkpt lat="45.64871" lon="5.9936">
        <ele>1321.95</ele>
        <time>2014-02-09T10:45:13Z</time>
      </trkpt>
      <trkpt lat="45.64872" lon="5.99362">
        <ele>1322.43</ele>
        <time>2014-02-09T10:45:14Z</time>
      </trkpt>
      <trkpt lat="45.64873" lon="5.99367">
        <ele>1322.43</ele>
        <time>2014-02-09T10:45:16Z</time>
      </trkpt>
      <trkpt lat="45.64874" lon="5.99369">
        <ele>1322.91</ele>
        <time>2014-02-09T10:45:17Z</time>
      </trkpt>
      <trkpt lat="45.64873" lon="5.99373">
        <ele>1321.95</ele>
        <time>2014-02-09T10:45:18Z</time>
      </trkpt>
      <trkpt lat="45.64874" lon="5.99376">
        <ele>1322.91</ele>
        <time>2014-02-09T10:45:19Z</time>
      </trkpt>
      <trkpt lat="45.64875" lon="5.99378">
        <ele>1322.43</ele>
        <time>2014-02-09T10:45:20Z</time>
      </trkpt>
      <trkpt lat="45.64876" lon="5.9938">
        <ele>1322.43</ele>
        <time>2014-02-09T10:45:21Z</time>
      </trkpt>
      <trkpt lat="45.64881" lon="5.99407">
        <ele>1320.99</ele>
        <time>2014-02-09T10:45:31Z</time>
      </trkpt>
      <trkpt lat="45.64874" lon="5.9945">
        <ele>1320.51</ele>
        <time>2014-02-09T10:45:42Z</time>
      </trkpt>
      <trkpt lat="45.64873" lon="5.99466">
        <ele>1320.51</ele>
        <time>2014-02-09T10:45:45Z</time>
      </trkpt>
      <trkpt lat="45.64874" lon="5.99471">
        <ele>1320.99</ele>
        <time>2014-02-09T10:45:46Z</time>
      </trkpt>
      <trkpt lat="45.64874" lon="5.99475">
        <ele>1320.99</ele>
        <time>2014-02-09T10:45:47Z</time>
      </trkpt>
      <trkpt lat="45.64874" lon="5.9948">
        <ele>1320.99</ele>
        <time>2014-02-09T10:45:48Z</time>
      </trkpt>
      <trkpt lat="45.64876" lon="5.99484">
        <ele>1320.99</ele>
        <time>2014-02-09T10:45:49Z</time>
      </trkpt>
      <trkpt lat="45.64877" lon="5.99488">
        <ele>1320.99</ele>
        <time>2014-02-09T10:45:50Z</time>
      </trkpt>
      <trkpt lat="45.64878" lon="5.99492">
        <ele>1321.47</ele>
        <time>2014-02-09T10:45:51Z</time>
      </trkpt>
      <trkpt lat="45.6488" lon="5.99495">
        <ele>1320.99</ele>
        <time>2014-02-09T10:45:52Z</time>
      </trkpt>
      <trkpt lat="45.64881" lon="5.99498">
        <ele>1320.99</ele>
        <time>2014-02-09T10:45:53Z</time>
      </trkpt>
      <trkpt lat="45.64883" lon="5.99502">
        <ele>1321.47</ele>
        <time>2014-02-09T10:45:54Z</time>
      </trkpt>
      <trkpt lat="45.6489" lon="5.99519">
        <ele>1321.47</ele>
        <time>2014-02-09T10:45:59Z</time>
      </trkpt>
      <trkpt lat="45.64892" lon="5.99522">
        <ele>1321.47</ele>
        <time>2014-02-09T10:46:00Z</time>
      </trkpt>
      <trkpt lat="45.64895" lon="5.99527">
        <ele>1320.99</ele>
        <time>2014-02-09T10:46:02Z</time>
      </trkpt>
      <trkpt lat="45.64897" lon="5.9953">
        <ele>1320.99</ele>
        <time>2014-02-09T10:46:03Z</time>
      </trkpt>
      <trkpt lat="45.64899" lon="5.99533">
        <ele>1321.47</ele>
        <time>2014-02-09T10:46:04Z</time>
      </trkpt>
      <trkpt lat="45.64901" lon="5.99535">
        <ele>1321.95</ele>
        <time>2014-02-09T10:46:05Z</time>
      </trkpt>
      <trkpt lat="45.64903" lon="5.99536">
        <ele>1321.47</ele>
        <time>2014-02-09T10:46:06Z</time>
      </trkpt>
      <trkpt lat="45.64925" lon="5.99555">
        <ele>1320.99</ele>
        <time>2014-02-09T10:46:15Z</time>
      </trkpt>
      <trkpt lat="45.64935" lon="5.99559">
        <ele>1320.03</ele>
        <time>2014-02-09T10:46:19Z</time>
      </trkpt>
      <trkpt lat="45.64937" lon="5.99559">
        <ele>1319.55</ele>
        <time>2014-02-09T10:46:20Z</time>
      </trkpt>
      <trkpt lat="45.6494" lon="5.99559">
        <ele>1320.03</ele>
        <time>2014-02-09T10:46:21Z</time>
      </trkpt>
      <trkpt lat="45.64949" lon="5.99562">
        <ele>1320.51</ele>
        <time>2014-02-09T10:46:26Z</time>
      </trkpt>
      <trkpt lat="45.6495" lon="5.99563">
        <ele>1320.99</ele>
        <time>2014-02-09T10:46:27Z</time>
      </trkpt>
      <trkpt lat="45.64951" lon="5.99565">
        <ele>1320.99</ele>
        <time>2014-02-09T10:46:28Z</time>
      </trkpt>
      <trkpt lat="45.64952" lon="5.99565">
        <ele>1320.99</ele>
        <time>2014-02-09T10:46:29Z</time>
      </trkpt>
      <trkpt lat="45.64953" lon="5.99566">
        <ele>1321.47</ele>
        <time>2014-02-09T10:46:30Z</time>
      </trkpt>
      <trkpt lat="45.64955" lon="5.99567">
        <ele>1321.47</ele>
        <time>2014-02-09T10:46:31Z</time>
      </trkpt>
      <trkpt lat="45.64956" lon="5.99569">
        <ele>1321.95</ele>
        <time>2014-02-09T10:46:32Z</time>
      </trkpt>
      <trkpt lat="45.64958" lon="5.9957">
        <ele>1322.43</ele>
        <time>2014-02-09T10:46:33Z</time>
      </trkpt>
      <trkpt lat="45.64959" lon="5.99572">
        <ele>1321.95</ele>
        <time>2014-02-09T10:46:34Z</time>
      </trkpt>
      <trkpt lat="45.6496" lon="5.99574">
        <ele>1322.43</ele>
        <time>2014-02-09T10:46:35Z</time>
      </trkpt>
      <trkpt lat="45.64961" lon="5.99575">
        <ele>1322.91</ele>
        <time>2014-02-09T10:46:36Z</time>
      </trkpt>
      <trkpt lat="45.64963" lon="5.99575">
        <ele>1322.91</ele>
        <time>2014-02-09T10:46:37Z</time>
      </trkpt>
      <trkpt lat="45.64964" lon="5.99576">
        <ele>1323.39</ele>
        <time>2014-02-09T10:46:38Z</time>
      </trkpt>
      <trkpt lat="45.64965" lon="5.99577">
        <ele>1323.39</ele>
        <time>2014-02-09T10:46:39Z</time>
      </trkpt>
      <trkpt lat="45.64966" lon="5.99578">
        <ele>1323.87</ele>
        <time>2014-02-09T10:46:40Z</time>
      </trkpt>
      <trkpt lat="45.6497" lon="5.9958">
        <ele>1324.35</ele>
        <time>2014-02-09T10:46:43Z</time>
      </trkpt>
      <trkpt lat="45.64972" lon="5.99582">
        <ele>1324.35</ele>
        <time>2014-02-09T10:46:45Z</time>
      </trkpt>
      <trkpt lat="45.64974" lon="5.99585">
        <ele>1325.31</ele>
        <time>2014-02-09T10:46:48Z</time>
      </trkpt>
      <trkpt lat="45.64976" lon="5.99585">
        <ele>1325.8</ele>
        <time>2014-02-09T10:46:49Z</time>
      </trkpt>
      <trkpt lat="45.6499" lon="5.99587">
        <ele>1328.2</ele>
        <time>2014-02-09T10:47:02Z</time>
      </trkpt>
      <trkpt lat="45.64991" lon="5.99587">
        <ele>1327.72</ele>
        <time>2014-02-09T10:47:03Z</time>
      </trkpt>
      <trkpt lat="45.64993" lon="5.99588">
        <ele>1328.2</ele>
        <time>2014-02-09T10:47:04Z</time>
      </trkpt>
      <trkpt lat="45.65003" lon="5.99588">
        <ele>1329.64</ele>
        <time>2014-02-09T10:47:13Z</time>
      </trkpt>
      <trkpt lat="45.65004" lon="5.99587">
        <ele>1329.64</ele>
        <time>2014-02-09T10:47:14Z</time>
      </trkpt>
      <trkpt lat="45.65005" lon="5.99587">
        <ele>1330.12</ele>
        <time>2014-02-09T10:47:15Z</time>
      </trkpt>
      <trkpt lat="45.65006" lon="5.99586">
        <ele>1330.12</ele>
        <time>2014-02-09T10:47:16Z</time>
      </trkpt>
      <trkpt lat="45.65009" lon="5.99586">
        <ele>1330.12</ele>
        <time>2014-02-09T10:47:31Z</time>
      </trkpt>
      <trkpt lat="45.65004" lon="5.99588">
        <ele>1330.12</ele>
        <time>2014-02-09T10:47:53Z</time>
      </trkpt>
      <trkpt lat="45.65003" lon="5.99589">
        <ele>1329.64</ele>
        <time>2014-02-09T10:48:20Z</time>
      </trkpt>
      <trkpt lat="45.65002" lon="5.99583">
        <ele>1329.64</ele>
        <time>2014-02-09T10:48:52Z</time>
      </trkpt>
      <trkpt lat="45.65" lon="5.99582">
        <ele>1330.12</ele>
        <time>2014-02-09T10:49:25Z</time>
      </trkpt>
      <trkpt lat="45.65001" lon="5.99585">
        <ele>1330.12</ele>
        <time>2014-02-09T10:49:53Z</time>
      </trkpt>
      <trkpt lat="45.65007" lon="5.99585">
        <ele>1330.12</ele>
        <time>2014-02-09T10:50:12Z</time>
      </trkpt>
      <trkpt lat="45.65008" lon="5.99586">
        <ele>1330.6</ele>
        <time>2014-02-09T10:50:37Z</time>
      </trkpt>
      <trkpt lat="45.65013" lon="5.99586">
        <ele>1332.52</ele>
        <time>2014-02-09T10:50:42Z</time>
      </trkpt>
      <trkpt lat="45.65016" lon="5.99587">
        <ele>1332.52</ele>
        <time>2014-02-09T10:50:46Z</time>
      </trkpt>
      <trkpt lat="45.65021" lon="5.99587">
        <ele>1333.49</ele>
        <time>2014-02-09T10:50:50Z</time>
      </trkpt>
      <trkpt lat="45.65027" lon="5.99588">
        <ele>1333.97</ele>
        <time>2014-02-09T10:50:54Z</time>
      </trkpt>
      <trkpt lat="45.65029" lon="5.99587">
        <ele>1334.45</ele>
        <time>2014-02-09T10:50:55Z</time>
      </trkpt>
      <trkpt lat="45.65031" lon="5.99587">
        <ele>1333.97</ele>
        <time>2014-02-09T10:50:56Z</time>
      </trkpt>
      <trkpt lat="45.65034" lon="5.99587">
        <ele>1334.45</ele>
        <time>2014-02-09T10:50:57Z</time>
      </trkpt>
      <trkpt lat="45.65035" lon="5.99586">
        <ele>1334.45</ele>
        <time>2014-02-09T10:50:58Z</time>
      </trkpt>
      <trkpt lat="45.65057" lon="5.99588">
        <ele>1336.85</ele>
        <time>2014-02-09T10:51:12Z</time>
      </trkpt>
      <trkpt lat="45.65065" lon="5.99593">
        <ele>1338.77</ele>
        <time>2014-02-09T10:51:19Z</time>
      </trkpt>
      <trkpt lat="45.65067" lon="5.99594">
        <ele>1338.77</ele>
        <time>2014-02-09T10:51:21Z</time>
      </trkpt>
      <trkpt lat="45.65069" lon="5.99596">
        <ele>1339.25</ele>
        <time>2014-02-09T10:51:23Z</time>
      </trkpt>
      <trkpt lat="45.6508" lon="5.99602">
        <ele>1341.66</ele>
        <time>2014-02-09T10:51:35Z</time>
      </trkpt>
      <trkpt lat="45.65083" lon="5.99601">
        <ele>1342.14</ele>
        <time>2014-02-09T10:51:38Z</time>
      </trkpt>
      <trkpt lat="45.65085" lon="5.99601">
        <ele>1342.14</ele>
        <time>2014-02-09T10:51:39Z</time>
      </trkpt>
      <trkpt lat="45.65093" lon="5.99597">
        <ele>1344.54</ele>
        <time>2014-02-09T10:51:49Z</time>
      </trkpt>
      <trkpt lat="45.65098" lon="5.99598">
        <ele>1345.98</ele>
        <time>2014-02-09T10:51:53Z</time>
      </trkpt>
      <trkpt lat="45.65104" lon="5.99597">
        <ele>1345.98</ele>
        <time>2014-02-09T10:51:57Z</time>
      </trkpt>
      <trkpt lat="45.65115" lon="5.99592">
        <ele>1346.94</ele>
        <time>2014-02-09T10:52:06Z</time>
      </trkpt>
      <trkpt lat="45.65123" lon="5.99575">
        <ele>1348.39</ele>
        <time>2014-02-09T10:52:17Z</time>
      </trkpt>
      <trkpt lat="45.65134" lon="5.99562">
        <ele>1349.83</ele>
        <time>2014-02-09T10:52:28Z</time>
      </trkpt>
      <trkpt lat="45.65143" lon="5.99551">
        <ele>1350.31</ele>
        <time>2014-02-09T10:52:38Z</time>
      </trkpt>
      <trkpt lat="45.65151" lon="5.99543">
        <ele>1351.27</ele>
        <time>2014-02-09T10:52:47Z</time>
      </trkpt>
      <trkpt lat="45.65157" lon="5.99539">
        <ele>1352.23</ele>
        <time>2014-02-09T10:52:51Z</time>
      </trkpt>
      <trkpt lat="45.65159" lon="5.99538">
        <ele>1351.75</ele>
        <time>2014-02-09T10:52:52Z</time>
      </trkpt>
      <trkpt lat="45.65173" lon="5.99533">
        <ele>1353.67</ele>
        <time>2014-02-09T10:53:01Z</time>
      </trkpt>
      <trkpt lat="45.65187" lon="5.9953">
        <ele>1355.12</ele>
        <time>2014-02-09T10:53:09Z</time>
      </trkpt>
      <trkpt lat="45.65189" lon="5.99529">
        <ele>1355.12</ele>
        <time>2014-02-09T10:53:10Z</time>
      </trkpt>
      <trkpt lat="45.65191" lon="5.99528">
        <ele>1355.12</ele>
        <time>2014-02-09T10:53:11Z</time>
      </trkpt>
      <trkpt lat="45.65194" lon="5.99525">
        <ele>1355.12</ele>
        <time>2014-02-09T10:53:13Z</time>
      </trkpt>
      <trkpt lat="45.65204" lon="5.99519">
        <ele>1355.12</ele>
        <time>2014-02-09T10:53:19Z</time>
      </trkpt>
      <trkpt lat="45.65212" lon="5.99515">
        <ele>1356.56</ele>
        <time>2014-02-09T10:53:24Z</time>
      </trkpt>
      <trkpt lat="45.65213" lon="5.99514">
        <ele>1356.56</ele>
        <time>2014-02-09T10:53:25Z</time>
      </trkpt>
      <trkpt lat="45.65215" lon="5.99513">
        <ele>1356.08</ele>
        <time>2014-02-09T10:53:26Z</time>
      </trkpt>
      <trkpt lat="45.65229" lon="5.99503">
        <ele>1357.04</ele>
        <time>2014-02-09T10:53:36Z</time>
      </trkpt>
      <trkpt lat="45.65232" lon="5.99502">
        <ele>1357.04</ele>
        <time>2014-02-09T10:53:37Z</time>
      </trkpt>
      <trkpt lat="45.65234" lon="5.99499">
        <ele>1357.52</ele>
        <time>2014-02-09T10:53:39Z</time>
      </trkpt>
      <trkpt lat="45.65236" lon="5.99498">
        <ele>1357.04</ele>
        <time>2014-02-09T10:53:40Z</time>
      </trkpt>
      <trkpt lat="45.65239" lon="5.99497">
        <ele>1357.04</ele>
        <time>2014-02-09T10:53:41Z</time>
      </trkpt>
      <trkpt lat="45.65241" lon="5.99496">
        <ele>1357.52</ele>
        <time>2014-02-09T10:53:42Z</time>
      </trkpt>
      <trkpt lat="45.65243" lon="5.99494">
        <ele>1357.04</ele>
        <time>2014-02-09T10:53:43Z</time>
      </trkpt>
      <trkpt lat="45.65246" lon="5.99493">
        <ele>1357.52</ele>
        <time>2014-02-09T10:53:45Z</time>
      </trkpt>
      <trkpt lat="45.65248" lon="5.99493">
        <ele>1357.04</ele>
        <time>2014-02-09T10:53:46Z</time>
      </trkpt>
      <trkpt lat="45.6525" lon="5.99492">
        <ele>1357.52</ele>
        <time>2014-02-09T10:53:47Z</time>
      </trkpt>
      <trkpt lat="45.65253" lon="5.99493">
        <ele>1357.52</ele>
        <time>2014-02-09T10:53:49Z</time>
      </trkpt>
      <trkpt lat="45.65255" lon="5.99494">
        <ele>1357.52</ele>
        <time>2014-02-09T10:53:50Z</time>
      </trkpt>
      <trkpt lat="45.65258" lon="5.99494">
        <ele>1358</ele>
        <time>2014-02-09T10:53:52Z</time>
      </trkpt>
      <trkpt lat="45.65262" lon="5.99494">
        <ele>1357.52</ele>
        <time>2014-02-09T10:53:54Z</time>
      </trkpt>
      <trkpt lat="45.65264" lon="5.99493">
        <ele>1358</ele>
        <time>2014-02-09T10:53:55Z</time>
      </trkpt>
      <trkpt lat="45.65267" lon="5.99493">
        <ele>1358</ele>
        <time>2014-02-09T10:53:56Z</time>
      </trkpt>
      <trkpt lat="45.65269" lon="5.99492">
        <ele>1358</ele>
        <time>2014-02-09T10:53:57Z</time>
      </trkpt>
      <trkpt lat="45.65271" lon="5.99491">
        <ele>1358</ele>
        <time>2014-02-09T10:53:58Z</time>
      </trkpt>
      <trkpt lat="45.65274" lon="5.9949">
        <ele>1358</ele>
        <time>2014-02-09T10:53:59Z</time>
      </trkpt>
      <trkpt lat="45.65276" lon="5.99489">
        <ele>1358</ele>
        <time>2014-02-09T10:54:00Z</time>
      </trkpt>
      <trkpt lat="45.65278" lon="5.99488">
        <ele>1358</ele>
        <time>2014-02-09T10:54:01Z</time>
      </trkpt>
      <trkpt lat="45.65281" lon="5.99487">
        <ele>1358</ele>
        <time>2014-02-09T10:54:02Z</time>
      </trkpt>
      <trkpt lat="45.65284" lon="5.99485">
        <ele>1358</ele>
        <time>2014-02-09T10:54:03Z</time>
      </trkpt>
      <trkpt lat="45.65287" lon="5.99484">
        <ele>1357.52</ele>
        <time>2014-02-09T10:54:04Z</time>
      </trkpt>
      <trkpt lat="45.6529" lon="5.99483">
        <ele>1358</ele>
        <time>2014-02-09T10:54:05Z</time>
      </trkpt>
      <trkpt lat="45.65292" lon="5.99483">
        <ele>1358</ele>
        <time>2014-02-09T10:54:06Z</time>
      </trkpt>
      <trkpt lat="45.65295" lon="5.99482">
        <ele>1358</ele>
        <time>2014-02-09T10:54:07Z</time>
      </trkpt>
      <trkpt lat="45.65297" lon="5.99481">
        <ele>1358</ele>
        <time>2014-02-09T10:54:08Z</time>
      </trkpt>
      <trkpt lat="45.653" lon="5.9948">
        <ele>1358.48</ele>
        <time>2014-02-09T10:54:09Z</time>
      </trkpt>
      <trkpt lat="45.65303" lon="5.99479">
        <ele>1358</ele>
        <time>2014-02-09T10:54:10Z</time>
      </trkpt>
      <trkpt lat="45.65305" lon="5.99479">
        <ele>1358.48</ele>
        <time>2014-02-09T10:54:11Z</time>
      </trkpt>
      <trkpt lat="45.65307" lon="5.99479">
        <ele>1358.48</ele>
        <time>2014-02-09T10:54:12Z</time>
      </trkpt>
      <trkpt lat="45.65309" lon="5.99479">
        <ele>1358.48</ele>
        <time>2014-02-09T10:54:13Z</time>
      </trkpt>
      <trkpt lat="45.65312" lon="5.99479">
        <ele>1358.96</ele>
        <time>2014-02-09T10:54:14Z</time>
      </trkpt>
      <trkpt lat="45.65315" lon="5.99479">
        <ele>1358.96</ele>
        <time>2014-02-09T10:54:15Z</time>
      </trkpt>
      <trkpt lat="45.6533" lon="5.9948">
        <ele>1359.92</ele>
        <time>2014-02-09T10:54:24Z</time>
      </trkpt>
      <trkpt lat="45.65342" lon="5.99475">
        <ele>1360.88</ele>
        <time>2014-02-09T10:54:33Z</time>
      </trkpt>
      <trkpt lat="45.65344" lon="5.99475">
        <ele>1360.4</ele>
        <time>2014-02-09T10:54:34Z</time>
      </trkpt>
      <trkpt lat="45.65346" lon="5.99474">
        <ele>1361.36</ele>
        <time>2014-02-09T10:54:35Z</time>
      </trkpt>
      <trkpt lat="45.65348" lon="5.99473">
        <ele>1361.36</ele>
        <time>2014-02-09T10:54:36Z</time>
      </trkpt>
      <trkpt lat="45.6535" lon="5.99472">
        <ele>1360.88</ele>
        <time>2014-02-09T10:54:37Z</time>
      </trkpt>
      <trkpt lat="45.65352" lon="5.99471">
        <ele>1361.84</ele>
        <time>2014-02-09T10:54:38Z</time>
      </trkpt>
      <trkpt lat="45.65354" lon="5.9947">
        <ele>1361.84</ele>
        <time>2014-02-09T10:54:39Z</time>
      </trkpt>
      <trkpt lat="45.65356" lon="5.99471">
        <ele>1361.84</ele>
        <time>2014-02-09T10:54:40Z</time>
      </trkpt>
      <trkpt lat="45.65358" lon="5.99471">
        <ele>1362.33</ele>
        <time>2014-02-09T10:54:41Z</time>
      </trkpt>
      <trkpt lat="45.6536" lon="5.99471">
        <ele>1361.84</ele>
        <time>2014-02-09T10:54:42Z</time>
      </trkpt>
      <trkpt lat="45.65362" lon="5.99472">
        <ele>1362.33</ele>
        <time>2014-02-09T10:54:43Z</time>
      </trkpt>
      <trkpt lat="45.65363" lon="5.99473">
        <ele>1362.33</ele>
        <time>2014-02-09T10:54:44Z</time>
      </trkpt>
      <trkpt lat="45.65364" lon="5.99475">
        <ele>1362.81</ele>
        <time>2014-02-09T10:54:45Z</time>
      </trkpt>
      <trkpt lat="45.65365" lon="5.99477">
        <ele>1363.29</ele>
        <time>2014-02-09T10:54:46Z</time>
      </trkpt>
      <trkpt lat="45.65366" lon="5.99479">
        <ele>1362.81</ele>
        <time>2014-02-09T10:54:47Z</time>
      </trkpt>
      <trkpt lat="45.65367" lon="5.9948">
        <ele>1362.81</ele>
        <time>2014-02-09T10:54:48Z</time>
      </trkpt>
      <trkpt lat="45.65368" lon="5.99482">
        <ele>1362.81</ele>
        <time>2014-02-09T10:54:49Z</time>
      </trkpt>
      <trkpt lat="45.65368" lon="5.99484">
        <ele>1362.81</ele>
        <time>2014-02-09T10:54:50Z</time>
      </trkpt>
      <trkpt lat="45.6537" lon="5.99485">
        <ele>1363.29</ele>
        <time>2014-02-09T10:54:51Z</time>
      </trkpt>
      <trkpt lat="45.65371" lon="5.99485">
        <ele>1363.29</ele>
        <time>2014-02-09T10:54:52Z</time>
      </trkpt>
      <trkpt lat="45.65373" lon="5.99485">
        <ele>1363.29</ele>
        <time>2014-02-09T10:54:53Z</time>
      </trkpt>
      <trkpt lat="45.65376" lon="5.99487">
        <ele>1363.77</ele>
        <time>2014-02-09T10:54:55Z</time>
      </trkpt>
      <trkpt lat="45.65377" lon="5.99488">
        <ele>1363.77</ele>
        <time>2014-02-09T10:54:56Z</time>
      </trkpt>
      <trkpt lat="45.65379" lon="5.99489">
        <ele>1363.77</ele>
        <time>2014-02-09T10:54:57Z</time>
      </trkpt>
      <trkpt lat="45.6538" lon="5.99491">
        <ele>1363.77</ele>
        <time>2014-02-09T10:54:58Z</time>
      </trkpt>
      <trkpt lat="45.65381" lon="5.99493">
        <ele>1363.77</ele>
        <time>2014-02-09T10:54:59Z</time>
      </trkpt>
      <trkpt lat="45.65381" lon="5.99495">
        <ele>1363.29</ele>
        <time>2014-02-09T10:55:00Z</time>
      </trkpt>
      <trkpt lat="45.65382" lon="5.995">
        <ele>1363.77</ele>
        <time>2014-02-09T10:55:15Z</time>
      </trkpt>
      <trkpt lat="45.65384" lon="5.99504">
        <ele>1363.77</ele>
        <time>2014-02-09T10:55:32Z</time>
      </trkpt>
      <trkpt lat="45.65386" lon="5.99503">
        <ele>1364.25</ele>
        <time>2014-02-09T10:55:55Z</time>
      </trkpt>
      <trkpt lat="45.65386" lon="5.99501">
        <ele>1364.73</ele>
        <time>2014-02-09T10:56:22Z</time>
      </trkpt>
      <trkpt lat="45.65387" lon="5.99504">
        <ele>1364.25</ele>
        <time>2014-02-09T10:56:28Z</time>
      </trkpt>
      <trkpt lat="45.65392" lon="5.9951">
        <ele>1364.25</ele>
        <time>2014-02-09T10:56:32Z</time>
      </trkpt>
      <trkpt lat="45.65393" lon="5.99512">
        <ele>1364.25</ele>
        <time>2014-02-09T10:56:33Z</time>
      </trkpt>
      <trkpt lat="45.65395" lon="5.99514">
        <ele>1363.77</ele>
        <time>2014-02-09T10:56:34Z</time>
      </trkpt>
      <trkpt lat="45.65396" lon="5.99517">
        <ele>1364.25</ele>
        <time>2014-02-09T10:56:35Z</time>
      </trkpt>
      <trkpt lat="45.65397" lon="5.99519">
        <ele>1364.25</ele>
        <time>2014-02-09T10:56:36Z</time>
      </trkpt>
      <trkpt lat="45.65398" lon="5.99522">
        <ele>1364.25</ele>
        <time>2014-02-09T10:56:37Z</time>
      </trkpt>
      <trkpt lat="45.654" lon="5.99524">
        <ele>1364.73</ele>
        <time>2014-02-09T10:56:38Z</time>
      </trkpt>
      <trkpt lat="45.65402" lon="5.99525">
        <ele>1363.77</ele>
        <time>2014-02-09T10:56:39Z</time>
      </trkpt>
      <trkpt lat="45.65403" lon="5.99528">
        <ele>1364.25</ele>
        <time>2014-02-09T10:56:40Z</time>
      </trkpt>
      <trkpt lat="45.65404" lon="5.9953">
        <ele>1364.25</ele>
        <time>2014-02-09T10:56:41Z</time>
      </trkpt>
      <trkpt lat="45.65419" lon="5.99567">
        <ele>1363.77</ele>
        <time>2014-02-09T10:56:52Z</time>
      </trkpt>
      <trkpt lat="45.65441" lon="5.99588">
        <ele>1362.33</ele>
        <time>2014-02-09T10:56:59Z</time>
      </trkpt>
      <trkpt lat="45.65445" lon="5.99591">
        <ele>1362.33</ele>
        <time>2014-02-09T10:57:00Z</time>
      </trkpt>
      <trkpt lat="45.65449" lon="5.99594">
        <ele>1361.84</ele>
        <time>2014-02-09T10:57:01Z</time>
      </trkpt>
      <trkpt lat="45.65455" lon="5.996">
        <ele>1361.36</ele>
        <time>2014-02-09T10:57:03Z</time>
      </trkpt>
      <trkpt lat="45.65493" lon="5.99635">
        <ele>1358.96</ele>
        <time>2014-02-09T10:57:15Z</time>
      </trkpt>
      <trkpt lat="45.65524" lon="5.99678">
        <ele>1358.96</ele>
        <time>2014-02-09T10:57:29Z</time>
      </trkpt>
      <trkpt lat="45.65541" lon="5.99722">
        <ele>1359.44</ele>
        <time>2014-02-09T10:57:41Z</time>
      </trkpt>
      <trkpt lat="45.65542" lon="5.99725">
        <ele>1358.96</ele>
        <time>2014-02-09T10:57:42Z</time>
      </trkpt>
      <trkpt lat="45.65544" lon="5.99728">
        <ele>1358.48</ele>
        <time>2014-02-09T10:57:43Z</time>
      </trkpt>
      <trkpt lat="45.65547" lon="5.9973">
        <ele>1358.96</ele>
        <time>2014-02-09T10:57:44Z</time>
      </trkpt>
      <trkpt lat="45.65548" lon="5.99733">
        <ele>1358.48</ele>
        <time>2014-02-09T10:57:45Z</time>
      </trkpt>
      <trkpt lat="45.6555" lon="5.99736">
        <ele>1358.48</ele>
        <time>2014-02-09T10:57:46Z</time>
      </trkpt>
      <trkpt lat="45.65552" lon="5.99739">
        <ele>1358.96</ele>
        <time>2014-02-09T10:57:47Z</time>
      </trkpt>
      <trkpt lat="45.65554" lon="5.99742">
        <ele>1358</ele>
        <time>2014-02-09T10:57:48Z</time>
      </trkpt>
      <trkpt lat="45.65556" lon="5.99745">
        <ele>1358</ele>
        <time>2014-02-09T10:57:49Z</time>
      </trkpt>
      <trkpt lat="45.65563" lon="5.99755">
        <ele>1358</ele>
        <time>2014-02-09T10:57:53Z</time>
      </trkpt>
      <trkpt lat="45.65565" lon="5.99758">
        <ele>1358</ele>
        <time>2014-02-09T10:57:54Z</time>
      </trkpt>
      <trkpt lat="45.65567" lon="5.9976">
        <ele>1358</ele>
        <time>2014-02-09T10:57:55Z</time>
      </trkpt>
      <trkpt lat="45.65569" lon="5.99764">
        <ele>1358.48</ele>
        <time>2014-02-09T10:57:56Z</time>
      </trkpt>
      <trkpt lat="45.6557" lon="5.99767">
        <ele>1358.48</ele>
        <time>2014-02-09T10:57:57Z</time>
      </trkpt>
      <trkpt lat="45.65572" lon="5.9977">
        <ele>1358.48</ele>
        <time>2014-02-09T10:57:58Z</time>
      </trkpt>
      <trkpt lat="45.65573" lon="5.99774">
        <ele>1358.48</ele>
        <time>2014-02-09T10:57:59Z</time>
      </trkpt>
      <trkpt lat="45.65575" lon="5.99777">
        <ele>1358</ele>
        <time>2014-02-09T10:58:00Z</time>
      </trkpt>
      <trkpt lat="45.65576" lon="5.99781">
        <ele>1358</ele>
        <time>2014-02-09T10:58:01Z</time>
      </trkpt>
      <trkpt lat="45.65594" lon="5.99813">
        <ele>1357.52</ele>
        <time>2014-02-09T10:58:10Z</time>
      </trkpt>
      <trkpt lat="45.65596" lon="5.99814">
        <ele>1357.04</ele>
        <time>2014-02-09T10:58:11Z</time>
      </trkpt>
      <trkpt lat="45.65598" lon="5.99816">
        <ele>1357.52</ele>
        <time>2014-02-09T10:58:12Z</time>
      </trkpt>
      <trkpt lat="45.656" lon="5.99818">
        <ele>1357.04</ele>
        <time>2014-02-09T10:58:13Z</time>
      </trkpt>
      <trkpt lat="45.65602" lon="5.99819">
        <ele>1357.52</ele>
        <time>2014-02-09T10:58:14Z</time>
      </trkpt>
      <trkpt lat="45.65603" lon="5.9982">
        <ele>1358</ele>
        <time>2014-02-09T10:58:15Z</time>
      </trkpt>
      <trkpt lat="45.65605" lon="5.99821">
        <ele>1358</ele>
        <time>2014-02-09T10:58:16Z</time>
      </trkpt>
      <trkpt lat="45.65607" lon="5.99823">
        <ele>1358.48</ele>
        <time>2014-02-09T10:58:17Z</time>
      </trkpt>
      <trkpt lat="45.65608" lon="5.99825">
        <ele>1358.96</ele>
        <time>2014-02-09T10:58:18Z</time>
      </trkpt>
      <trkpt lat="45.6561" lon="5.99826">
        <ele>1358.48</ele>
        <time>2014-02-09T10:58:19Z</time>
      </trkpt>
      <trkpt lat="45.65612" lon="5.99828">
        <ele>1358.96</ele>
        <time>2014-02-09T10:58:20Z</time>
      </trkpt>
      <trkpt lat="45.65613" lon="5.99829">
        <ele>1359.44</ele>
        <time>2014-02-09T10:58:21Z</time>
      </trkpt>
      <trkpt lat="45.65615" lon="5.99831">
        <ele>1358.96</ele>
        <time>2014-02-09T10:58:22Z</time>
      </trkpt>
      <trkpt lat="45.65619" lon="5.99834">
        <ele>1358.96</ele>
        <time>2014-02-09T10:58:24Z</time>
      </trkpt>
      <trkpt lat="45.65627" lon="5.99848">
        <ele>1359.44</ele>
        <time>2014-02-09T10:58:37Z</time>
      </trkpt>
      <trkpt lat="45.65628" lon="5.9985">
        <ele>1359.44</ele>
        <time>2014-02-09T10:58:39Z</time>
      </trkpt>
      <trkpt lat="45.65629" lon="5.99851">
        <ele>1358.96</ele>
        <time>2014-02-09T10:58:40Z</time>
      </trkpt>
      <trkpt lat="45.6563" lon="5.99853">
        <ele>1359.44</ele>
        <time>2014-02-09T10:58:41Z</time>
      </trkpt>
      <trkpt lat="45.65631" lon="5.99854">
        <ele>1358.96</ele>
        <time>2014-02-09T10:58:42Z</time>
      </trkpt>
      <trkpt lat="45.65632" lon="5.99857">
        <ele>1358.96</ele>
        <time>2014-02-09T10:58:43Z</time>
      </trkpt>
      <trkpt lat="45.65633" lon="5.99859">
        <ele>1358.96</ele>
        <time>2014-02-09T10:58:44Z</time>
      </trkpt>
      <trkpt lat="45.65635" lon="5.99861">
        <ele>1358.96</ele>
        <time>2014-02-09T10:58:45Z</time>
      </trkpt>
      <trkpt lat="45.65636" lon="5.99863">
        <ele>1358.96</ele>
        <time>2014-02-09T10:58:46Z</time>
      </trkpt>
      <trkpt lat="45.65654" lon="5.999">
        <ele>1358</ele>
        <time>2014-02-09T10:59:03Z</time>
      </trkpt>
      <trkpt lat="45.65656" lon="5.99907">
        <ele>1358.48</ele>
        <time>2014-02-09T10:59:14Z</time>
      </trkpt>
      <trkpt lat="45.65657" lon="5.99908">
        <ele>1358.48</ele>
        <time>2014-02-09T10:59:15Z</time>
      </trkpt>
      <trkpt lat="45.65659" lon="5.9991">
        <ele>1358.48</ele>
        <time>2014-02-09T10:59:16Z</time>
      </trkpt>
      <trkpt lat="45.6566" lon="5.99912">
        <ele>1358.48</ele>
        <time>2014-02-09T10:59:17Z</time>
      </trkpt>
      <trkpt lat="45.65661" lon="5.99914">
        <ele>1358.96</ele>
        <time>2014-02-09T10:59:18Z</time>
      </trkpt>
      <trkpt lat="45.65664" lon="5.99918">
        <ele>1358.96</ele>
        <time>2014-02-09T10:59:20Z</time>
      </trkpt>
      <trkpt lat="45.65665" lon="5.9992">
        <ele>1358.96</ele>
        <time>2014-02-09T10:59:21Z</time>
      </trkpt>
      <trkpt lat="45.65667" lon="5.99923">
        <ele>1358.96</ele>
        <time>2014-02-09T10:59:22Z</time>
      </trkpt>
      <trkpt lat="45.65668" lon="5.99925">
        <ele>1358.96</ele>
        <time>2014-02-09T10:59:23Z</time>
      </trkpt>
      <trkpt lat="45.6567" lon="5.99927">
        <ele>1358.48</ele>
        <time>2014-02-09T10:59:24Z</time>
      </trkpt>
      <trkpt lat="45.65671" lon="5.99929">
        <ele>1358.96</ele>
        <time>2014-02-09T10:59:25Z</time>
      </trkpt>
      <trkpt lat="45.65673" lon="5.99932">
        <ele>1358.48</ele>
        <time>2014-02-09T10:59:26Z</time>
      </trkpt>
      <trkpt lat="45.65674" lon="5.99934">
        <ele>1358.96</ele>
        <time>2014-02-09T10:59:27Z</time>
      </trkpt>
      <trkpt lat="45.65676" lon="5.99937">
        <ele>1358.96</ele>
        <time>2014-02-09T10:59:28Z</time>
      </trkpt>
      <trkpt lat="45.65678" lon="5.9994">
        <ele>1358.48</ele>
        <time>2014-02-09T10:59:29Z</time>
      </trkpt>
      <trkpt lat="45.6568" lon="5.99943">
        <ele>1358.96</ele>
        <time>2014-02-09T10:59:30Z</time>
      </trkpt>
      <trkpt lat="45.65682" lon="5.99945">
        <ele>1358.96</ele>
        <time>2014-02-09T10:59:31Z</time>
      </trkpt>
      <trkpt lat="45.65683" lon="5.99948">
        <ele>1358.48</ele>
        <time>2014-02-09T10:59:32Z</time>
      </trkpt>
      <trkpt lat="45.65685" lon="5.99951">
        <ele>1358.96</ele>
        <time>2014-02-09T10:59:33Z</time>
      </trkpt>
      <trkpt lat="45.65687" lon="5.99954">
        <ele>1358.48</ele>
        <time>2014-02-09T10:59:34Z</time>
      </trkpt>
      <trkpt lat="45.65689" lon="5.99957">
        <ele>1358.48</ele>
        <time>2014-02-09T10:59:35Z</time>
      </trkpt>
      <trkpt lat="45.6569" lon="5.9996">
        <ele>1358.48</ele>
        <time>2014-02-09T10:59:36Z</time>
      </trkpt>
      <trkpt lat="45.65692" lon="5.99963">
        <ele>1358</ele>
        <time>2014-02-09T10:59:37Z</time>
      </trkpt>
      <trkpt lat="45.65694" lon="5.99966">
        <ele>1358</ele>
        <time>2014-02-09T10:59:38Z</time>
      </trkpt>
      <trkpt lat="45.65696" lon="5.99969">
        <ele>1358.48</ele>
        <time>2014-02-09T10:59:39Z</time>
      </trkpt>
      <trkpt lat="45.65698" lon="5.99972">
        <ele>1358</ele>
        <time>2014-02-09T10:59:40Z</time>
      </trkpt>
      <trkpt lat="45.657" lon="5.99975">
        <ele>1358</ele>
        <time>2014-02-09T10:59:41Z</time>
      </trkpt>
      <trkpt lat="45.65714" lon="5.99998">
        <ele>1358</ele>
        <time>2014-02-09T10:59:48Z</time>
      </trkpt>
      <trkpt lat="45.65716" lon="6">
        <ele>1358</ele>
        <time>2014-02-09T10:59:49Z</time>
      </trkpt>
      <trkpt lat="45.65717" lon="6.00003">
        <ele>1358.48</ele>
        <time>2014-02-09T10:59:50Z</time>
      </trkpt>
      <trkpt lat="45.65719" lon="6.00006">
        <ele>1358.48</ele>
        <time>2014-02-09T10:59:51Z</time>
      </trkpt>
      <trkpt lat="45.65721" lon="6.00008">
        <ele>1358.48</ele>
        <time>2014-02-09T10:59:52Z</time>
      </trkpt>
      <trkpt lat="45.65722" lon="6.00011">
        <ele>1358.96</ele>
        <time>2014-02-09T10:59:53Z</time>
      </trkpt>
      <trkpt lat="45.65724" lon="6.00014">
        <ele>1358.96</ele>
        <time>2014-02-09T10:59:54Z</time>
      </trkpt>
      <trkpt lat="45.65725" lon="6.00017">
        <ele>1358.96</ele>
        <time>2014-02-09T10:59:55Z</time>
      </trkpt>
      <trkpt lat="45.65727" lon="6.0002">
        <ele>1358.96</ele>
        <time>2014-02-09T10:59:56Z</time>
      </trkpt>
      <trkpt lat="45.65728" lon="6.00023">
        <ele>1358.96</ele>
        <time>2014-02-09T10:59:57Z</time>
      </trkpt>
      <trkpt lat="45.65736" lon="6.00048">
        <ele>1358.96</ele>
        <time>2014-02-09T11:00:05Z</time>
      </trkpt>
      <trkpt lat="45.65737" lon="6.0005">
        <ele>1358.96</ele>
        <time>2014-02-09T11:00:06Z</time>
      </trkpt>
      <trkpt lat="45.65737" lon="6.00053">
        <ele>1358.96</ele>
        <time>2014-02-09T11:00:07Z</time>
      </trkpt>
      <trkpt lat="45.65737" lon="6.00055">
        <ele>1358.96</ele>
        <time>2014-02-09T11:00:08Z</time>
      </trkpt>
      <trkpt lat="45.65738" lon="6.00057">
        <ele>1359.44</ele>
        <time>2014-02-09T11:00:09Z</time>
      </trkpt>
      <trkpt lat="45.65739" lon="6.00059">
        <ele>1359.92</ele>
        <time>2014-02-09T11:00:10Z</time>
      </trkpt>
      <trkpt lat="45.65739" lon="6.00061">
        <ele>1359.92</ele>
        <time>2014-02-09T11:00:11Z</time>
      </trkpt>
      <trkpt lat="45.65739" lon="6.00063">
        <ele>1360.4</ele>
        <time>2014-02-09T11:00:12Z</time>
      </trkpt>
      <trkpt lat="45.65739" lon="6.00065">
        <ele>1360.4</ele>
        <time>2014-02-09T11:00:13Z</time>
      </trkpt>
      <trkpt lat="45.6574" lon="6.00066">
        <ele>1360.4</ele>
        <time>2014-02-09T11:00:14Z</time>
      </trkpt>
      <trkpt lat="45.65742" lon="6.00074">
        <ele>1361.36</ele>
        <time>2014-02-09T11:00:19Z</time>
      </trkpt>
      <trkpt lat="45.65742" lon="6.00076">
        <ele>1361.36</ele>
        <time>2014-02-09T11:00:20Z</time>
      </trkpt>
      <trkpt lat="45.65743" lon="6.00078">
        <ele>1362.33</ele>
        <time>2014-02-09T11:00:21Z</time>
      </trkpt>
      <trkpt lat="45.65743" lon="6.00081">
        <ele>1361.84</ele>
        <time>2014-02-09T11:00:22Z</time>
      </trkpt>
      <trkpt lat="45.65743" lon="6.00083">
        <ele>1361.84</ele>
        <time>2014-02-09T11:00:23Z</time>
      </trkpt>
      <trkpt lat="45.65743" lon="6.00086">
        <ele>1361.84</ele>
        <time>2014-02-09T11:00:24Z</time>
      </trkpt>
      <trkpt lat="45.65744" lon="6.00088">
        <ele>1361.84</ele>
        <time>2014-02-09T11:00:25Z</time>
      </trkpt>
      <trkpt lat="45.65745" lon="6.0009">
        <ele>1362.33</ele>
        <time>2014-02-09T11:00:26Z</time>
      </trkpt>
      <trkpt lat="45.65746" lon="6.00093">
        <ele>1362.33</ele>
        <time>2014-02-09T11:00:27Z</time>
      </trkpt>
      <trkpt lat="45.65747" lon="6.00095">
        <ele>1361.84</ele>
        <time>2014-02-09T11:00:28Z</time>
      </trkpt>
      <trkpt lat="45.65748" lon="6.00098">
        <ele>1362.33</ele>
        <time>2014-02-09T11:00:29Z</time>
      </trkpt>
      <trkpt lat="45.65749" lon="6.00101">
        <ele>1361.84</ele>
        <time>2014-02-09T11:00:30Z</time>
      </trkpt>
      <trkpt lat="45.6575" lon="6.00103">
        <ele>1361.84</ele>
        <time>2014-02-09T11:00:31Z</time>
      </trkpt>
      <trkpt lat="45.6575" lon="6.00106">
        <ele>1361.84</ele>
        <time>2014-02-09T11:00:32Z</time>
      </trkpt>
      <trkpt lat="45.65751" lon="6.00109">
        <ele>1361.84</ele>
        <time>2014-02-09T11:00:33Z</time>
      </trkpt>
      <trkpt lat="45.65751" lon="6.00112">
        <ele>1362.33</ele>
        <time>2014-02-09T11:00:34Z</time>
      </trkpt>
      <trkpt lat="45.65751" lon="6.00115">
        <ele>1362.33</ele>
        <time>2014-02-09T11:00:35Z</time>
      </trkpt>
      <trkpt lat="45.65752" lon="6.00117">
        <ele>1363.29</ele>
        <time>2014-02-09T11:00:36Z</time>
      </trkpt>
      <trkpt lat="45.65752" lon="6.00119">
        <ele>1363.29</ele>
        <time>2014-02-09T11:00:37Z</time>
      </trkpt>
      <trkpt lat="45.65753" lon="6.0012">
        <ele>1362.81</ele>
        <time>2014-02-09T11:00:38Z</time>
      </trkpt>
      <trkpt lat="45.65754" lon="6.00123">
        <ele>1362.81</ele>
        <time>2014-02-09T11:00:39Z</time>
      </trkpt>
      <trkpt lat="45.65754" lon="6.00125">
        <ele>1363.29</ele>
        <time>2014-02-09T11:00:40Z</time>
      </trkpt>
      <trkpt lat="45.65755" lon="6.00127">
        <ele>1363.29</ele>
        <time>2014-02-09T11:00:41Z</time>
      </trkpt>
      <trkpt lat="45.65756" lon="6.00128">
        <ele>1363.77</ele>
        <time>2014-02-09T11:00:42Z</time>
      </trkpt>
      <trkpt lat="45.65757" lon="6.0013">
        <ele>1363.77</ele>
        <time>2014-02-09T11:00:43Z</time>
      </trkpt>
      <trkpt lat="45.65758" lon="6.00132">
        <ele>1364.25</ele>
        <time>2014-02-09T11:00:44Z</time>
      </trkpt>
      <trkpt lat="45.65758" lon="6.00134">
        <ele>1363.77</ele>
        <time>2014-02-09T11:00:45Z</time>
      </trkpt>
      <trkpt lat="45.65759" lon="6.00135">
        <ele>1364.25</ele>
        <time>2014-02-09T11:00:46Z</time>
      </trkpt>
      <trkpt lat="45.6576" lon="6.00137">
        <ele>1364.73</ele>
        <time>2014-02-09T11:00:47Z</time>
      </trkpt>
      <trkpt lat="45.6576" lon="6.00138">
        <ele>1364.73</ele>
        <time>2014-02-09T11:00:48Z</time>
      </trkpt>
      <trkpt lat="45.65761" lon="6.00139">
        <ele>1365.21</ele>
        <time>2014-02-09T11:00:49Z</time>
      </trkpt>
      <trkpt lat="45.65763" lon="6.0014">
        <ele>1365.21</ele>
        <time>2014-02-09T11:00:50Z</time>
      </trkpt>
      <trkpt lat="45.65763" lon="6.00142">
        <ele>1365.69</ele>
        <time>2014-02-09T11:00:51Z</time>
      </trkpt>
      <trkpt lat="45.65764" lon="6.00143">
        <ele>1365.69</ele>
        <time>2014-02-09T11:00:52Z</time>
      </trkpt>
      <trkpt lat="45.65765" lon="6.00144">
        <ele>1366.17</ele>
        <time>2014-02-09T11:00:53Z</time>
      </trkpt>
      <trkpt lat="45.65766" lon="6.00144">
        <ele>1366.65</ele>
        <time>2014-02-09T11:00:54Z</time>
      </trkpt>
      <trkpt lat="45.65767" lon="6.00146">
        <ele>1367.13</ele>
        <time>2014-02-09T11:00:55Z</time>
      </trkpt>
      <trkpt lat="45.65768" lon="6.00148">
        <ele>1366.17</ele>
        <time>2014-02-09T11:00:56Z</time>
      </trkpt>
      <trkpt lat="45.65769" lon="6.00149">
        <ele>1367.13</ele>
        <time>2014-02-09T11:00:57Z</time>
      </trkpt>
      <trkpt lat="45.6577" lon="6.00149">
        <ele>1367.13</ele>
        <time>2014-02-09T11:00:58Z</time>
      </trkpt>
      <trkpt lat="45.65771" lon="6.0015">
        <ele>1367.61</ele>
        <time>2014-02-09T11:00:59Z</time>
      </trkpt>
      <trkpt lat="45.65772" lon="6.00151">
        <ele>1368.09</ele>
        <time>2014-02-09T11:01:00Z</time>
      </trkpt>
      <trkpt lat="45.65773" lon="6.00152">
        <ele>1367.61</ele>
        <time>2014-02-09T11:01:01Z</time>
      </trkpt>
      <trkpt lat="45.65775" lon="6.00155">
        <ele>1367.61</ele>
        <time>2014-02-09T11:01:14Z</time>
      </trkpt>
      <trkpt lat="45.65775" lon="6.00155">
        <ele>1368.09</ele>
        <time>2014-02-09T11:01:36Z</time>
      </trkpt>
      <trkpt lat="45.65773" lon="6.00153">
        <ele>1368.09</ele>
        <time>2014-02-09T11:01:59Z</time>
      </trkpt>
      <trkpt lat="45.65774" lon="6.00153">
        <ele>1368.57</ele>
        <time>2014-02-09T11:02:24Z</time>
      </trkpt>
      <trkpt lat="45.65775" lon="6.00154">
        <ele>1368.09</ele>
        <time>2014-02-09T11:02:46Z</time>
      </trkpt>
      <trkpt lat="45.65777" lon="6.00156">
        <ele>1368.57</ele>
        <time>2014-02-09T11:02:47Z</time>
      </trkpt>
      <trkpt lat="45.65778" lon="6.00158">
        <ele>1368.57</ele>
        <time>2014-02-09T11:02:48Z</time>
      </trkpt>
      <trkpt lat="45.6578" lon="6.0016">
        <ele>1368.09</ele>
        <time>2014-02-09T11:02:49Z</time>
      </trkpt>
      <trkpt lat="45.65783" lon="6.00162">
        <ele>1368.09</ele>
        <time>2014-02-09T11:02:50Z</time>
      </trkpt>
      <trkpt lat="45.65785" lon="6.00164">
        <ele>1368.09</ele>
        <time>2014-02-09T11:02:51Z</time>
      </trkpt>
      <trkpt lat="45.65787" lon="6.00166">
        <ele>1367.61</ele>
        <time>2014-02-09T11:02:52Z</time>
      </trkpt>
      <trkpt lat="45.65789" lon="6.00169">
        <ele>1368.57</ele>
        <time>2014-02-09T11:02:53Z</time>
      </trkpt>
      <trkpt lat="45.65791" lon="6.00172">
        <ele>1367.61</ele>
        <time>2014-02-09T11:02:54Z</time>
      </trkpt>
      <trkpt lat="45.65793" lon="6.00174">
        <ele>1368.09</ele>
        <time>2014-02-09T11:02:55Z</time>
      </trkpt>
      <trkpt lat="45.65795" lon="6.00177">
        <ele>1367.61</ele>
        <time>2014-02-09T11:02:56Z</time>
      </trkpt>
      <trkpt lat="45.65797" lon="6.0018">
        <ele>1368.09</ele>
        <time>2014-02-09T11:02:57Z</time>
      </trkpt>
      <trkpt lat="45.65798" lon="6.00183">
        <ele>1368.09</ele>
        <time>2014-02-09T11:02:58Z</time>
      </trkpt>
      <trkpt lat="45.658" lon="6.00185">
        <ele>1368.57</ele>
        <time>2014-02-09T11:02:59Z</time>
      </trkpt>
      <trkpt lat="45.65802" lon="6.00188">
        <ele>1368.57</ele>
        <time>2014-02-09T11:03:00Z</time>
      </trkpt>
      <trkpt lat="45.65821" lon="6.00216">
        <ele>1369.05</ele>
        <time>2014-02-09T11:03:10Z</time>
      </trkpt>
      <trkpt lat="45.65828" lon="6.00226">
        <ele>1368.57</ele>
        <time>2014-02-09T11:03:13Z</time>
      </trkpt>
      <trkpt lat="45.65831" lon="6.00229">
        <ele>1368.57</ele>
        <time>2014-02-09T11:03:14Z</time>
      </trkpt>
      <trkpt lat="45.65833" lon="6.00231">
        <ele>1368.09</ele>
        <time>2014-02-09T11:03:15Z</time>
      </trkpt>
      <trkpt lat="45.65836" lon="6.00233">
        <ele>1368.57</ele>
        <time>2014-02-09T11:03:16Z</time>
      </trkpt>
      <trkpt lat="45.65838" lon="6.00235">
        <ele>1368.09</ele>
        <time>2014-02-09T11:03:17Z</time>
      </trkpt>
      <trkpt lat="45.65841" lon="6.00236">
        <ele>1368.57</ele>
        <time>2014-02-09T11:03:18Z</time>
      </trkpt>
      <trkpt lat="45.65843" lon="6.00237">
        <ele>1369.05</ele>
        <time>2014-02-09T11:03:19Z</time>
      </trkpt>
      <trkpt lat="45.65846" lon="6.00239">
        <ele>1368.57</ele>
        <time>2014-02-09T11:03:20Z</time>
      </trkpt>
      <trkpt lat="45.65848" lon="6.0024">
        <ele>1368.57</ele>
        <time>2014-02-09T11:03:21Z</time>
      </trkpt>
      <trkpt lat="45.65849" lon="6.00241">
        <ele>1369.05</ele>
        <time>2014-02-09T11:03:22Z</time>
      </trkpt>
      <trkpt lat="45.65866" lon="6.00252">
        <ele>1370.02</ele>
        <time>2014-02-09T11:03:31Z</time>
      </trkpt>
      <trkpt lat="45.65868" lon="6.00253">
        <ele>1370.5</ele>
        <time>2014-02-09T11:03:32Z</time>
      </trkpt>
      <trkpt lat="45.65869" lon="6.00254">
        <ele>1370.5</ele>
        <time>2014-02-09T11:03:33Z</time>
      </trkpt>
      <trkpt lat="45.6587" lon="6.00256">
        <ele>1370.5</ele>
        <time>2014-02-09T11:03:34Z</time>
      </trkpt>
      <trkpt lat="45.65872" lon="6.00257">
        <ele>1370.98</ele>
        <time>2014-02-09T11:03:35Z</time>
      </trkpt>
      <trkpt lat="45.65873" lon="6.00259">
        <ele>1370.98</ele>
        <time>2014-02-09T11:03:36Z</time>
      </trkpt>
      <trkpt lat="45.65875" lon="6.00261">
        <ele>1370.5</ele>
        <time>2014-02-09T11:03:37Z</time>
      </trkpt>
      <trkpt lat="45.65876" lon="6.00263">
        <ele>1370.98</ele>
        <time>2014-02-09T11:03:38Z</time>
      </trkpt>
      <trkpt lat="45.65878" lon="6.00265">
        <ele>1370.98</ele>
        <time>2014-02-09T11:03:39Z</time>
      </trkpt>
      <trkpt lat="45.6588" lon="6.00268">
        <ele>1370.98</ele>
        <time>2014-02-09T11:03:40Z</time>
      </trkpt>
      <trkpt lat="45.65881" lon="6.00271">
        <ele>1371.46</ele>
        <time>2014-02-09T11:03:41Z</time>
      </trkpt>
      <trkpt lat="45.65893" lon="6.0029">
        <ele>1370.5</ele>
        <time>2014-02-09T11:03:47Z</time>
      </trkpt>
      <trkpt lat="45.65899" lon="6.00296">
        <ele>1371.94</ele>
        <time>2014-02-09T11:03:52Z</time>
      </trkpt>
      <trkpt lat="45.65901" lon="6.00297">
        <ele>1372.42</ele>
        <time>2014-02-09T11:03:53Z</time>
      </trkpt>
      <trkpt lat="45.65902" lon="6.00298">
        <ele>1372.42</ele>
        <time>2014-02-09T11:03:54Z</time>
      </trkpt>
      <trkpt lat="45.65906" lon="6.00301">
        <ele>1372.9</ele>
        <time>2014-02-09T11:03:57Z</time>
      </trkpt>
      <trkpt lat="45.65906" lon="6.00303">
        <ele>1373.38</ele>
        <time>2014-02-09T11:03:58Z</time>
      </trkpt>
      <trkpt lat="45.65907" lon="6.00304">
        <ele>1373.38</ele>
        <time>2014-02-09T11:03:59Z</time>
      </trkpt>
      <trkpt lat="45.65908" lon="6.00305">
        <ele>1373.38</ele>
        <time>2014-02-09T11:04:00Z</time>
      </trkpt>
      <trkpt lat="45.6591" lon="6.00306">
        <ele>1373.38</ele>
        <time>2014-02-09T11:04:01Z</time>
      </trkpt>
      <trkpt lat="45.65911" lon="6.00307">
        <ele>1373.38</ele>
        <time>2014-02-09T11:04:02Z</time>
      </trkpt>
      <trkpt lat="45.65914" lon="6.0031">
        <ele>1373.86</ele>
        <time>2014-02-09T11:04:04Z</time>
      </trkpt>
      <trkpt lat="45.65915" lon="6.00312">
        <ele>1373.38</ele>
        <time>2014-02-09T11:04:05Z</time>
      </trkpt>
      <trkpt lat="45.65916" lon="6.00314">
        <ele>1374.34</ele>
        <time>2014-02-09T11:04:06Z</time>
      </trkpt>
      <trkpt lat="45.65917" lon="6.00316">
        <ele>1374.82</ele>
        <time>2014-02-09T11:04:07Z</time>
      </trkpt>
      <trkpt lat="45.65919" lon="6.00318">
        <ele>1374.82</ele>
        <time>2014-02-09T11:04:08Z</time>
      </trkpt>
      <trkpt lat="45.6592" lon="6.00319">
        <ele>1374.34</ele>
        <time>2014-02-09T11:04:09Z</time>
      </trkpt>
      <trkpt lat="45.65922" lon="6.00321">
        <ele>1374.82</ele>
        <time>2014-02-09T11:04:10Z</time>
      </trkpt>
      <trkpt lat="45.65923" lon="6.00323">
        <ele>1374.34</ele>
        <time>2014-02-09T11:04:11Z</time>
      </trkpt>
      <trkpt lat="45.65925" lon="6.00324">
        <ele>1374.82</ele>
        <time>2014-02-09T11:04:12Z</time>
      </trkpt>
      <trkpt lat="45.65926" lon="6.00326">
        <ele>1374.82</ele>
        <time>2014-02-09T11:04:13Z</time>
      </trkpt>
      <trkpt lat="45.65928" lon="6.00331">
        <ele>1374.34</ele>
        <time>2014-02-09T11:04:15Z</time>
      </trkpt>
      <trkpt lat="45.65929" lon="6.00334">
        <ele>1374.82</ele>
        <time>2014-02-09T11:04:16Z</time>
      </trkpt>
      <trkpt lat="45.6593" lon="6.00336">
        <ele>1374.82</ele>
        <time>2014-02-09T11:04:17Z</time>
      </trkpt>
      <trkpt lat="45.65931" lon="6.00339">
        <ele>1374.82</ele>
        <time>2014-02-09T11:04:18Z</time>
      </trkpt>
      <trkpt lat="45.65932" lon="6.00341">
        <ele>1375.3</ele>
        <time>2014-02-09T11:04:19Z</time>
      </trkpt>
      <trkpt lat="45.65933" lon="6.00344">
        <ele>1374.82</ele>
        <time>2014-02-09T11:04:20Z</time>
      </trkpt>
      <trkpt lat="45.65934" lon="6.00346">
        <ele>1374.82</ele>
        <time>2014-02-09T11:04:21Z</time>
      </trkpt>
      <trkpt lat="45.65935" lon="6.00348">
        <ele>1375.3</ele>
        <time>2014-02-09T11:04:22Z</time>
      </trkpt>
      <trkpt lat="45.65935" lon="6.0035">
        <ele>1375.3</ele>
        <time>2014-02-09T11:04:23Z</time>
      </trkpt>
      <trkpt lat="45.65936" lon="6.00352">
        <ele>1374.82</ele>
        <time>2014-02-09T11:04:24Z</time>
      </trkpt>
      <trkpt lat="45.65936" lon="6.00354">
        <ele>1375.3</ele>
        <time>2014-02-09T11:04:25Z</time>
      </trkpt>
      <trkpt lat="45.65937" lon="6.00356">
        <ele>1375.78</ele>
        <time>2014-02-09T11:04:26Z</time>
      </trkpt>
      <trkpt lat="45.65937" lon="6.00359">
        <ele>1375.78</ele>
        <time>2014-02-09T11:04:27Z</time>
      </trkpt>
      <trkpt lat="45.65937" lon="6.00361">
        <ele>1375.3</ele>
        <time>2014-02-09T11:04:28Z</time>
      </trkpt>
      <trkpt lat="45.65939" lon="6.00363">
        <ele>1375.3</ele>
        <time>2014-02-09T11:04:29Z</time>
      </trkpt>
      <trkpt lat="45.6594" lon="6.00365">
        <ele>1375.78</ele>
        <time>2014-02-09T11:04:30Z</time>
      </trkpt>
      <trkpt lat="45.65941" lon="6.00367">
        <ele>1376.26</ele>
        <time>2014-02-09T11:04:31Z</time>
      </trkpt>
      <trkpt lat="45.65942" lon="6.00369">
        <ele>1376.26</ele>
        <time>2014-02-09T11:04:32Z</time>
      </trkpt>
      <trkpt lat="45.65943" lon="6.00371">
        <ele>1376.75</ele>
        <time>2014-02-09T11:04:33Z</time>
      </trkpt>
      <trkpt lat="45.65945" lon="6.00374">
        <ele>1376.75</ele>
        <time>2014-02-09T11:04:34Z</time>
      </trkpt>
      <trkpt lat="45.65946" lon="6.00377">
        <ele>1376.75</ele>
        <time>2014-02-09T11:04:35Z</time>
      </trkpt>
      <trkpt lat="45.65947" lon="6.00379">
        <ele>1376.26</ele>
        <time>2014-02-09T11:04:36Z</time>
      </trkpt>
      <trkpt lat="45.65948" lon="6.00381">
        <ele>1376.75</ele>
        <time>2014-02-09T11:04:37Z</time>
      </trkpt>
      <trkpt lat="45.6595" lon="6.00383">
        <ele>1376.75</ele>
        <time>2014-02-09T11:04:38Z</time>
      </trkpt>
      <trkpt lat="45.65952" lon="6.00385">
        <ele>1376.26</ele>
        <time>2014-02-09T11:04:39Z</time>
      </trkpt>
      <trkpt lat="45.65954" lon="6.00386">
        <ele>1376.75</ele>
        <time>2014-02-09T11:04:40Z</time>
      </trkpt>
      <trkpt lat="45.65955" lon="6.00388">
        <ele>1377.23</ele>
        <time>2014-02-09T11:04:41Z</time>
      </trkpt>
      <trkpt lat="45.65956" lon="6.00389">
        <ele>1377.23</ele>
        <time>2014-02-09T11:04:42Z</time>
      </trkpt>
      <trkpt lat="45.65958" lon="6.0039">
        <ele>1376.75</ele>
        <time>2014-02-09T11:04:43Z</time>
      </trkpt>
      <trkpt lat="45.6596" lon="6.00391">
        <ele>1377.71</ele>
        <time>2014-02-09T11:04:44Z</time>
      </trkpt>
      <trkpt lat="45.65961" lon="6.00392">
        <ele>1377.71</ele>
        <time>2014-02-09T11:04:45Z</time>
      </trkpt>
      <trkpt lat="45.65962" lon="6.00393">
        <ele>1378.19</ele>
        <time>2014-02-09T11:04:46Z</time>
      </trkpt>
      <trkpt lat="45.65966" lon="6.00398">
        <ele>1378.19</ele>
        <time>2014-02-09T11:04:49Z</time>
      </trkpt>
      <trkpt lat="45.65967" lon="6.00399">
        <ele>1378.19</ele>
        <time>2014-02-09T11:04:50Z</time>
      </trkpt>
      <trkpt lat="45.65969" lon="6.00401">
        <ele>1378.67</ele>
        <time>2014-02-09T11:04:51Z</time>
      </trkpt>
      <trkpt lat="45.6597" lon="6.00403">
        <ele>1378.19</ele>
        <time>2014-02-09T11:04:52Z</time>
      </trkpt>
      <trkpt lat="45.65972" lon="6.00405">
        <ele>1378.19</ele>
        <time>2014-02-09T11:04:53Z</time>
      </trkpt>
      <trkpt lat="45.6599" lon="6.0043">
        <ele>1377.23</ele>
        <time>2014-02-09T11:05:03Z</time>
      </trkpt>
      <trkpt lat="45.65992" lon="6.00433">
        <ele>1377.23</ele>
        <time>2014-02-09T11:05:04Z</time>
      </trkpt>
      <trkpt lat="45.65994" lon="6.00435">
        <ele>1377.23</ele>
        <time>2014-02-09T11:05:05Z</time>
      </trkpt>
      <trkpt lat="45.65996" lon="6.00438">
        <ele>1376.75</ele>
        <time>2014-02-09T11:05:06Z</time>
      </trkpt>
      <trkpt lat="45.65998" lon="6.0044">
        <ele>1377.23</ele>
        <time>2014-02-09T11:05:07Z</time>
      </trkpt>
      <trkpt lat="45.65999" lon="6.00442">
        <ele>1377.23</ele>
        <time>2014-02-09T11:05:08Z</time>
      </trkpt>
      <trkpt lat="45.66001" lon="6.00444">
        <ele>1377.23</ele>
        <time>2014-02-09T11:05:09Z</time>
      </trkpt>
      <trkpt lat="45.66003" lon="6.00446">
        <ele>1377.23</ele>
        <time>2014-02-09T11:05:10Z</time>
      </trkpt>
      <trkpt lat="45.66005" lon="6.00448">
        <ele>1377.71</ele>
        <time>2014-02-09T11:05:11Z</time>
      </trkpt>
      <trkpt lat="45.66007" lon="6.00451">
        <ele>1377.23</ele>
        <time>2014-02-09T11:05:12Z</time>
      </trkpt>
      <trkpt lat="45.66009" lon="6.00454">
        <ele>1376.75</ele>
        <time>2014-02-09T11:05:13Z</time>
      </trkpt>
      <trkpt lat="45.66011" lon="6.00457">
        <ele>1376.75</ele>
        <time>2014-02-09T11:05:14Z</time>
      </trkpt>
      <trkpt lat="45.66014" lon="6.00461">
        <ele>1376.75</ele>
        <time>2014-02-09T11:05:16Z</time>
      </trkpt>
      <trkpt lat="45.66017" lon="6.00463">
        <ele>1376.75</ele>
        <time>2014-02-09T11:05:17Z</time>
      </trkpt>
      <trkpt lat="45.66019" lon="6.00465">
        <ele>1377.23</ele>
        <time>2014-02-09T11:05:18Z</time>
      </trkpt>
      <trkpt lat="45.66021" lon="6.00467">
        <ele>1377.71</ele>
        <time>2014-02-09T11:05:19Z</time>
      </trkpt>
      <trkpt lat="45.66023" lon="6.00468">
        <ele>1377.23</ele>
        <time>2014-02-09T11:05:20Z</time>
      </trkpt>
      <trkpt lat="45.66025" lon="6.00469">
        <ele>1377.23</ele>
        <time>2014-02-09T11:05:21Z</time>
      </trkpt>
      <trkpt lat="45.66027" lon="6.0047">
        <ele>1377.23</ele>
        <time>2014-02-09T11:05:22Z</time>
      </trkpt>
      <trkpt lat="45.66034" lon="6.00469">
        <ele>1377.71</ele>
        <time>2014-02-09T11:05:25Z</time>
      </trkpt>
      <trkpt lat="45.66035" lon="6.00468">
        <ele>1378.19</ele>
        <time>2014-02-09T11:05:26Z</time>
      </trkpt>
      <trkpt lat="45.66037" lon="6.00468">
        <ele>1377.71</ele>
        <time>2014-02-09T11:05:27Z</time>
      </trkpt>
      <trkpt lat="45.66038" lon="6.00467">
        <ele>1377.71</ele>
        <time>2014-02-09T11:05:28Z</time>
      </trkpt>
      <trkpt lat="45.66039" lon="6.00466">
        <ele>1378.19</ele>
        <time>2014-02-09T11:05:29Z</time>
      </trkpt>
      <trkpt lat="45.66059" lon="6.0044">
        <ele>1376.75</ele>
        <time>2014-02-09T11:05:38Z</time>
      </trkpt>
      <trkpt lat="45.66088" lon="6.00415">
        <ele>1375.78</ele>
        <time>2014-02-09T11:05:48Z</time>
      </trkpt>
      <trkpt lat="45.66096" lon="6.00411">
        <ele>1376.75</ele>
        <time>2014-02-09T11:05:52Z</time>
      </trkpt>
      <trkpt lat="45.66108" lon="6.0041">
        <ele>1374.82</ele>
        <time>2014-02-09T11:05:55Z</time>
      </trkpt>
      <trkpt lat="45.66117" lon="6.0041">
        <ele>1373.86</ele>
        <time>2014-02-09T11:05:57Z</time>
      </trkpt>
      <trkpt lat="45.66121" lon="6.00409">
        <ele>1373.86</ele>
        <time>2014-02-09T11:05:58Z</time>
      </trkpt>
      <trkpt lat="45.6616" lon="6.00394">
        <ele>1371.46</ele>
        <time>2014-02-09T11:06:09Z</time>
      </trkpt>
      <trkpt lat="45.66178" lon="6.00399">
        <ele>1372.9</ele>
        <time>2014-02-09T11:06:16Z</time>
      </trkpt>
      <trkpt lat="45.6618" lon="6.00399">
        <ele>1372.9</ele>
        <time>2014-02-09T11:06:17Z</time>
      </trkpt>
      <trkpt lat="45.66184" lon="6.00401">
        <ele>1373.86</ele>
        <time>2014-02-09T11:06:19Z</time>
      </trkpt>
      <trkpt lat="45.66186" lon="6.00402">
        <ele>1374.34</ele>
        <time>2014-02-09T11:06:20Z</time>
      </trkpt>
      <trkpt lat="45.66188" lon="6.00403">
        <ele>1373.86</ele>
        <time>2014-02-09T11:06:21Z</time>
      </trkpt>
      <trkpt lat="45.6619" lon="6.00405">
        <ele>1373.38</ele>
        <time>2014-02-09T11:06:22Z</time>
      </trkpt>
      <trkpt lat="45.66193" lon="6.00407">
        <ele>1374.34</ele>
        <time>2014-02-09T11:06:23Z</time>
      </trkpt>
      <trkpt lat="45.66195" lon="6.0041">
        <ele>1373.86</ele>
        <time>2014-02-09T11:06:24Z</time>
      </trkpt>
      <trkpt lat="45.66198" lon="6.00411">
        <ele>1373.86</ele>
        <time>2014-02-09T11:06:25Z</time>
      </trkpt>
      <trkpt lat="45.66218" lon="6.00421">
        <ele>1374.34</ele>
        <time>2014-02-09T11:06:32Z</time>
      </trkpt>
      <trkpt lat="45.66221" lon="6.00426">
        <ele>1374.34</ele>
        <time>2014-02-09T11:06:34Z</time>
      </trkpt>
      <trkpt lat="45.66223" lon="6.00428">
        <ele>1374.82</ele>
        <time>2014-02-09T11:06:35Z</time>
      </trkpt>
      <trkpt lat="45.66225" lon="6.00431">
        <ele>1374.82</ele>
        <time>2014-02-09T11:06:36Z</time>
      </trkpt>
      <trkpt lat="45.66226" lon="6.00434">
        <ele>1374.82</ele>
        <time>2014-02-09T11:06:37Z</time>
      </trkpt>
      <trkpt lat="45.66228" lon="6.00436">
        <ele>1374.82</ele>
        <time>2014-02-09T11:06:38Z</time>
      </trkpt>
      <trkpt lat="45.66229" lon="6.00439">
        <ele>1374.82</ele>
        <time>2014-02-09T11:06:39Z</time>
      </trkpt>
      <trkpt lat="45.6623" lon="6.00442">
        <ele>1374.82</ele>
        <time>2014-02-09T11:06:40Z</time>
      </trkpt>
      <trkpt lat="45.66235" lon="6.0045">
        <ele>1375.3</ele>
        <time>2014-02-09T11:06:44Z</time>
      </trkpt>
      <trkpt lat="45.66236" lon="6.00451">
        <ele>1375.3</ele>
        <time>2014-02-09T11:06:45Z</time>
      </trkpt>
      <trkpt lat="45.66241" lon="6.00462">
        <ele>1376.75</ele>
        <time>2014-02-09T11:06:52Z</time>
      </trkpt>
      <trkpt lat="45.66241" lon="6.00464">
        <ele>1377.23</ele>
        <time>2014-02-09T11:06:53Z</time>
      </trkpt>
      <trkpt lat="45.66241" lon="6.00466">
        <ele>1377.23</ele>
        <time>2014-02-09T11:06:54Z</time>
      </trkpt>
      <trkpt lat="45.66241" lon="6.00469">
        <ele>1377.23</ele>
        <time>2014-02-09T11:06:55Z</time>
      </trkpt>
      <trkpt lat="45.66242" lon="6.00471">
        <ele>1377.23</ele>
        <time>2014-02-09T11:06:56Z</time>
      </trkpt>
      <trkpt lat="45.66242" lon="6.00473">
        <ele>1377.71</ele>
        <time>2014-02-09T11:06:57Z</time>
      </trkpt>
      <trkpt lat="45.66243" lon="6.00475">
        <ele>1378.19</ele>
        <time>2014-02-09T11:06:58Z</time>
      </trkpt>
      <trkpt lat="45.66244" lon="6.00476">
        <ele>1378.19</ele>
        <time>2014-02-09T11:06:59Z</time>
      </trkpt>
      <trkpt lat="45.66246" lon="6.00477">
        <ele>1378.19</ele>
        <time>2014-02-09T11:07:00Z</time>
      </trkpt>
      <trkpt lat="45.66247" lon="6.00477">
        <ele>1378.19</ele>
        <time>2014-02-09T11:07:01Z</time>
      </trkpt>
      <trkpt lat="45.6625" lon="6.00476">
        <ele>1378.67</ele>
        <time>2014-02-09T11:07:15Z</time>
      </trkpt>
      <trkpt lat="45.6625" lon="6.00478">
        <ele>1378.67</ele>
        <time>2014-02-09T11:07:43Z</time>
      </trkpt>
      <trkpt lat="45.66249" lon="6.00481">
        <ele>1378.67</ele>
        <time>2014-02-09T11:08:06Z</time>
      </trkpt>
      <trkpt lat="45.66251" lon="6.00481">
        <ele>1379.15</ele>
        <time>2014-02-09T11:08:40Z</time>
      </trkpt>
      <trkpt lat="45.6625" lon="6.00484">
        <ele>1380.11</ele>
        <time>2014-02-09T11:09:10Z</time>
      </trkpt>
      <trkpt lat="45.66253" lon="6.00484">
        <ele>1380.11</ele>
        <time>2014-02-09T11:09:13Z</time>
      </trkpt>
      <trkpt lat="45.66254" lon="6.00485">
        <ele>1380.11</ele>
        <time>2014-02-09T11:09:14Z</time>
      </trkpt>
      <trkpt lat="45.66256" lon="6.00485">
        <ele>1379.63</ele>
        <time>2014-02-09T11:09:15Z</time>
      </trkpt>
      <trkpt lat="45.6626" lon="6.00487">
        <ele>1379.63</ele>
        <time>2014-02-09T11:09:17Z</time>
      </trkpt>
      <trkpt lat="45.66263" lon="6.00489">
        <ele>1379.63</ele>
        <time>2014-02-09T11:09:18Z</time>
      </trkpt>
      <trkpt lat="45.66274" lon="6.00502">
        <ele>1378.67</ele>
        <time>2014-02-09T11:09:23Z</time>
      </trkpt>
      <trkpt lat="45.66275" lon="6.00505">
        <ele>1378.67</ele>
        <time>2014-02-09T11:09:24Z</time>
      </trkpt>
      <trkpt lat="45.66277" lon="6.00508">
        <ele>1378.19</ele>
        <time>2014-02-09T11:09:25Z</time>
      </trkpt>
      <trkpt lat="45.66277" lon="6.00512">
        <ele>1378.19</ele>
        <time>2014-02-09T11:09:26Z</time>
      </trkpt>
      <trkpt lat="45.66278" lon="6.00515">
        <ele>1378.67</ele>
        <time>2014-02-09T11:09:27Z</time>
      </trkpt>
      <trkpt lat="45.66279" lon="6.00519">
        <ele>1378.19</ele>
        <time>2014-02-09T11:09:28Z</time>
      </trkpt>
      <trkpt lat="45.66279" lon="6.00522">
        <ele>1378.67</ele>
        <time>2014-02-09T11:09:29Z</time>
      </trkpt>
      <trkpt lat="45.66281" lon="6.00524">
        <ele>1378.67</ele>
        <time>2014-02-09T11:09:30Z</time>
      </trkpt>
      <trkpt lat="45.66287" lon="6.00542">
        <ele>1380.11</ele>
        <time>2014-02-09T11:09:37Z</time>
      </trkpt>
      <trkpt lat="45.66288" lon="6.00543">
        <ele>1380.59</ele>
        <time>2014-02-09T11:09:38Z</time>
      </trkpt>
      <trkpt lat="45.6629" lon="6.00545">
        <ele>1380.11</ele>
        <time>2014-02-09T11:09:39Z</time>
      </trkpt>
      <trkpt lat="45.66291" lon="6.00547">
        <ele>1380.59</ele>
        <time>2014-02-09T11:09:40Z</time>
      </trkpt>
      <trkpt lat="45.66292" lon="6.00549">
        <ele>1381.07</ele>
        <time>2014-02-09T11:09:41Z</time>
      </trkpt>
      <trkpt lat="45.66294" lon="6.00556">
        <ele>1381.55</ele>
        <time>2014-02-09T11:09:44Z</time>
      </trkpt>
      <trkpt lat="45.66295" lon="6.00558">
        <ele>1381.55</ele>
        <time>2014-02-09T11:09:45Z</time>
      </trkpt>
      <trkpt lat="45.66295" lon="6.00568">
        <ele>1382.51</ele>
        <time>2014-02-09T11:09:49Z</time>
      </trkpt>
      <trkpt lat="45.66294" lon="6.0057">
        <ele>1382.51</ele>
        <time>2014-02-09T11:09:50Z</time>
      </trkpt>
      <trkpt lat="45.66294" lon="6.00578">
        <ele>1382.99</ele>
        <time>2014-02-09T11:09:53Z</time>
      </trkpt>
      <trkpt lat="45.66295" lon="6.00587">
        <ele>1382.99</ele>
        <time>2014-02-09T11:09:56Z</time>
      </trkpt>
      <trkpt lat="45.66295" lon="6.00591">
        <ele>1382.99</ele>
        <time>2014-02-09T11:09:57Z</time>
      </trkpt>
      <trkpt lat="45.66296" lon="6.00594">
        <ele>1382.99</ele>
        <time>2014-02-09T11:09:58Z</time>
      </trkpt>
      <trkpt lat="45.66297" lon="6.00597">
        <ele>1382.99</ele>
        <time>2014-02-09T11:09:59Z</time>
      </trkpt>
      <trkpt lat="45.66298" lon="6.006">
        <ele>1382.99</ele>
        <time>2014-02-09T11:10:00Z</time>
      </trkpt>
      <trkpt lat="45.66299" lon="6.00603">
        <ele>1382.99</ele>
        <time>2014-02-09T11:10:01Z</time>
      </trkpt>
      <trkpt lat="45.66304" lon="6.00617">
        <ele>1383.47</ele>
        <time>2014-02-09T11:10:07Z</time>
      </trkpt>
      <trkpt lat="45.66305" lon="6.00619">
        <ele>1383.47</ele>
        <time>2014-02-09T11:10:08Z</time>
      </trkpt>
      <trkpt lat="45.66315" lon="6.00664">
        <ele>1382.51</ele>
        <time>2014-02-09T11:10:18Z</time>
      </trkpt>
      <trkpt lat="45.66319" lon="6.00679">
        <ele>1383.47</ele>
        <time>2014-02-09T11:10:24Z</time>
      </trkpt>
      <trkpt lat="45.66319" lon="6.0068">
        <ele>1383.47</ele>
        <time>2014-02-09T11:10:25Z</time>
      </trkpt>
      <trkpt lat="45.6632" lon="6.00682">
        <ele>1383.47</ele>
        <time>2014-02-09T11:10:26Z</time>
      </trkpt>
      <trkpt lat="45.6632" lon="6.00686">
        <ele>1383.96</ele>
        <time>2014-02-09T11:10:28Z</time>
      </trkpt>
      <trkpt lat="45.66321" lon="6.00688">
        <ele>1384.44</ele>
        <time>2014-02-09T11:10:29Z</time>
      </trkpt>
      <trkpt lat="45.66322" lon="6.00691">
        <ele>1383.96</ele>
        <time>2014-02-09T11:10:30Z</time>
      </trkpt>
      <trkpt lat="45.66333" lon="6.0071">
        <ele>1383.47</ele>
        <time>2014-02-09T11:10:37Z</time>
      </trkpt>
      <trkpt lat="45.66335" lon="6.00712">
        <ele>1383.47</ele>
        <time>2014-02-09T11:10:38Z</time>
      </trkpt>
      <trkpt lat="45.66336" lon="6.00714">
        <ele>1383.47</ele>
        <time>2014-02-09T11:10:39Z</time>
      </trkpt>
      <trkpt lat="45.66337" lon="6.00716">
        <ele>1384.44</ele>
        <time>2014-02-09T11:10:40Z</time>
      </trkpt>
      <trkpt lat="45.66338" lon="6.00717">
        <ele>1384.44</ele>
        <time>2014-02-09T11:10:41Z</time>
      </trkpt>
      <trkpt lat="45.6634" lon="6.00717">
        <ele>1384.44</ele>
        <time>2014-02-09T11:10:42Z</time>
      </trkpt>
      <trkpt lat="45.66341" lon="6.00717">
        <ele>1384.92</ele>
        <time>2014-02-09T11:10:43Z</time>
      </trkpt>
      <trkpt lat="45.66342" lon="6.00718">
        <ele>1384.92</ele>
        <time>2014-02-09T11:10:44Z</time>
      </trkpt>
      <trkpt lat="45.66344" lon="6.00721">
        <ele>1385.88</ele>
        <time>2014-02-09T11:10:46Z</time>
      </trkpt>
      <trkpt lat="45.66345" lon="6.00722">
        <ele>1385.4</ele>
        <time>2014-02-09T11:10:47Z</time>
      </trkpt>
      <trkpt lat="45.66346" lon="6.00723">
        <ele>1385.88</ele>
        <time>2014-02-09T11:10:48Z</time>
      </trkpt>
      <trkpt lat="45.66347" lon="6.00725">
        <ele>1386.36</ele>
        <time>2014-02-09T11:10:49Z</time>
      </trkpt>
      <trkpt lat="45.66348" lon="6.00727">
        <ele>1385.88</ele>
        <time>2014-02-09T11:10:50Z</time>
      </trkpt>
      <trkpt lat="45.66349" lon="6.0073">
        <ele>1386.36</ele>
        <time>2014-02-09T11:10:51Z</time>
      </trkpt>
      <trkpt lat="45.6635" lon="6.00732">
        <ele>1385.4</ele>
        <time>2014-02-09T11:10:52Z</time>
      </trkpt>
      <trkpt lat="45.66351" lon="6.00734">
        <ele>1385.4</ele>
        <time>2014-02-09T11:10:53Z</time>
      </trkpt>
      <trkpt lat="45.66352" lon="6.00736">
        <ele>1385.88</ele>
        <time>2014-02-09T11:10:54Z</time>
      </trkpt>
      <trkpt lat="45.66353" lon="6.00738">
        <ele>1385.88</ele>
        <time>2014-02-09T11:10:55Z</time>
      </trkpt>
      <trkpt lat="45.66355" lon="6.0074">
        <ele>1385.88</ele>
        <time>2014-02-09T11:10:56Z</time>
      </trkpt>
      <trkpt lat="45.66356" lon="6.00742">
        <ele>1385.88</ele>
        <time>2014-02-09T11:10:57Z</time>
      </trkpt>
      <trkpt lat="45.66358" lon="6.00743">
        <ele>1386.36</ele>
        <time>2014-02-09T11:10:58Z</time>
      </trkpt>
      <trkpt lat="45.6636" lon="6.00745">
        <ele>1385.88</ele>
        <time>2014-02-09T11:10:59Z</time>
      </trkpt>
      <trkpt lat="45.66364" lon="6.00753">
        <ele>1386.36</ele>
        <time>2014-02-09T11:11:02Z</time>
      </trkpt>
      <trkpt lat="45.66365" lon="6.00755">
        <ele>1386.36</ele>
        <time>2014-02-09T11:11:03Z</time>
      </trkpt>
      <trkpt lat="45.66366" lon="6.00757">
        <ele>1386.36</ele>
        <time>2014-02-09T11:11:04Z</time>
      </trkpt>
      <trkpt lat="45.66368" lon="6.00759">
        <ele>1385.88</ele>
        <time>2014-02-09T11:11:05Z</time>
      </trkpt>
      <trkpt lat="45.66369" lon="6.0076">
        <ele>1386.36</ele>
        <time>2014-02-09T11:11:06Z</time>
      </trkpt>
      <trkpt lat="45.6637" lon="6.00761">
        <ele>1386.84</ele>
        <time>2014-02-09T11:11:07Z</time>
      </trkpt>
      <trkpt lat="45.6637" lon="6.00762">
        <ele>1386.84</ele>
        <time>2014-02-09T11:11:08Z</time>
      </trkpt>
      <trkpt lat="45.66371" lon="6.00764">
        <ele>1386.84</ele>
        <time>2014-02-09T11:11:09Z</time>
      </trkpt>
      <trkpt lat="45.66372" lon="6.00765">
        <ele>1386.84</ele>
        <time>2014-02-09T11:11:10Z</time>
      </trkpt>
      <trkpt lat="45.66373" lon="6.00767">
        <ele>1387.32</ele>
        <time>2014-02-09T11:11:11Z</time>
      </trkpt>
      <trkpt lat="45.66374" lon="6.00769">
        <ele>1387.8</ele>
        <time>2014-02-09T11:11:12Z</time>
      </trkpt>
      <trkpt lat="45.66375" lon="6.0077">
        <ele>1387.32</ele>
        <time>2014-02-09T11:11:13Z</time>
      </trkpt>
      <trkpt lat="45.66376" lon="6.00772">
        <ele>1387.32</ele>
        <time>2014-02-09T11:11:14Z</time>
      </trkpt>
      <trkpt lat="45.66377" lon="6.00774">
        <ele>1387.32</ele>
        <time>2014-02-09T11:11:15Z</time>
      </trkpt>
      <trkpt lat="45.66377" lon="6.00776">
        <ele>1387.8</ele>
        <time>2014-02-09T11:11:16Z</time>
      </trkpt>
      <trkpt lat="45.66378" lon="6.00778">
        <ele>1387.8</ele>
        <time>2014-02-09T11:11:17Z</time>
      </trkpt>
      <trkpt lat="45.66379" lon="6.0078">
        <ele>1387.8</ele>
        <time>2014-02-09T11:11:18Z</time>
      </trkpt>
      <trkpt lat="45.6638" lon="6.00782">
        <ele>1387.8</ele>
        <time>2014-02-09T11:11:19Z</time>
      </trkpt>
      <trkpt lat="45.66381" lon="6.00784">
        <ele>1387.8</ele>
        <time>2014-02-09T11:11:20Z</time>
      </trkpt>
      <trkpt lat="45.66382" lon="6.00786">
        <ele>1387.8</ele>
        <time>2014-02-09T11:11:21Z</time>
      </trkpt>
      <trkpt lat="45.66383" lon="6.00788">
        <ele>1388.28</ele>
        <time>2014-02-09T11:11:22Z</time>
      </trkpt>
      <trkpt lat="45.66383" lon="6.0079">
        <ele>1388.76</ele>
        <time>2014-02-09T11:11:23Z</time>
      </trkpt>
      <trkpt lat="45.66384" lon="6.00792">
        <ele>1388.76</ele>
        <time>2014-02-09T11:11:24Z</time>
      </trkpt>
      <trkpt lat="45.66385" lon="6.00795">
        <ele>1388.76</ele>
        <time>2014-02-09T11:11:25Z</time>
      </trkpt>
      <trkpt lat="45.66386" lon="6.00797">
        <ele>1388.76</ele>
        <time>2014-02-09T11:11:26Z</time>
      </trkpt>
      <trkpt lat="45.66387" lon="6.00799">
        <ele>1389.24</ele>
        <time>2014-02-09T11:11:27Z</time>
      </trkpt>
      <trkpt lat="45.66388" lon="6.00802">
        <ele>1388.76</ele>
        <time>2014-02-09T11:11:28Z</time>
      </trkpt>
      <trkpt lat="45.66393" lon="6.00813">
        <ele>1388.28</ele>
        <time>2014-02-09T11:11:32Z</time>
      </trkpt>
      <trkpt lat="45.66393" lon="6.00817">
        <ele>1388.76</ele>
        <time>2014-02-09T11:11:33Z</time>
      </trkpt>
      <trkpt lat="45.66408" lon="6.00851">
        <ele>1389.24</ele>
        <time>2014-02-09T11:11:46Z</time>
      </trkpt>
      <trkpt lat="45.66413" lon="6.0086">
        <ele>1389.72</ele>
        <time>2014-02-09T11:11:50Z</time>
      </trkpt>
      <trkpt lat="45.66415" lon="6.0086">
        <ele>1389.72</ele>
        <time>2014-02-09T11:11:51Z</time>
      </trkpt>
      <trkpt lat="45.66416" lon="6.00861">
        <ele>1390.2</ele>
        <time>2014-02-09T11:11:52Z</time>
      </trkpt>
      <trkpt lat="45.66417" lon="6.00862">
        <ele>1389.72</ele>
        <time>2014-02-09T11:11:53Z</time>
      </trkpt>
      <trkpt lat="45.66418" lon="6.00863">
        <ele>1390.2</ele>
        <time>2014-02-09T11:11:54Z</time>
      </trkpt>
      <trkpt lat="45.66419" lon="6.00864">
        <ele>1389.72</ele>
        <time>2014-02-09T11:11:55Z</time>
      </trkpt>
      <trkpt lat="45.66421" lon="6.00864">
        <ele>1390.2</ele>
        <time>2014-02-09T11:11:56Z</time>
      </trkpt>
      <trkpt lat="45.66424" lon="6.00864">
        <ele>1389.24</ele>
        <time>2014-02-09T11:11:57Z</time>
      </trkpt>
      <trkpt lat="45.66426" lon="6.00864">
        <ele>1389.24</ele>
        <time>2014-02-09T11:11:58Z</time>
      </trkpt>
      <trkpt lat="45.66428" lon="6.00864">
        <ele>1388.76</ele>
        <time>2014-02-09T11:11:59Z</time>
      </trkpt>
      <trkpt lat="45.6643" lon="6.00864">
        <ele>1389.24</ele>
        <time>2014-02-09T11:12:00Z</time>
      </trkpt>
      <trkpt lat="45.66432" lon="6.00864">
        <ele>1388.28</ele>
        <time>2014-02-09T11:12:01Z</time>
      </trkpt>
      <trkpt lat="45.66434" lon="6.00863">
        <ele>1388.76</ele>
        <time>2014-02-09T11:12:02Z</time>
      </trkpt>
      <trkpt lat="45.66436" lon="6.00861">
        <ele>1387.8</ele>
        <time>2014-02-09T11:12:03Z</time>
      </trkpt>
      <trkpt lat="45.6644" lon="6.00859">
        <ele>1387.32</ele>
        <time>2014-02-09T11:12:04Z</time>
      </trkpt>
      <trkpt lat="45.66445" lon="6.00858">
        <ele>1387.32</ele>
        <time>2014-02-09T11:12:05Z</time>
      </trkpt>
      <trkpt lat="45.6645" lon="6.00857">
        <ele>1386.84</ele>
        <time>2014-02-09T11:12:06Z</time>
      </trkpt>
      <trkpt lat="45.66454" lon="6.00859">
        <ele>1386.36</ele>
        <time>2014-02-09T11:12:07Z</time>
      </trkpt>
      <trkpt lat="45.66458" lon="6.00861">
        <ele>1386.84</ele>
        <time>2014-02-09T11:12:08Z</time>
      </trkpt>
      <trkpt lat="45.66462" lon="6.00863">
        <ele>1386.84</ele>
        <time>2014-02-09T11:12:09Z</time>
      </trkpt>
      <trkpt lat="45.66466" lon="6.00866">
        <ele>1386.36</ele>
        <time>2014-02-09T11:12:10Z</time>
      </trkpt>
      <trkpt lat="45.66468" lon="6.00868">
        <ele>1386.36</ele>
        <time>2014-02-09T11:12:11Z</time>
      </trkpt>
      <trkpt lat="45.6647" lon="6.00871">
        <ele>1386.36</ele>
        <time>2014-02-09T11:12:12Z</time>
      </trkpt>
      <trkpt lat="45.66476" lon="6.00876">
        <ele>1386.84</ele>
        <time>2014-02-09T11:12:15Z</time>
      </trkpt>
      <trkpt lat="45.66478" lon="6.00877">
        <ele>1386.36</ele>
        <time>2014-02-09T11:12:16Z</time>
      </trkpt>
      <trkpt lat="45.6648" lon="6.00878">
        <ele>1386.84</ele>
        <time>2014-02-09T11:12:17Z</time>
      </trkpt>
      <trkpt lat="45.66482" lon="6.0088">
        <ele>1386.84</ele>
        <time>2014-02-09T11:12:18Z</time>
      </trkpt>
      <trkpt lat="45.66483" lon="6.00882">
        <ele>1387.32</ele>
        <time>2014-02-09T11:12:19Z</time>
      </trkpt>
      <trkpt lat="45.66484" lon="6.00884">
        <ele>1386.84</ele>
        <time>2014-02-09T11:12:20Z</time>
      </trkpt>
      <trkpt lat="45.66485" lon="6.00885">
        <ele>1387.32</ele>
        <time>2014-02-09T11:12:21Z</time>
      </trkpt>
      <trkpt lat="45.66486" lon="6.00887">
        <ele>1387.8</ele>
        <time>2014-02-09T11:12:22Z</time>
      </trkpt>
      <trkpt lat="45.66486" lon="6.00889">
        <ele>1387.8</ele>
        <time>2014-02-09T11:12:23Z</time>
      </trkpt>
      <trkpt lat="45.66487" lon="6.00891">
        <ele>1387.8</ele>
        <time>2014-02-09T11:12:24Z</time>
      </trkpt>
      <trkpt lat="45.66488" lon="6.00892">
        <ele>1388.28</ele>
        <time>2014-02-09T11:12:25Z</time>
      </trkpt>
      <trkpt lat="45.66488" lon="6.00893">
        <ele>1388.28</ele>
        <time>2014-02-09T11:12:26Z</time>
      </trkpt>
      <trkpt lat="45.66489" lon="6.00895">
        <ele>1388.28</ele>
        <time>2014-02-09T11:12:27Z</time>
      </trkpt>
      <trkpt lat="45.66491" lon="6.00895">
        <ele>1388.76</ele>
        <time>2014-02-09T11:12:28Z</time>
      </trkpt>
      <trkpt lat="45.66494" lon="6.00898">
        <ele>1389.24</ele>
        <time>2014-02-09T11:12:30Z</time>
      </trkpt>
      <trkpt lat="45.66495" lon="6.00899">
        <ele>1389.24</ele>
        <time>2014-02-09T11:12:31Z</time>
      </trkpt>
      <trkpt lat="45.66497" lon="6.00901">
        <ele>1389.24</ele>
        <time>2014-02-09T11:12:32Z</time>
      </trkpt>
      <trkpt lat="45.66499" lon="6.00903">
        <ele>1389.72</ele>
        <time>2014-02-09T11:12:33Z</time>
      </trkpt>
      <trkpt lat="45.665" lon="6.00905">
        <ele>1389.24</ele>
        <time>2014-02-09T11:12:34Z</time>
      </trkpt>
      <trkpt lat="45.66502" lon="6.00907">
        <ele>1389.72</ele>
        <time>2014-02-09T11:12:35Z</time>
      </trkpt>
      <trkpt lat="45.6651" lon="6.00919">
        <ele>1389.24</ele>
        <time>2014-02-09T11:12:40Z</time>
      </trkpt>
      <trkpt lat="45.66512" lon="6.00922">
        <ele>1389.24</ele>
        <time>2014-02-09T11:12:41Z</time>
      </trkpt>
      <trkpt lat="45.66513" lon="6.00924">
        <ele>1390.2</ele>
        <time>2014-02-09T11:12:42Z</time>
      </trkpt>
      <trkpt lat="45.66514" lon="6.00926">
        <ele>1389.72</ele>
        <time>2014-02-09T11:12:43Z</time>
      </trkpt>
      <trkpt lat="45.66516" lon="6.00929">
        <ele>1390.2</ele>
        <time>2014-02-09T11:12:44Z</time>
      </trkpt>
      <trkpt lat="45.66517" lon="6.00931">
        <ele>1389.72</ele>
        <time>2014-02-09T11:12:45Z</time>
      </trkpt>
      <trkpt lat="45.66519" lon="6.00933">
        <ele>1389.72</ele>
        <time>2014-02-09T11:12:46Z</time>
      </trkpt>
      <trkpt lat="45.66527" lon="6.00943">
        <ele>1390.2</ele>
        <time>2014-02-09T11:12:51Z</time>
      </trkpt>
      <trkpt lat="45.66528" lon="6.00945">
        <ele>1390.2</ele>
        <time>2014-02-09T11:12:52Z</time>
      </trkpt>
      <trkpt lat="45.66529" lon="6.00948">
        <ele>1390.2</ele>
        <time>2014-02-09T11:12:53Z</time>
      </trkpt>
      <trkpt lat="45.6653" lon="6.0095">
        <ele>1390.68</ele>
        <time>2014-02-09T11:12:54Z</time>
      </trkpt>
      <trkpt lat="45.66531" lon="6.00952">
        <ele>1391.17</ele>
        <time>2014-02-09T11:12:55Z</time>
      </trkpt>
      <trkpt lat="45.66531" lon="6.00954">
        <ele>1391.17</ele>
        <time>2014-02-09T11:12:56Z</time>
      </trkpt>
      <trkpt lat="45.66532" lon="6.00956">
        <ele>1390.68</ele>
        <time>2014-02-09T11:12:57Z</time>
      </trkpt>
      <trkpt lat="45.66533" lon="6.00957">
        <ele>1390.68</ele>
        <time>2014-02-09T11:12:58Z</time>
      </trkpt>
      <trkpt lat="45.66534" lon="6.00959">
        <ele>1391.17</ele>
        <time>2014-02-09T11:12:59Z</time>
      </trkpt>
      <trkpt lat="45.66535" lon="6.00962">
        <ele>1391.17</ele>
        <time>2014-02-09T11:13:00Z</time>
      </trkpt>
      <trkpt lat="45.66536" lon="6.00964">
        <ele>1391.17</ele>
        <time>2014-02-09T11:13:01Z</time>
      </trkpt>
      <trkpt lat="45.66537" lon="6.00967">
        <ele>1391.17</ele>
        <time>2014-02-09T11:13:02Z</time>
      </trkpt>
      <trkpt lat="45.66538" lon="6.00969">
        <ele>1391.17</ele>
        <time>2014-02-09T11:13:03Z</time>
      </trkpt>
      <trkpt lat="45.66539" lon="6.00971">
        <ele>1390.68</ele>
        <time>2014-02-09T11:13:04Z</time>
      </trkpt>
      <trkpt lat="45.6654" lon="6.00973">
        <ele>1391.65</ele>
        <time>2014-02-09T11:13:05Z</time>
      </trkpt>
      <trkpt lat="45.66541" lon="6.00974">
        <ele>1391.65</ele>
        <time>2014-02-09T11:13:06Z</time>
      </trkpt>
      <trkpt lat="45.66543" lon="6.00975">
        <ele>1391.65</ele>
        <time>2014-02-09T11:13:07Z</time>
      </trkpt>
      <trkpt lat="45.66545" lon="6.00976">
        <ele>1391.17</ele>
        <time>2014-02-09T11:13:08Z</time>
      </trkpt>
      <trkpt lat="45.66547" lon="6.00977">
        <ele>1391.17</ele>
        <time>2014-02-09T11:13:09Z</time>
      </trkpt>
      <trkpt lat="45.66548" lon="6.00977">
        <ele>1390.68</ele>
        <time>2014-02-09T11:13:10Z</time>
      </trkpt>
      <trkpt lat="45.6655" lon="6.00976">
        <ele>1391.17</ele>
        <time>2014-02-09T11:13:11Z</time>
      </trkpt>
      <trkpt lat="45.66552" lon="6.00975">
        <ele>1391.17</ele>
        <time>2014-02-09T11:13:12Z</time>
      </trkpt>
      <trkpt lat="45.66554" lon="6.00974">
        <ele>1391.17</ele>
        <time>2014-02-09T11:13:13Z</time>
      </trkpt>
      <trkpt lat="45.66557" lon="6.00972">
        <ele>1390.2</ele>
        <time>2014-02-09T11:13:14Z</time>
      </trkpt>
      <trkpt lat="45.6656" lon="6.00971">
        <ele>1390.68</ele>
        <time>2014-02-09T11:13:15Z</time>
      </trkpt>
      <trkpt lat="45.66563" lon="6.00969">
        <ele>1389.72</ele>
        <time>2014-02-09T11:13:16Z</time>
      </trkpt>
      <trkpt lat="45.66566" lon="6.00967">
        <ele>1390.68</ele>
        <time>2014-02-09T11:13:17Z</time>
      </trkpt>
      <trkpt lat="45.66569" lon="6.00964">
        <ele>1390.2</ele>
        <time>2014-02-09T11:13:18Z</time>
      </trkpt>
      <trkpt lat="45.6658" lon="6.00956">
        <ele>1389.72</ele>
        <time>2014-02-09T11:13:22Z</time>
      </trkpt>
      <trkpt lat="45.66586" lon="6.00954">
        <ele>1390.68</ele>
        <time>2014-02-09T11:13:25Z</time>
      </trkpt>
      <trkpt lat="45.66588" lon="6.00955">
        <ele>1390.68</ele>
        <time>2014-02-09T11:13:26Z</time>
      </trkpt>
      <trkpt lat="45.66591" lon="6.00955">
        <ele>1390.68</ele>
        <time>2014-02-09T11:13:27Z</time>
      </trkpt>
      <trkpt lat="45.66629" lon="6.00967">
        <ele>1388.28</ele>
        <time>2014-02-09T11:13:37Z</time>
      </trkpt>
      <trkpt lat="45.66644" lon="6.00974">
        <ele>1386.84</ele>
        <time>2014-02-09T11:13:40Z</time>
      </trkpt>
      <trkpt lat="45.66649" lon="6.00976">
        <ele>1386.36</ele>
        <time>2014-02-09T11:13:41Z</time>
      </trkpt>
      <trkpt lat="45.66676" lon="6.00989">
        <ele>1385.88</ele>
        <time>2014-02-09T11:13:49Z</time>
      </trkpt>
      <trkpt lat="45.66679" lon="6.00991">
        <ele>1386.84</ele>
        <time>2014-02-09T11:13:50Z</time>
      </trkpt>
      <trkpt lat="45.66694" lon="6.00997">
        <ele>1387.32</ele>
        <time>2014-02-09T11:13:59Z</time>
      </trkpt>
      <trkpt lat="45.66711" lon="6.00999">
        <ele>1387.32</ele>
        <time>2014-02-09T11:14:06Z</time>
      </trkpt>
      <trkpt lat="45.66735" lon="6.01006">
        <ele>1386.84</ele>
        <time>2014-02-09T11:14:14Z</time>
      </trkpt>
      <trkpt lat="45.66757" lon="6.01026">
        <ele>1387.32</ele>
        <time>2014-02-09T11:14:24Z</time>
      </trkpt>
      <trkpt lat="45.6676" lon="6.0103">
        <ele>1387.32</ele>
        <time>2014-02-09T11:14:25Z</time>
      </trkpt>
      <trkpt lat="45.66762" lon="6.01035">
        <ele>1386.84</ele>
        <time>2014-02-09T11:14:26Z</time>
      </trkpt>
      <trkpt lat="45.66765" lon="6.01039">
        <ele>1386.84</ele>
        <time>2014-02-09T11:14:27Z</time>
      </trkpt>
      <trkpt lat="45.66767" lon="6.01041">
        <ele>1386.36</ele>
        <time>2014-02-09T11:14:28Z</time>
      </trkpt>
      <trkpt lat="45.66769" lon="6.01044">
        <ele>1387.32</ele>
        <time>2014-02-09T11:14:29Z</time>
      </trkpt>
      <trkpt lat="45.66769" lon="6.01046">
        <ele>1386.84</ele>
        <time>2014-02-09T11:14:30Z</time>
      </trkpt>
      <trkpt lat="45.6677" lon="6.01047">
        <ele>1387.32</ele>
        <time>2014-02-09T11:14:31Z</time>
      </trkpt>
      <trkpt lat="45.66771" lon="6.01049">
        <ele>1388.28</ele>
        <time>2014-02-09T11:14:32Z</time>
      </trkpt>
      <trkpt lat="45.66772" lon="6.0105">
        <ele>1388.28</ele>
        <time>2014-02-09T11:14:33Z</time>
      </trkpt>
      <trkpt lat="45.66773" lon="6.01052">
        <ele>1387.8</ele>
        <time>2014-02-09T11:14:34Z</time>
      </trkpt>
      <trkpt lat="45.66774" lon="6.01054">
        <ele>1388.76</ele>
        <time>2014-02-09T11:14:35Z</time>
      </trkpt>
      <trkpt lat="45.66776" lon="6.01056">
        <ele>1388.28</ele>
        <time>2014-02-09T11:14:36Z</time>
      </trkpt>
      <trkpt lat="45.66778" lon="6.01058">
        <ele>1387.8</ele>
        <time>2014-02-09T11:14:37Z</time>
      </trkpt>
      <trkpt lat="45.66779" lon="6.01061">
        <ele>1388.28</ele>
        <time>2014-02-09T11:14:38Z</time>
      </trkpt>
      <trkpt lat="45.66781" lon="6.01063">
        <ele>1387.8</ele>
        <time>2014-02-09T11:14:39Z</time>
      </trkpt>
      <trkpt lat="45.66782" lon="6.01066">
        <ele>1388.28</ele>
        <time>2014-02-09T11:14:40Z</time>
      </trkpt>
      <trkpt lat="45.66783" lon="6.01069">
        <ele>1388.28</ele>
        <time>2014-02-09T11:14:41Z</time>
      </trkpt>
      <trkpt lat="45.66784" lon="6.0107">
        <ele>1388.28</ele>
        <time>2014-02-09T11:14:42Z</time>
      </trkpt>
      <trkpt lat="45.66785" lon="6.01071">
        <ele>1389.24</ele>
        <time>2014-02-09T11:14:43Z</time>
      </trkpt>
      <trkpt lat="45.66786" lon="6.01072">
        <ele>1388.76</ele>
        <time>2014-02-09T11:14:44Z</time>
      </trkpt>
      <trkpt lat="45.66787" lon="6.01075">
        <ele>1388.76</ele>
        <time>2014-02-09T11:14:45Z</time>
      </trkpt>
      <trkpt lat="45.66788" lon="6.01077">
        <ele>1389.72</ele>
        <time>2014-02-09T11:14:46Z</time>
      </trkpt>
      <trkpt lat="45.66789" lon="6.01078">
        <ele>1389.72</ele>
        <time>2014-02-09T11:14:47Z</time>
      </trkpt>
      <trkpt lat="45.6679" lon="6.01079">
        <ele>1389.72</ele>
        <time>2014-02-09T11:14:48Z</time>
      </trkpt>
      <trkpt lat="45.66792" lon="6.01082">
        <ele>1389.72</ele>
        <time>2014-02-09T11:14:49Z</time>
      </trkpt>
      <trkpt lat="45.66793" lon="6.01083">
        <ele>1389.72</ele>
        <time>2014-02-09T11:14:50Z</time>
      </trkpt>
      <trkpt lat="45.66795" lon="6.01084">
        <ele>1389.72</ele>
        <time>2014-02-09T11:14:51Z</time>
      </trkpt>
      <trkpt lat="45.66796" lon="6.01086">
        <ele>1390.2</ele>
        <time>2014-02-09T11:14:52Z</time>
      </trkpt>
      <trkpt lat="45.66797" lon="6.01088">
        <ele>1390.2</ele>
        <time>2014-02-09T11:14:53Z</time>
      </trkpt>
      <trkpt lat="45.66798" lon="6.01089">
        <ele>1390.68</ele>
        <time>2014-02-09T11:14:54Z</time>
      </trkpt>
      <trkpt lat="45.66799" lon="6.01089">
        <ele>1391.17</ele>
        <time>2014-02-09T11:14:55Z</time>
      </trkpt>
      <trkpt lat="45.668" lon="6.0109">
        <ele>1391.17</ele>
        <time>2014-02-09T11:14:56Z</time>
      </trkpt>
      <trkpt lat="45.66801" lon="6.01092">
        <ele>1391.17</ele>
        <time>2014-02-09T11:15:08Z</time>
      </trkpt>
      <trkpt lat="45.66798" lon="6.01095">
        <ele>1391.17</ele>
        <time>2014-02-09T11:15:34Z</time>
      </trkpt>
      <trkpt lat="45.66799" lon="6.01099">
        <ele>1390.68</ele>
        <time>2014-02-09T11:15:58Z</time>
      </trkpt>
      <trkpt lat="45.66802" lon="6.01096">
        <ele>1391.17</ele>
        <time>2014-02-09T11:16:24Z</time>
      </trkpt>
      <trkpt lat="45.66803" lon="6.01095">
        <ele>1390.2</ele>
        <time>2014-02-09T11:16:38Z</time>
      </trkpt>
      <trkpt lat="45.66806" lon="6.01097">
        <ele>1390.68</ele>
        <time>2014-02-09T11:16:56Z</time>
      </trkpt>
      <trkpt lat="45.66822" lon="6.011">
        <ele>1390.2</ele>
        <time>2014-02-09T11:17:05Z</time>
      </trkpt>
      <trkpt lat="45.66824" lon="6.01099">
        <ele>1390.2</ele>
        <time>2014-02-09T11:17:06Z</time>
      </trkpt>
      <trkpt lat="45.66825" lon="6.01098">
        <ele>1390.2</ele>
        <time>2014-02-09T11:17:07Z</time>
      </trkpt>
      <trkpt lat="45.66826" lon="6.01097">
        <ele>1389.72</ele>
        <time>2014-02-09T11:17:08Z</time>
      </trkpt>
      <trkpt lat="45.66828" lon="6.01094">
        <ele>1389.24</ele>
        <time>2014-02-09T11:17:09Z</time>
      </trkpt>
      <trkpt lat="45.6683" lon="6.01092">
        <ele>1388.28</ele>
        <time>2014-02-09T11:17:10Z</time>
      </trkpt>
      <trkpt lat="45.6684" lon="6.01083">
        <ele>1387.8</ele>
        <time>2014-02-09T11:17:13Z</time>
      </trkpt>
      <trkpt lat="45.66845" lon="6.01082">
        <ele>1386.84</ele>
        <time>2014-02-09T11:17:14Z</time>
      </trkpt>
      <trkpt lat="45.6685" lon="6.01082">
        <ele>1385.88</ele>
        <time>2014-02-09T11:17:15Z</time>
      </trkpt>
      <trkpt lat="45.66855" lon="6.01082">
        <ele>1385.4</ele>
        <time>2014-02-09T11:17:16Z</time>
      </trkpt>
      <trkpt lat="45.6686" lon="6.01083">
        <ele>1385.88</ele>
        <time>2014-02-09T11:17:17Z</time>
      </trkpt>
      <trkpt lat="45.6687" lon="6.01088">
        <ele>1384.92</ele>
        <time>2014-02-09T11:17:19Z</time>
      </trkpt>
      <trkpt lat="45.6689" lon="6.01107">
        <ele>1381.55</ele>
        <time>2014-02-09T11:17:22Z</time>
      </trkpt>
      <trkpt lat="45.66894" lon="6.0111">
        <ele>1381.55</ele>
        <time>2014-02-09T11:17:23Z</time>
      </trkpt>
      <trkpt lat="45.66922" lon="6.01136">
        <ele>1380.59</ele>
        <time>2014-02-09T11:17:31Z</time>
      </trkpt>
      <trkpt lat="45.66934" lon="6.01156">
        <ele>1380.11</ele>
        <time>2014-02-09T11:17:37Z</time>
      </trkpt>
      <trkpt lat="45.66934" lon="6.01163">
        <ele>1381.07</ele>
        <time>2014-02-09T11:17:39Z</time>
      </trkpt>
      <trkpt lat="45.66933" lon="6.01165">
        <ele>1380.59</ele>
        <time>2014-02-09T11:17:40Z</time>
      </trkpt>
      <trkpt lat="45.66932" lon="6.01168">
        <ele>1380.59</ele>
        <time>2014-02-09T11:17:41Z</time>
      </trkpt>
      <trkpt lat="45.66932" lon="6.01177">
        <ele>1380.59</ele>
        <time>2014-02-09T11:17:44Z</time>
      </trkpt>
      <trkpt lat="45.66933" lon="6.01181">
        <ele>1380.11</ele>
        <time>2014-02-09T11:17:45Z</time>
      </trkpt>
      <trkpt lat="45.66935" lon="6.01187">
        <ele>1380.59</ele>
        <time>2014-02-09T11:17:47Z</time>
      </trkpt>
      <trkpt lat="45.66939" lon="6.01194">
        <ele>1381.07</ele>
        <time>2014-02-09T11:17:50Z</time>
      </trkpt>
      <trkpt lat="45.6694" lon="6.01196">
        <ele>1380.59</ele>
        <time>2014-02-09T11:17:51Z</time>
      </trkpt>
      <trkpt lat="45.66942" lon="6.01198">
        <ele>1380.11</ele>
        <time>2014-02-09T11:17:52Z</time>
      </trkpt>
      <trkpt lat="45.66943" lon="6.01201">
        <ele>1381.07</ele>
        <time>2014-02-09T11:17:53Z</time>
      </trkpt>
      <trkpt lat="45.66943" lon="6.01203">
        <ele>1381.55</ele>
        <time>2014-02-09T11:17:54Z</time>
      </trkpt>
      <trkpt lat="45.66963" lon="6.01229">
        <ele>1380.59</ele>
        <time>2014-02-09T11:18:04Z</time>
      </trkpt>
      <trkpt lat="45.66969" lon="6.01232">
        <ele>1379.63</ele>
        <time>2014-02-09T11:18:06Z</time>
      </trkpt>
      <trkpt lat="45.67004" lon="6.01257">
        <ele>1377.23</ele>
        <time>2014-02-09T11:18:14Z</time>
      </trkpt>
      <trkpt lat="45.6703" lon="6.01287">
        <ele>1377.71</ele>
        <time>2014-02-09T11:18:25Z</time>
      </trkpt>
      <trkpt lat="45.67048" lon="6.01313">
        <ele>1378.19</ele>
        <time>2014-02-09T11:18:34Z</time>
      </trkpt>
      <trkpt lat="45.67068" lon="6.01355">
        <ele>1375.78</ele>
        <time>2014-02-09T11:18:45Z</time>
      </trkpt>
      <trkpt lat="45.67082" lon="6.01393">
        <ele>1375.78</ele>
        <time>2014-02-09T11:18:55Z</time>
      </trkpt>
      <trkpt lat="45.67097" lon="6.01418">
        <ele>1376.26</ele>
        <time>2014-02-09T11:19:04Z</time>
      </trkpt>
      <trkpt lat="45.67105" lon="6.01435">
        <ele>1375.3</ele>
        <time>2014-02-09T11:19:09Z</time>
      </trkpt>
      <trkpt lat="45.67114" lon="6.01452">
        <ele>1374.34</ele>
        <time>2014-02-09T11:19:13Z</time>
      </trkpt>
      <trkpt lat="45.67118" lon="6.01456">
        <ele>1373.38</ele>
        <time>2014-02-09T11:19:14Z</time>
      </trkpt>
      <trkpt lat="45.67121" lon="6.01461">
        <ele>1373.38</ele>
        <time>2014-02-09T11:19:15Z</time>
      </trkpt>
      <trkpt lat="45.67124" lon="6.01464">
        <ele>1372.9</ele>
        <time>2014-02-09T11:19:16Z</time>
      </trkpt>
      <trkpt lat="45.67127" lon="6.01466">
        <ele>1372.9</ele>
        <time>2014-02-09T11:19:17Z</time>
      </trkpt>
      <trkpt lat="45.6713" lon="6.01467">
        <ele>1373.38</ele>
        <time>2014-02-09T11:19:18Z</time>
      </trkpt>
      <trkpt lat="45.67132" lon="6.01469">
        <ele>1373.38</ele>
        <time>2014-02-09T11:19:19Z</time>
      </trkpt>
      <trkpt lat="45.67135" lon="6.01474">
        <ele>1373.86</ele>
        <time>2014-02-09T11:19:21Z</time>
      </trkpt>
      <trkpt lat="45.67139" lon="6.01476">
        <ele>1374.34</ele>
        <time>2014-02-09T11:19:23Z</time>
      </trkpt>
      <trkpt lat="45.67142" lon="6.0148">
        <ele>1374.34</ele>
        <time>2014-02-09T11:19:25Z</time>
      </trkpt>
      <trkpt lat="45.67147" lon="6.01483">
        <ele>1374.34</ele>
        <time>2014-02-09T11:19:28Z</time>
      </trkpt>
      <trkpt lat="45.67149" lon="6.01482">
        <ele>1374.34</ele>
        <time>2014-02-09T11:19:29Z</time>
      </trkpt>
      <trkpt lat="45.67154" lon="6.0148">
        <ele>1374.82</ele>
        <time>2014-02-09T11:19:33Z</time>
      </trkpt>
      <trkpt lat="45.67155" lon="6.01478">
        <ele>1374.82</ele>
        <time>2014-02-09T11:19:34Z</time>
      </trkpt>
      <trkpt lat="45.6716" lon="6.01472">
        <ele>1374.82</ele>
        <time>2014-02-09T11:19:46Z</time>
      </trkpt>
      <trkpt lat="45.67162" lon="6.01471">
        <ele>1374.82</ele>
        <time>2014-02-09T11:19:59Z</time>
      </trkpt>
      <trkpt lat="45.67163" lon="6.01471">
        <ele>1374.34</ele>
        <time>2014-02-09T11:20:14Z</time>
      </trkpt>
      <trkpt lat="45.67159" lon="6.01475">
        <ele>1374.34</ele>
        <time>2014-02-09T11:20:30Z</time>
      </trkpt>
      <trkpt lat="45.67163" lon="6.01469">
        <ele>1374.34</ele>
        <time>2014-02-09T11:20:42Z</time>
      </trkpt>
      <trkpt lat="45.67168" lon="6.01469">
        <ele>1374.34</ele>
        <time>2014-02-09T11:21:00Z</time>
      </trkpt>
      <trkpt lat="45.67168" lon="6.01467">
        <ele>1374.34</ele>
        <time>2014-02-09T11:21:15Z</time>
      </trkpt>
      <trkpt lat="45.67161" lon="6.01471">
        <ele>1373.86</ele>
        <time>2014-02-09T11:21:38Z</time>
      </trkpt>
      <trkpt lat="45.67161" lon="6.01473">
        <ele>1374.34</ele>
        <time>2014-02-09T11:22:07Z</time>
      </trkpt>
      <trkpt lat="45.67161" lon="6.01472">
        <ele>1374.82</ele>
        <time>2014-02-09T11:22:35Z</time>
      </trkpt>
      <trkpt lat="45.67162" lon="6.01463">
        <ele>1374.82</ele>
        <time>2014-02-09T11:22:57Z</time>
      </trkpt>
      <trkpt lat="45.67162" lon="6.01461">
        <ele>1374.82</ele>
        <time>2014-02-09T11:22:58Z</time>
      </trkpt>
      <trkpt lat="45.67163" lon="6.01458">
        <ele>1375.3</ele>
        <time>2014-02-09T11:22:59Z</time>
      </trkpt>
      <trkpt lat="45.6717" lon="6.01427">
        <ele>1372.42</ele>
        <time>2014-02-09T11:23:06Z</time>
      </trkpt>
      <trkpt lat="45.67171" lon="6.01422">
        <ele>1372.42</ele>
        <time>2014-02-09T11:23:07Z</time>
      </trkpt>
      <trkpt lat="45.6718" lon="6.01397">
        <ele>1372.9</ele>
        <time>2014-02-09T11:23:13Z</time>
      </trkpt>
      <trkpt lat="45.67181" lon="6.01394">
        <ele>1372.9</ele>
        <time>2014-02-09T11:23:14Z</time>
      </trkpt>
      <trkpt lat="45.67181" lon="6.0139">
        <ele>1372.42</ele>
        <time>2014-02-09T11:23:15Z</time>
      </trkpt>
      <trkpt lat="45.67182" lon="6.01387">
        <ele>1371.94</ele>
        <time>2014-02-09T11:23:16Z</time>
      </trkpt>
      <trkpt lat="45.67182" lon="6.01384">
        <ele>1371.94</ele>
        <time>2014-02-09T11:23:17Z</time>
      </trkpt>
      <trkpt lat="45.67187" lon="6.01364">
        <ele>1370.98</ele>
        <time>2014-02-09T11:23:21Z</time>
      </trkpt>
      <trkpt lat="45.67188" lon="6.0136">
        <ele>1370.98</ele>
        <time>2014-02-09T11:23:22Z</time>
      </trkpt>
      <trkpt lat="45.67189" lon="6.01352">
        <ele>1371.46</ele>
        <time>2014-02-09T11:23:31Z</time>
      </trkpt>
      <trkpt lat="45.67193" lon="6.01338">
        <ele>1373.86</ele>
        <time>2014-02-09T11:23:43Z</time>
      </trkpt>
      <trkpt lat="45.67194" lon="6.01335">
        <ele>1374.34</ele>
        <time>2014-02-09T11:23:45Z</time>
      </trkpt>
      <trkpt lat="45.67194" lon="6.01333">
        <ele>1374.34</ele>
        <time>2014-02-09T11:23:46Z</time>
      </trkpt>
      <trkpt lat="45.67194" lon="6.01331">
        <ele>1374.82</ele>
        <time>2014-02-09T11:23:47Z</time>
      </trkpt>
      <trkpt lat="45.67195" lon="6.01329">
        <ele>1373.86</ele>
        <time>2014-02-09T11:23:48Z</time>
      </trkpt>
      <trkpt lat="45.67195" lon="6.01326">
        <ele>1374.34</ele>
        <time>2014-02-09T11:23:49Z</time>
      </trkpt>
      <trkpt lat="45.67196" lon="6.01322">
        <ele>1374.34</ele>
        <time>2014-02-09T11:23:50Z</time>
      </trkpt>
      <trkpt lat="45.67198" lon="6.01319">
        <ele>1374.82</ele>
        <time>2014-02-09T11:23:51Z</time>
      </trkpt>
      <trkpt lat="45.67199" lon="6.01316">
        <ele>1373.86</ele>
        <time>2014-02-09T11:23:52Z</time>
      </trkpt>
      <trkpt lat="45.672" lon="6.01313">
        <ele>1373.86</ele>
        <time>2014-02-09T11:23:53Z</time>
      </trkpt>
      <trkpt lat="45.67202" lon="6.01308">
        <ele>1374.82</ele>
        <time>2014-02-09T11:23:55Z</time>
      </trkpt>
      <trkpt lat="45.67203" lon="6.01306">
        <ele>1375.3</ele>
        <time>2014-02-09T11:23:56Z</time>
      </trkpt>
      <trkpt lat="45.67203" lon="6.01304">
        <ele>1374.82</ele>
        <time>2014-02-09T11:23:57Z</time>
      </trkpt>
      <trkpt lat="45.67204" lon="6.01261">
        <ele>1372.42</ele>
        <time>2014-02-09T11:24:08Z</time>
      </trkpt>
      <trkpt lat="45.67204" lon="6.01255">
        <ele>1370.98</ele>
        <time>2014-02-09T11:24:09Z</time>
      </trkpt>
      <trkpt lat="45.67205" lon="6.01249">
        <ele>1370.98</ele>
        <time>2014-02-09T11:24:10Z</time>
      </trkpt>
      <trkpt lat="45.67207" lon="6.01243">
        <ele>1370.98</ele>
        <time>2014-02-09T11:24:11Z</time>
      </trkpt>
      <trkpt lat="45.67209" lon="6.01238">
        <ele>1370.5</ele>
        <time>2014-02-09T11:24:12Z</time>
      </trkpt>
      <trkpt lat="45.67221" lon="6.01215">
        <ele>1369.54</ele>
        <time>2014-02-09T11:24:22Z</time>
      </trkpt>
      <trkpt lat="45.67222" lon="6.012">
        <ele>1370.5</ele>
        <time>2014-02-09T11:24:33Z</time>
      </trkpt>
      <trkpt lat="45.67224" lon="6.01192">
        <ele>1371.46</ele>
        <time>2014-02-09T11:24:39Z</time>
      </trkpt>
      <trkpt lat="45.67225" lon="6.01187">
        <ele>1371.94</ele>
        <time>2014-02-09T11:24:43Z</time>
      </trkpt>
      <trkpt lat="45.67226" lon="6.01181">
        <ele>1372.42</ele>
        <time>2014-02-09T11:24:50Z</time>
      </trkpt>
      <trkpt lat="45.67226" lon="6.01178">
        <ele>1372.42</ele>
        <time>2014-02-09T11:24:51Z</time>
      </trkpt>
      <trkpt lat="45.67227" lon="6.01176">
        <ele>1372.42</ele>
        <time>2014-02-09T11:24:52Z</time>
      </trkpt>
      <trkpt lat="45.67228" lon="6.01173">
        <ele>1371.94</ele>
        <time>2014-02-09T11:24:53Z</time>
      </trkpt>
      <trkpt lat="45.67228" lon="6.0117">
        <ele>1371.94</ele>
        <time>2014-02-09T11:24:54Z</time>
      </trkpt>
      <trkpt lat="45.67228" lon="6.01166">
        <ele>1371.94</ele>
        <time>2014-02-09T11:24:55Z</time>
      </trkpt>
      <trkpt lat="45.67229" lon="6.01163">
        <ele>1371.94</ele>
        <time>2014-02-09T11:24:56Z</time>
      </trkpt>
      <trkpt lat="45.67229" lon="6.01161">
        <ele>1371.94</ele>
        <time>2014-02-09T11:24:57Z</time>
      </trkpt>
      <trkpt lat="45.67234" lon="6.01146">
        <ele>1371.94</ele>
        <time>2014-02-09T11:25:02Z</time>
      </trkpt>
      <trkpt lat="45.67236" lon="6.01142">
        <ele>1372.42</ele>
        <time>2014-02-09T11:25:04Z</time>
      </trkpt>
      <trkpt lat="45.67237" lon="6.01139">
        <ele>1371.94</ele>
        <time>2014-02-09T11:25:05Z</time>
      </trkpt>
      <trkpt lat="45.67237" lon="6.01136">
        <ele>1372.42</ele>
        <time>2014-02-09T11:25:06Z</time>
      </trkpt>
      <trkpt lat="45.67238" lon="6.01134">
        <ele>1372.42</ele>
        <time>2014-02-09T11:25:07Z</time>
      </trkpt>
      <trkpt lat="45.67239" lon="6.01133">
        <ele>1373.38</ele>
        <time>2014-02-09T11:25:08Z</time>
      </trkpt>
      <trkpt lat="45.6724" lon="6.01129">
        <ele>1373.38</ele>
        <time>2014-02-09T11:25:10Z</time>
      </trkpt>
      <trkpt lat="45.67241" lon="6.01128">
        <ele>1373.38</ele>
        <time>2014-02-09T11:25:11Z</time>
      </trkpt>
      <trkpt lat="45.67242" lon="6.01126">
        <ele>1373.86</ele>
        <time>2014-02-09T11:25:12Z</time>
      </trkpt>
      <trkpt lat="45.67242" lon="6.01124">
        <ele>1373.86</ele>
        <time>2014-02-09T11:25:13Z</time>
      </trkpt>
      <trkpt lat="45.67243" lon="6.01123">
        <ele>1374.34</ele>
        <time>2014-02-09T11:25:14Z</time>
      </trkpt>
      <trkpt lat="45.67244" lon="6.01121">
        <ele>1374.34</ele>
        <time>2014-02-09T11:25:15Z</time>
      </trkpt>
      <trkpt lat="45.67244" lon="6.01119">
        <ele>1374.34</ele>
        <time>2014-02-09T11:25:16Z</time>
      </trkpt>
      <trkpt lat="45.67245" lon="6.01117">
        <ele>1375.3</ele>
        <time>2014-02-09T11:25:17Z</time>
      </trkpt>
      <trkpt lat="45.67246" lon="6.01116">
        <ele>1374.82</ele>
        <time>2014-02-09T11:25:18Z</time>
      </trkpt>
      <trkpt lat="45.67246" lon="6.01114">
        <ele>1375.3</ele>
        <time>2014-02-09T11:25:19Z</time>
      </trkpt>
      <trkpt lat="45.67247" lon="6.01112">
        <ele>1375.3</ele>
        <time>2014-02-09T11:25:20Z</time>
      </trkpt>
      <trkpt lat="45.67248" lon="6.0111">
        <ele>1375.78</ele>
        <time>2014-02-09T11:25:21Z</time>
      </trkpt>
      <trkpt lat="45.67248" lon="6.01108">
        <ele>1375.3</ele>
        <time>2014-02-09T11:25:22Z</time>
      </trkpt>
      <trkpt lat="45.67248" lon="6.01106">
        <ele>1376.26</ele>
        <time>2014-02-09T11:25:23Z</time>
      </trkpt>
      <trkpt lat="45.67248" lon="6.01104">
        <ele>1376.26</ele>
        <time>2014-02-09T11:25:24Z</time>
      </trkpt>
      <trkpt lat="45.67249" lon="6.01101">
        <ele>1376.26</ele>
        <time>2014-02-09T11:25:25Z</time>
      </trkpt>
      <trkpt lat="45.67249" lon="6.01099">
        <ele>1376.26</ele>
        <time>2014-02-09T11:25:26Z</time>
      </trkpt>
      <trkpt lat="45.6725" lon="6.01096">
        <ele>1376.75</ele>
        <time>2014-02-09T11:25:27Z</time>
      </trkpt>
      <trkpt lat="45.67251" lon="6.01093">
        <ele>1376.26</ele>
        <time>2014-02-09T11:25:28Z</time>
      </trkpt>
      <trkpt lat="45.67252" lon="6.0109">
        <ele>1376.26</ele>
        <time>2014-02-09T11:25:29Z</time>
      </trkpt>
      <trkpt lat="45.67252" lon="6.01086">
        <ele>1376.26</ele>
        <time>2014-02-09T11:25:30Z</time>
      </trkpt>
      <trkpt lat="45.67252" lon="6.01082">
        <ele>1376.26</ele>
        <time>2014-02-09T11:25:31Z</time>
      </trkpt>
      <trkpt lat="45.67253" lon="6.01078">
        <ele>1376.26</ele>
        <time>2014-02-09T11:25:32Z</time>
      </trkpt>
      <trkpt lat="45.67253" lon="6.01075">
        <ele>1376.26</ele>
        <time>2014-02-09T11:25:33Z</time>
      </trkpt>
      <trkpt lat="45.67254" lon="6.01073">
        <ele>1376.26</ele>
        <time>2014-02-09T11:25:34Z</time>
      </trkpt>
      <trkpt lat="45.67254" lon="6.01071">
        <ele>1376.75</ele>
        <time>2014-02-09T11:25:35Z</time>
      </trkpt>
      <trkpt lat="45.67254" lon="6.01068">
        <ele>1376.75</ele>
        <time>2014-02-09T11:25:36Z</time>
      </trkpt>
      <trkpt lat="45.67254" lon="6.01066">
        <ele>1376.75</ele>
        <time>2014-02-09T11:25:37Z</time>
      </trkpt>
      <trkpt lat="45.67254" lon="6.01063">
        <ele>1376.75</ele>
        <time>2014-02-09T11:25:38Z</time>
      </trkpt>
      <trkpt lat="45.67254" lon="6.01061">
        <ele>1377.23</ele>
        <time>2014-02-09T11:25:39Z</time>
      </trkpt>
      <trkpt lat="45.67254" lon="6.01057">
        <ele>1377.23</ele>
        <time>2014-02-09T11:25:41Z</time>
      </trkpt>
      <trkpt lat="45.67254" lon="6.01055">
        <ele>1377.71</ele>
        <time>2014-02-09T11:25:42Z</time>
      </trkpt>
      <trkpt lat="45.67254" lon="6.01053">
        <ele>1377.23</ele>
        <time>2014-02-09T11:25:43Z</time>
      </trkpt>
      <trkpt lat="45.67255" lon="6.01051">
        <ele>1378.19</ele>
        <time>2014-02-09T11:25:44Z</time>
      </trkpt>
      <trkpt lat="45.67255" lon="6.01049">
        <ele>1377.71</ele>
        <time>2014-02-09T11:25:45Z</time>
      </trkpt>
      <trkpt lat="45.67254" lon="6.01047">
        <ele>1378.67</ele>
        <time>2014-02-09T11:25:46Z</time>
      </trkpt>
      <trkpt lat="45.67255" lon="6.01044">
        <ele>1379.15</ele>
        <time>2014-02-09T11:25:48Z</time>
      </trkpt>
      <trkpt lat="45.67255" lon="6.01041">
        <ele>1379.63</ele>
        <time>2014-02-09T11:25:50Z</time>
      </trkpt>
      <trkpt lat="45.67256" lon="6.01039">
        <ele>1379.15</ele>
        <time>2014-02-09T11:25:51Z</time>
      </trkpt>
      <trkpt lat="45.67256" lon="6.01037">
        <ele>1379.63</ele>
        <time>2014-02-09T11:25:52Z</time>
      </trkpt>
      <trkpt lat="45.67257" lon="6.01034">
        <ele>1379.63</ele>
        <time>2014-02-09T11:25:53Z</time>
      </trkpt>
      <trkpt lat="45.67258" lon="6.0103">
        <ele>1379.63</ele>
        <time>2014-02-09T11:25:54Z</time>
      </trkpt>
      <trkpt lat="45.67258" lon="6.00999">
        <ele>1378.67</ele>
        <time>2014-02-09T11:26:02Z</time>
      </trkpt>
      <trkpt lat="45.67257" lon="6.00994">
        <ele>1379.63</ele>
        <time>2014-02-09T11:26:05Z</time>
      </trkpt>
      <trkpt lat="45.67258" lon="6.00993">
        <ele>1379.63</ele>
        <time>2014-02-09T11:26:06Z</time>
      </trkpt>
      <trkpt lat="45.67258" lon="6.00989">
        <ele>1379.63</ele>
        <time>2014-02-09T11:26:08Z</time>
      </trkpt>
      <trkpt lat="45.67258" lon="6.00987">
        <ele>1379.63</ele>
        <time>2014-02-09T11:26:09Z</time>
      </trkpt>
      <trkpt lat="45.67258" lon="6.00983">
        <ele>1379.63</ele>
        <time>2014-02-09T11:26:10Z</time>
      </trkpt>
      <trkpt lat="45.67259" lon="6.00978">
        <ele>1379.15</ele>
        <time>2014-02-09T11:26:11Z</time>
      </trkpt>
      <trkpt lat="45.6726" lon="6.00971">
        <ele>1379.15</ele>
        <time>2014-02-09T11:26:12Z</time>
      </trkpt>
      <trkpt lat="45.67261" lon="6.00966">
        <ele>1377.71</ele>
        <time>2014-02-09T11:26:13Z</time>
      </trkpt>
      <trkpt lat="45.67263" lon="6.00962">
        <ele>1377.23</ele>
        <time>2014-02-09T11:26:14Z</time>
      </trkpt>
      <trkpt lat="45.67266" lon="6.00958">
        <ele>1376.75</ele>
        <time>2014-02-09T11:26:15Z</time>
      </trkpt>
      <trkpt lat="45.67269" lon="6.00955">
        <ele>1376.26</ele>
        <time>2014-02-09T11:26:16Z</time>
      </trkpt>
      <trkpt lat="45.67272" lon="6.00952">
        <ele>1376.75</ele>
        <time>2014-02-09T11:26:17Z</time>
      </trkpt>
      <trkpt lat="45.67285" lon="6.0094">
        <ele>1376.26</ele>
        <time>2014-02-09T11:26:22Z</time>
      </trkpt>
      <trkpt lat="45.67285" lon="6.00938">
        <ele>1376.75</ele>
        <time>2014-02-09T11:26:23Z</time>
      </trkpt>
      <trkpt lat="45.67286" lon="6.00937">
        <ele>1376.75</ele>
        <time>2014-02-09T11:26:24Z</time>
      </trkpt>
      <trkpt lat="45.67287" lon="6.00936">
        <ele>1376.75</ele>
        <time>2014-02-09T11:26:25Z</time>
      </trkpt>
      <trkpt lat="45.67288" lon="6.00935">
        <ele>1377.23</ele>
        <time>2014-02-09T11:26:26Z</time>
      </trkpt>
      <trkpt lat="45.67289" lon="6.00934">
        <ele>1377.23</ele>
        <time>2014-02-09T11:26:27Z</time>
      </trkpt>
      <trkpt lat="45.6729" lon="6.00933">
        <ele>1377.71</ele>
        <time>2014-02-09T11:26:28Z</time>
      </trkpt>
      <trkpt lat="45.67291" lon="6.00932">
        <ele>1377.71</ele>
        <time>2014-02-09T11:26:29Z</time>
      </trkpt>
      <trkpt lat="45.67292" lon="6.00931">
        <ele>1378.67</ele>
        <time>2014-02-09T11:26:30Z</time>
      </trkpt>
      <trkpt lat="45.67293" lon="6.00928">
        <ele>1378.67</ele>
        <time>2014-02-09T11:26:33Z</time>
      </trkpt>
      <trkpt lat="45.67294" lon="6.00927">
        <ele>1378.67</ele>
        <time>2014-02-09T11:26:34Z</time>
      </trkpt>
      <trkpt lat="45.67299" lon="6.0092">
        <ele>1378.67</ele>
        <time>2014-02-09T11:26:37Z</time>
      </trkpt>
      <trkpt lat="45.67302" lon="6.00914">
        <ele>1378.67</ele>
        <time>2014-02-09T11:26:39Z</time>
      </trkpt>
      <trkpt lat="45.67303" lon="6.00912">
        <ele>1378.67</ele>
        <time>2014-02-09T11:26:40Z</time>
      </trkpt>
      <trkpt lat="45.67304" lon="6.0091">
        <ele>1378.67</ele>
        <time>2014-02-09T11:26:41Z</time>
      </trkpt>
      <trkpt lat="45.67305" lon="6.00908">
        <ele>1379.15</ele>
        <time>2014-02-09T11:26:42Z</time>
      </trkpt>
      <trkpt lat="45.67306" lon="6.00906">
        <ele>1378.67</ele>
        <time>2014-02-09T11:26:43Z</time>
      </trkpt>
      <trkpt lat="45.67306" lon="6.00904">
        <ele>1379.63</ele>
        <time>2014-02-09T11:26:44Z</time>
      </trkpt>
      <trkpt lat="45.67307" lon="6.00902">
        <ele>1379.63</ele>
        <time>2014-02-09T11:26:45Z</time>
      </trkpt>
      <trkpt lat="45.67308" lon="6.00901">
        <ele>1379.63</ele>
        <time>2014-02-09T11:26:46Z</time>
      </trkpt>
      <trkpt lat="45.67309" lon="6.00899">
        <ele>1380.11</ele>
        <time>2014-02-09T11:26:47Z</time>
      </trkpt>
      <trkpt lat="45.6731" lon="6.00895">
        <ele>1380.59</ele>
        <time>2014-02-09T11:26:50Z</time>
      </trkpt>
      <trkpt lat="45.67311" lon="6.00893">
        <ele>1380.59</ele>
        <time>2014-02-09T11:26:51Z</time>
      </trkpt>
      <trkpt lat="45.67311" lon="6.0089">
        <ele>1380.11</ele>
        <time>2014-02-09T11:26:52Z</time>
      </trkpt>
      <trkpt lat="45.67312" lon="6.00888">
        <ele>1380.59</ele>
        <time>2014-02-09T11:26:53Z</time>
      </trkpt>
      <trkpt lat="45.67312" lon="6.00884">
        <ele>1380.11</ele>
        <time>2014-02-09T11:26:54Z</time>
      </trkpt>
      <trkpt lat="45.67313" lon="6.00853">
        <ele>1377.23</ele>
        <time>2014-02-09T11:26:59Z</time>
      </trkpt>
      <trkpt lat="45.67314" lon="6.00841">
        <ele>1377.23</ele>
        <time>2014-02-09T11:27:01Z</time>
      </trkpt>
      <trkpt lat="45.67314" lon="6.00839">
        <ele>1378.19</ele>
        <time>2014-02-09T11:27:02Z</time>
      </trkpt>
      <trkpt lat="45.67317" lon="6.00831">
        <ele>1379.15</ele>
        <time>2014-02-09T11:27:06Z</time>
      </trkpt>
      <trkpt lat="45.67318" lon="6.00829">
        <ele>1379.15</ele>
        <time>2014-02-09T11:27:07Z</time>
      </trkpt>
      <trkpt lat="45.67323" lon="6.00813">
        <ele>1381.55</ele>
        <time>2014-02-09T11:27:17Z</time>
      </trkpt>
      <trkpt lat="45.67327" lon="6.00801">
        <ele>1382.99</ele>
        <time>2014-02-09T11:27:26Z</time>
      </trkpt>
      <trkpt lat="45.67329" lon="6.00795">
        <ele>1383.96</ele>
        <time>2014-02-09T11:27:30Z</time>
      </trkpt>
      <trkpt lat="45.67329" lon="6.00792">
        <ele>1383.96</ele>
        <time>2014-02-09T11:27:32Z</time>
      </trkpt>
      <trkpt lat="45.67331" lon="6.00785">
        <ele>1384.92</ele>
        <time>2014-02-09T11:27:36Z</time>
      </trkpt>
      <trkpt lat="45.67332" lon="6.00783">
        <ele>1384.92</ele>
        <time>2014-02-09T11:27:37Z</time>
      </trkpt>
      <trkpt lat="45.67332" lon="6.00781">
        <ele>1385.4</ele>
        <time>2014-02-09T11:27:38Z</time>
      </trkpt>
      <trkpt lat="45.67333" lon="6.00778">
        <ele>1385.4</ele>
        <time>2014-02-09T11:27:39Z</time>
      </trkpt>
      <trkpt lat="45.67334" lon="6.00776">
        <ele>1385.4</ele>
        <time>2014-02-09T11:27:40Z</time>
      </trkpt>
      <trkpt lat="45.67335" lon="6.00774">
        <ele>1384.92</ele>
        <time>2014-02-09T11:27:41Z</time>
      </trkpt>
      <trkpt lat="45.67335" lon="6.00771">
        <ele>1385.4</ele>
        <time>2014-02-09T11:27:42Z</time>
      </trkpt>
      <trkpt lat="45.67336" lon="6.00768">
        <ele>1384.92</ele>
        <time>2014-02-09T11:27:43Z</time>
      </trkpt>
      <trkpt lat="45.67339" lon="6.00751">
        <ele>1385.4</ele>
        <time>2014-02-09T11:27:50Z</time>
      </trkpt>
      <trkpt lat="45.67339" lon="6.00746">
        <ele>1385.88</ele>
        <time>2014-02-09T11:27:54Z</time>
      </trkpt>
      <trkpt lat="45.6734" lon="6.00733">
        <ele>1387.8</ele>
        <time>2014-02-09T11:28:07Z</time>
      </trkpt>
      <trkpt lat="45.6734" lon="6.00724">
        <ele>1389.24</ele>
        <time>2014-02-09T11:28:19Z</time>
      </trkpt>
      <trkpt lat="45.67346" lon="6.0072">
        <ele>1389.24</ele>
        <time>2014-02-09T11:28:37Z</time>
      </trkpt>
      <trkpt lat="45.67344" lon="6.00718">
        <ele>1389.24</ele>
        <time>2014-02-09T11:29:01Z</time>
      </trkpt>
      <trkpt lat="45.67343" lon="6.00717">
        <ele>1389.72</ele>
        <time>2014-02-09T11:29:02Z</time>
      </trkpt>
      <trkpt lat="45.67343" lon="6.00714">
        <ele>1389.72</ele>
        <time>2014-02-09T11:29:03Z</time>
      </trkpt>
      <trkpt lat="45.67342" lon="6.00712">
        <ele>1389.72</ele>
        <time>2014-02-09T11:29:04Z</time>
      </trkpt>
      <trkpt lat="45.6734" lon="6.00709">
        <ele>1389.24</ele>
        <time>2014-02-09T11:29:05Z</time>
      </trkpt>
      <trkpt lat="45.67339" lon="6.00705">
        <ele>1388.76</ele>
        <time>2014-02-09T11:29:06Z</time>
      </trkpt>
      <trkpt lat="45.67338" lon="6.007">
        <ele>1388.76</ele>
        <time>2014-02-09T11:29:07Z</time>
      </trkpt>
      <trkpt lat="45.67337" lon="6.00695">
        <ele>1388.28</ele>
        <time>2014-02-09T11:29:08Z</time>
      </trkpt>
      <trkpt lat="45.67337" lon="6.00688">
        <ele>1387.32</ele>
        <time>2014-02-09T11:29:09Z</time>
      </trkpt>
      <trkpt lat="45.67339" lon="6.00681">
        <ele>1387.32</ele>
        <time>2014-02-09T11:29:10Z</time>
      </trkpt>
      <trkpt lat="45.67341" lon="6.00674">
        <ele>1386.84</ele>
        <time>2014-02-09T11:29:11Z</time>
      </trkpt>
      <trkpt lat="45.67342" lon="6.00666">
        <ele>1386.36</ele>
        <time>2014-02-09T11:29:12Z</time>
      </trkpt>
      <trkpt lat="45.67344" lon="6.00656">
        <ele>1384.92</ele>
        <time>2014-02-09T11:29:13Z</time>
      </trkpt>
      <trkpt lat="45.67345" lon="6.00647">
        <ele>1384.44</ele>
        <time>2014-02-09T11:29:14Z</time>
      </trkpt>
      <trkpt lat="45.67347" lon="6.00637">
        <ele>1382.99</ele>
        <time>2014-02-09T11:29:15Z</time>
      </trkpt>
      <trkpt lat="45.67352" lon="6.00604">
        <ele>1382.99</ele>
        <time>2014-02-09T11:29:22Z</time>
      </trkpt>
      <trkpt lat="45.67353" lon="6.00602">
        <ele>1383.47</ele>
        <time>2014-02-09T11:29:23Z</time>
      </trkpt>
      <trkpt lat="45.67355" lon="6.00591">
        <ele>1384.92</ele>
        <time>2014-02-09T11:29:30Z</time>
      </trkpt>
      <trkpt lat="45.67355" lon="6.00589">
        <ele>1385.4</ele>
        <time>2014-02-09T11:29:31Z</time>
      </trkpt>
      <trkpt lat="45.67356" lon="6.00587">
        <ele>1385.88</ele>
        <time>2014-02-09T11:29:32Z</time>
      </trkpt>
      <trkpt lat="45.67357" lon="6.00585">
        <ele>1385.88</ele>
        <time>2014-02-09T11:29:33Z</time>
      </trkpt>
      <trkpt lat="45.67358" lon="6.00582">
        <ele>1385.88</ele>
        <time>2014-02-09T11:29:34Z</time>
      </trkpt>
      <trkpt lat="45.67359" lon="6.00579">
        <ele>1385.4</ele>
        <time>2014-02-09T11:29:35Z</time>
      </trkpt>
      <trkpt lat="45.67359" lon="6.00575">
        <ele>1385.88</ele>
        <time>2014-02-09T11:29:36Z</time>
      </trkpt>
      <trkpt lat="45.6736" lon="6.00571">
        <ele>1386.36</ele>
        <time>2014-02-09T11:29:37Z</time>
      </trkpt>
      <trkpt lat="45.67361" lon="6.00566">
        <ele>1385.4</ele>
        <time>2014-02-09T11:29:38Z</time>
      </trkpt>
      <trkpt lat="45.67362" lon="6.0056">
        <ele>1384.92</ele>
        <time>2014-02-09T11:29:39Z</time>
      </trkpt>
      <trkpt lat="45.67364" lon="6.00553">
        <ele>1384.44</ele>
        <time>2014-02-09T11:29:40Z</time>
      </trkpt>
      <trkpt lat="45.67365" lon="6.00546">
        <ele>1382.99</ele>
        <time>2014-02-09T11:29:41Z</time>
      </trkpt>
      <trkpt lat="45.67367" lon="6.00533">
        <ele>1382.99</ele>
        <time>2014-02-09T11:29:43Z</time>
      </trkpt>
      <trkpt lat="45.67372" lon="6.00486">
        <ele>1382.51</ele>
        <time>2014-02-09T11:29:54Z</time>
      </trkpt>
      <trkpt lat="45.67374" lon="6.00443">
        <ele>1381.55</ele>
        <time>2014-02-09T11:30:03Z</time>
      </trkpt>
      <trkpt lat="45.67377" lon="6.0038">
        <ele>1378.67</ele>
        <time>2014-02-09T11:30:14Z</time>
      </trkpt>
      <trkpt lat="45.6738" lon="6.00345">
        <ele>1376.75</ele>
        <time>2014-02-09T11:30:19Z</time>
      </trkpt>
      <trkpt lat="45.67385" lon="6.0029">
        <ele>1375.78</ele>
        <time>2014-02-09T11:30:28Z</time>
      </trkpt>
      <trkpt lat="45.67384" lon="6.00259">
        <ele>1376.26</ele>
        <time>2014-02-09T11:30:36Z</time>
      </trkpt>
      <trkpt lat="45.6739" lon="6.00219">
        <ele>1374.82</ele>
        <time>2014-02-09T11:30:45Z</time>
      </trkpt>
      <trkpt lat="45.67391" lon="6.00215">
        <ele>1374.82</ele>
        <time>2014-02-09T11:30:46Z</time>
      </trkpt>
      <trkpt lat="45.67392" lon="6.00212">
        <ele>1374.82</ele>
        <time>2014-02-09T11:30:47Z</time>
      </trkpt>
      <trkpt lat="45.67392" lon="6.00208">
        <ele>1374.34</ele>
        <time>2014-02-09T11:30:48Z</time>
      </trkpt>
      <trkpt lat="45.67399" lon="6.00191">
        <ele>1375.3</ele>
        <time>2014-02-09T11:30:58Z</time>
      </trkpt>
      <trkpt lat="45.67402" lon="6.00184">
        <ele>1376.26</ele>
        <time>2014-02-09T11:31:02Z</time>
      </trkpt>
      <trkpt lat="45.67404" lon="6.00182">
        <ele>1375.3</ele>
        <time>2014-02-09T11:31:03Z</time>
      </trkpt>
      <trkpt lat="45.67405" lon="6.00181">
        <ele>1375.78</ele>
        <time>2014-02-09T11:31:04Z</time>
      </trkpt>
      <trkpt lat="45.67406" lon="6.00179">
        <ele>1375.78</ele>
        <time>2014-02-09T11:31:05Z</time>
      </trkpt>
      <trkpt lat="45.67408" lon="6.00178">
        <ele>1376.26</ele>
        <time>2014-02-09T11:31:06Z</time>
      </trkpt>
      <trkpt lat="45.67409" lon="6.00176">
        <ele>1376.26</ele>
        <time>2014-02-09T11:31:07Z</time>
      </trkpt>
      <trkpt lat="45.6741" lon="6.00174">
        <ele>1376.26</ele>
        <time>2014-02-09T11:31:08Z</time>
      </trkpt>
      <trkpt lat="45.67412" lon="6.00173">
        <ele>1376.26</ele>
        <time>2014-02-09T11:31:09Z</time>
      </trkpt>
      <trkpt lat="45.67413" lon="6.00171">
        <ele>1376.75</ele>
        <time>2014-02-09T11:31:10Z</time>
      </trkpt>
      <trkpt lat="45.67415" lon="6.00169">
        <ele>1376.75</ele>
        <time>2014-02-09T11:31:11Z</time>
      </trkpt>
      <trkpt lat="45.67415" lon="6.00168">
        <ele>1376.75</ele>
        <time>2014-02-09T11:31:12Z</time>
      </trkpt>
      <trkpt lat="45.67417" lon="6.00167">
        <ele>1376.75</ele>
        <time>2014-02-09T11:31:13Z</time>
      </trkpt>
      <trkpt lat="45.67418" lon="6.00165">
        <ele>1377.23</ele>
        <time>2014-02-09T11:31:14Z</time>
      </trkpt>
      <trkpt lat="45.67419" lon="6.00164">
        <ele>1377.23</ele>
        <time>2014-02-09T11:31:15Z</time>
      </trkpt>
      <trkpt lat="45.67421" lon="6.00162">
        <ele>1377.71</ele>
        <time>2014-02-09T11:31:16Z</time>
      </trkpt>
      <trkpt lat="45.67422" lon="6.0016">
        <ele>1377.71</ele>
        <time>2014-02-09T11:31:17Z</time>
      </trkpt>
      <trkpt lat="45.67424" lon="6.00158">
        <ele>1377.23</ele>
        <time>2014-02-09T11:31:18Z</time>
      </trkpt>
      <trkpt lat="45.67426" lon="6.00156">
        <ele>1377.23</ele>
        <time>2014-02-09T11:31:19Z</time>
      </trkpt>
      <trkpt lat="45.67427" lon="6.00154">
        <ele>1377.71</ele>
        <time>2014-02-09T11:31:20Z</time>
      </trkpt>
      <trkpt lat="45.67429" lon="6.00152">
        <ele>1377.23</ele>
        <time>2014-02-09T11:31:21Z</time>
      </trkpt>
      <trkpt lat="45.6743" lon="6.0015">
        <ele>1377.23</ele>
        <time>2014-02-09T11:31:22Z</time>
      </trkpt>
      <trkpt lat="45.67432" lon="6.00148">
        <ele>1377.23</ele>
        <time>2014-02-09T11:31:23Z</time>
      </trkpt>
      <trkpt lat="45.67434" lon="6.00145">
        <ele>1376.75</ele>
        <time>2014-02-09T11:31:24Z</time>
      </trkpt>
      <trkpt lat="45.67436" lon="6.00143">
        <ele>1377.23</ele>
        <time>2014-02-09T11:31:25Z</time>
      </trkpt>
      <trkpt lat="45.67437" lon="6.00142">
        <ele>1377.23</ele>
        <time>2014-02-09T11:31:26Z</time>
      </trkpt>
      <trkpt lat="45.67439" lon="6.0014">
        <ele>1376.75</ele>
        <time>2014-02-09T11:31:27Z</time>
      </trkpt>
      <trkpt lat="45.67442" lon="6.00138">
        <ele>1376.26</ele>
        <time>2014-02-09T11:31:28Z</time>
      </trkpt>
      <trkpt lat="45.67458" lon="6.00131">
        <ele>1376.75</ele>
        <time>2014-02-09T11:31:34Z</time>
      </trkpt>
      <trkpt lat="45.67461" lon="6.0013">
        <ele>1376.75</ele>
        <time>2014-02-09T11:31:36Z</time>
      </trkpt>
      <trkpt lat="45.67462" lon="6.00129">
        <ele>1377.23</ele>
        <time>2014-02-09T11:31:37Z</time>
      </trkpt>
      <trkpt lat="45.67464" lon="6.00128">
        <ele>1377.23</ele>
        <time>2014-02-09T11:31:38Z</time>
      </trkpt>
      <trkpt lat="45.67465" lon="6.00128">
        <ele>1377.23</ele>
        <time>2014-02-09T11:31:39Z</time>
      </trkpt>
      <trkpt lat="45.67466" lon="6.00126">
        <ele>1377.71</ele>
        <time>2014-02-09T11:31:40Z</time>
      </trkpt>
      <trkpt lat="45.67468" lon="6.00125">
        <ele>1377.71</ele>
        <time>2014-02-09T11:31:41Z</time>
      </trkpt>
      <trkpt lat="45.67469" lon="6.00125">
        <ele>1377.71</ele>
        <time>2014-02-09T11:31:42Z</time>
      </trkpt>
      <trkpt lat="45.6747" lon="6.00124">
        <ele>1377.71</ele>
        <time>2014-02-09T11:31:43Z</time>
      </trkpt>
      <trkpt lat="45.67473" lon="6.00121">
        <ele>1378.67</ele>
        <time>2014-02-09T11:31:45Z</time>
      </trkpt>
      <trkpt lat="45.67474" lon="6.0012">
        <ele>1378.19</ele>
        <time>2014-02-09T11:31:46Z</time>
      </trkpt>
      <trkpt lat="45.67476" lon="6.00118">
        <ele>1379.15</ele>
        <time>2014-02-09T11:31:47Z</time>
      </trkpt>
      <trkpt lat="45.67477" lon="6.00116">
        <ele>1379.15</ele>
        <time>2014-02-09T11:31:48Z</time>
      </trkpt>
      <trkpt lat="45.67479" lon="6.00115">
        <ele>1379.15</ele>
        <time>2014-02-09T11:31:49Z</time>
      </trkpt>
      <trkpt lat="45.67481" lon="6.00113">
        <ele>1379.15</ele>
        <time>2014-02-09T11:31:50Z</time>
      </trkpt>
      <trkpt lat="45.67482" lon="6.00112">
        <ele>1379.15</ele>
        <time>2014-02-09T11:31:51Z</time>
      </trkpt>
      <trkpt lat="45.67483" lon="6.00111">
        <ele>1380.11</ele>
        <time>2014-02-09T11:31:52Z</time>
      </trkpt>
      <trkpt lat="45.67484" lon="6.0011">
        <ele>1380.11</ele>
        <time>2014-02-09T11:31:53Z</time>
      </trkpt>
      <trkpt lat="45.67484" lon="6.00108">
        <ele>1380.11</ele>
        <time>2014-02-09T11:31:54Z</time>
      </trkpt>
      <trkpt lat="45.67485" lon="6.00107">
        <ele>1380.11</ele>
        <time>2014-02-09T11:31:55Z</time>
      </trkpt>
      <trkpt lat="45.67487" lon="6.00106">
        <ele>1380.11</ele>
        <time>2014-02-09T11:31:56Z</time>
      </trkpt>
      <trkpt lat="45.67488" lon="6.00104">
        <ele>1381.07</ele>
        <time>2014-02-09T11:31:57Z</time>
      </trkpt>
      <trkpt lat="45.67489" lon="6.00102">
        <ele>1380.59</ele>
        <time>2014-02-09T11:31:58Z</time>
      </trkpt>
      <trkpt lat="45.6749" lon="6.00101">
        <ele>1380.59</ele>
        <time>2014-02-09T11:31:59Z</time>
      </trkpt>
      <trkpt lat="45.67491" lon="6.00099">
        <ele>1381.07</ele>
        <time>2014-02-09T11:32:00Z</time>
      </trkpt>
      <trkpt lat="45.67492" lon="6.00097">
        <ele>1381.07</ele>
        <time>2014-02-09T11:32:01Z</time>
      </trkpt>
      <trkpt lat="45.67492" lon="6.00095">
        <ele>1380.59</ele>
        <time>2014-02-09T11:32:02Z</time>
      </trkpt>
      <trkpt lat="45.67494" lon="6.00094">
        <ele>1380.11</ele>
        <time>2014-02-09T11:32:03Z</time>
      </trkpt>
      <trkpt lat="45.67495" lon="6.00092">
        <ele>1379.15</ele>
        <time>2014-02-09T11:32:04Z</time>
      </trkpt>
      <trkpt lat="45.67496" lon="6.0009">
        <ele>1380.11</ele>
        <time>2014-02-09T11:32:05Z</time>
      </trkpt>
      <trkpt lat="45.67504" lon="6.00082">
        <ele>1380.11</ele>
        <time>2014-02-09T11:32:09Z</time>
      </trkpt>
      <trkpt lat="45.67505" lon="6.00081">
        <ele>1380.11</ele>
        <time>2014-02-09T11:32:10Z</time>
      </trkpt>
      <trkpt lat="45.67507" lon="6.0008">
        <ele>1380.11</ele>
        <time>2014-02-09T11:32:11Z</time>
      </trkpt>
      <trkpt lat="45.67509" lon="6.00077">
        <ele>1381.07</ele>
        <time>2014-02-09T11:32:13Z</time>
      </trkpt>
      <trkpt lat="45.6751" lon="6.00076">
        <ele>1381.07</ele>
        <time>2014-02-09T11:32:14Z</time>
      </trkpt>
      <trkpt lat="45.67514" lon="6.00073">
        <ele>1381.55</ele>
        <time>2014-02-09T11:32:18Z</time>
      </trkpt>
      <trkpt lat="45.67518" lon="6.00069">
        <ele>1382.03</ele>
        <time>2014-02-09T11:32:23Z</time>
      </trkpt>
      <trkpt lat="45.67519" lon="6.00068">
        <ele>1382.99</ele>
        <time>2014-02-09T11:32:24Z</time>
      </trkpt>
      <trkpt lat="45.67522" lon="6.00065">
        <ele>1382.51</ele>
        <time>2014-02-09T11:32:27Z</time>
      </trkpt>
      <trkpt lat="45.67524" lon="6.00062">
        <ele>1383.47</ele>
        <time>2014-02-09T11:32:29Z</time>
      </trkpt>
      <trkpt lat="45.67525" lon="6.00062">
        <ele>1383.96</ele>
        <time>2014-02-09T11:32:30Z</time>
      </trkpt>
      <trkpt lat="45.67531" lon="6.00057">
        <ele>1383.96</ele>
        <time>2014-02-09T11:32:36Z</time>
      </trkpt>
      <trkpt lat="45.67532" lon="6.00056">
        <ele>1384.44</ele>
        <time>2014-02-09T11:32:37Z</time>
      </trkpt>
      <trkpt lat="45.67533" lon="6.00055">
        <ele>1384.44</ele>
        <time>2014-02-09T11:32:38Z</time>
      </trkpt>
      <trkpt lat="45.67536" lon="6.00053">
        <ele>1384.44</ele>
        <time>2014-02-09T11:32:41Z</time>
      </trkpt>
      <trkpt lat="45.67538" lon="6.00051">
        <ele>1384.92</ele>
        <time>2014-02-09T11:32:42Z</time>
      </trkpt>
      <trkpt lat="45.67539" lon="6.0005">
        <ele>1384.44</ele>
        <time>2014-02-09T11:32:43Z</time>
      </trkpt>
      <trkpt lat="45.67541" lon="6.00048">
        <ele>1384.92</ele>
        <time>2014-02-09T11:32:44Z</time>
      </trkpt>
      <trkpt lat="45.67543" lon="6.00047">
        <ele>1384.92</ele>
        <time>2014-02-09T11:32:45Z</time>
      </trkpt>
      <trkpt lat="45.67544" lon="6.00047">
        <ele>1384.92</ele>
        <time>2014-02-09T11:32:46Z</time>
      </trkpt>
      <trkpt lat="45.67552" lon="6.00045">
        <ele>1385.4</ele>
        <time>2014-02-09T11:33:00Z</time>
      </trkpt>
      <trkpt lat="45.67555" lon="6.00042">
        <ele>1384.92</ele>
        <time>2014-02-09T11:33:24Z</time>
      </trkpt>
      <trkpt lat="45.6755" lon="6.00044">
        <ele>1384.92</ele>
        <time>2014-02-09T11:33:56Z</time>
      </trkpt>
      <trkpt lat="45.67555" lon="6.00041">
        <ele>1385.88</ele>
        <time>2014-02-09T11:34:17Z</time>
      </trkpt>
      <trkpt lat="45.67556" lon="6.0004">
        <ele>1386.84</ele>
        <time>2014-02-09T11:34:19Z</time>
      </trkpt>
      <trkpt lat="45.6756" lon="6.00034">
        <ele>1388.76</ele>
        <time>2014-02-09T11:34:27Z</time>
      </trkpt>
      <trkpt lat="45.67565" lon="6.00028">
        <ele>1388.28</ele>
        <time>2014-02-09T11:34:31Z</time>
      </trkpt>
      <trkpt lat="45.67566" lon="6.00026">
        <ele>1388.28</ele>
        <time>2014-02-09T11:34:32Z</time>
      </trkpt>
      <trkpt lat="45.67568" lon="6.00022">
        <ele>1388.28</ele>
        <time>2014-02-09T11:34:34Z</time>
      </trkpt>
      <trkpt lat="45.67573" lon="6.00013">
        <ele>1389.24</ele>
        <time>2014-02-09T11:34:40Z</time>
      </trkpt>
      <trkpt lat="45.67574" lon="6.00011">
        <ele>1389.72</ele>
        <time>2014-02-09T11:34:41Z</time>
      </trkpt>
      <trkpt lat="45.67576" lon="6.0001">
        <ele>1389.24</ele>
        <time>2014-02-09T11:34:42Z</time>
      </trkpt>
      <trkpt lat="45.67577" lon="6.00008">
        <ele>1389.72</ele>
        <time>2014-02-09T11:34:43Z</time>
      </trkpt>
      <trkpt lat="45.67578" lon="6.00006">
        <ele>1389.72</ele>
        <time>2014-02-09T11:34:44Z</time>
      </trkpt>
      <trkpt lat="45.67579" lon="6.00004">
        <ele>1389.72</ele>
        <time>2014-02-09T11:34:45Z</time>
      </trkpt>
      <trkpt lat="45.6758" lon="6.00001">
        <ele>1389.72</ele>
        <time>2014-02-09T11:34:46Z</time>
      </trkpt>
      <trkpt lat="45.67584" lon="5.99991">
        <ele>1389.72</ele>
        <time>2014-02-09T11:34:50Z</time>
      </trkpt>
      <trkpt lat="45.6759" lon="5.99977">
        <ele>1392.13</ele>
        <time>2014-02-09T11:35:02Z</time>
      </trkpt>
      <trkpt lat="45.6759" lon="5.99975">
        <ele>1391.17</ele>
        <time>2014-02-09T11:35:03Z</time>
      </trkpt>
      <trkpt lat="45.67591" lon="5.99973">
        <ele>1392.13</ele>
        <time>2014-02-09T11:35:04Z</time>
      </trkpt>
      <trkpt lat="45.67593" lon="5.9996">
        <ele>1391.65</ele>
        <time>2014-02-09T11:35:10Z</time>
      </trkpt>
      <trkpt lat="45.67593" lon="5.99958">
        <ele>1391.65</ele>
        <time>2014-02-09T11:35:11Z</time>
      </trkpt>
      <trkpt lat="45.67593" lon="5.99954">
        <ele>1390.68</ele>
        <time>2014-02-09T11:35:27Z</time>
      </trkpt>
      <trkpt lat="45.67593" lon="5.99951">
        <ele>1391.17</ele>
        <time>2014-02-09T11:35:46Z</time>
      </trkpt>
      <trkpt lat="45.67594" lon="5.99951">
        <ele>1391.17</ele>
        <time>2014-02-09T11:36:07Z</time>
      </trkpt>
      <trkpt lat="45.6759" lon="5.99932">
        <ele>1390.2</ele>
        <time>2014-02-09T11:36:19Z</time>
      </trkpt>
      <trkpt lat="45.67588" lon="5.99917">
        <ele>1389.72</ele>
        <time>2014-02-09T11:36:21Z</time>
      </trkpt>
      <trkpt lat="45.67588" lon="5.99908">
        <ele>1388.28</ele>
        <time>2014-02-09T11:36:22Z</time>
      </trkpt>
      <trkpt lat="45.67585" lon="5.99862">
        <ele>1385.88</ele>
        <time>2014-02-09T11:36:28Z</time>
      </trkpt>
      <trkpt lat="45.67584" lon="5.99856">
        <ele>1385.4</ele>
        <time>2014-02-09T11:36:29Z</time>
      </trkpt>
      <trkpt lat="45.6758" lon="5.99838">
        <ele>1384.44</ele>
        <time>2014-02-09T11:36:32Z</time>
      </trkpt>
      <trkpt lat="45.6756" lon="5.99794">
        <ele>1383.47</ele>
        <time>2014-02-09T11:36:42Z</time>
      </trkpt>
      <trkpt lat="45.67542" lon="5.99754">
        <ele>1382.51</ele>
        <time>2014-02-09T11:36:51Z</time>
      </trkpt>
      <trkpt lat="45.6754" lon="5.99748">
        <ele>1382.03</ele>
        <time>2014-02-09T11:36:52Z</time>
      </trkpt>
      <trkpt lat="45.67538" lon="5.99741">
        <ele>1381.55</ele>
        <time>2014-02-09T11:36:53Z</time>
      </trkpt>
      <trkpt lat="45.67537" lon="5.99734">
        <ele>1381.55</ele>
        <time>2014-02-09T11:36:54Z</time>
      </trkpt>
      <trkpt lat="45.67537" lon="5.99728">
        <ele>1381.07</ele>
        <time>2014-02-09T11:36:55Z</time>
      </trkpt>
      <trkpt lat="45.67537" lon="5.99722">
        <ele>1381.07</ele>
        <time>2014-02-09T11:36:56Z</time>
      </trkpt>
      <trkpt lat="45.67538" lon="5.99717">
        <ele>1380.59</ele>
        <time>2014-02-09T11:36:57Z</time>
      </trkpt>
      <trkpt lat="45.67542" lon="5.99699">
        <ele>1381.07</ele>
        <time>2014-02-09T11:37:02Z</time>
      </trkpt>
      <trkpt lat="45.67541" lon="5.99697">
        <ele>1381.07</ele>
        <time>2014-02-09T11:37:03Z</time>
      </trkpt>
      <trkpt lat="45.67541" lon="5.99695">
        <ele>1381.55</ele>
        <time>2014-02-09T11:37:04Z</time>
      </trkpt>
      <trkpt lat="45.67541" lon="5.99693">
        <ele>1382.03</ele>
        <time>2014-02-09T11:37:05Z</time>
      </trkpt>
      <trkpt lat="45.67541" lon="5.99692">
        <ele>1382.03</ele>
        <time>2014-02-09T11:37:06Z</time>
      </trkpt>
      <trkpt lat="45.67541" lon="5.99688">
        <ele>1382.99</ele>
        <time>2014-02-09T11:37:09Z</time>
      </trkpt>
      <trkpt lat="45.6754" lon="5.99675">
        <ele>1384.92</ele>
        <time>2014-02-09T11:37:21Z</time>
      </trkpt>
      <trkpt lat="45.67537" lon="5.99661">
        <ele>1386.84</ele>
        <time>2014-02-09T11:37:36Z</time>
      </trkpt>
      <trkpt lat="45.67537" lon="5.99654">
        <ele>1388.76</ele>
        <time>2014-02-09T11:37:47Z</time>
      </trkpt>
      <trkpt lat="45.67538" lon="5.99639">
        <ele>1391.17</ele>
        <time>2014-02-09T11:38:02Z</time>
      </trkpt>
      <trkpt lat="45.67538" lon="5.99632">
        <ele>1392.13</ele>
        <time>2014-02-09T11:38:10Z</time>
      </trkpt>
      <trkpt lat="45.67535" lon="5.99628">
        <ele>1393.09</ele>
        <time>2014-02-09T11:38:24Z</time>
      </trkpt>
      <trkpt lat="45.67537" lon="5.99631">
        <ele>1393.57</ele>
        <time>2014-02-09T11:38:45Z</time>
      </trkpt>
      <trkpt lat="45.67531" lon="5.99624">
        <ele>1393.57</ele>
        <time>2014-02-09T11:39:06Z</time>
      </trkpt>
      <trkpt lat="45.67521" lon="5.99607">
        <ele>1392.61</ele>
        <time>2014-02-09T11:39:17Z</time>
      </trkpt>
      <trkpt lat="45.67517" lon="5.99597">
        <ele>1392.61</ele>
        <time>2014-02-09T11:39:21Z</time>
      </trkpt>
      <trkpt lat="45.67515" lon="5.99595">
        <ele>1392.61</ele>
        <time>2014-02-09T11:39:22Z</time>
      </trkpt>
      <trkpt lat="45.67513" lon="5.99592">
        <ele>1392.61</ele>
        <time>2014-02-09T11:39:23Z</time>
      </trkpt>
      <trkpt lat="45.675" lon="5.99562">
        <ele>1393.09</ele>
        <time>2014-02-09T11:39:34Z</time>
      </trkpt>
      <trkpt lat="45.67482" lon="5.99525">
        <ele>1392.13</ele>
        <time>2014-02-09T11:39:46Z</time>
      </trkpt>
      <trkpt lat="45.67479" lon="5.99519">
        <ele>1391.65</ele>
        <time>2014-02-09T11:39:47Z</time>
      </trkpt>
      <trkpt lat="45.6747" lon="5.99498">
        <ele>1389.24</ele>
        <time>2014-02-09T11:39:50Z</time>
      </trkpt>
      <trkpt lat="45.67469" lon="5.99491">
        <ele>1388.28</ele>
        <time>2014-02-09T11:39:51Z</time>
      </trkpt>
      <trkpt lat="45.67469" lon="5.99483">
        <ele>1387.32</ele>
        <time>2014-02-09T11:39:52Z</time>
      </trkpt>
      <trkpt lat="45.67472" lon="5.99449">
        <ele>1383.96</ele>
        <time>2014-02-09T11:39:56Z</time>
      </trkpt>
      <trkpt lat="45.67473" lon="5.99441">
        <ele>1382.99</ele>
        <time>2014-02-09T11:39:57Z</time>
      </trkpt>
      <trkpt lat="45.67474" lon="5.99433">
        <ele>1382.51</ele>
        <time>2014-02-09T11:39:58Z</time>
      </trkpt>
      <trkpt lat="45.67475" lon="5.99424">
        <ele>1382.03</ele>
        <time>2014-02-09T11:39:59Z</time>
      </trkpt>
      <trkpt lat="45.6748" lon="5.99386">
        <ele>1378.19</ele>
        <time>2014-02-09T11:40:02Z</time>
      </trkpt>
      <trkpt lat="45.67483" lon="5.99345">
        <ele>1373.38</ele>
        <time>2014-02-09T11:40:05Z</time>
      </trkpt>
      <trkpt lat="45.67484" lon="5.99309">
        <ele>1370.02</ele>
        <time>2014-02-09T11:40:08Z</time>
      </trkpt>
      <trkpt lat="45.67485" lon="5.993">
        <ele>1369.54</ele>
        <time>2014-02-09T11:40:09Z</time>
      </trkpt>
      <trkpt lat="45.67485" lon="5.99238">
        <ele>1369.05</ele>
        <time>2014-02-09T11:40:19Z</time>
      </trkpt>
      <trkpt lat="45.67485" lon="5.99217">
        <ele>1369.54</ele>
        <time>2014-02-09T11:40:25Z</time>
      </trkpt>
      <trkpt lat="45.67484" lon="5.99214">
        <ele>1369.54</ele>
        <time>2014-02-09T11:40:26Z</time>
      </trkpt>
      <trkpt lat="45.67485" lon="5.99211">
        <ele>1370.02</ele>
        <time>2014-02-09T11:40:27Z</time>
      </trkpt>
      <trkpt lat="45.67485" lon="5.99209">
        <ele>1370.5</ele>
        <time>2014-02-09T11:40:28Z</time>
      </trkpt>
      <trkpt lat="45.67484" lon="5.99206">
        <ele>1370.5</ele>
        <time>2014-02-09T11:40:29Z</time>
      </trkpt>
      <trkpt lat="45.67484" lon="5.99204">
        <ele>1370.5</ele>
        <time>2014-02-09T11:40:30Z</time>
      </trkpt>
      <trkpt lat="45.67484" lon="5.99201">
        <ele>1370.98</ele>
        <time>2014-02-09T11:40:31Z</time>
      </trkpt>
      <trkpt lat="45.67484" lon="5.99198">
        <ele>1370.98</ele>
        <time>2014-02-09T11:40:32Z</time>
      </trkpt>
      <trkpt lat="45.67484" lon="5.99196">
        <ele>1371.46</ele>
        <time>2014-02-09T11:40:33Z</time>
      </trkpt>
      <trkpt lat="45.67484" lon="5.99193">
        <ele>1371.46</ele>
        <time>2014-02-09T11:40:34Z</time>
      </trkpt>
      <trkpt lat="45.67483" lon="5.99191">
        <ele>1371.46</ele>
        <time>2014-02-09T11:40:35Z</time>
      </trkpt>
      <trkpt lat="45.67483" lon="5.99189">
        <ele>1371.46</ele>
        <time>2014-02-09T11:40:36Z</time>
      </trkpt>
      <trkpt lat="45.67483" lon="5.99187">
        <ele>1371.94</ele>
        <time>2014-02-09T11:40:37Z</time>
      </trkpt>
      <trkpt lat="45.67483" lon="5.99184">
        <ele>1371.46</ele>
        <time>2014-02-09T11:40:38Z</time>
      </trkpt>
      <trkpt lat="45.67482" lon="5.99182">
        <ele>1371.94</ele>
        <time>2014-02-09T11:40:39Z</time>
      </trkpt>
      <trkpt lat="45.67482" lon="5.9918">
        <ele>1372.42</ele>
        <time>2014-02-09T11:40:40Z</time>
      </trkpt>
      <trkpt lat="45.67482" lon="5.99178">
        <ele>1372.42</ele>
        <time>2014-02-09T11:40:41Z</time>
      </trkpt>
      <trkpt lat="45.67481" lon="5.99176">
        <ele>1372.42</ele>
        <time>2014-02-09T11:40:42Z</time>
      </trkpt>
      <trkpt lat="45.67481" lon="5.99174">
        <ele>1372.42</ele>
        <time>2014-02-09T11:40:43Z</time>
      </trkpt>
      <trkpt lat="45.67481" lon="5.99172">
        <ele>1372.9</ele>
        <time>2014-02-09T11:40:44Z</time>
      </trkpt>
      <trkpt lat="45.6748" lon="5.9917">
        <ele>1372.9</ele>
        <time>2014-02-09T11:40:45Z</time>
      </trkpt>
      <trkpt lat="45.6748" lon="5.99168">
        <ele>1372.9</ele>
        <time>2014-02-09T11:40:46Z</time>
      </trkpt>
      <trkpt lat="45.6748" lon="5.99166">
        <ele>1373.38</ele>
        <time>2014-02-09T11:40:47Z</time>
      </trkpt>
      <trkpt lat="45.6748" lon="5.99164">
        <ele>1373.38</ele>
        <time>2014-02-09T11:40:48Z</time>
      </trkpt>
      <trkpt lat="45.67479" lon="5.99162">
        <ele>1373.86</ele>
        <time>2014-02-09T11:40:49Z</time>
      </trkpt>
      <trkpt lat="45.67479" lon="5.99161">
        <ele>1373.86</ele>
        <time>2014-02-09T11:40:50Z</time>
      </trkpt>
      <trkpt lat="45.67479" lon="5.99159">
        <ele>1373.86</ele>
        <time>2014-02-09T11:40:51Z</time>
      </trkpt>
      <trkpt lat="45.67478" lon="5.99157">
        <ele>1373.86</ele>
        <time>2014-02-09T11:40:52Z</time>
      </trkpt>
      <trkpt lat="45.67477" lon="5.99156">
        <ele>1374.34</ele>
        <time>2014-02-09T11:40:53Z</time>
      </trkpt>
      <trkpt lat="45.67477" lon="5.99154">
        <ele>1374.34</ele>
        <time>2014-02-09T11:40:54Z</time>
      </trkpt>
      <trkpt lat="45.67476" lon="5.99152">
        <ele>1374.82</ele>
        <time>2014-02-09T11:40:55Z</time>
      </trkpt>
      <trkpt lat="45.67475" lon="5.9915">
        <ele>1374.82</ele>
        <time>2014-02-09T11:40:56Z</time>
      </trkpt>
      <trkpt lat="45.67474" lon="5.99148">
        <ele>1374.82</ele>
        <time>2014-02-09T11:40:57Z</time>
      </trkpt>
      <trkpt lat="45.67473" lon="5.99146">
        <ele>1375.3</ele>
        <time>2014-02-09T11:40:58Z</time>
      </trkpt>
      <trkpt lat="45.67473" lon="5.99145">
        <ele>1374.82</ele>
        <time>2014-02-09T11:40:59Z</time>
      </trkpt>
      <trkpt lat="45.67472" lon="5.99143">
        <ele>1375.3</ele>
        <time>2014-02-09T11:41:00Z</time>
      </trkpt>
      <trkpt lat="45.67471" lon="5.99141">
        <ele>1375.3</ele>
        <time>2014-02-09T11:41:01Z</time>
      </trkpt>
      <trkpt lat="45.6747" lon="5.9914">
        <ele>1375.3</ele>
        <time>2014-02-09T11:41:02Z</time>
      </trkpt>
      <trkpt lat="45.67469" lon="5.99138">
        <ele>1375.3</ele>
        <time>2014-02-09T11:41:03Z</time>
      </trkpt>
      <trkpt lat="45.67469" lon="5.99137">
        <ele>1375.3</ele>
        <time>2014-02-09T11:41:04Z</time>
      </trkpt>
      <trkpt lat="45.67468" lon="5.99134">
        <ele>1375.78</ele>
        <time>2014-02-09T11:41:05Z</time>
      </trkpt>
      <trkpt lat="45.67467" lon="5.99133">
        <ele>1375.78</ele>
        <time>2014-02-09T11:41:06Z</time>
      </trkpt>
      <trkpt lat="45.67466" lon="5.99131">
        <ele>1375.78</ele>
        <time>2014-02-09T11:41:07Z</time>
      </trkpt>
      <trkpt lat="45.67465" lon="5.9913">
        <ele>1376.26</ele>
        <time>2014-02-09T11:41:08Z</time>
      </trkpt>
      <trkpt lat="45.67464" lon="5.99128">
        <ele>1375.78</ele>
        <time>2014-02-09T11:41:09Z</time>
      </trkpt>
      <trkpt lat="45.67462" lon="5.99127">
        <ele>1375.78</ele>
        <time>2014-02-09T11:41:10Z</time>
      </trkpt>
      <trkpt lat="45.67461" lon="5.99125">
        <ele>1376.26</ele>
        <time>2014-02-09T11:41:11Z</time>
      </trkpt>
      <trkpt lat="45.67454" lon="5.99113">
        <ele>1377.23</ele>
        <time>2014-02-09T11:41:18Z</time>
      </trkpt>
      <trkpt lat="45.67454" lon="5.99112">
        <ele>1377.23</ele>
        <time>2014-02-09T11:41:19Z</time>
      </trkpt>
      <trkpt lat="45.67453" lon="5.9911">
        <ele>1377.71</ele>
        <time>2014-02-09T11:41:20Z</time>
      </trkpt>
      <trkpt lat="45.67452" lon="5.99108">
        <ele>1377.71</ele>
        <time>2014-02-09T11:41:22Z</time>
      </trkpt>
      <trkpt lat="45.67451" lon="5.99107">
        <ele>1377.71</ele>
        <time>2014-02-09T11:41:23Z</time>
      </trkpt>
      <trkpt lat="45.67444" lon="5.99098">
        <ele>1379.63</ele>
        <time>2014-02-09T11:41:33Z</time>
      </trkpt>
      <trkpt lat="45.67436" lon="5.991">
        <ele>1380.11</ele>
        <time>2014-02-09T11:41:44Z</time>
      </trkpt>
      <trkpt lat="45.67437" lon="5.99104">
        <ele>1380.59</ele>
        <time>2014-02-09T11:42:02Z</time>
      </trkpt>
      <trkpt lat="45.67434" lon="5.99102">
        <ele>1381.07</ele>
        <time>2014-02-09T11:42:10Z</time>
      </trkpt>
      <trkpt lat="45.67425" lon="5.99101">
        <ele>1381.55</ele>
        <time>2014-02-09T11:42:17Z</time>
      </trkpt>
      <trkpt lat="45.67421" lon="5.99101">
        <ele>1382.03</ele>
        <time>2014-02-09T11:42:20Z</time>
      </trkpt>
      <trkpt lat="45.6742" lon="5.991">
        <ele>1381.55</ele>
        <time>2014-02-09T11:42:21Z</time>
      </trkpt>
      <trkpt lat="45.67409" lon="5.99101">
        <ele>1383.47</ele>
        <time>2014-02-09T11:42:31Z</time>
      </trkpt>
      <trkpt lat="45.67406" lon="5.99101">
        <ele>1384.44</ele>
        <time>2014-02-09T11:42:34Z</time>
      </trkpt>
      <trkpt lat="45.67404" lon="5.991">
        <ele>1384.44</ele>
        <time>2014-02-09T11:42:35Z</time>
      </trkpt>
      <trkpt lat="45.67399" lon="5.99103">
        <ele>1385.88</ele>
        <time>2014-02-09T11:42:45Z</time>
      </trkpt>
      <trkpt lat="45.67398" lon="5.99099">
        <ele>1385.88</ele>
        <time>2014-02-09T11:43:00Z</time>
      </trkpt>
      <trkpt lat="45.67395" lon="5.99099">
        <ele>1385.88</ele>
        <time>2014-02-09T11:43:10Z</time>
      </trkpt>
      <trkpt lat="45.67387" lon="5.99099">
        <ele>1386.84</ele>
        <time>2014-02-09T11:43:22Z</time>
      </trkpt>
      <trkpt lat="45.67378" lon="5.99105">
        <ele>1387.8</ele>
        <time>2014-02-09T11:43:32Z</time>
      </trkpt>
      <trkpt lat="45.67367" lon="5.99117">
        <ele>1390.2</ele>
        <time>2014-02-09T11:43:47Z</time>
      </trkpt>
      <trkpt lat="45.67359" lon="5.99125">
        <ele>1390.68</ele>
        <time>2014-02-09T11:43:59Z</time>
      </trkpt>
      <trkpt lat="45.67353" lon="5.9913">
        <ele>1392.13</ele>
        <time>2014-02-09T11:44:10Z</time>
      </trkpt>
      <trkpt lat="45.67348" lon="5.99131">
        <ele>1394.53</ele>
        <time>2014-02-09T11:44:23Z</time>
      </trkpt>
      <trkpt lat="45.6734" lon="5.9913">
        <ele>1395.97</ele>
        <time>2014-02-09T11:44:35Z</time>
      </trkpt>
      <trkpt lat="45.67334" lon="5.99127">
        <ele>1397.89</ele>
        <time>2014-02-09T11:44:47Z</time>
      </trkpt>
      <trkpt lat="45.67331" lon="5.99126">
        <ele>1399.34</ele>
        <time>2014-02-09T11:44:58Z</time>
      </trkpt>
      <trkpt lat="45.67326" lon="5.99123">
        <ele>1401.26</ele>
        <time>2014-02-09T11:45:09Z</time>
      </trkpt>
      <trkpt lat="45.6732" lon="5.99122">
        <ele>1402.7</ele>
        <time>2014-02-09T11:45:20Z</time>
      </trkpt>
      <trkpt lat="45.67313" lon="5.99119">
        <ele>1404.62</ele>
        <time>2014-02-09T11:45:32Z</time>
      </trkpt>
      <trkpt lat="45.67305" lon="5.99114">
        <ele>1406.55</ele>
        <time>2014-02-09T11:45:44Z</time>
      </trkpt>
      <trkpt lat="45.67304" lon="5.99112">
        <ele>1407.03</ele>
        <time>2014-02-09T11:46:00Z</time>
      </trkpt>
      <trkpt lat="45.67294" lon="5.99109">
        <ele>1408.95</ele>
        <time>2014-02-09T11:46:13Z</time>
      </trkpt>
      <trkpt lat="45.67286" lon="5.99101">
        <ele>1409.91</ele>
        <time>2014-02-09T11:46:25Z</time>
      </trkpt>
      <trkpt lat="45.67283" lon="5.99098">
        <ele>1409.91</ele>
        <time>2014-02-09T11:46:28Z</time>
      </trkpt>
      <trkpt lat="45.67282" lon="5.99097">
        <ele>1410.39</ele>
        <time>2014-02-09T11:46:29Z</time>
      </trkpt>
      <trkpt lat="45.6728" lon="5.99096">
        <ele>1410.87</ele>
        <time>2014-02-09T11:46:30Z</time>
      </trkpt>
      <trkpt lat="45.67279" lon="5.99096">
        <ele>1410.39</ele>
        <time>2014-02-09T11:46:31Z</time>
      </trkpt>
      <trkpt lat="45.67277" lon="5.99095">
        <ele>1410.87</ele>
        <time>2014-02-09T11:46:32Z</time>
      </trkpt>
      <trkpt lat="45.67276" lon="5.99094">
        <ele>1410.87</ele>
        <time>2014-02-09T11:46:33Z</time>
      </trkpt>
      <trkpt lat="45.67266" lon="5.99088">
        <ele>1412.79</ele>
        <time>2014-02-09T11:46:45Z</time>
      </trkpt>
      <trkpt lat="45.6726" lon="5.99085">
        <ele>1413.28</ele>
        <time>2014-02-09T11:46:57Z</time>
      </trkpt>
      <trkpt lat="45.67258" lon="5.99084">
        <ele>1412.79</ele>
        <time>2014-02-09T11:47:15Z</time>
      </trkpt>
      <trkpt lat="45.67251" lon="5.99082">
        <ele>1413.28</ele>
        <time>2014-02-09T11:47:34Z</time>
      </trkpt>
      <trkpt lat="45.67245" lon="5.99081">
        <ele>1412.79</ele>
        <time>2014-02-09T11:47:42Z</time>
      </trkpt>
      <trkpt lat="45.67244" lon="5.99081">
        <ele>1412.79</ele>
        <time>2014-02-09T11:47:43Z</time>
      </trkpt>
      <trkpt lat="45.67243" lon="5.9908">
        <ele>1412.79</ele>
        <time>2014-02-09T11:47:44Z</time>
      </trkpt>
      <trkpt lat="45.67242" lon="5.9908">
        <ele>1413.28</ele>
        <time>2014-02-09T11:47:45Z</time>
      </trkpt>
      <trkpt lat="45.6724" lon="5.9908">
        <ele>1412.79</ele>
        <time>2014-02-09T11:47:46Z</time>
      </trkpt>
      <trkpt lat="45.67238" lon="5.9908">
        <ele>1412.79</ele>
        <time>2014-02-09T11:47:47Z</time>
      </trkpt>
      <trkpt lat="45.67236" lon="5.99079">
        <ele>1412.79</ele>
        <time>2014-02-09T11:47:48Z</time>
      </trkpt>
      <trkpt lat="45.67234" lon="5.99079">
        <ele>1412.79</ele>
        <time>2014-02-09T11:47:49Z</time>
      </trkpt>
      <trkpt lat="45.6722" lon="5.99077">
        <ele>1412.31</ele>
        <time>2014-02-09T11:47:54Z</time>
      </trkpt>
      <trkpt lat="45.67218" lon="5.99077">
        <ele>1411.83</ele>
        <time>2014-02-09T11:47:55Z</time>
      </trkpt>
      <trkpt lat="45.67215" lon="5.99077">
        <ele>1411.83</ele>
        <time>2014-02-09T11:47:56Z</time>
      </trkpt>
      <trkpt lat="45.67213" lon="5.99076">
        <ele>1411.83</ele>
        <time>2014-02-09T11:47:57Z</time>
      </trkpt>
      <trkpt lat="45.6721" lon="5.99076">
        <ele>1411.83</ele>
        <time>2014-02-09T11:47:58Z</time>
      </trkpt>
      <trkpt lat="45.67208" lon="5.99076">
        <ele>1411.83</ele>
        <time>2014-02-09T11:47:59Z</time>
      </trkpt>
      <trkpt lat="45.67205" lon="5.99075">
        <ele>1411.83</ele>
        <time>2014-02-09T11:48:00Z</time>
      </trkpt>
      <trkpt lat="45.67203" lon="5.99075">
        <ele>1411.35</ele>
        <time>2014-02-09T11:48:01Z</time>
      </trkpt>
      <trkpt lat="45.67201" lon="5.99075">
        <ele>1411.83</ele>
        <time>2014-02-09T11:48:02Z</time>
      </trkpt>
      <trkpt lat="45.67199" lon="5.99075">
        <ele>1411.35</ele>
        <time>2014-02-09T11:48:03Z</time>
      </trkpt>
      <trkpt lat="45.67197" lon="5.99074">
        <ele>1411.35</ele>
        <time>2014-02-09T11:48:04Z</time>
      </trkpt>
      <trkpt lat="45.67195" lon="5.99074">
        <ele>1411.35</ele>
        <time>2014-02-09T11:48:05Z</time>
      </trkpt>
      <trkpt lat="45.67193" lon="5.99074">
        <ele>1411.35</ele>
        <time>2014-02-09T11:48:06Z</time>
      </trkpt>
      <trkpt lat="45.67163" lon="5.9907">
        <ele>1410.39</ele>
        <time>2014-02-09T11:48:16Z</time>
      </trkpt>
      <trkpt lat="45.67159" lon="5.9907">
        <ele>1410.87</ele>
        <time>2014-02-09T11:48:17Z</time>
      </trkpt>
      <trkpt lat="45.67156" lon="5.9907">
        <ele>1410.87</ele>
        <time>2014-02-09T11:48:18Z</time>
      </trkpt>
      <trkpt lat="45.67152" lon="5.9907">
        <ele>1410.39</ele>
        <time>2014-02-09T11:48:19Z</time>
      </trkpt>
      <trkpt lat="45.67149" lon="5.99069">
        <ele>1410.39</ele>
        <time>2014-02-09T11:48:20Z</time>
      </trkpt>
      <trkpt lat="45.67147" lon="5.99069">
        <ele>1410.39</ele>
        <time>2014-02-09T11:48:21Z</time>
      </trkpt>
      <trkpt lat="45.67144" lon="5.99068">
        <ele>1410.39</ele>
        <time>2014-02-09T11:48:22Z</time>
      </trkpt>
      <trkpt lat="45.67134" lon="5.99068">
        <ele>1410.39</ele>
        <time>2014-02-09T11:48:25Z</time>
      </trkpt>
      <trkpt lat="45.67131" lon="5.99068">
        <ele>1409.91</ele>
        <time>2014-02-09T11:48:26Z</time>
      </trkpt>
      <trkpt lat="45.67097" lon="5.99067">
        <ele>1407.99</ele>
        <time>2014-02-09T11:48:37Z</time>
      </trkpt>
      <trkpt lat="45.67082" lon="5.99067">
        <ele>1407.03</ele>
        <time>2014-02-09T11:48:40Z</time>
      </trkpt>
      <trkpt lat="45.67059" lon="5.99065">
        <ele>1405.58</ele>
        <time>2014-02-09T11:48:45Z</time>
      </trkpt>
      <trkpt lat="45.67055" lon="5.99064">
        <ele>1405.1</ele>
        <time>2014-02-09T11:48:46Z</time>
      </trkpt>
      <trkpt lat="45.67045" lon="5.99062">
        <ele>1404.62</ele>
        <time>2014-02-09T11:48:48Z</time>
      </trkpt>
      <trkpt lat="45.67019" lon="5.99053">
        <ele>1403.18</ele>
        <time>2014-02-09T11:48:53Z</time>
      </trkpt>
      <trkpt lat="45.67011" lon="5.99047">
        <ele>1402.22</ele>
        <time>2014-02-09T11:48:55Z</time>
      </trkpt>
      <trkpt lat="45.66988" lon="5.99031">
        <ele>1400.78</ele>
        <time>2014-02-09T11:49:01Z</time>
      </trkpt>
      <trkpt lat="45.66983" lon="5.99029">
        <ele>1400.78</ele>
        <time>2014-02-09T11:49:02Z</time>
      </trkpt>
      <trkpt lat="45.66978" lon="5.99026">
        <ele>1400.3</ele>
        <time>2014-02-09T11:49:03Z</time>
      </trkpt>
      <trkpt lat="45.66974" lon="5.99024">
        <ele>1400.3</ele>
        <time>2014-02-09T11:49:04Z</time>
      </trkpt>
      <trkpt lat="45.6697" lon="5.99022">
        <ele>1399.82</ele>
        <time>2014-02-09T11:49:05Z</time>
      </trkpt>
      <trkpt lat="45.66966" lon="5.9902">
        <ele>1399.82</ele>
        <time>2014-02-09T11:49:06Z</time>
      </trkpt>
      <trkpt lat="45.66961" lon="5.99018">
        <ele>1399.82</ele>
        <time>2014-02-09T11:49:07Z</time>
      </trkpt>
      <trkpt lat="45.66957" lon="5.99016">
        <ele>1399.82</ele>
        <time>2014-02-09T11:49:08Z</time>
      </trkpt>
      <trkpt lat="45.66953" lon="5.99014">
        <ele>1399.34</ele>
        <time>2014-02-09T11:49:09Z</time>
      </trkpt>
      <trkpt lat="45.66914" lon="5.98998">
        <ele>1397.89</ele>
        <time>2014-02-09T11:49:18Z</time>
      </trkpt>
      <trkpt lat="45.6688" lon="5.98976">
        <ele>1396.93</ele>
        <time>2014-02-09T11:49:29Z</time>
      </trkpt>
      <trkpt lat="45.66845" lon="5.98945">
        <ele>1395.01</ele>
        <time>2014-02-09T11:49:39Z</time>
      </trkpt>
      <trkpt lat="45.66813" lon="5.9892">
        <ele>1394.53</ele>
        <time>2014-02-09T11:49:49Z</time>
      </trkpt>
      <trkpt lat="45.66783" lon="5.989">
        <ele>1395.01</ele>
        <time>2014-02-09T11:49:58Z</time>
      </trkpt>
      <trkpt lat="45.66764" lon="5.98881">
        <ele>1395.97</ele>
        <time>2014-02-09T11:50:07Z</time>
      </trkpt>
      <trkpt lat="45.66744" lon="5.98851">
        <ele>1395.01</ele>
        <time>2014-02-09T11:50:17Z</time>
      </trkpt>
      <trkpt lat="45.66726" lon="5.98817">
        <ele>1394.05</ele>
        <time>2014-02-09T11:50:27Z</time>
      </trkpt>
      <trkpt lat="45.66707" lon="5.98782">
        <ele>1393.57</ele>
        <time>2014-02-09T11:50:37Z</time>
      </trkpt>
      <trkpt lat="45.66692" lon="5.98736">
        <ele>1392.61</ele>
        <time>2014-02-09T11:50:48Z</time>
      </trkpt>
      <trkpt lat="45.6669" lon="5.98725">
        <ele>1392.13</ele>
        <time>2014-02-09T11:50:50Z</time>
      </trkpt>
      <trkpt lat="45.66689" lon="5.98719">
        <ele>1391.65</ele>
        <time>2014-02-09T11:50:51Z</time>
      </trkpt>
      <trkpt lat="45.66688" lon="5.98713">
        <ele>1391.17</ele>
        <time>2014-02-09T11:50:52Z</time>
      </trkpt>
      <trkpt lat="45.66687" lon="5.98706">
        <ele>1391.17</ele>
        <time>2014-02-09T11:50:53Z</time>
      </trkpt>
      <trkpt lat="45.66686" lon="5.98699">
        <ele>1391.17</ele>
        <time>2014-02-09T11:50:54Z</time>
      </trkpt>
      <trkpt lat="45.66685" lon="5.98693">
        <ele>1390.68</ele>
        <time>2014-02-09T11:50:55Z</time>
      </trkpt>
      <trkpt lat="45.66684" lon="5.98687">
        <ele>1390.68</ele>
        <time>2014-02-09T11:50:56Z</time>
      </trkpt>
      <trkpt lat="45.66683" lon="5.98681">
        <ele>1390.2</ele>
        <time>2014-02-09T11:50:57Z</time>
      </trkpt>
      <trkpt lat="45.66682" lon="5.98675">
        <ele>1390.2</ele>
        <time>2014-02-09T11:50:58Z</time>
      </trkpt>
      <trkpt lat="45.66681" lon="5.98669">
        <ele>1390.2</ele>
        <time>2014-02-09T11:50:59Z</time>
      </trkpt>
      <trkpt lat="45.6668" lon="5.98663">
        <ele>1390.2</ele>
        <time>2014-02-09T11:51:00Z</time>
      </trkpt>
      <trkpt lat="45.66668" lon="5.98611">
        <ele>1390.2</ele>
        <time>2014-02-09T11:51:12Z</time>
      </trkpt>
      <trkpt lat="45.66657" lon="5.98569">
        <ele>1389.72</ele>
        <time>2014-02-09T11:51:22Z</time>
      </trkpt>
      <trkpt lat="45.66642" lon="5.9853">
        <ele>1390.2</ele>
        <time>2014-02-09T11:51:32Z</time>
      </trkpt>
      <trkpt lat="45.66638" lon="5.98524">
        <ele>1390.2</ele>
        <time>2014-02-09T11:51:34Z</time>
      </trkpt>
      <trkpt lat="45.66636" lon="5.98521">
        <ele>1390.68</ele>
        <time>2014-02-09T11:51:35Z</time>
      </trkpt>
      <trkpt lat="45.66633" lon="5.98518">
        <ele>1390.68</ele>
        <time>2014-02-09T11:51:36Z</time>
      </trkpt>
      <trkpt lat="45.66627" lon="5.98509">
        <ele>1390.2</ele>
        <time>2014-02-09T11:51:39Z</time>
      </trkpt>
      <trkpt lat="45.66625" lon="5.98505">
        <ele>1390.2</ele>
        <time>2014-02-09T11:51:40Z</time>
      </trkpt>
      <trkpt lat="45.66623" lon="5.98502">
        <ele>1390.2</ele>
        <time>2014-02-09T11:51:41Z</time>
      </trkpt>
      <trkpt lat="45.6662" lon="5.98499">
        <ele>1390.2</ele>
        <time>2014-02-09T11:51:42Z</time>
      </trkpt>
      <trkpt lat="45.66617" lon="5.98497">
        <ele>1390.2</ele>
        <time>2014-02-09T11:51:43Z</time>
      </trkpt>
      <trkpt lat="45.66615" lon="5.98494">
        <ele>1390.2</ele>
        <time>2014-02-09T11:51:44Z</time>
      </trkpt>
      <trkpt lat="45.66612" lon="5.98491">
        <ele>1389.72</ele>
        <time>2014-02-09T11:51:45Z</time>
      </trkpt>
      <trkpt lat="45.6661" lon="5.98488">
        <ele>1389.72</ele>
        <time>2014-02-09T11:51:46Z</time>
      </trkpt>
      <trkpt lat="45.66607" lon="5.98486">
        <ele>1389.72</ele>
        <time>2014-02-09T11:51:47Z</time>
      </trkpt>
      <trkpt lat="45.66605" lon="5.98483">
        <ele>1389.72</ele>
        <time>2014-02-09T11:51:48Z</time>
      </trkpt>
      <trkpt lat="45.66602" lon="5.9848">
        <ele>1389.24</ele>
        <time>2014-02-09T11:51:49Z</time>
      </trkpt>
      <trkpt lat="45.666" lon="5.98478">
        <ele>1389.24</ele>
        <time>2014-02-09T11:51:50Z</time>
      </trkpt>
      <trkpt lat="45.66598" lon="5.98475">
        <ele>1389.24</ele>
        <time>2014-02-09T11:51:51Z</time>
      </trkpt>
      <trkpt lat="45.66596" lon="5.98472">
        <ele>1389.72</ele>
        <time>2014-02-09T11:51:52Z</time>
      </trkpt>
      <trkpt lat="45.66593" lon="5.98469">
        <ele>1389.24</ele>
        <time>2014-02-09T11:51:53Z</time>
      </trkpt>
      <trkpt lat="45.6659" lon="5.98466">
        <ele>1389.24</ele>
        <time>2014-02-09T11:51:54Z</time>
      </trkpt>
      <trkpt lat="45.66588" lon="5.98463">
        <ele>1389.24</ele>
        <time>2014-02-09T11:51:55Z</time>
      </trkpt>
      <trkpt lat="45.66585" lon="5.9846">
        <ele>1389.24</ele>
        <time>2014-02-09T11:51:56Z</time>
      </trkpt>
      <trkpt lat="45.66582" lon="5.98458">
        <ele>1389.24</ele>
        <time>2014-02-09T11:51:57Z</time>
      </trkpt>
      <trkpt lat="45.6658" lon="5.98455">
        <ele>1389.24</ele>
        <time>2014-02-09T11:51:58Z</time>
      </trkpt>
      <trkpt lat="45.66577" lon="5.98453">
        <ele>1389.24</ele>
        <time>2014-02-09T11:51:59Z</time>
      </trkpt>
      <trkpt lat="45.66573" lon="5.9845">
        <ele>1390.2</ele>
        <time>2014-02-09T11:52:00Z</time>
      </trkpt>
      <trkpt lat="45.66571" lon="5.98448">
        <ele>1389.72</ele>
        <time>2014-02-09T11:52:01Z</time>
      </trkpt>
      <trkpt lat="45.66568" lon="5.98446">
        <ele>1389.72</ele>
        <time>2014-02-09T11:52:02Z</time>
      </trkpt>
      <trkpt lat="45.66566" lon="5.98444">
        <ele>1389.24</ele>
        <time>2014-02-09T11:52:03Z</time>
      </trkpt>
      <trkpt lat="45.66563" lon="5.98441">
        <ele>1389.72</ele>
        <time>2014-02-09T11:52:04Z</time>
      </trkpt>
      <trkpt lat="45.6656" lon="5.9844">
        <ele>1389.72</ele>
        <time>2014-02-09T11:52:05Z</time>
      </trkpt>
      <trkpt lat="45.66537" lon="5.9842">
        <ele>1388.28</ele>
        <time>2014-02-09T11:52:14Z</time>
      </trkpt>
      <trkpt lat="45.66534" lon="5.98418">
        <ele>1388.28</ele>
        <time>2014-02-09T11:52:15Z</time>
      </trkpt>
      <trkpt lat="45.66532" lon="5.98417">
        <ele>1388.76</ele>
        <time>2014-02-09T11:52:16Z</time>
      </trkpt>
      <trkpt lat="45.66529" lon="5.98414">
        <ele>1388.76</ele>
        <time>2014-02-09T11:52:17Z</time>
      </trkpt>
      <trkpt lat="45.66526" lon="5.98412">
        <ele>1388.76</ele>
        <time>2014-02-09T11:52:18Z</time>
      </trkpt>
      <trkpt lat="45.66507" lon="5.98395">
        <ele>1388.76</ele>
        <time>2014-02-09T11:52:26Z</time>
      </trkpt>
      <trkpt lat="45.66505" lon="5.98393">
        <ele>1388.28</ele>
        <time>2014-02-09T11:52:27Z</time>
      </trkpt>
      <trkpt lat="45.66503" lon="5.98391">
        <ele>1388.28</ele>
        <time>2014-02-09T11:52:28Z</time>
      </trkpt>
      <trkpt lat="45.66501" lon="5.98389">
        <ele>1388.76</ele>
        <time>2014-02-09T11:52:29Z</time>
      </trkpt>
      <trkpt lat="45.66499" lon="5.98388">
        <ele>1388.28</ele>
        <time>2014-02-09T11:52:30Z</time>
      </trkpt>
      <trkpt lat="45.66496" lon="5.98386">
        <ele>1388.28</ele>
        <time>2014-02-09T11:52:31Z</time>
      </trkpt>
      <trkpt lat="45.66494" lon="5.98385">
        <ele>1388.76</ele>
        <time>2014-02-09T11:52:32Z</time>
      </trkpt>
      <trkpt lat="45.66488" lon="5.98382">
        <ele>1387.8</ele>
        <time>2014-02-09T11:52:46Z</time>
      </trkpt>
      <trkpt lat="45.66488" lon="5.9838">
        <ele>1388.28</ele>
        <time>2014-02-09T11:53:12Z</time>
      </trkpt>
      <trkpt lat="45.66488" lon="5.98381">
        <ele>1388.28</ele>
        <time>2014-02-09T11:53:33Z</time>
      </trkpt>
      <trkpt lat="45.66486" lon="5.98377">
        <ele>1387.8</ele>
        <time>2014-02-09T11:53:52Z</time>
      </trkpt>
      <trkpt lat="45.66485" lon="5.98376">
        <ele>1387.8</ele>
        <time>2014-02-09T11:53:53Z</time>
      </trkpt>
      <trkpt lat="45.66473" lon="5.98364">
        <ele>1388.28</ele>
        <time>2014-02-09T11:54:00Z</time>
      </trkpt>
      <trkpt lat="45.66471" lon="5.98363">
        <ele>1388.28</ele>
        <time>2014-02-09T11:54:01Z</time>
      </trkpt>
      <trkpt lat="45.66462" lon="5.9835">
        <ele>1388.76</ele>
        <time>2014-02-09T11:54:08Z</time>
      </trkpt>
      <trkpt lat="45.66461" lon="5.98349">
        <ele>1389.72</ele>
        <time>2014-02-09T11:54:09Z</time>
      </trkpt>
      <trkpt lat="45.66459" lon="5.98346">
        <ele>1389.24</ele>
        <time>2014-02-09T11:54:10Z</time>
      </trkpt>
      <trkpt lat="45.66458" lon="5.98344">
        <ele>1389.24</ele>
        <time>2014-02-09T11:54:11Z</time>
      </trkpt>
      <trkpt lat="45.66458" lon="5.98342">
        <ele>1389.72</ele>
        <time>2014-02-09T11:54:12Z</time>
      </trkpt>
      <trkpt lat="45.66457" lon="5.9834">
        <ele>1389.72</ele>
        <time>2014-02-09T11:54:13Z</time>
      </trkpt>
      <trkpt lat="45.66457" lon="5.98338">
        <ele>1389.72</ele>
        <time>2014-02-09T11:54:14Z</time>
      </trkpt>
      <trkpt lat="45.66456" lon="5.98336">
        <ele>1390.2</ele>
        <time>2014-02-09T11:54:15Z</time>
      </trkpt>
      <trkpt lat="45.66454" lon="5.98332">
        <ele>1390.2</ele>
        <time>2014-02-09T11:54:17Z</time>
      </trkpt>
      <trkpt lat="45.66453" lon="5.9833">
        <ele>1390.2</ele>
        <time>2014-02-09T11:54:18Z</time>
      </trkpt>
      <trkpt lat="45.66452" lon="5.98328">
        <ele>1390.68</ele>
        <time>2014-02-09T11:54:19Z</time>
      </trkpt>
      <trkpt lat="45.66451" lon="5.98325">
        <ele>1390.68</ele>
        <time>2014-02-09T11:54:20Z</time>
      </trkpt>
      <trkpt lat="45.6645" lon="5.98322">
        <ele>1390.68</ele>
        <time>2014-02-09T11:54:21Z</time>
      </trkpt>
      <trkpt lat="45.66449" lon="5.98319">
        <ele>1391.17</ele>
        <time>2014-02-09T11:54:22Z</time>
      </trkpt>
      <trkpt lat="45.66448" lon="5.98317">
        <ele>1390.68</ele>
        <time>2014-02-09T11:54:23Z</time>
      </trkpt>
      <trkpt lat="45.66447" lon="5.98311">
        <ele>1391.17</ele>
        <time>2014-02-09T11:54:25Z</time>
      </trkpt>
      <trkpt lat="45.66446" lon="5.98309">
        <ele>1391.17</ele>
        <time>2014-02-09T11:54:26Z</time>
      </trkpt>
      <trkpt lat="45.66446" lon="5.98306">
        <ele>1391.65</ele>
        <time>2014-02-09T11:54:27Z</time>
      </trkpt>
      <trkpt lat="45.66446" lon="5.98303">
        <ele>1391.65</ele>
        <time>2014-02-09T11:54:28Z</time>
      </trkpt>
      <trkpt lat="45.66446" lon="5.98301">
        <ele>1392.13</ele>
        <time>2014-02-09T11:54:29Z</time>
      </trkpt>
      <trkpt lat="45.66445" lon="5.98298">
        <ele>1391.65</ele>
        <time>2014-02-09T11:54:30Z</time>
      </trkpt>
      <trkpt lat="45.66445" lon="5.98296">
        <ele>1392.13</ele>
        <time>2014-02-09T11:54:31Z</time>
      </trkpt>
      <trkpt lat="45.66445" lon="5.98293">
        <ele>1392.13</ele>
        <time>2014-02-09T11:54:32Z</time>
      </trkpt>
      <trkpt lat="45.66445" lon="5.98291">
        <ele>1392.13</ele>
        <time>2014-02-09T11:54:33Z</time>
      </trkpt>
      <trkpt lat="45.66445" lon="5.98288">
        <ele>1392.61</ele>
        <time>2014-02-09T11:54:34Z</time>
      </trkpt>
      <trkpt lat="45.66445" lon="5.98286">
        <ele>1392.13</ele>
        <time>2014-02-09T11:54:35Z</time>
      </trkpt>
      <trkpt lat="45.66445" lon="5.98283">
        <ele>1392.61</ele>
        <time>2014-02-09T11:54:36Z</time>
      </trkpt>
      <trkpt lat="45.66445" lon="5.98281">
        <ele>1392.13</ele>
        <time>2014-02-09T11:54:37Z</time>
      </trkpt>
      <trkpt lat="45.66446" lon="5.98279">
        <ele>1392.61</ele>
        <time>2014-02-09T11:54:38Z</time>
      </trkpt>
      <trkpt lat="45.66446" lon="5.98277">
        <ele>1393.09</ele>
        <time>2014-02-09T11:54:39Z</time>
      </trkpt>
      <trkpt lat="45.66445" lon="5.98274">
        <ele>1393.09</ele>
        <time>2014-02-09T11:54:40Z</time>
      </trkpt>
      <trkpt lat="45.66445" lon="5.98269">
        <ele>1393.09</ele>
        <time>2014-02-09T11:54:42Z</time>
      </trkpt>
      <trkpt lat="45.66445" lon="5.98266">
        <ele>1393.09</ele>
        <time>2014-02-09T11:54:43Z</time>
      </trkpt>
      <trkpt lat="45.66445" lon="5.98263">
        <ele>1393.09</ele>
        <time>2014-02-09T11:54:44Z</time>
      </trkpt>
      <trkpt lat="45.66435" lon="5.9823">
        <ele>1392.13</ele>
        <time>2014-02-09T11:54:55Z</time>
      </trkpt>
      <trkpt lat="45.66434" lon="5.98228">
        <ele>1392.13</ele>
        <time>2014-02-09T11:54:56Z</time>
      </trkpt>
      <trkpt lat="45.66432" lon="5.98225">
        <ele>1392.13</ele>
        <time>2014-02-09T11:54:57Z</time>
      </trkpt>
      <trkpt lat="45.66431" lon="5.98223">
        <ele>1392.13</ele>
        <time>2014-02-09T11:54:58Z</time>
      </trkpt>
      <trkpt lat="45.66429" lon="5.98221">
        <ele>1392.61</ele>
        <time>2014-02-09T11:54:59Z</time>
      </trkpt>
      <trkpt lat="45.66427" lon="5.98219">
        <ele>1392.61</ele>
        <time>2014-02-09T11:55:00Z</time>
      </trkpt>
      <trkpt lat="45.66425" lon="5.98218">
        <ele>1392.61</ele>
        <time>2014-02-09T11:55:01Z</time>
      </trkpt>
      <trkpt lat="45.66422" lon="5.98213">
        <ele>1392.61</ele>
        <time>2014-02-09T11:55:03Z</time>
      </trkpt>
      <trkpt lat="45.6642" lon="5.98211">
        <ele>1392.13</ele>
        <time>2014-02-09T11:55:04Z</time>
      </trkpt>
      <trkpt lat="45.66418" lon="5.98209">
        <ele>1392.61</ele>
        <time>2014-02-09T11:55:05Z</time>
      </trkpt>
      <trkpt lat="45.66416" lon="5.98208">
        <ele>1392.13</ele>
        <time>2014-02-09T11:55:06Z</time>
      </trkpt>
      <trkpt lat="45.66414" lon="5.98206">
        <ele>1392.61</ele>
        <time>2014-02-09T11:55:07Z</time>
      </trkpt>
      <trkpt lat="45.66412" lon="5.98204">
        <ele>1393.09</ele>
        <time>2014-02-09T11:55:08Z</time>
      </trkpt>
      <trkpt lat="45.66407" lon="5.98201">
        <ele>1393.09</ele>
        <time>2014-02-09T11:55:11Z</time>
      </trkpt>
      <trkpt lat="45.66405" lon="5.98201">
        <ele>1393.57</ele>
        <time>2014-02-09T11:55:12Z</time>
      </trkpt>
      <trkpt lat="45.66395" lon="5.98197">
        <ele>1394.05</ele>
        <time>2014-02-09T11:55:19Z</time>
      </trkpt>
      <trkpt lat="45.66394" lon="5.98197">
        <ele>1394.05</ele>
        <time>2014-02-09T11:55:20Z</time>
      </trkpt>
      <trkpt lat="45.66392" lon="5.98197">
        <ele>1394.05</ele>
        <time>2014-02-09T11:55:21Z</time>
      </trkpt>
      <trkpt lat="45.66391" lon="5.98196">
        <ele>1394.05</ele>
        <time>2014-02-09T11:55:22Z</time>
      </trkpt>
      <trkpt lat="45.66389" lon="5.98195">
        <ele>1394.53</ele>
        <time>2014-02-09T11:55:23Z</time>
      </trkpt>
      <trkpt lat="45.66385" lon="5.98192">
        <ele>1394.05</ele>
        <time>2014-02-09T11:55:25Z</time>
      </trkpt>
      <trkpt lat="45.66383" lon="5.98191">
        <ele>1394.05</ele>
        <time>2014-02-09T11:55:26Z</time>
      </trkpt>
      <trkpt lat="45.66382" lon="5.98189">
        <ele>1394.05</ele>
        <time>2014-02-09T11:55:27Z</time>
      </trkpt>
      <trkpt lat="45.66379" lon="5.98187">
        <ele>1394.53</ele>
        <time>2014-02-09T11:55:28Z</time>
      </trkpt>
      <trkpt lat="45.66377" lon="5.98185">
        <ele>1394.53</ele>
        <time>2014-02-09T11:55:29Z</time>
      </trkpt>
      <trkpt lat="45.66376" lon="5.98182">
        <ele>1394.53</ele>
        <time>2014-02-09T11:55:30Z</time>
      </trkpt>
      <trkpt lat="45.66375" lon="5.9818">
        <ele>1394.53</ele>
        <time>2014-02-09T11:55:31Z</time>
      </trkpt>
      <trkpt lat="45.66373" lon="5.98178">
        <ele>1394.53</ele>
        <time>2014-02-09T11:55:32Z</time>
      </trkpt>
      <trkpt lat="45.66372" lon="5.98176">
        <ele>1395.01</ele>
        <time>2014-02-09T11:55:33Z</time>
      </trkpt>
      <trkpt lat="45.66371" lon="5.98174">
        <ele>1394.53</ele>
        <time>2014-02-09T11:55:34Z</time>
      </trkpt>
      <trkpt lat="45.6637" lon="5.98172">
        <ele>1395.01</ele>
        <time>2014-02-09T11:55:35Z</time>
      </trkpt>
      <trkpt lat="45.6637" lon="5.98169">
        <ele>1395.49</ele>
        <time>2014-02-09T11:55:36Z</time>
      </trkpt>
      <trkpt lat="45.66369" lon="5.98167">
        <ele>1395.01</ele>
        <time>2014-02-09T11:55:37Z</time>
      </trkpt>
      <trkpt lat="45.66368" lon="5.98165">
        <ele>1395.49</ele>
        <time>2014-02-09T11:55:38Z</time>
      </trkpt>
      <trkpt lat="45.66368" lon="5.98163">
        <ele>1395.49</ele>
        <time>2014-02-09T11:55:39Z</time>
      </trkpt>
      <trkpt lat="45.66368" lon="5.98161">
        <ele>1395.49</ele>
        <time>2014-02-09T11:55:40Z</time>
      </trkpt>
      <trkpt lat="45.66368" lon="5.98159">
        <ele>1395.97</ele>
        <time>2014-02-09T11:55:41Z</time>
      </trkpt>
      <trkpt lat="45.66368" lon="5.98158">
        <ele>1395.97</ele>
        <time>2014-02-09T11:55:42Z</time>
      </trkpt>
      <trkpt lat="45.66368" lon="5.98156">
        <ele>1396.45</ele>
        <time>2014-02-09T11:55:43Z</time>
      </trkpt>
      <trkpt lat="45.66368" lon="5.98155">
        <ele>1395.97</ele>
        <time>2014-02-09T11:55:44Z</time>
      </trkpt>
      <trkpt lat="45.66368" lon="5.98153">
        <ele>1396.45</ele>
        <time>2014-02-09T11:55:45Z</time>
      </trkpt>
      <trkpt lat="45.66369" lon="5.98152">
        <ele>1396.45</ele>
        <time>2014-02-09T11:55:46Z</time>
      </trkpt>
      <trkpt lat="45.66371" lon="5.98145">
        <ele>1396.93</ele>
        <time>2014-02-09T11:55:50Z</time>
      </trkpt>
      <trkpt lat="45.66371" lon="5.98142">
        <ele>1396.93</ele>
        <time>2014-02-09T11:55:51Z</time>
      </trkpt>
      <trkpt lat="45.66371" lon="5.9814">
        <ele>1397.41</ele>
        <time>2014-02-09T11:55:52Z</time>
      </trkpt>
      <trkpt lat="45.66372" lon="5.98138">
        <ele>1397.41</ele>
        <time>2014-02-09T11:55:53Z</time>
      </trkpt>
      <trkpt lat="45.66372" lon="5.98136">
        <ele>1397.41</ele>
        <time>2014-02-09T11:55:54Z</time>
      </trkpt>
      <trkpt lat="45.66373" lon="5.98134">
        <ele>1397.41</ele>
        <time>2014-02-09T11:55:55Z</time>
      </trkpt>
      <trkpt lat="45.66374" lon="5.98131">
        <ele>1397.41</ele>
        <time>2014-02-09T11:55:56Z</time>
      </trkpt>
      <trkpt lat="45.66374" lon="5.98129">
        <ele>1397.41</ele>
        <time>2014-02-09T11:55:57Z</time>
      </trkpt>
      <trkpt lat="45.66375" lon="5.98128">
        <ele>1397.89</ele>
        <time>2014-02-09T11:55:58Z</time>
      </trkpt>
      <trkpt lat="45.66375" lon="5.98126">
        <ele>1398.37</ele>
        <time>2014-02-09T11:55:59Z</time>
      </trkpt>
      <trkpt lat="45.66376" lon="5.98123">
        <ele>1397.89</ele>
        <time>2014-02-09T11:56:00Z</time>
      </trkpt>
      <trkpt lat="45.66377" lon="5.9812">
        <ele>1397.89</ele>
        <time>2014-02-09T11:56:01Z</time>
      </trkpt>
      <trkpt lat="45.66377" lon="5.98118">
        <ele>1398.37</ele>
        <time>2014-02-09T11:56:02Z</time>
      </trkpt>
      <trkpt lat="45.66378" lon="5.98115">
        <ele>1397.89</ele>
        <time>2014-02-09T11:56:03Z</time>
      </trkpt>
      <trkpt lat="45.66382" lon="5.98094">
        <ele>1397.89</ele>
        <time>2014-02-09T11:56:11Z</time>
      </trkpt>
      <trkpt lat="45.66381" lon="5.98092">
        <ele>1397.89</ele>
        <time>2014-02-09T11:56:12Z</time>
      </trkpt>
      <trkpt lat="45.6638" lon="5.9809">
        <ele>1397.89</ele>
        <time>2014-02-09T11:56:13Z</time>
      </trkpt>
      <trkpt lat="45.66379" lon="5.98088">
        <ele>1397.89</ele>
        <time>2014-02-09T11:56:14Z</time>
      </trkpt>
      <trkpt lat="45.66378" lon="5.98085">
        <ele>1397.89</ele>
        <time>2014-02-09T11:56:15Z</time>
      </trkpt>
      <trkpt lat="45.66376" lon="5.98083">
        <ele>1397.89</ele>
        <time>2014-02-09T11:56:16Z</time>
      </trkpt>
      <trkpt lat="45.66375" lon="5.98081">
        <ele>1397.89</ele>
        <time>2014-02-09T11:56:17Z</time>
      </trkpt>
      <trkpt lat="45.66374" lon="5.98079">
        <ele>1398.37</ele>
        <time>2014-02-09T11:56:18Z</time>
      </trkpt>
      <trkpt lat="45.66369" lon="5.98068">
        <ele>1398.37</ele>
        <time>2014-02-09T11:56:23Z</time>
      </trkpt>
      <trkpt lat="45.66369" lon="5.98066">
        <ele>1399.34</ele>
        <time>2014-02-09T11:56:24Z</time>
      </trkpt>
      <trkpt lat="45.66368" lon="5.98064">
        <ele>1399.34</ele>
        <time>2014-02-09T11:56:25Z</time>
      </trkpt>
      <trkpt lat="45.66367" lon="5.98063">
        <ele>1399.34</ele>
        <time>2014-02-09T11:56:26Z</time>
      </trkpt>
      <trkpt lat="45.66365" lon="5.98062">
        <ele>1399.34</ele>
        <time>2014-02-09T11:56:27Z</time>
      </trkpt>
      <trkpt lat="45.66364" lon="5.9806">
        <ele>1399.34</ele>
        <time>2014-02-09T11:56:28Z</time>
      </trkpt>
      <trkpt lat="45.66363" lon="5.98059">
        <ele>1399.34</ele>
        <time>2014-02-09T11:56:29Z</time>
      </trkpt>
      <trkpt lat="45.66361" lon="5.98058">
        <ele>1399.82</ele>
        <time>2014-02-09T11:56:30Z</time>
      </trkpt>
      <trkpt lat="45.66358" lon="5.98055">
        <ele>1399.82</ele>
        <time>2014-02-09T11:56:33Z</time>
      </trkpt>
      <trkpt lat="45.66356" lon="5.98054">
        <ele>1399.82</ele>
        <time>2014-02-09T11:56:34Z</time>
      </trkpt>
      <trkpt lat="45.66355" lon="5.98054">
        <ele>1399.82</ele>
        <time>2014-02-09T11:56:35Z</time>
      </trkpt>
      <trkpt lat="45.66352" lon="5.98053">
        <ele>1399.82</ele>
        <time>2014-02-09T11:56:36Z</time>
      </trkpt>
      <trkpt lat="45.6635" lon="5.98053">
        <ele>1399.34</ele>
        <time>2014-02-09T11:56:37Z</time>
      </trkpt>
      <trkpt lat="45.66321" lon="5.9805">
        <ele>1398.37</ele>
        <time>2014-02-09T11:56:47Z</time>
      </trkpt>
      <trkpt lat="45.6631" lon="5.98047">
        <ele>1398.37</ele>
        <time>2014-02-09T11:56:51Z</time>
      </trkpt>
      <trkpt lat="45.66307" lon="5.98046">
        <ele>1398.37</ele>
        <time>2014-02-09T11:56:53Z</time>
      </trkpt>
      <trkpt lat="45.66305" lon="5.98045">
        <ele>1399.34</ele>
        <time>2014-02-09T11:56:54Z</time>
      </trkpt>
      <trkpt lat="45.66304" lon="5.98044">
        <ele>1399.34</ele>
        <time>2014-02-09T11:56:55Z</time>
      </trkpt>
      <trkpt lat="45.66302" lon="5.98044">
        <ele>1399.34</ele>
        <time>2014-02-09T11:56:56Z</time>
      </trkpt>
      <trkpt lat="45.66301" lon="5.98043">
        <ele>1399.34</ele>
        <time>2014-02-09T11:56:57Z</time>
      </trkpt>
      <trkpt lat="45.663" lon="5.98042">
        <ele>1399.82</ele>
        <time>2014-02-09T11:56:58Z</time>
      </trkpt>
      <trkpt lat="45.66298" lon="5.98042">
        <ele>1399.82</ele>
        <time>2014-02-09T11:56:59Z</time>
      </trkpt>
      <trkpt lat="45.66297" lon="5.98041">
        <ele>1399.34</ele>
        <time>2014-02-09T11:57:00Z</time>
      </trkpt>
      <trkpt lat="45.6629" lon="5.98032">
        <ele>1400.78</ele>
        <time>2014-02-09T11:57:06Z</time>
      </trkpt>
      <trkpt lat="45.66288" lon="5.9803">
        <ele>1401.26</ele>
        <time>2014-02-09T11:57:07Z</time>
      </trkpt>
      <trkpt lat="45.66285" lon="5.98028">
        <ele>1401.26</ele>
        <time>2014-02-09T11:57:09Z</time>
      </trkpt>
      <trkpt lat="45.66283" lon="5.98028">
        <ele>1401.74</ele>
        <time>2014-02-09T11:57:10Z</time>
      </trkpt>
      <trkpt lat="45.66281" lon="5.98026">
        <ele>1401.74</ele>
        <time>2014-02-09T11:57:12Z</time>
      </trkpt>
      <trkpt lat="45.66279" lon="5.98025">
        <ele>1401.74</ele>
        <time>2014-02-09T11:57:13Z</time>
      </trkpt>
      <trkpt lat="45.66278" lon="5.98024">
        <ele>1401.74</ele>
        <time>2014-02-09T11:57:14Z</time>
      </trkpt>
      <trkpt lat="45.66275" lon="5.98024">
        <ele>1402.22</ele>
        <time>2014-02-09T11:57:15Z</time>
      </trkpt>
      <trkpt lat="45.66274" lon="5.98024">
        <ele>1402.22</ele>
        <time>2014-02-09T11:57:16Z</time>
      </trkpt>
      <trkpt lat="45.66271" lon="5.98024">
        <ele>1402.22</ele>
        <time>2014-02-09T11:57:17Z</time>
      </trkpt>
      <trkpt lat="45.66258" lon="5.98023">
        <ele>1403.66</ele>
        <time>2014-02-09T11:57:26Z</time>
      </trkpt>
      <trkpt lat="45.66254" lon="5.98026">
        <ele>1405.1</ele>
        <time>2014-02-09T11:57:30Z</time>
      </trkpt>
      <trkpt lat="45.66241" lon="5.98034">
        <ele>1405.1</ele>
        <time>2014-02-09T11:57:39Z</time>
      </trkpt>
      <trkpt lat="45.66223" lon="5.98038">
        <ele>1404.14</ele>
        <time>2014-02-09T11:57:50Z</time>
      </trkpt>
      <trkpt lat="45.66219" lon="5.98038">
        <ele>1404.14</ele>
        <time>2014-02-09T11:57:53Z</time>
      </trkpt>
      <trkpt lat="45.66217" lon="5.98037">
        <ele>1404.14</ele>
        <time>2014-02-09T11:57:54Z</time>
      </trkpt>
      <trkpt lat="45.66216" lon="5.98037">
        <ele>1404.14</ele>
        <time>2014-02-09T11:57:55Z</time>
      </trkpt>
      <trkpt lat="45.66214" lon="5.98037">
        <ele>1404.62</ele>
        <time>2014-02-09T11:57:56Z</time>
      </trkpt>
      <trkpt lat="45.66209" lon="5.98034">
        <ele>1404.62</ele>
        <time>2014-02-09T11:57:59Z</time>
      </trkpt>
      <trkpt lat="45.66208" lon="5.98033">
        <ele>1404.62</ele>
        <time>2014-02-09T11:58:00Z</time>
      </trkpt>
      <trkpt lat="45.66201" lon="5.9803">
        <ele>1404.62</ele>
        <time>2014-02-09T11:58:04Z</time>
      </trkpt>
      <trkpt lat="45.662" lon="5.9803">
        <ele>1405.1</ele>
        <time>2014-02-09T11:58:05Z</time>
      </trkpt>
      <trkpt lat="45.66198" lon="5.98028">
        <ele>1405.58</ele>
        <time>2014-02-09T11:58:06Z</time>
      </trkpt>
      <trkpt lat="45.66191" lon="5.98024">
        <ele>1405.58</ele>
        <time>2014-02-09T11:58:10Z</time>
      </trkpt>
      <trkpt lat="45.6619" lon="5.98023">
        <ele>1405.58</ele>
        <time>2014-02-09T11:58:11Z</time>
      </trkpt>
      <trkpt lat="45.66188" lon="5.98022">
        <ele>1405.58</ele>
        <time>2014-02-09T11:58:12Z</time>
      </trkpt>
      <trkpt lat="45.66186" lon="5.98022">
        <ele>1405.58</ele>
        <time>2014-02-09T11:58:13Z</time>
      </trkpt>
      <trkpt lat="45.66184" lon="5.98021">
        <ele>1406.07</ele>
        <time>2014-02-09T11:58:14Z</time>
      </trkpt>
      <trkpt lat="45.66183" lon="5.9802">
        <ele>1406.55</ele>
        <time>2014-02-09T11:58:15Z</time>
      </trkpt>
      <trkpt lat="45.66181" lon="5.98019">
        <ele>1406.07</ele>
        <time>2014-02-09T11:58:16Z</time>
      </trkpt>
      <trkpt lat="45.6618" lon="5.98017">
        <ele>1406.07</ele>
        <time>2014-02-09T11:58:17Z</time>
      </trkpt>
      <trkpt lat="45.66162" lon="5.98007">
        <ele>1407.03</ele>
        <time>2014-02-09T11:58:27Z</time>
      </trkpt>
      <trkpt lat="45.6616" lon="5.98007">
        <ele>1407.03</ele>
        <time>2014-02-09T11:58:28Z</time>
      </trkpt>
      <trkpt lat="45.66158" lon="5.98006">
        <ele>1407.03</ele>
        <time>2014-02-09T11:58:29Z</time>
      </trkpt>
      <trkpt lat="45.66157" lon="5.98004">
        <ele>1407.03</ele>
        <time>2014-02-09T11:58:30Z</time>
      </trkpt>
      <trkpt lat="45.66155" lon="5.98003">
        <ele>1407.51</ele>
        <time>2014-02-09T11:58:31Z</time>
      </trkpt>
      <trkpt lat="45.66154" lon="5.98002">
        <ele>1407.51</ele>
        <time>2014-02-09T11:58:32Z</time>
      </trkpt>
      <trkpt lat="45.66153" lon="5.98">
        <ele>1407.99</ele>
        <time>2014-02-09T11:58:33Z</time>
      </trkpt>
      <trkpt lat="45.66151" lon="5.97998">
        <ele>1407.99</ele>
        <time>2014-02-09T11:58:34Z</time>
      </trkpt>
      <trkpt lat="45.6615" lon="5.97997">
        <ele>1407.99</ele>
        <time>2014-02-09T11:58:35Z</time>
      </trkpt>
      <trkpt lat="45.66148" lon="5.97994">
        <ele>1408.47</ele>
        <time>2014-02-09T11:58:37Z</time>
      </trkpt>
      <trkpt lat="45.66147" lon="5.97992">
        <ele>1408.95</ele>
        <time>2014-02-09T11:58:38Z</time>
      </trkpt>
      <trkpt lat="45.66146" lon="5.97991">
        <ele>1408.47</ele>
        <time>2014-02-09T11:58:39Z</time>
      </trkpt>
      <trkpt lat="45.66145" lon="5.97989">
        <ele>1408.95</ele>
        <time>2014-02-09T11:58:40Z</time>
      </trkpt>
      <trkpt lat="45.66144" lon="5.97987">
        <ele>1408.47</ele>
        <time>2014-02-09T11:58:41Z</time>
      </trkpt>
      <trkpt lat="45.66142" lon="5.97986">
        <ele>1408.47</ele>
        <time>2014-02-09T11:58:42Z</time>
      </trkpt>
      <trkpt lat="45.66142" lon="5.97984">
        <ele>1408.95</ele>
        <time>2014-02-09T11:58:43Z</time>
      </trkpt>
      <trkpt lat="45.6614" lon="5.97983">
        <ele>1409.43</ele>
        <time>2014-02-09T11:58:44Z</time>
      </trkpt>
      <trkpt lat="45.6614" lon="5.97981">
        <ele>1409.43</ele>
        <time>2014-02-09T11:58:45Z</time>
      </trkpt>
      <trkpt lat="45.66138" lon="5.97977">
        <ele>1409.91</ele>
        <time>2014-02-09T11:58:47Z</time>
      </trkpt>
      <trkpt lat="45.66137" lon="5.97975">
        <ele>1409.43</ele>
        <time>2014-02-09T11:58:48Z</time>
      </trkpt>
      <trkpt lat="45.66129" lon="5.97942">
        <ele>1408.95</ele>
        <time>2014-02-09T11:59:00Z</time>
      </trkpt>
      <trkpt lat="45.66128" lon="5.9794">
        <ele>1408.47</ele>
        <time>2014-02-09T11:59:01Z</time>
      </trkpt>
      <trkpt lat="45.66127" lon="5.97938">
        <ele>1408.95</ele>
        <time>2014-02-09T11:59:02Z</time>
      </trkpt>
      <trkpt lat="45.66125" lon="5.97936">
        <ele>1409.43</ele>
        <time>2014-02-09T11:59:03Z</time>
      </trkpt>
      <trkpt lat="45.66123" lon="5.97934">
        <ele>1408.95</ele>
        <time>2014-02-09T11:59:04Z</time>
      </trkpt>
      <trkpt lat="45.66122" lon="5.97932">
        <ele>1408.95</ele>
        <time>2014-02-09T11:59:05Z</time>
      </trkpt>
      <trkpt lat="45.66121" lon="5.9793">
        <ele>1408.95</ele>
        <time>2014-02-09T11:59:06Z</time>
      </trkpt>
      <trkpt lat="45.6612" lon="5.97927">
        <ele>1408.95</ele>
        <time>2014-02-09T11:59:07Z</time>
      </trkpt>
      <trkpt lat="45.66118" lon="5.97926">
        <ele>1409.43</ele>
        <time>2014-02-09T11:59:08Z</time>
      </trkpt>
      <trkpt lat="45.66117" lon="5.97925">
        <ele>1409.43</ele>
        <time>2014-02-09T11:59:09Z</time>
      </trkpt>
      <trkpt lat="45.66115" lon="5.97924">
        <ele>1409.43</ele>
        <time>2014-02-09T11:59:10Z</time>
      </trkpt>
      <trkpt lat="45.66114" lon="5.97923">
        <ele>1409.91</ele>
        <time>2014-02-09T11:59:11Z</time>
      </trkpt>
      <trkpt lat="45.66113" lon="5.97922">
        <ele>1409.91</ele>
        <time>2014-02-09T11:59:12Z</time>
      </trkpt>
      <trkpt lat="45.66111" lon="5.97921">
        <ele>1409.91</ele>
        <time>2014-02-09T11:59:13Z</time>
      </trkpt>
      <trkpt lat="45.6611" lon="5.97921">
        <ele>1410.39</ele>
        <time>2014-02-09T11:59:14Z</time>
      </trkpt>
      <trkpt lat="45.66108" lon="5.9792">
        <ele>1409.91</ele>
        <time>2014-02-09T11:59:15Z</time>
      </trkpt>
      <trkpt lat="45.66107" lon="5.97919">
        <ele>1410.39</ele>
        <time>2014-02-09T11:59:16Z</time>
      </trkpt>
      <trkpt lat="45.66105" lon="5.97919">
        <ele>1410.87</ele>
        <time>2014-02-09T11:59:17Z</time>
      </trkpt>
      <trkpt lat="45.66103" lon="5.97918">
        <ele>1410.87</ele>
        <time>2014-02-09T11:59:18Z</time>
      </trkpt>
      <trkpt lat="45.661" lon="5.97918">
        <ele>1410.39</ele>
        <time>2014-02-09T11:59:19Z</time>
      </trkpt>
      <trkpt lat="45.66098" lon="5.97917">
        <ele>1410.39</ele>
        <time>2014-02-09T11:59:20Z</time>
      </trkpt>
      <trkpt lat="45.66096" lon="5.97917">
        <ele>1410.39</ele>
        <time>2014-02-09T11:59:21Z</time>
      </trkpt>
      <trkpt lat="45.66094" lon="5.97918">
        <ele>1410.39</ele>
        <time>2014-02-09T11:59:22Z</time>
      </trkpt>
      <trkpt lat="45.66062" lon="5.97916">
        <ele>1408.95</ele>
        <time>2014-02-09T11:59:32Z</time>
      </trkpt>
      <trkpt lat="45.6606" lon="5.97916">
        <ele>1409.43</ele>
        <time>2014-02-09T11:59:33Z</time>
      </trkpt>
      <trkpt lat="45.66057" lon="5.97917">
        <ele>1408.95</ele>
        <time>2014-02-09T11:59:34Z</time>
      </trkpt>
      <trkpt lat="45.66055" lon="5.97916">
        <ele>1409.43</ele>
        <time>2014-02-09T11:59:35Z</time>
      </trkpt>
      <trkpt lat="45.66025" lon="5.97931">
        <ele>1407.99</ele>
        <time>2014-02-09T11:59:45Z</time>
      </trkpt>
      <trkpt lat="45.66002" lon="5.97948">
        <ele>1407.99</ele>
        <time>2014-02-09T11:59:53Z</time>
      </trkpt>
      <trkpt lat="45.66" lon="5.9795">
        <ele>1408.47</ele>
        <time>2014-02-09T11:59:54Z</time>
      </trkpt>
      <trkpt lat="45.65995" lon="5.97956">
        <ele>1408.47</ele>
        <time>2014-02-09T11:59:57Z</time>
      </trkpt>
      <trkpt lat="45.65989" lon="5.97967">
        <ele>1408.47</ele>
        <time>2014-02-09T12:00:01Z</time>
      </trkpt>
      <trkpt lat="45.65983" lon="5.97983">
        <ele>1407.99</ele>
        <time>2014-02-09T12:00:05Z</time>
      </trkpt>
      <trkpt lat="45.6598" lon="5.97989">
        <ele>1407.51</ele>
        <time>2014-02-09T12:00:06Z</time>
      </trkpt>
      <trkpt lat="45.65977" lon="5.97995">
        <ele>1407.03</ele>
        <time>2014-02-09T12:00:07Z</time>
      </trkpt>
      <trkpt lat="45.65974" lon="5.98002">
        <ele>1405.58</ele>
        <time>2014-02-09T12:00:08Z</time>
      </trkpt>
      <trkpt lat="45.65971" lon="5.98009">
        <ele>1405.1</ele>
        <time>2014-02-09T12:00:09Z</time>
      </trkpt>
      <trkpt lat="45.65968" lon="5.98015">
        <ele>1404.14</ele>
        <time>2014-02-09T12:00:10Z</time>
      </trkpt>
      <trkpt lat="45.65965" lon="5.9802">
        <ele>1404.14</ele>
        <time>2014-02-09T12:00:11Z</time>
      </trkpt>
      <trkpt lat="45.65957" lon="5.98036">
        <ele>1403.66</ele>
        <time>2014-02-09T12:00:14Z</time>
      </trkpt>
      <trkpt lat="45.65947" lon="5.98054">
        <ele>1401.74</ele>
        <time>2014-02-09T12:00:17Z</time>
      </trkpt>
      <trkpt lat="45.65942" lon="5.98058">
        <ele>1401.26</ele>
        <time>2014-02-09T12:00:18Z</time>
      </trkpt>
      <trkpt lat="45.65938" lon="5.98061">
        <ele>1400.3</ele>
        <time>2014-02-09T12:00:19Z</time>
      </trkpt>
      <trkpt lat="45.65933" lon="5.98062">
        <ele>1399.82</ele>
        <time>2014-02-09T12:00:20Z</time>
      </trkpt>
      <trkpt lat="45.65928" lon="5.98062">
        <ele>1399.34</ele>
        <time>2014-02-09T12:00:21Z</time>
      </trkpt>
      <trkpt lat="45.65925" lon="5.98062">
        <ele>1398.86</ele>
        <time>2014-02-09T12:00:22Z</time>
      </trkpt>
      <trkpt lat="45.65922" lon="5.9806">
        <ele>1398.37</ele>
        <time>2014-02-09T12:00:23Z</time>
      </trkpt>
      <trkpt lat="45.65919" lon="5.98057">
        <ele>1397.89</ele>
        <time>2014-02-09T12:00:24Z</time>
      </trkpt>
      <trkpt lat="45.65915" lon="5.98055">
        <ele>1397.89</ele>
        <time>2014-02-09T12:00:25Z</time>
      </trkpt>
      <trkpt lat="45.65912" lon="5.98052">
        <ele>1397.89</ele>
        <time>2014-02-09T12:00:26Z</time>
      </trkpt>
      <trkpt lat="45.6591" lon="5.9805">
        <ele>1397.89</ele>
        <time>2014-02-09T12:00:27Z</time>
      </trkpt>
      <trkpt lat="45.65908" lon="5.98048">
        <ele>1397.89</ele>
        <time>2014-02-09T12:00:28Z</time>
      </trkpt>
      <trkpt lat="45.65907" lon="5.98047">
        <ele>1398.37</ele>
        <time>2014-02-09T12:00:29Z</time>
      </trkpt>
      <trkpt lat="45.65906" lon="5.98047">
        <ele>1398.37</ele>
        <time>2014-02-09T12:00:30Z</time>
      </trkpt>
      <trkpt lat="45.65905" lon="5.98045">
        <ele>1399.34</ele>
        <time>2014-02-09T12:00:31Z</time>
      </trkpt>
      <trkpt lat="45.65904" lon="5.98044">
        <ele>1398.86</ele>
        <time>2014-02-09T12:00:32Z</time>
      </trkpt>
      <trkpt lat="45.65903" lon="5.98043">
        <ele>1399.34</ele>
        <time>2014-02-09T12:00:33Z</time>
      </trkpt>
      <trkpt lat="45.65901" lon="5.98041">
        <ele>1399.34</ele>
        <time>2014-02-09T12:00:34Z</time>
      </trkpt>
      <trkpt lat="45.65899" lon="5.9804">
        <ele>1400.3</ele>
        <time>2014-02-09T12:00:35Z</time>
      </trkpt>
      <trkpt lat="45.65898" lon="5.98039">
        <ele>1399.82</ele>
        <time>2014-02-09T12:00:36Z</time>
      </trkpt>
      <trkpt lat="45.65896" lon="5.98039">
        <ele>1400.3</ele>
        <time>2014-02-09T12:00:37Z</time>
      </trkpt>
      <trkpt lat="45.65894" lon="5.98038">
        <ele>1399.82</ele>
        <time>2014-02-09T12:00:38Z</time>
      </trkpt>
      <trkpt lat="45.65884" lon="5.98031">
        <ele>1400.78</ele>
        <time>2014-02-09T12:00:43Z</time>
      </trkpt>
      <trkpt lat="45.65882" lon="5.9803">
        <ele>1400.78</ele>
        <time>2014-02-09T12:00:44Z</time>
      </trkpt>
      <trkpt lat="45.65878" lon="5.9803">
        <ele>1400.78</ele>
        <time>2014-02-09T12:00:46Z</time>
      </trkpt>
      <trkpt lat="45.65876" lon="5.9803">
        <ele>1401.26</ele>
        <time>2014-02-09T12:00:47Z</time>
      </trkpt>
      <trkpt lat="45.65874" lon="5.98029">
        <ele>1401.26</ele>
        <time>2014-02-09T12:00:48Z</time>
      </trkpt>
      <trkpt lat="45.65873" lon="5.98028">
        <ele>1401.26</ele>
        <time>2014-02-09T12:00:49Z</time>
      </trkpt>
      <trkpt lat="45.65871" lon="5.98028">
        <ele>1401.26</ele>
        <time>2014-02-09T12:00:50Z</time>
      </trkpt>
      <trkpt lat="45.65869" lon="5.98028">
        <ele>1401.74</ele>
        <time>2014-02-09T12:00:51Z</time>
      </trkpt>
      <trkpt lat="45.65868" lon="5.98028">
        <ele>1401.74</ele>
        <time>2014-02-09T12:00:52Z</time>
      </trkpt>
      <trkpt lat="45.65866" lon="5.98027">
        <ele>1401.74</ele>
        <time>2014-02-09T12:00:53Z</time>
      </trkpt>
      <trkpt lat="45.65864" lon="5.98027">
        <ele>1401.74</ele>
        <time>2014-02-09T12:00:54Z</time>
      </trkpt>
      <trkpt lat="45.65862" lon="5.98026">
        <ele>1401.74</ele>
        <time>2014-02-09T12:00:55Z</time>
      </trkpt>
      <trkpt lat="45.6586" lon="5.98025">
        <ele>1401.74</ele>
        <time>2014-02-09T12:00:56Z</time>
      </trkpt>
      <trkpt lat="45.65858" lon="5.98025">
        <ele>1402.22</ele>
        <time>2014-02-09T12:00:57Z</time>
      </trkpt>
      <trkpt lat="45.65856" lon="5.98024">
        <ele>1401.74</ele>
        <time>2014-02-09T12:00:58Z</time>
      </trkpt>
      <trkpt lat="45.65854" lon="5.98023">
        <ele>1402.22</ele>
        <time>2014-02-09T12:00:59Z</time>
      </trkpt>
      <trkpt lat="45.65851" lon="5.98023">
        <ele>1402.22</ele>
        <time>2014-02-09T12:01:00Z</time>
      </trkpt>
      <trkpt lat="45.65849" lon="5.98023">
        <ele>1401.74</ele>
        <time>2014-02-09T12:01:01Z</time>
      </trkpt>
      <trkpt lat="45.65847" lon="5.98023">
        <ele>1402.7</ele>
        <time>2014-02-09T12:01:02Z</time>
      </trkpt>
      <trkpt lat="45.65845" lon="5.98023">
        <ele>1402.22</ele>
        <time>2014-02-09T12:01:03Z</time>
      </trkpt>
      <trkpt lat="45.65844" lon="5.98023">
        <ele>1402.7</ele>
        <time>2014-02-09T12:01:04Z</time>
      </trkpt>
      <trkpt lat="45.65842" lon="5.98023">
        <ele>1402.22</ele>
        <time>2014-02-09T12:01:05Z</time>
      </trkpt>
      <trkpt lat="45.6584" lon="5.98023">
        <ele>1402.22</ele>
        <time>2014-02-09T12:01:06Z</time>
      </trkpt>
      <trkpt lat="45.65838" lon="5.98022">
        <ele>1401.74</ele>
        <time>2014-02-09T12:01:07Z</time>
      </trkpt>
      <trkpt lat="45.65828" lon="5.9802">
        <ele>1401.74</ele>
        <time>2014-02-09T12:01:10Z</time>
      </trkpt>
      <trkpt lat="45.65823" lon="5.98021">
        <ele>1400.78</ele>
        <time>2014-02-09T12:01:11Z</time>
      </trkpt>
      <trkpt lat="45.6582" lon="5.98023">
        <ele>1401.26</ele>
        <time>2014-02-09T12:01:12Z</time>
      </trkpt>
      <trkpt lat="45.65817" lon="5.98025">
        <ele>1401.26</ele>
        <time>2014-02-09T12:01:13Z</time>
      </trkpt>
      <trkpt lat="45.65814" lon="5.98027">
        <ele>1400.3</ele>
        <time>2014-02-09T12:01:14Z</time>
      </trkpt>
      <trkpt lat="45.65812" lon="5.9803">
        <ele>1400.3</ele>
        <time>2014-02-09T12:01:15Z</time>
      </trkpt>
      <trkpt lat="45.6581" lon="5.98032">
        <ele>1400.3</ele>
        <time>2014-02-09T12:01:16Z</time>
      </trkpt>
      <trkpt lat="45.65807" lon="5.98036">
        <ele>1400.3</ele>
        <time>2014-02-09T12:01:17Z</time>
      </trkpt>
      <trkpt lat="45.65787" lon="5.98064">
        <ele>1396.93</ele>
        <time>2014-02-09T12:01:22Z</time>
      </trkpt>
      <trkpt lat="45.65783" lon="5.98068">
        <ele>1396.45</ele>
        <time>2014-02-09T12:01:23Z</time>
      </trkpt>
      <trkpt lat="45.65778" lon="5.9807">
        <ele>1396.45</ele>
        <time>2014-02-09T12:01:24Z</time>
      </trkpt>
      <trkpt lat="45.65774" lon="5.98071">
        <ele>1395.97</ele>
        <time>2014-02-09T12:01:25Z</time>
      </trkpt>
      <trkpt lat="45.6577" lon="5.98072">
        <ele>1395.49</ele>
        <time>2014-02-09T12:01:26Z</time>
      </trkpt>
      <trkpt lat="45.65768" lon="5.98073">
        <ele>1395.97</ele>
        <time>2014-02-09T12:01:27Z</time>
      </trkpt>
      <trkpt lat="45.65752" lon="5.9808">
        <ele>1395.49</ele>
        <time>2014-02-09T12:01:32Z</time>
      </trkpt>
      <trkpt lat="45.6575" lon="5.9808">
        <ele>1396.45</ele>
        <time>2014-02-09T12:01:33Z</time>
      </trkpt>
      <trkpt lat="45.65736" lon="5.98091">
        <ele>1396.45</ele>
        <time>2014-02-09T12:01:41Z</time>
      </trkpt>
      <trkpt lat="45.65725" lon="5.98101">
        <ele>1395.49</ele>
        <time>2014-02-09T12:01:46Z</time>
      </trkpt>
      <trkpt lat="45.65723" lon="5.98104">
        <ele>1395.49</ele>
        <time>2014-02-09T12:01:47Z</time>
      </trkpt>
      <trkpt lat="45.65719" lon="5.98107">
        <ele>1395.49</ele>
        <time>2014-02-09T12:01:48Z</time>
      </trkpt>
      <trkpt lat="45.65716" lon="5.98111">
        <ele>1395.49</ele>
        <time>2014-02-09T12:01:49Z</time>
      </trkpt>
      <trkpt lat="45.65713" lon="5.98114">
        <ele>1395.49</ele>
        <time>2014-02-09T12:01:50Z</time>
      </trkpt>
      <trkpt lat="45.65711" lon="5.98117">
        <ele>1395.01</ele>
        <time>2014-02-09T12:01:51Z</time>
      </trkpt>
      <trkpt lat="45.65708" lon="5.9812">
        <ele>1395.01</ele>
        <time>2014-02-09T12:01:52Z</time>
      </trkpt>
      <trkpt lat="45.65705" lon="5.98123">
        <ele>1395.01</ele>
        <time>2014-02-09T12:01:53Z</time>
      </trkpt>
      <trkpt lat="45.65701" lon="5.98125">
        <ele>1395.01</ele>
        <time>2014-02-09T12:01:54Z</time>
      </trkpt>
      <trkpt lat="45.65698" lon="5.98127">
        <ele>1394.53</ele>
        <time>2014-02-09T12:01:55Z</time>
      </trkpt>
      <trkpt lat="45.65665" lon="5.98145">
        <ele>1393.09</ele>
        <time>2014-02-09T12:02:05Z</time>
      </trkpt>
      <trkpt lat="45.65662" lon="5.98145">
        <ele>1393.09</ele>
        <time>2014-02-09T12:02:06Z</time>
      </trkpt>
      <trkpt lat="45.65659" lon="5.98146">
        <ele>1393.57</ele>
        <time>2014-02-09T12:02:07Z</time>
      </trkpt>
      <trkpt lat="45.65656" lon="5.98146">
        <ele>1393.09</ele>
        <time>2014-02-09T12:02:08Z</time>
      </trkpt>
      <trkpt lat="45.65653" lon="5.98146">
        <ele>1393.09</ele>
        <time>2014-02-09T12:02:09Z</time>
      </trkpt>
      <trkpt lat="45.6565" lon="5.98146">
        <ele>1393.57</ele>
        <time>2014-02-09T12:02:10Z</time>
      </trkpt>
      <trkpt lat="45.65647" lon="5.98147">
        <ele>1394.05</ele>
        <time>2014-02-09T12:02:11Z</time>
      </trkpt>
      <trkpt lat="45.65645" lon="5.98146">
        <ele>1393.57</ele>
        <time>2014-02-09T12:02:12Z</time>
      </trkpt>
      <trkpt lat="45.65642" lon="5.98146">
        <ele>1393.57</ele>
        <time>2014-02-09T12:02:13Z</time>
      </trkpt>
      <trkpt lat="45.65639" lon="5.98146">
        <ele>1393.57</ele>
        <time>2014-02-09T12:02:14Z</time>
      </trkpt>
      <trkpt lat="45.65636" lon="5.98146">
        <ele>1393.57</ele>
        <time>2014-02-09T12:02:15Z</time>
      </trkpt>
      <trkpt lat="45.65633" lon="5.98146">
        <ele>1393.57</ele>
        <time>2014-02-09T12:02:16Z</time>
      </trkpt>
      <trkpt lat="45.65631" lon="5.98147">
        <ele>1393.57</ele>
        <time>2014-02-09T12:02:17Z</time>
      </trkpt>
      <trkpt lat="45.65628" lon="5.98147">
        <ele>1393.57</ele>
        <time>2014-02-09T12:02:18Z</time>
      </trkpt>
      <trkpt lat="45.65626" lon="5.98147">
        <ele>1393.57</ele>
        <time>2014-02-09T12:02:19Z</time>
      </trkpt>
      <trkpt lat="45.65623" lon="5.98147">
        <ele>1393.57</ele>
        <time>2014-02-09T12:02:20Z</time>
      </trkpt>
      <trkpt lat="45.65621" lon="5.98146">
        <ele>1393.09</ele>
        <time>2014-02-09T12:02:21Z</time>
      </trkpt>
      <trkpt lat="45.65619" lon="5.98146">
        <ele>1393.09</ele>
        <time>2014-02-09T12:02:22Z</time>
      </trkpt>
      <trkpt lat="45.65616" lon="5.98146">
        <ele>1393.57</ele>
        <time>2014-02-09T12:02:23Z</time>
      </trkpt>
      <trkpt lat="45.65613" lon="5.98146">
        <ele>1393.57</ele>
        <time>2014-02-09T12:02:24Z</time>
      </trkpt>
      <trkpt lat="45.65611" lon="5.98146">
        <ele>1393.57</ele>
        <time>2014-02-09T12:02:25Z</time>
      </trkpt>
      <trkpt lat="45.65608" lon="5.98146">
        <ele>1393.09</ele>
        <time>2014-02-09T12:02:26Z</time>
      </trkpt>
      <trkpt lat="45.65606" lon="5.98145">
        <ele>1393.57</ele>
        <time>2014-02-09T12:02:27Z</time>
      </trkpt>
      <trkpt lat="45.65604" lon="5.98145">
        <ele>1393.57</ele>
        <time>2014-02-09T12:02:28Z</time>
      </trkpt>
      <trkpt lat="45.65602" lon="5.98144">
        <ele>1393.09</ele>
        <time>2014-02-09T12:02:29Z</time>
      </trkpt>
      <trkpt lat="45.65599" lon="5.98144">
        <ele>1393.57</ele>
        <time>2014-02-09T12:02:30Z</time>
      </trkpt>
      <trkpt lat="45.65597" lon="5.98144">
        <ele>1393.09</ele>
        <time>2014-02-09T12:02:31Z</time>
      </trkpt>
      <trkpt lat="45.65594" lon="5.98144">
        <ele>1393.57</ele>
        <time>2014-02-09T12:02:32Z</time>
      </trkpt>
      <trkpt lat="45.65592" lon="5.98144">
        <ele>1393.57</ele>
        <time>2014-02-09T12:02:33Z</time>
      </trkpt>
      <trkpt lat="45.6559" lon="5.98145">
        <ele>1393.57</ele>
        <time>2014-02-09T12:02:34Z</time>
      </trkpt>
      <trkpt lat="45.65587" lon="5.98145">
        <ele>1393.57</ele>
        <time>2014-02-09T12:02:35Z</time>
      </trkpt>
      <trkpt lat="45.65585" lon="5.98146">
        <ele>1393.57</ele>
        <time>2014-02-09T12:02:36Z</time>
      </trkpt>
      <trkpt lat="45.65583" lon="5.98147">
        <ele>1393.57</ele>
        <time>2014-02-09T12:02:37Z</time>
      </trkpt>
      <trkpt lat="45.65581" lon="5.98149">
        <ele>1393.57</ele>
        <time>2014-02-09T12:02:38Z</time>
      </trkpt>
      <trkpt lat="45.65579" lon="5.98152">
        <ele>1393.57</ele>
        <time>2014-02-09T12:02:39Z</time>
      </trkpt>
      <trkpt lat="45.65577" lon="5.98155">
        <ele>1393.57</ele>
        <time>2014-02-09T12:02:40Z</time>
      </trkpt>
      <trkpt lat="45.65576" lon="5.98158">
        <ele>1393.09</ele>
        <time>2014-02-09T12:02:41Z</time>
      </trkpt>
      <trkpt lat="45.65576" lon="5.98161">
        <ele>1393.57</ele>
        <time>2014-02-09T12:02:42Z</time>
      </trkpt>
      <trkpt lat="45.65575" lon="5.98165">
        <ele>1394.05</ele>
        <time>2014-02-09T12:02:43Z</time>
      </trkpt>
      <trkpt lat="45.65575" lon="5.98169">
        <ele>1393.09</ele>
        <time>2014-02-09T12:02:44Z</time>
      </trkpt>
      <trkpt lat="45.65578" lon="5.98213">
        <ele>1392.61</ele>
        <time>2014-02-09T12:02:55Z</time>
      </trkpt>
      <trkpt lat="45.65584" lon="5.98256">
        <ele>1390.2</ele>
        <time>2014-02-09T12:03:02Z</time>
      </trkpt>
      <trkpt lat="45.65581" lon="5.98291">
        <ele>1389.24</ele>
        <time>2014-02-09T12:03:09Z</time>
      </trkpt>
      <trkpt lat="45.65578" lon="5.98296">
        <ele>1388.76</ele>
        <time>2014-02-09T12:03:10Z</time>
      </trkpt>
      <trkpt lat="45.65576" lon="5.98302">
        <ele>1388.28</ele>
        <time>2014-02-09T12:03:11Z</time>
      </trkpt>
      <trkpt lat="45.65574" lon="5.98309">
        <ele>1387.8</ele>
        <time>2014-02-09T12:03:12Z</time>
      </trkpt>
      <trkpt lat="45.65573" lon="5.98315">
        <ele>1387.32</ele>
        <time>2014-02-09T12:03:13Z</time>
      </trkpt>
      <trkpt lat="45.6557" lon="5.98322">
        <ele>1387.32</ele>
        <time>2014-02-09T12:03:14Z</time>
      </trkpt>
      <trkpt lat="45.65547" lon="5.98367">
        <ele>1385.4</ele>
        <time>2014-02-09T12:03:24Z</time>
      </trkpt>
      <trkpt lat="45.65546" lon="5.9837">
        <ele>1385.88</ele>
        <time>2014-02-09T12:03:26Z</time>
      </trkpt>
      <trkpt lat="45.65546" lon="5.98371">
        <ele>1385.88</ele>
        <time>2014-02-09T12:03:27Z</time>
      </trkpt>
      <trkpt lat="45.65544" lon="5.98371">
        <ele>1386.36</ele>
        <time>2014-02-09T12:03:28Z</time>
      </trkpt>
      <trkpt lat="45.65542" lon="5.98372">
        <ele>1386.84</ele>
        <time>2014-02-09T12:03:29Z</time>
      </trkpt>
      <trkpt lat="45.65535" lon="5.98378">
        <ele>1388.76</ele>
        <time>2014-02-09T12:03:38Z</time>
      </trkpt>
      <trkpt lat="45.65525" lon="5.98379">
        <ele>1391.17</ele>
        <time>2014-02-09T12:03:48Z</time>
      </trkpt>
      <trkpt lat="45.65524" lon="5.98379">
        <ele>1391.17</ele>
        <time>2014-02-09T12:03:49Z</time>
      </trkpt>
      <trkpt lat="45.65523" lon="5.98378">
        <ele>1391.17</ele>
        <time>2014-02-09T12:03:50Z</time>
      </trkpt>
      <trkpt lat="45.65517" lon="5.98376">
        <ele>1392.13</ele>
        <time>2014-02-09T12:03:54Z</time>
      </trkpt>
      <trkpt lat="45.65517" lon="5.98375">
        <ele>1392.13</ele>
        <time>2014-02-09T12:03:55Z</time>
      </trkpt>
      <trkpt lat="45.65497" lon="5.98349">
        <ele>1390.2</ele>
        <time>2014-02-09T12:04:07Z</time>
      </trkpt>
      <trkpt lat="45.65483" lon="5.98337">
        <ele>1389.24</ele>
        <time>2014-02-09T12:04:12Z</time>
      </trkpt>
      <trkpt lat="45.6548" lon="5.98335">
        <ele>1389.24</ele>
        <time>2014-02-09T12:04:13Z</time>
      </trkpt>
      <trkpt lat="45.65478" lon="5.98333">
        <ele>1389.24</ele>
        <time>2014-02-09T12:04:14Z</time>
      </trkpt>
      <trkpt lat="45.65474" lon="5.98329">
        <ele>1389.24</ele>
        <time>2014-02-09T12:04:16Z</time>
      </trkpt>
      <trkpt lat="45.65473" lon="5.98327">
        <ele>1389.24</ele>
        <time>2014-02-09T12:04:17Z</time>
      </trkpt>
      <trkpt lat="45.65472" lon="5.98324">
        <ele>1389.24</ele>
        <time>2014-02-09T12:04:18Z</time>
      </trkpt>
      <trkpt lat="45.65472" lon="5.98322">
        <ele>1389.72</ele>
        <time>2014-02-09T12:04:19Z</time>
      </trkpt>
      <trkpt lat="45.6547" lon="5.98321">
        <ele>1390.68</ele>
        <time>2014-02-09T12:04:20Z</time>
      </trkpt>
      <trkpt lat="45.65464" lon="5.98313">
        <ele>1392.13</ele>
        <time>2014-02-09T12:04:33Z</time>
      </trkpt>
      <trkpt lat="45.65459" lon="5.98306">
        <ele>1394.05</ele>
        <time>2014-02-09T12:04:43Z</time>
      </trkpt>
      <trkpt lat="45.65454" lon="5.98295">
        <ele>1395.97</ele>
        <time>2014-02-09T12:04:58Z</time>
      </trkpt>
      <trkpt lat="45.65442" lon="5.98287">
        <ele>1395.01</ele>
        <time>2014-02-09T12:05:09Z</time>
      </trkpt>
      <trkpt lat="45.65422" lon="5.98271">
        <ele>1393.57</ele>
        <time>2014-02-09T12:05:19Z</time>
      </trkpt>
      <trkpt lat="45.65393" lon="5.98249">
        <ele>1392.61</ele>
        <time>2014-02-09T12:05:28Z</time>
      </trkpt>
      <trkpt lat="45.65382" lon="5.98243">
        <ele>1393.09</ele>
        <time>2014-02-09T12:05:31Z</time>
      </trkpt>
      <trkpt lat="45.6538" lon="5.98241">
        <ele>1393.09</ele>
        <time>2014-02-09T12:05:32Z</time>
      </trkpt>
      <trkpt lat="45.65368" lon="5.98228">
        <ele>1393.09</ele>
        <time>2014-02-09T12:05:37Z</time>
      </trkpt>
      <trkpt lat="45.65365" lon="5.98225">
        <ele>1392.61</ele>
        <time>2014-02-09T12:05:38Z</time>
      </trkpt>
      <trkpt lat="45.65363" lon="5.98221">
        <ele>1392.61</ele>
        <time>2014-02-09T12:05:39Z</time>
      </trkpt>
      <trkpt lat="45.6535" lon="5.98191">
        <ele>1392.13</ele>
        <time>2014-02-09T12:05:48Z</time>
      </trkpt>
      <trkpt lat="45.65348" lon="5.9819">
        <ele>1392.61</ele>
        <time>2014-02-09T12:05:49Z</time>
      </trkpt>
      <trkpt lat="45.6534" lon="5.98187">
        <ele>1393.57</ele>
        <time>2014-02-09T12:05:52Z</time>
      </trkpt>
      <trkpt lat="45.65337" lon="5.98187">
        <ele>1393.57</ele>
        <time>2014-02-09T12:05:53Z</time>
      </trkpt>
      <trkpt lat="45.65335" lon="5.98188">
        <ele>1393.09</ele>
        <time>2014-02-09T12:05:54Z</time>
      </trkpt>
      <trkpt lat="45.65333" lon="5.9819">
        <ele>1393.09</ele>
        <time>2014-02-09T12:05:55Z</time>
      </trkpt>
      <trkpt lat="45.6533" lon="5.98191">
        <ele>1393.09</ele>
        <time>2014-02-09T12:05:56Z</time>
      </trkpt>
      <trkpt lat="45.65292" lon="5.98206">
        <ele>1391.17</ele>
        <time>2014-02-09T12:06:07Z</time>
      </trkpt>
      <trkpt lat="45.65269" lon="5.98214">
        <ele>1388.76</ele>
        <time>2014-02-09T12:06:12Z</time>
      </trkpt>
      <trkpt lat="45.65248" lon="5.98224">
        <ele>1386.84</ele>
        <time>2014-02-09T12:06:16Z</time>
      </trkpt>
      <trkpt lat="45.65244" lon="5.98228">
        <ele>1386.84</ele>
        <time>2014-02-09T12:06:17Z</time>
      </trkpt>
      <trkpt lat="45.65237" lon="5.98238">
        <ele>1385.88</ele>
        <time>2014-02-09T12:06:19Z</time>
      </trkpt>
      <trkpt lat="45.65234" lon="5.98245">
        <ele>1385.4</ele>
        <time>2014-02-09T12:06:20Z</time>
      </trkpt>
      <trkpt lat="45.65233" lon="5.98253">
        <ele>1384.92</ele>
        <time>2014-02-09T12:06:21Z</time>
      </trkpt>
      <trkpt lat="45.65233" lon="5.98261">
        <ele>1384.44</ele>
        <time>2014-02-09T12:06:22Z</time>
      </trkpt>
      <trkpt lat="45.65235" lon="5.9827">
        <ele>1383.96</ele>
        <time>2014-02-09T12:06:23Z</time>
      </trkpt>
      <trkpt lat="45.65236" lon="5.98278">
        <ele>1383.47</ele>
        <time>2014-02-09T12:06:24Z</time>
      </trkpt>
      <trkpt lat="45.65242" lon="5.98293">
        <ele>1382.51</ele>
        <time>2014-02-09T12:06:26Z</time>
      </trkpt>
      <trkpt lat="45.65244" lon="5.9831">
        <ele>1381.55</ele>
        <time>2014-02-09T12:06:28Z</time>
      </trkpt>
      <trkpt lat="45.65244" lon="5.98317">
        <ele>1381.55</ele>
        <time>2014-02-09T12:06:29Z</time>
      </trkpt>
      <trkpt lat="45.65244" lon="5.98324">
        <ele>1381.07</ele>
        <time>2014-02-09T12:06:30Z</time>
      </trkpt>
      <trkpt lat="45.65243" lon="5.9835">
        <ele>1379.15</ele>
        <time>2014-02-09T12:06:33Z</time>
      </trkpt>
      <trkpt lat="45.65243" lon="5.98358">
        <ele>1378.19</ele>
        <time>2014-02-09T12:06:34Z</time>
      </trkpt>
      <trkpt lat="45.65244" lon="5.98366">
        <ele>1377.71</ele>
        <time>2014-02-09T12:06:35Z</time>
      </trkpt>
      <trkpt lat="45.65247" lon="5.98384">
        <ele>1376.75</ele>
        <time>2014-02-09T12:06:37Z</time>
      </trkpt>
      <trkpt lat="45.65249" lon="5.98393">
        <ele>1375.3</ele>
        <time>2014-02-09T12:06:38Z</time>
      </trkpt>
      <trkpt lat="45.65257" lon="5.98416">
        <ele>1373.38</ele>
        <time>2014-02-09T12:06:41Z</time>
      </trkpt>
      <trkpt lat="45.6526" lon="5.98435">
        <ele>1372.42</ele>
        <time>2014-02-09T12:06:44Z</time>
      </trkpt>
      <trkpt lat="45.6526" lon="5.98441">
        <ele>1372.9</ele>
        <time>2014-02-09T12:06:45Z</time>
      </trkpt>
      <trkpt lat="45.65258" lon="5.98448">
        <ele>1371.94</ele>
        <time>2014-02-09T12:06:46Z</time>
      </trkpt>
      <trkpt lat="45.65251" lon="5.98469">
        <ele>1369.54</ele>
        <time>2014-02-09T12:06:49Z</time>
      </trkpt>
      <trkpt lat="45.65247" lon="5.98477">
        <ele>1369.05</ele>
        <time>2014-02-09T12:06:50Z</time>
      </trkpt>
      <trkpt lat="45.65243" lon="5.98485">
        <ele>1367.61</ele>
        <time>2014-02-09T12:06:51Z</time>
      </trkpt>
      <trkpt lat="45.65227" lon="5.98513">
        <ele>1364.73</ele>
        <time>2014-02-09T12:06:55Z</time>
      </trkpt>
      <trkpt lat="45.65222" lon="5.9852">
        <ele>1363.77</ele>
        <time>2014-02-09T12:06:56Z</time>
      </trkpt>
      <trkpt lat="45.65199" lon="5.98543">
        <ele>1360.88</ele>
        <time>2014-02-09T12:07:01Z</time>
      </trkpt>
      <trkpt lat="45.65165" lon="5.9856">
        <ele>1358.96</ele>
        <time>2014-02-09T12:07:10Z</time>
      </trkpt>
      <trkpt lat="45.65157" lon="5.98564">
        <ele>1358.96</ele>
        <time>2014-02-09T12:07:12Z</time>
      </trkpt>
      <trkpt lat="45.65153" lon="5.98566">
        <ele>1359.44</ele>
        <time>2014-02-09T12:07:13Z</time>
      </trkpt>
      <trkpt lat="45.65128" lon="5.98577">
        <ele>1356.08</ele>
        <time>2014-02-09T12:07:18Z</time>
      </trkpt>
      <trkpt lat="45.65124" lon="5.98578">
        <ele>1355.6</ele>
        <time>2014-02-09T12:07:19Z</time>
      </trkpt>
      <trkpt lat="45.65119" lon="5.98579">
        <ele>1355.6</ele>
        <time>2014-02-09T12:07:20Z</time>
      </trkpt>
      <trkpt lat="45.65115" lon="5.98581">
        <ele>1356.08</ele>
        <time>2014-02-09T12:07:21Z</time>
      </trkpt>
      <trkpt lat="45.65112" lon="5.98582">
        <ele>1356.08</ele>
        <time>2014-02-09T12:07:22Z</time>
      </trkpt>
      <trkpt lat="45.65108" lon="5.98583">
        <ele>1355.6</ele>
        <time>2014-02-09T12:07:23Z</time>
      </trkpt>
      <trkpt lat="45.65106" lon="5.98584">
        <ele>1355.6</ele>
        <time>2014-02-09T12:07:24Z</time>
      </trkpt>
      <trkpt lat="45.65103" lon="5.98584">
        <ele>1355.6</ele>
        <time>2014-02-09T12:07:25Z</time>
      </trkpt>
      <trkpt lat="45.65101" lon="5.98583">
        <ele>1355.12</ele>
        <time>2014-02-09T12:07:26Z</time>
      </trkpt>
      <trkpt lat="45.65098" lon="5.98582">
        <ele>1355.6</ele>
        <time>2014-02-09T12:07:27Z</time>
      </trkpt>
      <trkpt lat="45.65096" lon="5.98581">
        <ele>1355.6</ele>
        <time>2014-02-09T12:07:28Z</time>
      </trkpt>
      <trkpt lat="45.65093" lon="5.9858">
        <ele>1355.12</ele>
        <time>2014-02-09T12:07:29Z</time>
      </trkpt>
      <trkpt lat="45.6509" lon="5.98577">
        <ele>1355.12</ele>
        <time>2014-02-09T12:07:30Z</time>
      </trkpt>
      <trkpt lat="45.65043" lon="5.98561">
        <ele>1353.67</ele>
        <time>2014-02-09T12:07:43Z</time>
      </trkpt>
      <trkpt lat="45.65019" lon="5.9856">
        <ele>1354.15</ele>
        <time>2014-02-09T12:07:51Z</time>
      </trkpt>
      <trkpt lat="45.65007" lon="5.98561">
        <ele>1354.63</ele>
        <time>2014-02-09T12:07:55Z</time>
      </trkpt>
      <trkpt lat="45.64996" lon="5.98563">
        <ele>1354.63</ele>
        <time>2014-02-09T12:07:59Z</time>
      </trkpt>
      <trkpt lat="45.64987" lon="5.98565">
        <ele>1354.15</ele>
        <time>2014-02-09T12:08:02Z</time>
      </trkpt>
      <trkpt lat="45.64967" lon="5.98562">
        <ele>1352.23</ele>
        <time>2014-02-09T12:08:06Z</time>
      </trkpt>
      <trkpt lat="45.64952" lon="5.98565">
        <ele>1351.75</ele>
        <time>2014-02-09T12:08:09Z</time>
      </trkpt>
      <trkpt lat="45.64927" lon="5.98578">
        <ele>1347.43</ele>
        <time>2014-02-09T12:08:13Z</time>
      </trkpt>
      <trkpt lat="45.64911" lon="5.98586">
        <ele>1345.98</ele>
        <time>2014-02-09T12:08:15Z</time>
      </trkpt>
      <trkpt lat="45.64888" lon="5.98601">
        <ele>1341.66</ele>
        <time>2014-02-09T12:08:18Z</time>
      </trkpt>
      <trkpt lat="45.64863" lon="5.98616">
        <ele>1339.25</ele>
        <time>2014-02-09T12:08:22Z</time>
      </trkpt>
      <trkpt lat="45.64834" lon="5.98627">
        <ele>1337.81</ele>
        <time>2014-02-09T12:08:30Z</time>
      </trkpt>
      <trkpt lat="45.64813" lon="5.98621">
        <ele>1337.81</ele>
        <time>2014-02-09T12:08:37Z</time>
      </trkpt>
      <trkpt lat="45.64793" lon="5.98597">
        <ele>1337.81</ele>
        <time>2014-02-09T12:08:47Z</time>
      </trkpt>
      <trkpt lat="45.64783" lon="5.98568">
        <ele>1338.29</ele>
        <time>2014-02-09T12:08:56Z</time>
      </trkpt>
      <trkpt lat="45.64754" lon="5.98562">
        <ele>1338.29</ele>
        <time>2014-02-09T12:09:09Z</time>
      </trkpt>
      <trkpt lat="45.64753" lon="5.98563">
        <ele>1337.81</ele>
        <time>2014-02-09T12:09:10Z</time>
      </trkpt>
      <trkpt lat="45.64755" lon="5.98561">
        <ele>1338.29</ele>
        <time>2014-02-09T12:09:21Z</time>
      </trkpt>
      <trkpt lat="45.64753" lon="5.98561">
        <ele>1337.81</ele>
        <time>2014-02-09T12:09:49Z</time>
      </trkpt>
      <trkpt lat="45.64752" lon="5.98561">
        <ele>1337.33</ele>
        <time>2014-02-09T12:10:11Z</time>
      </trkpt>
      <trkpt lat="45.64751" lon="5.98562">
        <ele>1337.33</ele>
        <time>2014-02-09T12:10:34Z</time>
      </trkpt>
      <trkpt lat="45.64751" lon="5.98562">
        <ele>1337.33</ele>
        <time>2014-02-09T12:10:57Z</time>
      </trkpt>
      <trkpt lat="45.64749" lon="5.98561">
        <ele>1336.85</ele>
        <time>2014-02-09T12:11:10Z</time>
      </trkpt>
      <trkpt lat="45.64749" lon="5.98562">
        <ele>1336.85</ele>
        <time>2014-02-09T12:11:36Z</time>
      </trkpt>
      <trkpt lat="45.64749" lon="5.98563">
        <ele>1337.33</ele>
        <time>2014-02-09T12:11:51Z</time>
      </trkpt>
      <trkpt lat="45.64752" lon="5.98575">
        <ele>1336.85</ele>
        <time>2014-02-09T12:12:03Z</time>
      </trkpt>
      <trkpt lat="45.64752" lon="5.98577">
        <ele>1336.85</ele>
        <time>2014-02-09T12:12:17Z</time>
      </trkpt>
      <trkpt lat="45.6475" lon="5.98577">
        <ele>1336.85</ele>
        <time>2014-02-09T12:12:36Z</time>
      </trkpt>
      <trkpt lat="45.6475" lon="5.98578">
        <ele>1336.37</ele>
        <time>2014-02-09T12:13:05Z</time>
      </trkpt>
      <trkpt lat="45.64751" lon="5.9858">
        <ele>1336.85</ele>
        <time>2014-02-09T12:13:31Z</time>
      </trkpt>
      <trkpt lat="45.64752" lon="5.98581">
        <ele>1336.37</ele>
        <time>2014-02-09T12:14:04Z</time>
      </trkpt>
      <trkpt lat="45.64751" lon="5.9858">
        <ele>1336.85</ele>
        <time>2014-02-09T12:14:22Z</time>
      </trkpt>
      <trkpt lat="45.64751" lon="5.98583">
        <ele>1336.85</ele>
        <time>2014-02-09T12:14:46Z</time>
      </trkpt>
      <trkpt lat="45.64751" lon="5.98581">
        <ele>1335.89</ele>
        <time>2014-02-09T12:15:05Z</time>
      </trkpt>
      <trkpt lat="45.6475" lon="5.98581">
        <ele>1336.37</ele>
        <time>2014-02-09T12:15:25Z</time>
      </trkpt>
      <trkpt lat="45.6475" lon="5.98582">
        <ele>1335.89</ele>
        <time>2014-02-09T12:15:50Z</time>
      </trkpt>
      <trkpt lat="45.6475" lon="5.98582">
        <ele>1336.37</ele>
        <time>2014-02-09T12:16:15Z</time>
      </trkpt>
      <trkpt lat="45.64751" lon="5.98581">
        <ele>1336.37</ele>
        <time>2014-02-09T12:16:47Z</time>
      </trkpt>
      <trkpt lat="45.64751" lon="5.98581">
        <ele>1336.37</ele>
        <time>2014-02-09T12:17:13Z</time>
      </trkpt>
      <trkpt lat="45.6475" lon="5.98579">
        <ele>1336.85</ele>
        <time>2014-02-09T12:17:40Z</time>
      </trkpt>
      <trkpt lat="45.64751" lon="5.9858">
        <ele>1336.85</ele>
        <time>2014-02-09T12:18:02Z</time>
      </trkpt>
      <trkpt lat="45.64752" lon="5.9858">
        <ele>1337.33</ele>
        <time>2014-02-09T12:18:35Z</time>
      </trkpt>
      <trkpt lat="45.6475" lon="5.98582">
        <ele>1336.85</ele>
        <time>2014-02-09T12:18:59Z</time>
      </trkpt>
      <trkpt lat="45.6475" lon="5.98582">
        <ele>1336.85</ele>
        <time>2014-02-09T12:19:27Z</time>
      </trkpt>
      <trkpt lat="45.64752" lon="5.9858">
        <ele>1336.85</ele>
        <time>2014-02-09T12:19:54Z</time>
      </trkpt>
      <trkpt lat="45.64751" lon="5.98581">
        <ele>1336.85</ele>
        <time>2014-02-09T12:20:25Z</time>
      </trkpt>
      <trkpt lat="45.64749" lon="5.98582">
        <ele>1336.85</ele>
        <time>2014-02-09T12:20:46Z</time>
      </trkpt>
      <trkpt lat="45.6475" lon="5.9858">
        <ele>1336.85</ele>
        <time>2014-02-09T12:21:07Z</time>
      </trkpt>
      <trkpt lat="45.64747" lon="5.98581">
        <ele>1336.37</ele>
        <time>2014-02-09T12:21:37Z</time>
      </trkpt>
      <trkpt lat="45.64747" lon="5.98582">
        <ele>1336.37</ele>
        <time>2014-02-09T12:21:53Z</time>
      </trkpt>
      <trkpt lat="45.64749" lon="5.98581">
        <ele>1336.37</ele>
        <time>2014-02-09T12:21:59Z</time>
      </trkpt>
      <trkpt lat="45.64761" lon="5.98578">
        <ele>1336.37</ele>
        <time>2014-02-09T12:22:08Z</time>
      </trkpt>
      <trkpt lat="45.64769" lon="5.98578">
        <ele>1336.85</ele>
        <time>2014-02-09T12:22:18Z</time>
      </trkpt>
      <trkpt lat="45.64768" lon="5.98576">
        <ele>1335.89</ele>
        <time>2014-02-09T12:22:44Z</time>
      </trkpt>
      <trkpt lat="45.64769" lon="5.98575">
        <ele>1336.37</ele>
        <time>2014-02-09T12:23:08Z</time>
      </trkpt>
      <trkpt lat="45.64769" lon="5.98577">
        <ele>1335.89</ele>
        <time>2014-02-09T12:23:30Z</time>
      </trkpt>
      <trkpt lat="45.64768" lon="5.98576">
        <ele>1335.41</ele>
        <time>2014-02-09T12:24:03Z</time>
      </trkpt>
      <trkpt lat="45.64769" lon="5.98577">
        <ele>1335.89</ele>
        <time>2014-02-09T12:24:28Z</time>
      </trkpt>
      <trkpt lat="45.64769" lon="5.98577">
        <ele>1336.37</ele>
        <time>2014-02-09T12:24:56Z</time>
      </trkpt>
      <trkpt lat="45.64769" lon="5.98576">
        <ele>1334.93</ele>
        <time>2014-02-09T12:25:11Z</time>
      </trkpt>
      <trkpt lat="45.6477" lon="5.98574">
        <ele>1335.41</ele>
        <time>2014-02-09T12:25:33Z</time>
      </trkpt>
      <trkpt lat="45.64769" lon="5.98576">
        <ele>1335.89</ele>
        <time>2014-02-09T12:26:04Z</time>
      </trkpt>
      <trkpt lat="45.64769" lon="5.98577">
        <ele>1334.93</ele>
        <time>2014-02-09T12:26:38Z</time>
      </trkpt>
      <trkpt lat="45.64769" lon="5.98574">
        <ele>1334.93</ele>
        <time>2014-02-09T12:27:02Z</time>
      </trkpt>
      <trkpt lat="45.64769" lon="5.98572">
        <ele>1334.93</ele>
        <time>2014-02-09T12:27:05Z</time>
      </trkpt>
      <trkpt lat="45.64752" lon="5.98565">
        <ele>1335.41</ele>
        <time>2014-02-09T12:27:15Z</time>
      </trkpt>
      <trkpt lat="45.64746" lon="5.98558">
        <ele>1335.41</ele>
        <time>2014-02-09T12:27:19Z</time>
      </trkpt>
      <trkpt lat="45.64742" lon="5.98554">
        <ele>1335.89</ele>
        <time>2014-02-09T12:27:21Z</time>
      </trkpt>
      <trkpt lat="45.64729" lon="5.98555">
        <ele>1336.37</ele>
        <time>2014-02-09T12:27:27Z</time>
      </trkpt>
      <trkpt lat="45.64728" lon="5.98558">
        <ele>1335.89</ele>
        <time>2014-02-09T12:27:28Z</time>
      </trkpt>
      <trkpt lat="45.64728" lon="5.98561">
        <ele>1335.89</ele>
        <time>2014-02-09T12:27:41Z</time>
      </trkpt>
      <trkpt lat="45.64727" lon="5.98562">
        <ele>1335.89</ele>
        <time>2014-02-09T12:28:03Z</time>
      </trkpt>
      <trkpt lat="45.64727" lon="5.98564">
        <ele>1335.41</ele>
        <time>2014-02-09T12:28:26Z</time>
      </trkpt>
      <trkpt lat="45.64727" lon="5.98565">
        <ele>1335.89</ele>
        <time>2014-02-09T12:28:28Z</time>
      </trkpt>
      <trkpt lat="45.64726" lon="5.98568">
        <ele>1336.37</ele>
        <time>2014-02-09T12:28:29Z</time>
      </trkpt>
      <trkpt lat="45.64727" lon="5.9857">
        <ele>1335.89</ele>
        <time>2014-02-09T12:28:30Z</time>
      </trkpt>
      <trkpt lat="45.64728" lon="5.98574">
        <ele>1336.37</ele>
        <time>2014-02-09T12:28:31Z</time>
      </trkpt>
      <trkpt lat="45.64742" lon="5.98587">
        <ele>1335.89</ele>
        <time>2014-02-09T12:28:39Z</time>
      </trkpt>
      <trkpt lat="45.64745" lon="5.9858">
        <ele>1335.89</ele>
        <time>2014-02-09T12:28:41Z</time>
      </trkpt>
      <trkpt lat="45.64745" lon="5.98564">
        <ele>1335.41</ele>
        <time>2014-02-09T12:28:45Z</time>
      </trkpt>
      <trkpt lat="45.64731" lon="5.98555">
        <ele>1335.89</ele>
        <time>2014-02-09T12:28:55Z</time>
      </trkpt>
      <trkpt lat="45.64731" lon="5.98556">
        <ele>1335.41</ele>
        <time>2014-02-09T12:29:14Z</time>
      </trkpt>
      <trkpt lat="45.64729" lon="5.98558">
        <ele>1335.41</ele>
        <time>2014-02-09T12:29:28Z</time>
      </trkpt>
      <trkpt lat="45.64732" lon="5.98558">
        <ele>1335.41</ele>
        <time>2014-02-09T12:29:42Z</time>
      </trkpt>
      <trkpt lat="45.64731" lon="5.98557">
        <ele>1334.93</ele>
        <time>2014-02-09T12:30:00Z</time>
      </trkpt>
      <trkpt lat="45.64731" lon="5.98558">
        <ele>1333.49</ele>
        <time>2014-02-09T12:30:05Z</time>
      </trkpt>
      <trkpt lat="45.64732" lon="5.98557">
        <ele>1333.49</ele>
        <time>2014-02-09T12:30:31Z</time>
      </trkpt>
      <trkpt lat="45.64732" lon="5.98559">
        <ele>1333.97</ele>
        <time>2014-02-09T12:31:09Z</time>
      </trkpt>
      <trkpt lat="45.64732" lon="5.98557">
        <ele>1333.97</ele>
        <time>2014-02-09T12:31:39Z</time>
      </trkpt>
      <trkpt lat="45.64732" lon="5.98558">
        <ele>1333.01</ele>
        <time>2014-02-09T12:32:21Z</time>
      </trkpt>
      <trkpt lat="45.64732" lon="5.98559">
        <ele>1333.49</ele>
        <time>2014-02-09T12:33:00Z</time>
      </trkpt>
      <trkpt lat="45.64732" lon="5.98558">
        <ele>1333.49</ele>
        <time>2014-02-09T12:33:40Z</time>
      </trkpt>
      <trkpt lat="45.64733" lon="5.98557">
        <ele>1333.49</ele>
        <time>2014-02-09T12:34:18Z</time>
      </trkpt>
      <trkpt lat="45.64731" lon="5.98558">
        <ele>1333.49</ele>
        <time>2014-02-09T12:35:04Z</time>
      </trkpt>
      <trkpt lat="45.64732" lon="5.98558">
        <ele>1333.01</ele>
        <time>2014-02-09T12:35:46Z</time>
      </trkpt>
      <trkpt lat="45.64731" lon="5.98559">
        <ele>1332.52</ele>
        <time>2014-02-09T12:36:17Z</time>
      </trkpt>
      <trkpt lat="45.64731" lon="5.98558">
        <ele>1332.52</ele>
        <time>2014-02-09T12:36:48Z</time>
      </trkpt>
      <trkpt lat="45.64732" lon="5.98557">
        <ele>1332.52</ele>
        <time>2014-02-09T12:37:21Z</time>
      </trkpt>
      <trkpt lat="45.64731" lon="5.98558">
        <ele>1332.52</ele>
        <time>2014-02-09T12:37:57Z</time>
      </trkpt>
      <trkpt lat="45.64733" lon="5.98557">
        <ele>1331.08</ele>
        <time>2014-02-09T12:38:33Z</time>
      </trkpt>
      <trkpt lat="45.64733" lon="5.98558">
        <ele>1331.56</ele>
        <time>2014-02-09T12:39:09Z</time>
      </trkpt>
      <trkpt lat="45.64732" lon="5.98557">
        <ele>1331.56</ele>
        <time>2014-02-09T12:39:51Z</time>
      </trkpt>
      <trkpt lat="45.64732" lon="5.98558">
        <ele>1331.08</ele>
        <time>2014-02-09T12:40:38Z</time>
      </trkpt>
      <trkpt lat="45.64733" lon="5.98558">
        <ele>1331.08</ele>
        <time>2014-02-09T12:41:17Z</time>
      </trkpt>
      <trkpt lat="45.64733" lon="5.98557">
        <ele>1331.08</ele>
        <time>2014-02-09T12:41:48Z</time>
      </trkpt>
      <trkpt lat="45.64734" lon="5.98557">
        <ele>1330.6</ele>
        <time>2014-02-09T12:42:22Z</time>
      </trkpt>
      <trkpt lat="45.64733" lon="5.98558">
        <ele>1330.6</ele>
        <time>2014-02-09T12:42:56Z</time>
      </trkpt>
      <trkpt lat="45.64733" lon="5.98558">
        <ele>1330.12</ele>
        <time>2014-02-09T12:43:20Z</time>
      </trkpt>
      <trkpt lat="45.64733" lon="5.98557">
        <ele>1330.6</ele>
        <time>2014-02-09T12:43:48Z</time>
      </trkpt>
      <trkpt lat="45.64733" lon="5.98557">
        <ele>1331.08</ele>
        <time>2014-02-09T12:44:13Z</time>
      </trkpt>
      <trkpt lat="45.64733" lon="5.98557">
        <ele>1330.12</ele>
        <time>2014-02-09T12:44:36Z</time>
      </trkpt>
      <trkpt lat="45.64734" lon="5.98557">
        <ele>1330.12</ele>
        <time>2014-02-09T12:44:58Z</time>
      </trkpt>
      <trkpt lat="45.64733" lon="5.98557">
        <ele>1330.12</ele>
        <time>2014-02-09T12:45:28Z</time>
      </trkpt>
      <trkpt lat="45.64733" lon="5.98557">
        <ele>1330.12</ele>
        <time>2014-02-09T12:46:03Z</time>
      </trkpt>
      <trkpt lat="45.64733" lon="5.98558">
        <ele>1330.12</ele>
        <time>2014-02-09T12:46:40Z</time>
      </trkpt>
      <trkpt lat="45.64733" lon="5.98557">
        <ele>1329.64</ele>
        <time>2014-02-09T12:47:12Z</time>
      </trkpt>
      <trkpt lat="45.64733" lon="5.98557">
        <ele>1330.6</ele>
        <time>2014-02-09T12:47:39Z</time>
      </trkpt>
      <trkpt lat="45.64732" lon="5.98557">
        <ele>1331.56</ele>
        <time>2014-02-09T12:48:00Z</time>
      </trkpt>
      <trkpt lat="45.64729" lon="5.98552">
        <ele>1331.56</ele>
        <time>2014-02-09T12:48:18Z</time>
      </trkpt>
      <trkpt lat="45.6473" lon="5.98554">
        <ele>1331.56</ele>
        <time>2014-02-09T12:48:33Z</time>
      </trkpt>
      <trkpt lat="45.64732" lon="5.98556">
        <ele>1331.56</ele>
        <time>2014-02-09T12:48:43Z</time>
      </trkpt>
      <trkpt lat="45.64731" lon="5.98554">
        <ele>1331.08</ele>
        <time>2014-02-09T12:48:53Z</time>
      </trkpt>
      <trkpt lat="45.64733" lon="5.98556">
        <ele>1330.6</ele>
        <time>2014-02-09T12:49:10Z</time>
      </trkpt>
      <trkpt lat="45.64732" lon="5.98556">
        <ele>1331.08</ele>
        <time>2014-02-09T12:49:21Z</time>
      </trkpt>
      <trkpt lat="45.64733" lon="5.98557">
        <ele>1331.56</ele>
        <time>2014-02-09T12:49:43Z</time>
      </trkpt>
      <trkpt lat="45.64732" lon="5.98556">
        <ele>1331.08</ele>
        <time>2014-02-09T12:49:57Z</time>
      </trkpt>
      <trkpt lat="45.64731" lon="5.98555">
        <ele>1331.56</ele>
        <time>2014-02-09T12:50:13Z</time>
      </trkpt>
      <trkpt lat="45.64731" lon="5.98553">
        <ele>1331.56</ele>
        <time>2014-02-09T12:50:32Z</time>
      </trkpt>
      <trkpt lat="45.64729" lon="5.98555">
        <ele>1331.08</ele>
        <time>2014-02-09T12:50:36Z</time>
      </trkpt>
      <trkpt lat="45.64728" lon="5.9856">
        <ele>1331.56</ele>
        <time>2014-02-09T12:50:40Z</time>
      </trkpt>
      <trkpt lat="45.64739" lon="5.98582">
        <ele>1331.08</ele>
        <time>2014-02-09T12:50:51Z</time>
      </trkpt>
      <trkpt lat="45.64748" lon="5.98582">
        <ele>1331.08</ele>
        <time>2014-02-09T12:50:55Z</time>
      </trkpt>
      <trkpt lat="45.64759" lon="5.98582">
        <ele>1330.6</ele>
        <time>2014-02-09T12:51:00Z</time>
      </trkpt>
      <trkpt lat="45.64775" lon="5.98615">
        <ele>1330.6</ele>
        <time>2014-02-09T12:51:09Z</time>
      </trkpt>
      <trkpt lat="45.6478" lon="5.98625">
        <ele>1329.64</ele>
        <time>2014-02-09T12:51:12Z</time>
      </trkpt>
      <trkpt lat="45.64788" lon="5.98651">
        <ele>1329.16</ele>
        <time>2014-02-09T12:51:18Z</time>
      </trkpt>
      <trkpt lat="45.64798" lon="5.98681">
        <ele>1327.72</ele>
        <time>2014-02-09T12:51:23Z</time>
      </trkpt>
      <trkpt lat="45.64813" lon="5.98709">
        <ele>1327.24</ele>
        <time>2014-02-09T12:51:29Z</time>
      </trkpt>
      <trkpt lat="45.64835" lon="5.98728">
        <ele>1327.24</ele>
        <time>2014-02-09T12:51:38Z</time>
      </trkpt>
      <trkpt lat="45.64837" lon="5.98729">
        <ele>1327.72</ele>
        <time>2014-02-09T12:51:39Z</time>
      </trkpt>
      <trkpt lat="45.64857" lon="5.98747">
        <ele>1329.16</ele>
        <time>2014-02-09T12:51:49Z</time>
      </trkpt>
      <trkpt lat="45.64877" lon="5.98755">
        <ele>1330.12</ele>
        <time>2014-02-09T12:51:58Z</time>
      </trkpt>
      <trkpt lat="45.64879" lon="5.98756">
        <ele>1330.12</ele>
        <time>2014-02-09T12:51:59Z</time>
      </trkpt>
      <trkpt lat="45.64882" lon="5.98756">
        <ele>1330.6</ele>
        <time>2014-02-09T12:52:00Z</time>
      </trkpt>
      <trkpt lat="45.64887" lon="5.98757">
        <ele>1330.12</ele>
        <time>2014-02-09T12:52:02Z</time>
      </trkpt>
      <trkpt lat="45.6489" lon="5.98757">
        <ele>1330.12</ele>
        <time>2014-02-09T12:52:03Z</time>
      </trkpt>
      <trkpt lat="45.64893" lon="5.98758">
        <ele>1330.12</ele>
        <time>2014-02-09T12:52:04Z</time>
      </trkpt>
      <trkpt lat="45.64896" lon="5.98758">
        <ele>1330.12</ele>
        <time>2014-02-09T12:52:05Z</time>
      </trkpt>
      <trkpt lat="45.64899" lon="5.98759">
        <ele>1329.64</ele>
        <time>2014-02-09T12:52:06Z</time>
      </trkpt>
      <trkpt lat="45.64909" lon="5.98761">
        <ele>1329.64</ele>
        <time>2014-02-09T12:52:09Z</time>
      </trkpt>
      <trkpt lat="45.64911" lon="5.98762">
        <ele>1329.64</ele>
        <time>2014-02-09T12:52:10Z</time>
      </trkpt>
      <trkpt lat="45.64914" lon="5.98762">
        <ele>1329.64</ele>
        <time>2014-02-09T12:52:11Z</time>
      </trkpt>
      <trkpt lat="45.64917" lon="5.98762">
        <ele>1329.64</ele>
        <time>2014-02-09T12:52:12Z</time>
      </trkpt>
      <trkpt lat="45.6492" lon="5.98763">
        <ele>1329.64</ele>
        <time>2014-02-09T12:52:13Z</time>
      </trkpt>
      <trkpt lat="45.64924" lon="5.98763">
        <ele>1329.64</ele>
        <time>2014-02-09T12:52:14Z</time>
      </trkpt>
      <trkpt lat="45.64927" lon="5.98764">
        <ele>1329.64</ele>
        <time>2014-02-09T12:52:15Z</time>
      </trkpt>
      <trkpt lat="45.6493" lon="5.98765">
        <ele>1329.64</ele>
        <time>2014-02-09T12:52:16Z</time>
      </trkpt>
      <trkpt lat="45.64933" lon="5.98765">
        <ele>1329.64</ele>
        <time>2014-02-09T12:52:17Z</time>
      </trkpt>
      <trkpt lat="45.64936" lon="5.98765">
        <ele>1329.64</ele>
        <time>2014-02-09T12:52:18Z</time>
      </trkpt>
      <trkpt lat="45.64954" lon="5.98766">
        <ele>1330.12</ele>
        <time>2014-02-09T12:52:25Z</time>
      </trkpt>
      <trkpt lat="45.64956" lon="5.98766">
        <ele>1330.12</ele>
        <time>2014-02-09T12:52:26Z</time>
      </trkpt>
      <trkpt lat="45.64959" lon="5.98766">
        <ele>1330.12</ele>
        <time>2014-02-09T12:52:27Z</time>
      </trkpt>
      <trkpt lat="45.64961" lon="5.98766">
        <ele>1330.12</ele>
        <time>2014-02-09T12:52:28Z</time>
      </trkpt>
      <trkpt lat="45.64963" lon="5.98766">
        <ele>1330.12</ele>
        <time>2014-02-09T12:52:29Z</time>
      </trkpt>
      <trkpt lat="45.64966" lon="5.98766">
        <ele>1329.64</ele>
        <time>2014-02-09T12:52:30Z</time>
      </trkpt>
      <trkpt lat="45.64968" lon="5.98766">
        <ele>1330.6</ele>
        <time>2014-02-09T12:52:31Z</time>
      </trkpt>
      <trkpt lat="45.6497" lon="5.98766">
        <ele>1330.6</ele>
        <time>2014-02-09T12:52:32Z</time>
      </trkpt>
      <trkpt lat="45.64972" lon="5.98766">
        <ele>1330.12</ele>
        <time>2014-02-09T12:52:33Z</time>
      </trkpt>
      <trkpt lat="45.64975" lon="5.98767">
        <ele>1331.08</ele>
        <time>2014-02-09T12:52:34Z</time>
      </trkpt>
      <trkpt lat="45.64977" lon="5.98767">
        <ele>1330.6</ele>
        <time>2014-02-09T12:52:35Z</time>
      </trkpt>
      <trkpt lat="45.64979" lon="5.98767">
        <ele>1330.6</ele>
        <time>2014-02-09T12:52:36Z</time>
      </trkpt>
      <trkpt lat="45.64982" lon="5.98768">
        <ele>1331.08</ele>
        <time>2014-02-09T12:52:37Z</time>
      </trkpt>
      <trkpt lat="45.64984" lon="5.98769">
        <ele>1331.08</ele>
        <time>2014-02-09T12:52:38Z</time>
      </trkpt>
      <trkpt lat="45.64986" lon="5.98769">
        <ele>1331.08</ele>
        <time>2014-02-09T12:52:39Z</time>
      </trkpt>
      <trkpt lat="45.64988" lon="5.9877">
        <ele>1331.08</ele>
        <time>2014-02-09T12:52:40Z</time>
      </trkpt>
      <trkpt lat="45.6499" lon="5.98771">
        <ele>1331.56</ele>
        <time>2014-02-09T12:52:41Z</time>
      </trkpt>
      <trkpt lat="45.64992" lon="5.98772">
        <ele>1331.56</ele>
        <time>2014-02-09T12:52:42Z</time>
      </trkpt>
      <trkpt lat="45.64994" lon="5.98772">
        <ele>1331.08</ele>
        <time>2014-02-09T12:52:43Z</time>
      </trkpt>
      <trkpt lat="45.64996" lon="5.98773">
        <ele>1331.56</ele>
        <time>2014-02-09T12:52:44Z</time>
      </trkpt>
      <trkpt lat="45.64998" lon="5.98774">
        <ele>1331.56</ele>
        <time>2014-02-09T12:52:45Z</time>
      </trkpt>
      <trkpt lat="45.65" lon="5.98775">
        <ele>1331.56</ele>
        <time>2014-02-09T12:52:46Z</time>
      </trkpt>
      <trkpt lat="45.65002" lon="5.98776">
        <ele>1331.08</ele>
        <time>2014-02-09T12:52:47Z</time>
      </trkpt>
      <trkpt lat="45.65005" lon="5.98778">
        <ele>1331.56</ele>
        <time>2014-02-09T12:52:48Z</time>
      </trkpt>
      <trkpt lat="45.65007" lon="5.9878">
        <ele>1332.04</ele>
        <time>2014-02-09T12:52:49Z</time>
      </trkpt>
      <trkpt lat="45.65009" lon="5.98782">
        <ele>1331.56</ele>
        <time>2014-02-09T12:52:50Z</time>
      </trkpt>
      <trkpt lat="45.65011" lon="5.98784">
        <ele>1332.04</ele>
        <time>2014-02-09T12:52:51Z</time>
      </trkpt>
      <trkpt lat="45.65012" lon="5.98786">
        <ele>1332.04</ele>
        <time>2014-02-09T12:52:52Z</time>
      </trkpt>
      <trkpt lat="45.65014" lon="5.98788">
        <ele>1332.04</ele>
        <time>2014-02-09T12:52:53Z</time>
      </trkpt>
      <trkpt lat="45.65016" lon="5.98789">
        <ele>1332.52</ele>
        <time>2014-02-09T12:52:54Z</time>
      </trkpt>
      <trkpt lat="45.65018" lon="5.98791">
        <ele>1332.52</ele>
        <time>2014-02-09T12:52:55Z</time>
      </trkpt>
      <trkpt lat="45.65019" lon="5.98792">
        <ele>1332.52</ele>
        <time>2014-02-09T12:52:56Z</time>
      </trkpt>
      <trkpt lat="45.6502" lon="5.98794">
        <ele>1332.52</ele>
        <time>2014-02-09T12:52:57Z</time>
      </trkpt>
      <trkpt lat="45.65022" lon="5.98796">
        <ele>1333.01</ele>
        <time>2014-02-09T12:52:58Z</time>
      </trkpt>
      <trkpt lat="45.65023" lon="5.98798">
        <ele>1333.01</ele>
        <time>2014-02-09T12:52:59Z</time>
      </trkpt>
      <trkpt lat="45.65024" lon="5.988">
        <ele>1333.01</ele>
        <time>2014-02-09T12:53:00Z</time>
      </trkpt>
      <trkpt lat="45.65025" lon="5.98802">
        <ele>1333.01</ele>
        <time>2014-02-09T12:53:01Z</time>
      </trkpt>
      <trkpt lat="45.65026" lon="5.98804">
        <ele>1333.01</ele>
        <time>2014-02-09T12:53:02Z</time>
      </trkpt>
      <trkpt lat="45.65027" lon="5.98805">
        <ele>1333.01</ele>
        <time>2014-02-09T12:53:03Z</time>
      </trkpt>
      <trkpt lat="45.65028" lon="5.98806">
        <ele>1333.49</ele>
        <time>2014-02-09T12:53:04Z</time>
      </trkpt>
      <trkpt lat="45.65029" lon="5.98807">
        <ele>1333.49</ele>
        <time>2014-02-09T12:53:05Z</time>
      </trkpt>
      <trkpt lat="45.6503" lon="5.98809">
        <ele>1333.97</ele>
        <time>2014-02-09T12:53:06Z</time>
      </trkpt>
      <trkpt lat="45.65031" lon="5.9881">
        <ele>1333.97</ele>
        <time>2014-02-09T12:53:07Z</time>
      </trkpt>
      <trkpt lat="45.65032" lon="5.98812">
        <ele>1333.97</ele>
        <time>2014-02-09T12:53:08Z</time>
      </trkpt>
      <trkpt lat="45.65034" lon="5.98815">
        <ele>1333.97</ele>
        <time>2014-02-09T12:53:09Z</time>
      </trkpt>
      <trkpt lat="45.65035" lon="5.98817">
        <ele>1334.45</ele>
        <time>2014-02-09T12:53:10Z</time>
      </trkpt>
      <trkpt lat="45.65036" lon="5.98819">
        <ele>1334.45</ele>
        <time>2014-02-09T12:53:11Z</time>
      </trkpt>
      <trkpt lat="45.65038" lon="5.98821">
        <ele>1333.97</ele>
        <time>2014-02-09T12:53:12Z</time>
      </trkpt>
      <trkpt lat="45.65039" lon="5.98823">
        <ele>1334.45</ele>
        <time>2014-02-09T12:53:13Z</time>
      </trkpt>
      <trkpt lat="45.65041" lon="5.98825">
        <ele>1334.93</ele>
        <time>2014-02-09T12:53:14Z</time>
      </trkpt>
      <trkpt lat="45.65042" lon="5.98827">
        <ele>1334.93</ele>
        <time>2014-02-09T12:53:15Z</time>
      </trkpt>
      <trkpt lat="45.65044" lon="5.98829">
        <ele>1335.41</ele>
        <time>2014-02-09T12:53:16Z</time>
      </trkpt>
      <trkpt lat="45.65045" lon="5.98831">
        <ele>1335.41</ele>
        <time>2014-02-09T12:53:17Z</time>
      </trkpt>
      <trkpt lat="45.65047" lon="5.98833">
        <ele>1335.41</ele>
        <time>2014-02-09T12:53:18Z</time>
      </trkpt>
      <trkpt lat="45.65048" lon="5.98836">
        <ele>1335.41</ele>
        <time>2014-02-09T12:53:19Z</time>
      </trkpt>
      <trkpt lat="45.65049" lon="5.98837">
        <ele>1335.41</ele>
        <time>2014-02-09T12:53:20Z</time>
      </trkpt>
      <trkpt lat="45.65051" lon="5.98839">
        <ele>1335.89</ele>
        <time>2014-02-09T12:53:21Z</time>
      </trkpt>
      <trkpt lat="45.65052" lon="5.98841">
        <ele>1336.37</ele>
        <time>2014-02-09T12:53:22Z</time>
      </trkpt>
      <trkpt lat="45.65053" lon="5.98842">
        <ele>1335.89</ele>
        <time>2014-02-09T12:53:23Z</time>
      </trkpt>
      <trkpt lat="45.65054" lon="5.98843">
        <ele>1336.37</ele>
        <time>2014-02-09T12:53:24Z</time>
      </trkpt>
      <trkpt lat="45.65056" lon="5.98845">
        <ele>1336.37</ele>
        <time>2014-02-09T12:53:25Z</time>
      </trkpt>
      <trkpt lat="45.65057" lon="5.98847">
        <ele>1336.37</ele>
        <time>2014-02-09T12:53:26Z</time>
      </trkpt>
      <trkpt lat="45.65058" lon="5.98848">
        <ele>1336.85</ele>
        <time>2014-02-09T12:53:27Z</time>
      </trkpt>
      <trkpt lat="45.65059" lon="5.98849">
        <ele>1337.33</ele>
        <time>2014-02-09T12:53:28Z</time>
      </trkpt>
      <trkpt lat="45.6506" lon="5.98851">
        <ele>1336.85</ele>
        <time>2014-02-09T12:53:29Z</time>
      </trkpt>
      <trkpt lat="45.65061" lon="5.98852">
        <ele>1336.85</ele>
        <time>2014-02-09T12:53:30Z</time>
      </trkpt>
      <trkpt lat="45.65062" lon="5.98853">
        <ele>1337.33</ele>
        <time>2014-02-09T12:53:31Z</time>
      </trkpt>
      <trkpt lat="45.65064" lon="5.98855">
        <ele>1337.33</ele>
        <time>2014-02-09T12:53:32Z</time>
      </trkpt>
      <trkpt lat="45.65065" lon="5.98856">
        <ele>1337.81</ele>
        <time>2014-02-09T12:53:33Z</time>
      </trkpt>
      <trkpt lat="45.65066" lon="5.98856">
        <ele>1337.81</ele>
        <time>2014-02-09T12:53:34Z</time>
      </trkpt>
      <trkpt lat="45.65068" lon="5.98857">
        <ele>1337.81</ele>
        <time>2014-02-09T12:53:35Z</time>
      </trkpt>
      <trkpt lat="45.65069" lon="5.98857">
        <ele>1338.29</ele>
        <time>2014-02-09T12:53:36Z</time>
      </trkpt>
      <trkpt lat="45.6507" lon="5.98856">
        <ele>1338.29</ele>
        <time>2014-02-09T12:53:37Z</time>
      </trkpt>
      <trkpt lat="45.65071" lon="5.98857">
        <ele>1338.29</ele>
        <time>2014-02-09T12:53:38Z</time>
      </trkpt>
      <trkpt lat="45.65073" lon="5.98857">
        <ele>1338.77</ele>
        <time>2014-02-09T12:53:39Z</time>
      </trkpt>
      <trkpt lat="45.65074" lon="5.98858">
        <ele>1338.77</ele>
        <time>2014-02-09T12:53:40Z</time>
      </trkpt>
      <trkpt lat="45.65075" lon="5.98858">
        <ele>1339.25</ele>
        <time>2014-02-09T12:53:41Z</time>
      </trkpt>
      <trkpt lat="45.65077" lon="5.98859">
        <ele>1339.25</ele>
        <time>2014-02-09T12:53:42Z</time>
      </trkpt>
      <trkpt lat="45.65078" lon="5.9886">
        <ele>1339.73</ele>
        <time>2014-02-09T12:53:43Z</time>
      </trkpt>
      <trkpt lat="45.65079" lon="5.9886">
        <ele>1340.22</ele>
        <time>2014-02-09T12:53:44Z</time>
      </trkpt>
      <trkpt lat="45.65081" lon="5.9886">
        <ele>1340.22</ele>
        <time>2014-02-09T12:53:45Z</time>
      </trkpt>
      <trkpt lat="45.65082" lon="5.9886">
        <ele>1340.22</ele>
        <time>2014-02-09T12:53:46Z</time>
      </trkpt>
      <trkpt lat="45.65083" lon="5.98861">
        <ele>1340.22</ele>
        <time>2014-02-09T12:53:47Z</time>
      </trkpt>
      <trkpt lat="45.65085" lon="5.9886">
        <ele>1341.18</ele>
        <time>2014-02-09T12:53:48Z</time>
      </trkpt>
      <trkpt lat="45.65086" lon="5.9886">
        <ele>1340.7</ele>
        <time>2014-02-09T12:53:49Z</time>
      </trkpt>
      <trkpt lat="45.65088" lon="5.9886">
        <ele>1341.18</ele>
        <time>2014-02-09T12:53:50Z</time>
      </trkpt>
      <trkpt lat="45.65089" lon="5.98861">
        <ele>1341.18</ele>
        <time>2014-02-09T12:53:51Z</time>
      </trkpt>
      <trkpt lat="45.65091" lon="5.98861">
        <ele>1341.66</ele>
        <time>2014-02-09T12:53:52Z</time>
      </trkpt>
      <trkpt lat="45.65092" lon="5.9886">
        <ele>1341.66</ele>
        <time>2014-02-09T12:53:53Z</time>
      </trkpt>
      <trkpt lat="45.65094" lon="5.9886">
        <ele>1341.66</ele>
        <time>2014-02-09T12:53:54Z</time>
      </trkpt>
      <trkpt lat="45.65095" lon="5.9886">
        <ele>1341.66</ele>
        <time>2014-02-09T12:53:55Z</time>
      </trkpt>
      <trkpt lat="45.65097" lon="5.9886">
        <ele>1341.66</ele>
        <time>2014-02-09T12:53:56Z</time>
      </trkpt>
      <trkpt lat="45.65098" lon="5.98859">
        <ele>1341.66</ele>
        <time>2014-02-09T12:53:57Z</time>
      </trkpt>
      <trkpt lat="45.651" lon="5.98858">
        <ele>1341.66</ele>
        <time>2014-02-09T12:53:58Z</time>
      </trkpt>
      <trkpt lat="45.65102" lon="5.98857">
        <ele>1341.66</ele>
        <time>2014-02-09T12:53:59Z</time>
      </trkpt>
      <trkpt lat="45.65104" lon="5.98857">
        <ele>1342.14</ele>
        <time>2014-02-09T12:54:00Z</time>
      </trkpt>
      <trkpt lat="45.65106" lon="5.98856">
        <ele>1341.66</ele>
        <time>2014-02-09T12:54:01Z</time>
      </trkpt>
      <trkpt lat="45.65108" lon="5.98856">
        <ele>1341.66</ele>
        <time>2014-02-09T12:54:02Z</time>
      </trkpt>
      <trkpt lat="45.65111" lon="5.98856">
        <ele>1341.66</ele>
        <time>2014-02-09T12:54:03Z</time>
      </trkpt>
      <trkpt lat="45.65112" lon="5.98856">
        <ele>1341.66</ele>
        <time>2014-02-09T12:54:04Z</time>
      </trkpt>
      <trkpt lat="45.65114" lon="5.98856">
        <ele>1341.18</ele>
        <time>2014-02-09T12:54:05Z</time>
      </trkpt>
      <trkpt lat="45.65116" lon="5.98856">
        <ele>1341.18</ele>
        <time>2014-02-09T12:54:06Z</time>
      </trkpt>
      <trkpt lat="45.65118" lon="5.98855">
        <ele>1341.18</ele>
        <time>2014-02-09T12:54:07Z</time>
      </trkpt>
      <trkpt lat="45.6512" lon="5.98855">
        <ele>1341.66</ele>
        <time>2014-02-09T12:54:08Z</time>
      </trkpt>
      <trkpt lat="45.65122" lon="5.98855">
        <ele>1341.66</ele>
        <time>2014-02-09T12:54:09Z</time>
      </trkpt>
      <trkpt lat="45.65124" lon="5.98855">
        <ele>1341.66</ele>
        <time>2014-02-09T12:54:10Z</time>
      </trkpt>
      <trkpt lat="45.65126" lon="5.98856">
        <ele>1341.66</ele>
        <time>2014-02-09T12:54:11Z</time>
      </trkpt>
      <trkpt lat="45.65128" lon="5.98856">
        <ele>1341.66</ele>
        <time>2014-02-09T12:54:12Z</time>
      </trkpt>
      <trkpt lat="45.6513" lon="5.98856">
        <ele>1342.14</ele>
        <time>2014-02-09T12:54:13Z</time>
      </trkpt>
      <trkpt lat="45.65133" lon="5.98857">
        <ele>1341.66</ele>
        <time>2014-02-09T12:54:14Z</time>
      </trkpt>
      <trkpt lat="45.65135" lon="5.98859">
        <ele>1341.66</ele>
        <time>2014-02-09T12:54:15Z</time>
      </trkpt>
      <trkpt lat="45.65137" lon="5.9886">
        <ele>1341.66</ele>
        <time>2014-02-09T12:54:16Z</time>
      </trkpt>
      <trkpt lat="45.6514" lon="5.98862">
        <ele>1341.66</ele>
        <time>2014-02-09T12:54:17Z</time>
      </trkpt>
      <trkpt lat="45.65142" lon="5.98864">
        <ele>1341.66</ele>
        <time>2014-02-09T12:54:18Z</time>
      </trkpt>
      <trkpt lat="45.65145" lon="5.98866">
        <ele>1341.18</ele>
        <time>2014-02-09T12:54:19Z</time>
      </trkpt>
      <trkpt lat="45.65148" lon="5.98869">
        <ele>1341.18</ele>
        <time>2014-02-09T12:54:20Z</time>
      </trkpt>
      <trkpt lat="45.6515" lon="5.98871">
        <ele>1341.18</ele>
        <time>2014-02-09T12:54:21Z</time>
      </trkpt>
      <trkpt lat="45.65153" lon="5.98873">
        <ele>1341.18</ele>
        <time>2014-02-09T12:54:22Z</time>
      </trkpt>
      <trkpt lat="45.65155" lon="5.98875">
        <ele>1341.18</ele>
        <time>2014-02-09T12:54:23Z</time>
      </trkpt>
      <trkpt lat="45.6517" lon="5.98886">
        <ele>1340.7</ele>
        <time>2014-02-09T12:54:29Z</time>
      </trkpt>
      <trkpt lat="45.65172" lon="5.98887">
        <ele>1340.22</ele>
        <time>2014-02-09T12:54:30Z</time>
      </trkpt>
      <trkpt lat="45.65175" lon="5.98889">
        <ele>1340.7</ele>
        <time>2014-02-09T12:54:31Z</time>
      </trkpt>
      <trkpt lat="45.65177" lon="5.98892">
        <ele>1340.22</ele>
        <time>2014-02-09T12:54:32Z</time>
      </trkpt>
      <trkpt lat="45.65179" lon="5.98894">
        <ele>1340.22</ele>
        <time>2014-02-09T12:54:33Z</time>
      </trkpt>
      <trkpt lat="45.65182" lon="5.98896">
        <ele>1340.7</ele>
        <time>2014-02-09T12:54:34Z</time>
      </trkpt>
      <trkpt lat="45.65184" lon="5.98898">
        <ele>1340.22</ele>
        <time>2014-02-09T12:54:35Z</time>
      </trkpt>
      <trkpt lat="45.65187" lon="5.989">
        <ele>1340.22</ele>
        <time>2014-02-09T12:54:36Z</time>
      </trkpt>
      <trkpt lat="45.65189" lon="5.98903">
        <ele>1340.22</ele>
        <time>2014-02-09T12:54:37Z</time>
      </trkpt>
      <trkpt lat="45.65191" lon="5.98905">
        <ele>1340.7</ele>
        <time>2014-02-09T12:54:38Z</time>
      </trkpt>
      <trkpt lat="45.65193" lon="5.98907">
        <ele>1340.22</ele>
        <time>2014-02-09T12:54:39Z</time>
      </trkpt>
      <trkpt lat="45.65201" lon="5.98918">
        <ele>1339.73</ele>
        <time>2014-02-09T12:54:43Z</time>
      </trkpt>
      <trkpt lat="45.65203" lon="5.98921">
        <ele>1340.22</ele>
        <time>2014-02-09T12:54:44Z</time>
      </trkpt>
      <trkpt lat="45.65205" lon="5.98923">
        <ele>1339.73</ele>
        <time>2014-02-09T12:54:45Z</time>
      </trkpt>
      <trkpt lat="45.65207" lon="5.98926">
        <ele>1340.22</ele>
        <time>2014-02-09T12:54:46Z</time>
      </trkpt>
      <trkpt lat="45.65209" lon="5.98928">
        <ele>1340.22</ele>
        <time>2014-02-09T12:54:47Z</time>
      </trkpt>
      <trkpt lat="45.65211" lon="5.98931">
        <ele>1340.22</ele>
        <time>2014-02-09T12:54:48Z</time>
      </trkpt>
      <trkpt lat="45.65214" lon="5.98933">
        <ele>1339.73</ele>
        <time>2014-02-09T12:54:49Z</time>
      </trkpt>
      <trkpt lat="45.65216" lon="5.98935">
        <ele>1340.22</ele>
        <time>2014-02-09T12:54:50Z</time>
      </trkpt>
      <trkpt lat="45.65218" lon="5.98937">
        <ele>1339.25</ele>
        <time>2014-02-09T12:54:51Z</time>
      </trkpt>
      <trkpt lat="45.6522" lon="5.98939">
        <ele>1340.22</ele>
        <time>2014-02-09T12:54:52Z</time>
      </trkpt>
      <trkpt lat="45.65222" lon="5.9894">
        <ele>1340.22</ele>
        <time>2014-02-09T12:54:53Z</time>
      </trkpt>
      <trkpt lat="45.65224" lon="5.98942">
        <ele>1340.22</ele>
        <time>2014-02-09T12:54:54Z</time>
      </trkpt>
      <trkpt lat="45.65227" lon="5.98944">
        <ele>1340.7</ele>
        <time>2014-02-09T12:54:55Z</time>
      </trkpt>
      <trkpt lat="45.65229" lon="5.98945">
        <ele>1340.7</ele>
        <time>2014-02-09T12:54:56Z</time>
      </trkpt>
      <trkpt lat="45.65231" lon="5.98947">
        <ele>1341.18</ele>
        <time>2014-02-09T12:54:57Z</time>
      </trkpt>
      <trkpt lat="45.65233" lon="5.98949">
        <ele>1340.7</ele>
        <time>2014-02-09T12:54:58Z</time>
      </trkpt>
      <trkpt lat="45.65235" lon="5.9895">
        <ele>1341.18</ele>
        <time>2014-02-09T12:54:59Z</time>
      </trkpt>
      <trkpt lat="45.65237" lon="5.98951">
        <ele>1341.66</ele>
        <time>2014-02-09T12:55:00Z</time>
      </trkpt>
      <trkpt lat="45.65239" lon="5.98953">
        <ele>1341.66</ele>
        <time>2014-02-09T12:55:01Z</time>
      </trkpt>
      <trkpt lat="45.65241" lon="5.98954">
        <ele>1341.66</ele>
        <time>2014-02-09T12:55:02Z</time>
      </trkpt>
      <trkpt lat="45.65243" lon="5.98956">
        <ele>1341.66</ele>
        <time>2014-02-09T12:55:03Z</time>
      </trkpt>
      <trkpt lat="45.65245" lon="5.98959">
        <ele>1341.66</ele>
        <time>2014-02-09T12:55:04Z</time>
      </trkpt>
      <trkpt lat="45.65247" lon="5.98961">
        <ele>1342.14</ele>
        <time>2014-02-09T12:55:05Z</time>
      </trkpt>
      <trkpt lat="45.65249" lon="5.98963">
        <ele>1342.14</ele>
        <time>2014-02-09T12:55:06Z</time>
      </trkpt>
      <trkpt lat="45.65251" lon="5.98966">
        <ele>1342.14</ele>
        <time>2014-02-09T12:55:07Z</time>
      </trkpt>
      <trkpt lat="45.65253" lon="5.98968">
        <ele>1341.66</ele>
        <time>2014-02-09T12:55:08Z</time>
      </trkpt>
      <trkpt lat="45.65255" lon="5.98971">
        <ele>1342.14</ele>
        <time>2014-02-09T12:55:09Z</time>
      </trkpt>
      <trkpt lat="45.65256" lon="5.98973">
        <ele>1342.14</ele>
        <time>2014-02-09T12:55:10Z</time>
      </trkpt>
      <trkpt lat="45.65258" lon="5.98977">
        <ele>1341.66</ele>
        <time>2014-02-09T12:55:11Z</time>
      </trkpt>
      <trkpt lat="45.65267" lon="5.99009">
        <ele>1340.7</ele>
        <time>2014-02-09T12:55:18Z</time>
      </trkpt>
      <trkpt lat="45.65289" lon="5.9906">
        <ele>1339.73</ele>
        <time>2014-02-09T12:55:30Z</time>
      </trkpt>
      <trkpt lat="45.65291" lon="5.99064">
        <ele>1339.73</ele>
        <time>2014-02-09T12:55:31Z</time>
      </trkpt>
      <trkpt lat="45.65293" lon="5.99067">
        <ele>1340.22</ele>
        <time>2014-02-09T12:55:32Z</time>
      </trkpt>
      <trkpt lat="45.65296" lon="5.9907">
        <ele>1340.22</ele>
        <time>2014-02-09T12:55:33Z</time>
      </trkpt>
      <trkpt lat="45.65298" lon="5.99073">
        <ele>1340.22</ele>
        <time>2014-02-09T12:55:34Z</time>
      </trkpt>
      <trkpt lat="45.653" lon="5.99076">
        <ele>1340.7</ele>
        <time>2014-02-09T12:55:35Z</time>
      </trkpt>
      <trkpt lat="45.65303" lon="5.99078">
        <ele>1340.7</ele>
        <time>2014-02-09T12:55:36Z</time>
      </trkpt>
      <trkpt lat="45.65305" lon="5.99081">
        <ele>1340.7</ele>
        <time>2014-02-09T12:55:37Z</time>
      </trkpt>
      <trkpt lat="45.65307" lon="5.99083">
        <ele>1340.7</ele>
        <time>2014-02-09T12:55:38Z</time>
      </trkpt>
      <trkpt lat="45.65309" lon="5.99084">
        <ele>1341.18</ele>
        <time>2014-02-09T12:55:39Z</time>
      </trkpt>
      <trkpt lat="45.65312" lon="5.99087">
        <ele>1341.18</ele>
        <time>2014-02-09T12:55:40Z</time>
      </trkpt>
      <trkpt lat="45.65314" lon="5.99088">
        <ele>1341.66</ele>
        <time>2014-02-09T12:55:41Z</time>
      </trkpt>
      <trkpt lat="45.65316" lon="5.99089">
        <ele>1341.18</ele>
        <time>2014-02-09T12:55:42Z</time>
      </trkpt>
      <trkpt lat="45.65318" lon="5.99091">
        <ele>1341.66</ele>
        <time>2014-02-09T12:55:43Z</time>
      </trkpt>
      <trkpt lat="45.65319" lon="5.99093">
        <ele>1341.66</ele>
        <time>2014-02-09T12:55:44Z</time>
      </trkpt>
      <trkpt lat="45.65321" lon="5.99094">
        <ele>1341.66</ele>
        <time>2014-02-09T12:55:45Z</time>
      </trkpt>
      <trkpt lat="45.65322" lon="5.99095">
        <ele>1342.14</ele>
        <time>2014-02-09T12:55:46Z</time>
      </trkpt>
      <trkpt lat="45.65324" lon="5.99096">
        <ele>1342.62</ele>
        <time>2014-02-09T12:55:47Z</time>
      </trkpt>
      <trkpt lat="45.65325" lon="5.99098">
        <ele>1342.62</ele>
        <time>2014-02-09T12:55:48Z</time>
      </trkpt>
      <trkpt lat="45.65326" lon="5.99099">
        <ele>1343.1</ele>
        <time>2014-02-09T12:55:49Z</time>
      </trkpt>
      <trkpt lat="45.65327" lon="5.991">
        <ele>1343.1</ele>
        <time>2014-02-09T12:55:50Z</time>
      </trkpt>
      <trkpt lat="45.65329" lon="5.99101">
        <ele>1343.58</ele>
        <time>2014-02-09T12:55:51Z</time>
      </trkpt>
      <trkpt lat="45.6533" lon="5.99103">
        <ele>1343.1</ele>
        <time>2014-02-09T12:55:52Z</time>
      </trkpt>
      <trkpt lat="45.65331" lon="5.99104">
        <ele>1343.58</ele>
        <time>2014-02-09T12:55:53Z</time>
      </trkpt>
      <trkpt lat="45.65332" lon="5.99104">
        <ele>1343.58</ele>
        <time>2014-02-09T12:55:54Z</time>
      </trkpt>
      <trkpt lat="45.65333" lon="5.99106">
        <ele>1344.54</ele>
        <time>2014-02-09T12:55:55Z</time>
      </trkpt>
      <trkpt lat="45.65334" lon="5.99106">
        <ele>1344.54</ele>
        <time>2014-02-09T12:55:56Z</time>
      </trkpt>
      <trkpt lat="45.65336" lon="5.99107">
        <ele>1344.54</ele>
        <time>2014-02-09T12:55:57Z</time>
      </trkpt>
      <trkpt lat="45.65337" lon="5.99108">
        <ele>1345.02</ele>
        <time>2014-02-09T12:55:58Z</time>
      </trkpt>
      <trkpt lat="45.65338" lon="5.9911">
        <ele>1345.5</ele>
        <time>2014-02-09T12:55:59Z</time>
      </trkpt>
      <trkpt lat="45.65339" lon="5.99111">
        <ele>1345.5</ele>
        <time>2014-02-09T12:56:00Z</time>
      </trkpt>
      <trkpt lat="45.6534" lon="5.99111">
        <ele>1345.5</ele>
        <time>2014-02-09T12:56:01Z</time>
      </trkpt>
      <trkpt lat="45.65341" lon="5.99113">
        <ele>1345.5</ele>
        <time>2014-02-09T12:56:02Z</time>
      </trkpt>
      <trkpt lat="45.65342" lon="5.99114">
        <ele>1345.98</ele>
        <time>2014-02-09T12:56:03Z</time>
      </trkpt>
      <trkpt lat="45.65343" lon="5.99115">
        <ele>1345.98</ele>
        <time>2014-02-09T12:56:04Z</time>
      </trkpt>
      <trkpt lat="45.65344" lon="5.99116">
        <ele>1345.98</ele>
        <time>2014-02-09T12:56:05Z</time>
      </trkpt>
      <trkpt lat="45.65345" lon="5.99117">
        <ele>1346.46</ele>
        <time>2014-02-09T12:56:06Z</time>
      </trkpt>
      <trkpt lat="45.65346" lon="5.99119">
        <ele>1346.46</ele>
        <time>2014-02-09T12:56:07Z</time>
      </trkpt>
      <trkpt lat="45.65347" lon="5.99121">
        <ele>1346.94</ele>
        <time>2014-02-09T12:56:08Z</time>
      </trkpt>
      <trkpt lat="45.65349" lon="5.99123">
        <ele>1346.46</ele>
        <time>2014-02-09T12:56:09Z</time>
      </trkpt>
      <trkpt lat="45.6535" lon="5.99125">
        <ele>1346.94</ele>
        <time>2014-02-09T12:56:10Z</time>
      </trkpt>
      <trkpt lat="45.65351" lon="5.99126">
        <ele>1346.94</ele>
        <time>2014-02-09T12:56:11Z</time>
      </trkpt>
      <trkpt lat="45.65352" lon="5.99128">
        <ele>1346.94</ele>
        <time>2014-02-09T12:56:12Z</time>
      </trkpt>
      <trkpt lat="45.65353" lon="5.9913">
        <ele>1346.94</ele>
        <time>2014-02-09T12:56:13Z</time>
      </trkpt>
      <trkpt lat="45.65354" lon="5.99131">
        <ele>1346.94</ele>
        <time>2014-02-09T12:56:14Z</time>
      </trkpt>
      <trkpt lat="45.65356" lon="5.99133">
        <ele>1347.43</ele>
        <time>2014-02-09T12:56:15Z</time>
      </trkpt>
      <trkpt lat="45.65357" lon="5.99135">
        <ele>1347.43</ele>
        <time>2014-02-09T12:56:16Z</time>
      </trkpt>
      <trkpt lat="45.65358" lon="5.99137">
        <ele>1347.91</ele>
        <time>2014-02-09T12:56:17Z</time>
      </trkpt>
      <trkpt lat="45.65359" lon="5.99139">
        <ele>1347.91</ele>
        <time>2014-02-09T12:56:18Z</time>
      </trkpt>
      <trkpt lat="45.6536" lon="5.99141">
        <ele>1348.39</ele>
        <time>2014-02-09T12:56:19Z</time>
      </trkpt>
      <trkpt lat="45.65361" lon="5.99143">
        <ele>1347.91</ele>
        <time>2014-02-09T12:56:20Z</time>
      </trkpt>
      <trkpt lat="45.65362" lon="5.99145">
        <ele>1348.39</ele>
        <time>2014-02-09T12:56:21Z</time>
      </trkpt>
      <trkpt lat="45.65363" lon="5.99147">
        <ele>1348.39</ele>
        <time>2014-02-09T12:56:22Z</time>
      </trkpt>
      <trkpt lat="45.65363" lon="5.9915">
        <ele>1348.39</ele>
        <time>2014-02-09T12:56:23Z</time>
      </trkpt>
      <trkpt lat="45.65364" lon="5.99151">
        <ele>1348.87</ele>
        <time>2014-02-09T12:56:24Z</time>
      </trkpt>
      <trkpt lat="45.65364" lon="5.99154">
        <ele>1348.87</ele>
        <time>2014-02-09T12:56:25Z</time>
      </trkpt>
      <trkpt lat="45.65365" lon="5.99156">
        <ele>1348.87</ele>
        <time>2014-02-09T12:56:26Z</time>
      </trkpt>
      <trkpt lat="45.65366" lon="5.99158">
        <ele>1348.87</ele>
        <time>2014-02-09T12:56:27Z</time>
      </trkpt>
      <trkpt lat="45.65366" lon="5.99159">
        <ele>1348.87</ele>
        <time>2014-02-09T12:56:28Z</time>
      </trkpt>
      <trkpt lat="45.65366" lon="5.9916">
        <ele>1348.87</ele>
        <time>2014-02-09T12:56:29Z</time>
      </trkpt>
      <trkpt lat="45.65366" lon="5.99163">
        <ele>1348.87</ele>
        <time>2014-02-09T12:56:43Z</time>
      </trkpt>
      <trkpt lat="45.65364" lon="5.99162">
        <ele>1348.39</ele>
        <time>2014-02-09T12:57:13Z</time>
      </trkpt>
      <trkpt lat="45.65367" lon="5.99165">
        <ele>1347.91</ele>
        <time>2014-02-09T12:57:35Z</time>
      </trkpt>
      <trkpt lat="45.65369" lon="5.99169">
        <ele>1348.39</ele>
        <time>2014-02-09T12:57:46Z</time>
      </trkpt>
      <trkpt lat="45.65369" lon="5.99171">
        <ele>1348.39</ele>
        <time>2014-02-09T12:57:47Z</time>
      </trkpt>
      <trkpt lat="45.65369" lon="5.99174">
        <ele>1348.39</ele>
        <time>2014-02-09T12:57:48Z</time>
      </trkpt>
      <trkpt lat="45.65369" lon="5.99177">
        <ele>1348.87</ele>
        <time>2014-02-09T12:57:49Z</time>
      </trkpt>
      <trkpt lat="45.65368" lon="5.9918">
        <ele>1348.39</ele>
        <time>2014-02-09T12:57:50Z</time>
      </trkpt>
      <trkpt lat="45.65368" lon="5.99183">
        <ele>1348.87</ele>
        <time>2014-02-09T12:57:51Z</time>
      </trkpt>
      <trkpt lat="45.65368" lon="5.99186">
        <ele>1348.87</ele>
        <time>2014-02-09T12:57:52Z</time>
      </trkpt>
      <trkpt lat="45.65367" lon="5.9919">
        <ele>1348.87</ele>
        <time>2014-02-09T12:57:53Z</time>
      </trkpt>
      <trkpt lat="45.65367" lon="5.99192">
        <ele>1348.39</ele>
        <time>2014-02-09T12:57:54Z</time>
      </trkpt>
      <trkpt lat="45.65367" lon="5.99195">
        <ele>1349.35</ele>
        <time>2014-02-09T12:57:55Z</time>
      </trkpt>
      <trkpt lat="45.65367" lon="5.99196">
        <ele>1348.87</ele>
        <time>2014-02-09T12:57:56Z</time>
      </trkpt>
      <trkpt lat="45.65366" lon="5.99199">
        <ele>1348.87</ele>
        <time>2014-02-09T12:57:57Z</time>
      </trkpt>
      <trkpt lat="45.65366" lon="5.99201">
        <ele>1348.87</ele>
        <time>2014-02-09T12:57:58Z</time>
      </trkpt>
      <trkpt lat="45.65367" lon="5.99203">
        <ele>1349.35</ele>
        <time>2014-02-09T12:57:59Z</time>
      </trkpt>
      <trkpt lat="45.65367" lon="5.99205">
        <ele>1349.35</ele>
        <time>2014-02-09T12:58:00Z</time>
      </trkpt>
      <trkpt lat="45.65367" lon="5.99207">
        <ele>1349.35</ele>
        <time>2014-02-09T12:58:01Z</time>
      </trkpt>
      <trkpt lat="45.65367" lon="5.99209">
        <ele>1349.35</ele>
        <time>2014-02-09T12:58:02Z</time>
      </trkpt>
      <trkpt lat="45.65367" lon="5.99211">
        <ele>1348.87</ele>
        <time>2014-02-09T12:58:03Z</time>
      </trkpt>
      <trkpt lat="45.65367" lon="5.99214">
        <ele>1349.83</ele>
        <time>2014-02-09T12:58:04Z</time>
      </trkpt>
      <trkpt lat="45.65368" lon="5.99216">
        <ele>1349.35</ele>
        <time>2014-02-09T12:58:05Z</time>
      </trkpt>
      <trkpt lat="45.65369" lon="5.99218">
        <ele>1349.83</ele>
        <time>2014-02-09T12:58:06Z</time>
      </trkpt>
      <trkpt lat="45.65369" lon="5.99221">
        <ele>1350.31</ele>
        <time>2014-02-09T12:58:07Z</time>
      </trkpt>
      <trkpt lat="45.65369" lon="5.99223">
        <ele>1350.31</ele>
        <time>2014-02-09T12:58:08Z</time>
      </trkpt>
      <trkpt lat="45.6537" lon="5.99225">
        <ele>1350.31</ele>
        <time>2014-02-09T12:58:09Z</time>
      </trkpt>
      <trkpt lat="45.6537" lon="5.99227">
        <ele>1350.31</ele>
        <time>2014-02-09T12:58:10Z</time>
      </trkpt>
      <trkpt lat="45.65371" lon="5.99229">
        <ele>1350.31</ele>
        <time>2014-02-09T12:58:11Z</time>
      </trkpt>
      <trkpt lat="45.65371" lon="5.99231">
        <ele>1350.79</ele>
        <time>2014-02-09T12:58:12Z</time>
      </trkpt>
      <trkpt lat="45.65372" lon="5.99233">
        <ele>1351.27</ele>
        <time>2014-02-09T12:58:13Z</time>
      </trkpt>
      <trkpt lat="45.65372" lon="5.99235">
        <ele>1351.75</ele>
        <time>2014-02-09T12:58:14Z</time>
      </trkpt>
      <trkpt lat="45.65372" lon="5.99237">
        <ele>1351.27</ele>
        <time>2014-02-09T12:58:15Z</time>
      </trkpt>
      <trkpt lat="45.65372" lon="5.99239">
        <ele>1351.75</ele>
        <time>2014-02-09T12:58:16Z</time>
      </trkpt>
      <trkpt lat="45.65373" lon="5.9924">
        <ele>1352.23</ele>
        <time>2014-02-09T12:58:17Z</time>
      </trkpt>
      <trkpt lat="45.65373" lon="5.99242">
        <ele>1352.23</ele>
        <time>2014-02-09T12:58:18Z</time>
      </trkpt>
      <trkpt lat="45.65373" lon="5.99244">
        <ele>1352.71</ele>
        <time>2014-02-09T12:58:19Z</time>
      </trkpt>
      <trkpt lat="45.65373" lon="5.99246">
        <ele>1352.71</ele>
        <time>2014-02-09T12:58:20Z</time>
      </trkpt>
      <trkpt lat="45.65374" lon="5.99248">
        <ele>1352.71</ele>
        <time>2014-02-09T12:58:21Z</time>
      </trkpt>
      <trkpt lat="45.65375" lon="5.9925">
        <ele>1352.71</ele>
        <time>2014-02-09T12:58:22Z</time>
      </trkpt>
      <trkpt lat="45.65375" lon="5.99252">
        <ele>1353.67</ele>
        <time>2014-02-09T12:58:23Z</time>
      </trkpt>
      <trkpt lat="45.65375" lon="5.99254">
        <ele>1353.19</ele>
        <time>2014-02-09T12:58:24Z</time>
      </trkpt>
      <trkpt lat="45.65375" lon="5.99256">
        <ele>1353.67</ele>
        <time>2014-02-09T12:58:25Z</time>
      </trkpt>
      <trkpt lat="45.65375" lon="5.99258">
        <ele>1354.15</ele>
        <time>2014-02-09T12:58:26Z</time>
      </trkpt>
      <trkpt lat="45.65375" lon="5.9926">
        <ele>1354.15</ele>
        <time>2014-02-09T12:58:27Z</time>
      </trkpt>
      <trkpt lat="45.65375" lon="5.99262">
        <ele>1354.15</ele>
        <time>2014-02-09T12:58:28Z</time>
      </trkpt>
      <trkpt lat="45.65375" lon="5.99264">
        <ele>1354.63</ele>
        <time>2014-02-09T12:58:29Z</time>
      </trkpt>
      <trkpt lat="45.65375" lon="5.99266">
        <ele>1354.15</ele>
        <time>2014-02-09T12:58:30Z</time>
      </trkpt>
      <trkpt lat="45.65375" lon="5.99269">
        <ele>1354.63</ele>
        <time>2014-02-09T12:58:31Z</time>
      </trkpt>
      <trkpt lat="45.65375" lon="5.99271">
        <ele>1354.63</ele>
        <time>2014-02-09T12:58:32Z</time>
      </trkpt>
      <trkpt lat="45.65375" lon="5.99274">
        <ele>1354.63</ele>
        <time>2014-02-09T12:58:33Z</time>
      </trkpt>
      <trkpt lat="45.65375" lon="5.99276">
        <ele>1354.63</ele>
        <time>2014-02-09T12:58:34Z</time>
      </trkpt>
      <trkpt lat="45.65375" lon="5.99278">
        <ele>1354.63</ele>
        <time>2014-02-09T12:58:35Z</time>
      </trkpt>
      <trkpt lat="45.65375" lon="5.99281">
        <ele>1354.63</ele>
        <time>2014-02-09T12:58:36Z</time>
      </trkpt>
      <trkpt lat="45.65374" lon="5.99283">
        <ele>1354.63</ele>
        <time>2014-02-09T12:58:37Z</time>
      </trkpt>
      <trkpt lat="45.65374" lon="5.99285">
        <ele>1355.12</ele>
        <time>2014-02-09T12:58:38Z</time>
      </trkpt>
      <trkpt lat="45.65373" lon="5.99288">
        <ele>1355.12</ele>
        <time>2014-02-09T12:58:39Z</time>
      </trkpt>
      <trkpt lat="45.65372" lon="5.9929">
        <ele>1354.63</ele>
        <time>2014-02-09T12:58:40Z</time>
      </trkpt>
      <trkpt lat="45.65372" lon="5.99292">
        <ele>1355.12</ele>
        <time>2014-02-09T12:58:41Z</time>
      </trkpt>
      <trkpt lat="45.65373" lon="5.99295">
        <ele>1355.12</ele>
        <time>2014-02-09T12:58:42Z</time>
      </trkpt>
      <trkpt lat="45.65373" lon="5.99297">
        <ele>1355.6</ele>
        <time>2014-02-09T12:58:43Z</time>
      </trkpt>
      <trkpt lat="45.65373" lon="5.99299">
        <ele>1355.6</ele>
        <time>2014-02-09T12:58:44Z</time>
      </trkpt>
      <trkpt lat="45.65373" lon="5.99301">
        <ele>1355.6</ele>
        <time>2014-02-09T12:58:45Z</time>
      </trkpt>
      <trkpt lat="45.65374" lon="5.99304">
        <ele>1355.6</ele>
        <time>2014-02-09T12:58:46Z</time>
      </trkpt>
      <trkpt lat="45.65374" lon="5.99306">
        <ele>1355.6</ele>
        <time>2014-02-09T12:58:47Z</time>
      </trkpt>
      <trkpt lat="45.65374" lon="5.99309">
        <ele>1355.6</ele>
        <time>2014-02-09T12:58:48Z</time>
      </trkpt>
      <trkpt lat="45.65374" lon="5.99311">
        <ele>1355.6</ele>
        <time>2014-02-09T12:58:49Z</time>
      </trkpt>
      <trkpt lat="45.65374" lon="5.99313">
        <ele>1355.6</ele>
        <time>2014-02-09T12:58:50Z</time>
      </trkpt>
      <trkpt lat="45.65374" lon="5.99315">
        <ele>1355.6</ele>
        <time>2014-02-09T12:58:51Z</time>
      </trkpt>
      <trkpt lat="45.65375" lon="5.99317">
        <ele>1356.08</ele>
        <time>2014-02-09T12:58:52Z</time>
      </trkpt>
      <trkpt lat="45.65375" lon="5.99319">
        <ele>1356.08</ele>
        <time>2014-02-09T12:58:53Z</time>
      </trkpt>
      <trkpt lat="45.65375" lon="5.99322">
        <ele>1356.56</ele>
        <time>2014-02-09T12:58:54Z</time>
      </trkpt>
      <trkpt lat="45.65376" lon="5.99324">
        <ele>1356.08</ele>
        <time>2014-02-09T12:58:55Z</time>
      </trkpt>
      <trkpt lat="45.65377" lon="5.99326">
        <ele>1356.56</ele>
        <time>2014-02-09T12:58:56Z</time>
      </trkpt>
      <trkpt lat="45.65377" lon="5.99329">
        <ele>1356.56</ele>
        <time>2014-02-09T12:58:57Z</time>
      </trkpt>
      <trkpt lat="45.65377" lon="5.99332">
        <ele>1356.56</ele>
        <time>2014-02-09T12:58:58Z</time>
      </trkpt>
      <trkpt lat="45.65377" lon="5.99334">
        <ele>1356.56</ele>
        <time>2014-02-09T12:58:59Z</time>
      </trkpt>
      <trkpt lat="45.6538" lon="5.99353">
        <ele>1357.52</ele>
        <time>2014-02-09T12:59:09Z</time>
      </trkpt>
      <trkpt lat="45.65382" lon="5.99357">
        <ele>1358</ele>
        <time>2014-02-09T12:59:11Z</time>
      </trkpt>
      <trkpt lat="45.65383" lon="5.99358">
        <ele>1357.52</ele>
        <time>2014-02-09T12:59:12Z</time>
      </trkpt>
      <trkpt lat="45.65383" lon="5.99359">
        <ele>1357.52</ele>
        <time>2014-02-09T12:59:13Z</time>
      </trkpt>
      <trkpt lat="45.65384" lon="5.9936">
        <ele>1358</ele>
        <time>2014-02-09T12:59:14Z</time>
      </trkpt>
      <trkpt lat="45.65384" lon="5.99362">
        <ele>1358</ele>
        <time>2014-02-09T12:59:15Z</time>
      </trkpt>
      <trkpt lat="45.65385" lon="5.99364">
        <ele>1358.48</ele>
        <time>2014-02-09T12:59:16Z</time>
      </trkpt>
      <trkpt lat="45.65386" lon="5.99367">
        <ele>1358.48</ele>
        <time>2014-02-09T12:59:18Z</time>
      </trkpt>
      <trkpt lat="45.65386" lon="5.99369">
        <ele>1358.96</ele>
        <time>2014-02-09T12:59:19Z</time>
      </trkpt>
      <trkpt lat="45.65387" lon="5.99371">
        <ele>1358.48</ele>
        <time>2014-02-09T12:59:20Z</time>
      </trkpt>
      <trkpt lat="45.65388" lon="5.99374">
        <ele>1358.96</ele>
        <time>2014-02-09T12:59:21Z</time>
      </trkpt>
      <trkpt lat="45.65388" lon="5.99376">
        <ele>1358.48</ele>
        <time>2014-02-09T12:59:22Z</time>
      </trkpt>
      <trkpt lat="45.65389" lon="5.99378">
        <ele>1358.96</ele>
        <time>2014-02-09T12:59:23Z</time>
      </trkpt>
      <trkpt lat="45.6539" lon="5.9938">
        <ele>1358.48</ele>
        <time>2014-02-09T12:59:24Z</time>
      </trkpt>
      <trkpt lat="45.6539" lon="5.99383">
        <ele>1358.96</ele>
        <time>2014-02-09T12:59:25Z</time>
      </trkpt>
      <trkpt lat="45.6539" lon="5.99386">
        <ele>1358.96</ele>
        <time>2014-02-09T12:59:26Z</time>
      </trkpt>
      <trkpt lat="45.65391" lon="5.99388">
        <ele>1359.44</ele>
        <time>2014-02-09T12:59:27Z</time>
      </trkpt>
      <trkpt lat="45.65392" lon="5.9939">
        <ele>1359.44</ele>
        <time>2014-02-09T12:59:28Z</time>
      </trkpt>
      <trkpt lat="45.65393" lon="5.99392">
        <ele>1359.92</ele>
        <time>2014-02-09T12:59:29Z</time>
      </trkpt>
      <trkpt lat="45.65394" lon="5.99395">
        <ele>1359.44</ele>
        <time>2014-02-09T12:59:30Z</time>
      </trkpt>
      <trkpt lat="45.65395" lon="5.99396">
        <ele>1359.92</ele>
        <time>2014-02-09T12:59:31Z</time>
      </trkpt>
      <trkpt lat="45.65396" lon="5.99398">
        <ele>1360.4</ele>
        <time>2014-02-09T12:59:32Z</time>
      </trkpt>
      <trkpt lat="45.65397" lon="5.99401">
        <ele>1360.4</ele>
        <time>2014-02-09T12:59:33Z</time>
      </trkpt>
      <trkpt lat="45.65398" lon="5.99404">
        <ele>1360.4</ele>
        <time>2014-02-09T12:59:34Z</time>
      </trkpt>
      <trkpt lat="45.65399" lon="5.99406">
        <ele>1360.4</ele>
        <time>2014-02-09T12:59:35Z</time>
      </trkpt>
      <trkpt lat="45.65411" lon="5.99428">
        <ele>1361.36</ele>
        <time>2014-02-09T12:59:43Z</time>
      </trkpt>
      <trkpt lat="45.65412" lon="5.9943">
        <ele>1361.36</ele>
        <time>2014-02-09T12:59:44Z</time>
      </trkpt>
      <trkpt lat="45.65414" lon="5.99433">
        <ele>1361.36</ele>
        <time>2014-02-09T12:59:45Z</time>
      </trkpt>
      <trkpt lat="45.65416" lon="5.99436">
        <ele>1360.88</ele>
        <time>2014-02-09T12:59:46Z</time>
      </trkpt>
      <trkpt lat="45.65417" lon="5.99438">
        <ele>1360.88</ele>
        <time>2014-02-09T12:59:47Z</time>
      </trkpt>
      <trkpt lat="45.65419" lon="5.99441">
        <ele>1360.88</ele>
        <time>2014-02-09T12:59:48Z</time>
      </trkpt>
      <trkpt lat="45.6542" lon="5.99445">
        <ele>1360.88</ele>
        <time>2014-02-09T12:59:49Z</time>
      </trkpt>
      <trkpt lat="45.65422" lon="5.99448">
        <ele>1360.88</ele>
        <time>2014-02-09T12:59:50Z</time>
      </trkpt>
      <trkpt lat="45.65423" lon="5.99451">
        <ele>1360.88</ele>
        <time>2014-02-09T12:59:51Z</time>
      </trkpt>
      <trkpt lat="45.65425" lon="5.99453">
        <ele>1361.36</ele>
        <time>2014-02-09T12:59:52Z</time>
      </trkpt>
      <trkpt lat="45.65426" lon="5.99455">
        <ele>1361.36</ele>
        <time>2014-02-09T12:59:53Z</time>
      </trkpt>
      <trkpt lat="45.65428" lon="5.99457">
        <ele>1361.36</ele>
        <time>2014-02-09T12:59:54Z</time>
      </trkpt>
      <trkpt lat="45.65429" lon="5.9946">
        <ele>1361.84</ele>
        <time>2014-02-09T12:59:55Z</time>
      </trkpt>
      <trkpt lat="45.6543" lon="5.99461">
        <ele>1361.36</ele>
        <time>2014-02-09T12:59:56Z</time>
      </trkpt>
      <trkpt lat="45.65432" lon="5.99464">
        <ele>1361.84</ele>
        <time>2014-02-09T12:59:57Z</time>
      </trkpt>
      <trkpt lat="45.65435" lon="5.99469">
        <ele>1361.84</ele>
        <time>2014-02-09T12:59:59Z</time>
      </trkpt>
      <trkpt lat="45.65436" lon="5.99473">
        <ele>1361.36</ele>
        <time>2014-02-09T13:00:00Z</time>
      </trkpt>
      <trkpt lat="45.65454" lon="5.99522">
        <ele>1358.96</ele>
        <time>2014-02-09T13:00:12Z</time>
      </trkpt>
      <trkpt lat="45.65455" lon="5.99535">
        <ele>1358.96</ele>
        <time>2014-02-09T13:00:16Z</time>
      </trkpt>
      <trkpt lat="45.65455" lon="5.99538">
        <ele>1358.96</ele>
        <time>2014-02-09T13:00:17Z</time>
      </trkpt>
      <trkpt lat="45.65455" lon="5.99542">
        <ele>1358.96</ele>
        <time>2014-02-09T13:00:18Z</time>
      </trkpt>
      <trkpt lat="45.65455" lon="5.99546">
        <ele>1358.48</ele>
        <time>2014-02-09T13:00:19Z</time>
      </trkpt>
      <trkpt lat="45.65456" lon="5.9955">
        <ele>1358.96</ele>
        <time>2014-02-09T13:00:20Z</time>
      </trkpt>
      <trkpt lat="45.65456" lon="5.99554">
        <ele>1359.44</ele>
        <time>2014-02-09T13:00:21Z</time>
      </trkpt>
      <trkpt lat="45.65457" lon="5.99558">
        <ele>1358.96</ele>
        <time>2014-02-09T13:00:22Z</time>
      </trkpt>
      <trkpt lat="45.65459" lon="5.99572">
        <ele>1359.44</ele>
        <time>2014-02-09T13:00:26Z</time>
      </trkpt>
      <trkpt lat="45.6546" lon="5.99576">
        <ele>1359.44</ele>
        <time>2014-02-09T13:00:27Z</time>
      </trkpt>
      <trkpt lat="45.65461" lon="5.9958">
        <ele>1359.44</ele>
        <time>2014-02-09T13:00:28Z</time>
      </trkpt>
      <trkpt lat="45.65462" lon="5.99583">
        <ele>1359.44</ele>
        <time>2014-02-09T13:00:29Z</time>
      </trkpt>
      <trkpt lat="45.65463" lon="5.99586">
        <ele>1359.44</ele>
        <time>2014-02-09T13:00:30Z</time>
      </trkpt>
      <trkpt lat="45.65464" lon="5.9959">
        <ele>1359.44</ele>
        <time>2014-02-09T13:00:31Z</time>
      </trkpt>
      <trkpt lat="45.65466" lon="5.99592">
        <ele>1359.92</ele>
        <time>2014-02-09T13:00:32Z</time>
      </trkpt>
      <trkpt lat="45.65467" lon="5.99595">
        <ele>1359.92</ele>
        <time>2014-02-09T13:00:33Z</time>
      </trkpt>
      <trkpt lat="45.65469" lon="5.99599">
        <ele>1359.92</ele>
        <time>2014-02-09T13:00:34Z</time>
      </trkpt>
      <trkpt lat="45.65471" lon="5.99603">
        <ele>1359.92</ele>
        <time>2014-02-09T13:00:35Z</time>
      </trkpt>
      <trkpt lat="45.65472" lon="5.99606">
        <ele>1359.92</ele>
        <time>2014-02-09T13:00:36Z</time>
      </trkpt>
      <trkpt lat="45.65474" lon="5.99609">
        <ele>1360.4</ele>
        <time>2014-02-09T13:00:37Z</time>
      </trkpt>
      <trkpt lat="45.65476" lon="5.99612">
        <ele>1359.92</ele>
        <time>2014-02-09T13:00:38Z</time>
      </trkpt>
      <trkpt lat="45.65477" lon="5.99616">
        <ele>1360.4</ele>
        <time>2014-02-09T13:00:39Z</time>
      </trkpt>
      <trkpt lat="45.65478" lon="5.99619">
        <ele>1360.4</ele>
        <time>2014-02-09T13:00:40Z</time>
      </trkpt>
      <trkpt lat="45.6548" lon="5.99622">
        <ele>1360.88</ele>
        <time>2014-02-09T13:00:41Z</time>
      </trkpt>
      <trkpt lat="45.65481" lon="5.99624">
        <ele>1360.4</ele>
        <time>2014-02-09T13:00:42Z</time>
      </trkpt>
      <trkpt lat="45.65483" lon="5.99627">
        <ele>1360.4</ele>
        <time>2014-02-09T13:00:43Z</time>
      </trkpt>
      <trkpt lat="45.65485" lon="5.9963">
        <ele>1360.88</ele>
        <time>2014-02-09T13:00:44Z</time>
      </trkpt>
      <trkpt lat="45.65486" lon="5.99632">
        <ele>1360.88</ele>
        <time>2014-02-09T13:00:45Z</time>
      </trkpt>
      <trkpt lat="45.65487" lon="5.99635">
        <ele>1360.88</ele>
        <time>2014-02-09T13:00:46Z</time>
      </trkpt>
      <trkpt lat="45.65492" lon="5.99643">
        <ele>1361.36</ele>
        <time>2014-02-09T13:00:49Z</time>
      </trkpt>
      <trkpt lat="45.65494" lon="5.99645">
        <ele>1361.84</ele>
        <time>2014-02-09T13:00:50Z</time>
      </trkpt>
      <trkpt lat="45.65495" lon="5.99647">
        <ele>1361.84</ele>
        <time>2014-02-09T13:00:51Z</time>
      </trkpt>
      <trkpt lat="45.65497" lon="5.99649">
        <ele>1361.84</ele>
        <time>2014-02-09T13:00:52Z</time>
      </trkpt>
      <trkpt lat="45.65499" lon="5.99652">
        <ele>1361.84</ele>
        <time>2014-02-09T13:00:53Z</time>
      </trkpt>
      <trkpt lat="45.65501" lon="5.99654">
        <ele>1361.84</ele>
        <time>2014-02-09T13:00:54Z</time>
      </trkpt>
      <trkpt lat="45.65502" lon="5.99656">
        <ele>1361.84</ele>
        <time>2014-02-09T13:00:55Z</time>
      </trkpt>
      <trkpt lat="45.65504" lon="5.99659">
        <ele>1361.84</ele>
        <time>2014-02-09T13:00:56Z</time>
      </trkpt>
      <trkpt lat="45.65512" lon="5.99672">
        <ele>1362.33</ele>
        <time>2014-02-09T13:01:01Z</time>
      </trkpt>
      <trkpt lat="45.65514" lon="5.99674">
        <ele>1361.84</ele>
        <time>2014-02-09T13:01:02Z</time>
      </trkpt>
      <trkpt lat="45.65515" lon="5.99678">
        <ele>1361.84</ele>
        <time>2014-02-09T13:01:03Z</time>
      </trkpt>
      <trkpt lat="45.65517" lon="5.9968">
        <ele>1361.84</ele>
        <time>2014-02-09T13:01:04Z</time>
      </trkpt>
      <trkpt lat="45.65518" lon="5.99683">
        <ele>1362.33</ele>
        <time>2014-02-09T13:01:05Z</time>
      </trkpt>
      <trkpt lat="45.6552" lon="5.99685">
        <ele>1361.84</ele>
        <time>2014-02-09T13:01:06Z</time>
      </trkpt>
      <trkpt lat="45.65521" lon="5.99688">
        <ele>1362.33</ele>
        <time>2014-02-09T13:01:07Z</time>
      </trkpt>
      <trkpt lat="45.65523" lon="5.9969">
        <ele>1361.84</ele>
        <time>2014-02-09T13:01:08Z</time>
      </trkpt>
      <trkpt lat="45.65524" lon="5.99693">
        <ele>1361.84</ele>
        <time>2014-02-09T13:01:09Z</time>
      </trkpt>
      <trkpt lat="45.65525" lon="5.99696">
        <ele>1361.84</ele>
        <time>2014-02-09T13:01:10Z</time>
      </trkpt>
      <trkpt lat="45.65526" lon="5.99699">
        <ele>1362.33</ele>
        <time>2014-02-09T13:01:11Z</time>
      </trkpt>
      <trkpt lat="45.65528" lon="5.99703">
        <ele>1362.33</ele>
        <time>2014-02-09T13:01:12Z</time>
      </trkpt>
      <trkpt lat="45.6553" lon="5.99706">
        <ele>1361.84</ele>
        <time>2014-02-09T13:01:13Z</time>
      </trkpt>
      <trkpt lat="45.65532" lon="5.9971">
        <ele>1362.33</ele>
        <time>2014-02-09T13:01:14Z</time>
      </trkpt>
      <trkpt lat="45.65533" lon="5.99713">
        <ele>1362.33</ele>
        <time>2014-02-09T13:01:15Z</time>
      </trkpt>
      <trkpt lat="45.65535" lon="5.99716">
        <ele>1362.33</ele>
        <time>2014-02-09T13:01:16Z</time>
      </trkpt>
      <trkpt lat="45.65537" lon="5.99719">
        <ele>1361.84</ele>
        <time>2014-02-09T13:01:17Z</time>
      </trkpt>
      <trkpt lat="45.65539" lon="5.99722">
        <ele>1361.84</ele>
        <time>2014-02-09T13:01:18Z</time>
      </trkpt>
      <trkpt lat="45.6554" lon="5.99726">
        <ele>1362.33</ele>
        <time>2014-02-09T13:01:19Z</time>
      </trkpt>
      <trkpt lat="45.65542" lon="5.99729">
        <ele>1361.84</ele>
        <time>2014-02-09T13:01:20Z</time>
      </trkpt>
      <trkpt lat="45.65544" lon="5.99732">
        <ele>1362.33</ele>
        <time>2014-02-09T13:01:21Z</time>
      </trkpt>
      <trkpt lat="45.65546" lon="5.99735">
        <ele>1361.84</ele>
        <time>2014-02-09T13:01:22Z</time>
      </trkpt>
      <trkpt lat="45.65547" lon="5.99738">
        <ele>1361.84</ele>
        <time>2014-02-09T13:01:23Z</time>
      </trkpt>
      <trkpt lat="45.65549" lon="5.99741">
        <ele>1361.84</ele>
        <time>2014-02-09T13:01:24Z</time>
      </trkpt>
      <trkpt lat="45.65551" lon="5.99744">
        <ele>1361.84</ele>
        <time>2014-02-09T13:01:25Z</time>
      </trkpt>
      <trkpt lat="45.65552" lon="5.99747">
        <ele>1361.84</ele>
        <time>2014-02-09T13:01:26Z</time>
      </trkpt>
      <trkpt lat="45.65554" lon="5.99749">
        <ele>1361.84</ele>
        <time>2014-02-09T13:01:27Z</time>
      </trkpt>
      <trkpt lat="45.65555" lon="5.99752">
        <ele>1361.36</ele>
        <time>2014-02-09T13:01:28Z</time>
      </trkpt>
      <trkpt lat="45.65556" lon="5.99755">
        <ele>1361.84</ele>
        <time>2014-02-09T13:01:29Z</time>
      </trkpt>
      <trkpt lat="45.65558" lon="5.99758">
        <ele>1361.36</ele>
        <time>2014-02-09T13:01:30Z</time>
      </trkpt>
      <trkpt lat="45.65559" lon="5.9976">
        <ele>1361.36</ele>
        <time>2014-02-09T13:01:31Z</time>
      </trkpt>
      <trkpt lat="45.65561" lon="5.99763">
        <ele>1361.36</ele>
        <time>2014-02-09T13:01:32Z</time>
      </trkpt>
      <trkpt lat="45.65562" lon="5.99765">
        <ele>1361.84</ele>
        <time>2014-02-09T13:01:33Z</time>
      </trkpt>
      <trkpt lat="45.65564" lon="5.99767">
        <ele>1361.84</ele>
        <time>2014-02-09T13:01:34Z</time>
      </trkpt>
      <trkpt lat="45.65566" lon="5.99771">
        <ele>1361.84</ele>
        <time>2014-02-09T13:01:35Z</time>
      </trkpt>
      <trkpt lat="45.65567" lon="5.99774">
        <ele>1361.84</ele>
        <time>2014-02-09T13:01:36Z</time>
      </trkpt>
      <trkpt lat="45.65569" lon="5.99777">
        <ele>1361.84</ele>
        <time>2014-02-09T13:01:37Z</time>
      </trkpt>
      <trkpt lat="45.6557" lon="5.99781">
        <ele>1361.84</ele>
        <time>2014-02-09T13:01:38Z</time>
      </trkpt>
      <trkpt lat="45.65571" lon="5.99785">
        <ele>1361.36</ele>
        <time>2014-02-09T13:01:39Z</time>
      </trkpt>
      <trkpt lat="45.65573" lon="5.99789">
        <ele>1360.88</ele>
        <time>2014-02-09T13:01:40Z</time>
      </trkpt>
      <trkpt lat="45.65575" lon="5.99793">
        <ele>1361.36</ele>
        <time>2014-02-09T13:01:41Z</time>
      </trkpt>
      <trkpt lat="45.65578" lon="5.99797">
        <ele>1360.88</ele>
        <time>2014-02-09T13:01:42Z</time>
      </trkpt>
      <trkpt lat="45.6558" lon="5.99801">
        <ele>1361.36</ele>
        <time>2014-02-09T13:01:43Z</time>
      </trkpt>
      <trkpt lat="45.65582" lon="5.99804">
        <ele>1361.36</ele>
        <time>2014-02-09T13:01:44Z</time>
      </trkpt>
      <trkpt lat="45.65585" lon="5.99807">
        <ele>1360.88</ele>
        <time>2014-02-09T13:01:45Z</time>
      </trkpt>
      <trkpt lat="45.65587" lon="5.99809">
        <ele>1360.88</ele>
        <time>2014-02-09T13:01:46Z</time>
      </trkpt>
      <trkpt lat="45.65589" lon="5.99811">
        <ele>1360.88</ele>
        <time>2014-02-09T13:01:47Z</time>
      </trkpt>
      <trkpt lat="45.65591" lon="5.99812">
        <ele>1361.36</ele>
        <time>2014-02-09T13:01:48Z</time>
      </trkpt>
      <trkpt lat="45.65593" lon="5.99813">
        <ele>1361.36</ele>
        <time>2014-02-09T13:01:49Z</time>
      </trkpt>
      <trkpt lat="45.65598" lon="5.99818">
        <ele>1361.84</ele>
        <time>2014-02-09T13:01:52Z</time>
      </trkpt>
      <trkpt lat="45.656" lon="5.99819">
        <ele>1362.33</ele>
        <time>2014-02-09T13:01:53Z</time>
      </trkpt>
      <trkpt lat="45.65601" lon="5.99821">
        <ele>1362.33</ele>
        <time>2014-02-09T13:01:54Z</time>
      </trkpt>
      <trkpt lat="45.65603" lon="5.99822">
        <ele>1362.33</ele>
        <time>2014-02-09T13:01:55Z</time>
      </trkpt>
      <trkpt lat="45.65604" lon="5.99823">
        <ele>1362.33</ele>
        <time>2014-02-09T13:01:56Z</time>
      </trkpt>
      <trkpt lat="45.65606" lon="5.99824">
        <ele>1362.81</ele>
        <time>2014-02-09T13:01:57Z</time>
      </trkpt>
      <trkpt lat="45.65607" lon="5.99826">
        <ele>1363.29</ele>
        <time>2014-02-09T13:01:58Z</time>
      </trkpt>
      <trkpt lat="45.65609" lon="5.99828">
        <ele>1362.81</ele>
        <time>2014-02-09T13:01:59Z</time>
      </trkpt>
      <trkpt lat="45.6561" lon="5.99829">
        <ele>1363.29</ele>
        <time>2014-02-09T13:02:00Z</time>
      </trkpt>
      <trkpt lat="45.65612" lon="5.99832">
        <ele>1362.81</ele>
        <time>2014-02-09T13:02:01Z</time>
      </trkpt>
      <trkpt lat="45.65613" lon="5.99834">
        <ele>1363.29</ele>
        <time>2014-02-09T13:02:02Z</time>
      </trkpt>
      <trkpt lat="45.65616" lon="5.99836">
        <ele>1363.29</ele>
        <time>2014-02-09T13:02:03Z</time>
      </trkpt>
      <trkpt lat="45.65617" lon="5.99838">
        <ele>1363.29</ele>
        <time>2014-02-09T13:02:04Z</time>
      </trkpt>
      <trkpt lat="45.65618" lon="5.9984">
        <ele>1363.29</ele>
        <time>2014-02-09T13:02:05Z</time>
      </trkpt>
      <trkpt lat="45.65625" lon="5.99856">
        <ele>1363.29</ele>
        <time>2014-02-09T13:02:14Z</time>
      </trkpt>
      <trkpt lat="45.65634" lon="5.99879">
        <ele>1362.33</ele>
        <time>2014-02-09T13:02:27Z</time>
      </trkpt>
      <trkpt lat="45.65639" lon="5.99891">
        <ele>1362.33</ele>
        <time>2014-02-09T13:02:46Z</time>
      </trkpt>
      <trkpt lat="45.65639" lon="5.99892">
        <ele>1362.81</ele>
        <time>2014-02-09T13:03:07Z</time>
      </trkpt>
      <trkpt lat="45.6564" lon="5.99892">
        <ele>1362.81</ele>
        <time>2014-02-09T13:03:37Z</time>
      </trkpt>
      <trkpt lat="45.65642" lon="5.99894">
        <ele>1362.81</ele>
        <time>2014-02-09T13:03:48Z</time>
      </trkpt>
      <trkpt lat="45.65643" lon="5.99893">
        <ele>1362.81</ele>
        <time>2014-02-09T13:03:49Z</time>
      </trkpt>
      <trkpt lat="45.65644" lon="5.99891">
        <ele>1362.81</ele>
        <time>2014-02-09T13:03:51Z</time>
      </trkpt>
      <trkpt lat="45.6565" lon="5.99885">
        <ele>1362.33</ele>
        <time>2014-02-09T13:03:55Z</time>
      </trkpt>
      <trkpt lat="45.65651" lon="5.99884">
        <ele>1362.81</ele>
        <time>2014-02-09T13:03:56Z</time>
      </trkpt>
      <trkpt lat="45.65653" lon="5.99883">
        <ele>1362.33</ele>
        <time>2014-02-09T13:03:57Z</time>
      </trkpt>
      <trkpt lat="45.65655" lon="5.99882">
        <ele>1362.33</ele>
        <time>2014-02-09T13:03:58Z</time>
      </trkpt>
      <trkpt lat="45.65657" lon="5.9988">
        <ele>1362.33</ele>
        <time>2014-02-09T13:03:59Z</time>
      </trkpt>
      <trkpt lat="45.65659" lon="5.99877">
        <ele>1362.33</ele>
        <time>2014-02-09T13:04:00Z</time>
      </trkpt>
      <trkpt lat="45.6566" lon="5.99875">
        <ele>1362.33</ele>
        <time>2014-02-09T13:04:01Z</time>
      </trkpt>
      <trkpt lat="45.65663" lon="5.99873">
        <ele>1362.81</ele>
        <time>2014-02-09T13:04:03Z</time>
      </trkpt>
      <trkpt lat="45.65664" lon="5.99871">
        <ele>1363.29</ele>
        <time>2014-02-09T13:04:04Z</time>
      </trkpt>
      <trkpt lat="45.65666" lon="5.9987">
        <ele>1363.29</ele>
        <time>2014-02-09T13:04:05Z</time>
      </trkpt>
      <trkpt lat="45.65667" lon="5.99869">
        <ele>1363.29</ele>
        <time>2014-02-09T13:04:06Z</time>
      </trkpt>
      <trkpt lat="45.65668" lon="5.99868">
        <ele>1363.77</ele>
        <time>2014-02-09T13:04:07Z</time>
      </trkpt>
      <trkpt lat="45.65669" lon="5.99867">
        <ele>1364.25</ele>
        <time>2014-02-09T13:04:08Z</time>
      </trkpt>
      <trkpt lat="45.65671" lon="5.99866">
        <ele>1364.25</ele>
        <time>2014-02-09T13:04:09Z</time>
      </trkpt>
      <trkpt lat="45.65673" lon="5.99864">
        <ele>1363.77</ele>
        <time>2014-02-09T13:04:10Z</time>
      </trkpt>
      <trkpt lat="45.65673" lon="5.99863">
        <ele>1364.25</ele>
        <time>2014-02-09T13:04:11Z</time>
      </trkpt>
      <trkpt lat="45.65675" lon="5.99861">
        <ele>1364.73</ele>
        <time>2014-02-09T13:04:12Z</time>
      </trkpt>
      <trkpt lat="45.65677" lon="5.9986">
        <ele>1364.73</ele>
        <time>2014-02-09T13:04:13Z</time>
      </trkpt>
      <trkpt lat="45.65678" lon="5.99858">
        <ele>1364.73</ele>
        <time>2014-02-09T13:04:14Z</time>
      </trkpt>
      <trkpt lat="45.6568" lon="5.99857">
        <ele>1364.73</ele>
        <time>2014-02-09T13:04:15Z</time>
      </trkpt>
      <trkpt lat="45.65683" lon="5.99854">
        <ele>1364.73</ele>
        <time>2014-02-09T13:04:17Z</time>
      </trkpt>
      <trkpt lat="45.65685" lon="5.99852">
        <ele>1365.69</ele>
        <time>2014-02-09T13:04:18Z</time>
      </trkpt>
      <trkpt lat="45.65687" lon="5.99852">
        <ele>1365.21</ele>
        <time>2014-02-09T13:04:19Z</time>
      </trkpt>
      <trkpt lat="45.65689" lon="5.99851">
        <ele>1365.21</ele>
        <time>2014-02-09T13:04:20Z</time>
      </trkpt>
      <trkpt lat="45.65691" lon="5.9985">
        <ele>1365.69</ele>
        <time>2014-02-09T13:04:21Z</time>
      </trkpt>
      <trkpt lat="45.65693" lon="5.9985">
        <ele>1365.21</ele>
        <time>2014-02-09T13:04:22Z</time>
      </trkpt>
      <trkpt lat="45.65695" lon="5.9985">
        <ele>1365.21</ele>
        <time>2014-02-09T13:04:23Z</time>
      </trkpt>
      <trkpt lat="45.65697" lon="5.9985">
        <ele>1365.69</ele>
        <time>2014-02-09T13:04:24Z</time>
      </trkpt>
      <trkpt lat="45.65699" lon="5.9985">
        <ele>1365.69</ele>
        <time>2014-02-09T13:04:25Z</time>
      </trkpt>
      <trkpt lat="45.65701" lon="5.9985">
        <ele>1365.69</ele>
        <time>2014-02-09T13:04:26Z</time>
      </trkpt>
      <trkpt lat="45.65702" lon="5.9985">
        <ele>1365.69</ele>
        <time>2014-02-09T13:04:27Z</time>
      </trkpt>
      <trkpt lat="45.65704" lon="5.9985">
        <ele>1366.17</ele>
        <time>2014-02-09T13:04:28Z</time>
      </trkpt>
      <trkpt lat="45.65705" lon="5.99852">
        <ele>1366.17</ele>
        <time>2014-02-09T13:04:29Z</time>
      </trkpt>
      <trkpt lat="45.65706" lon="5.99852">
        <ele>1366.17</ele>
        <time>2014-02-09T13:04:30Z</time>
      </trkpt>
      <trkpt lat="45.65707" lon="5.99852">
        <ele>1365.69</ele>
        <time>2014-02-09T13:04:31Z</time>
      </trkpt>
      <trkpt lat="45.65709" lon="5.99854">
        <ele>1366.17</ele>
        <time>2014-02-09T13:04:32Z</time>
      </trkpt>
      <trkpt lat="45.65711" lon="5.99855">
        <ele>1366.17</ele>
        <time>2014-02-09T13:04:33Z</time>
      </trkpt>
      <trkpt lat="45.65715" lon="5.99857">
        <ele>1365.69</ele>
        <time>2014-02-09T13:04:35Z</time>
      </trkpt>
      <trkpt lat="45.65721" lon="5.99858">
        <ele>1365.69</ele>
        <time>2014-02-09T13:04:38Z</time>
      </trkpt>
      <trkpt lat="45.65728" lon="5.99855">
        <ele>1365.69</ele>
        <time>2014-02-09T13:04:41Z</time>
      </trkpt>
      <trkpt lat="45.65748" lon="5.99841">
        <ele>1366.17</ele>
        <time>2014-02-09T13:04:50Z</time>
      </trkpt>
      <trkpt lat="45.65749" lon="5.9984">
        <ele>1366.17</ele>
        <time>2014-02-09T13:04:51Z</time>
      </trkpt>
      <trkpt lat="45.6575" lon="5.99839">
        <ele>1366.65</ele>
        <time>2014-02-09T13:04:52Z</time>
      </trkpt>
      <trkpt lat="45.65752" lon="5.99839">
        <ele>1366.17</ele>
        <time>2014-02-09T13:04:53Z</time>
      </trkpt>
      <trkpt lat="45.65754" lon="5.99839">
        <ele>1367.13</ele>
        <time>2014-02-09T13:04:55Z</time>
      </trkpt>
      <trkpt lat="45.6576" lon="5.99833">
        <ele>1369.05</ele>
        <time>2014-02-09T13:05:01Z</time>
      </trkpt>
      <trkpt lat="45.65762" lon="5.99832">
        <ele>1369.05</ele>
        <time>2014-02-09T13:05:02Z</time>
      </trkpt>
      <trkpt lat="45.65763" lon="5.99831">
        <ele>1369.05</ele>
        <time>2014-02-09T13:05:03Z</time>
      </trkpt>
      <trkpt lat="45.65765" lon="5.99829">
        <ele>1369.05</ele>
        <time>2014-02-09T13:05:04Z</time>
      </trkpt>
      <trkpt lat="45.65766" lon="5.99827">
        <ele>1369.05</ele>
        <time>2014-02-09T13:05:05Z</time>
      </trkpt>
      <trkpt lat="45.65768" lon="5.99824">
        <ele>1368.57</ele>
        <time>2014-02-09T13:05:06Z</time>
      </trkpt>
      <trkpt lat="45.65769" lon="5.99823">
        <ele>1369.54</ele>
        <time>2014-02-09T13:05:07Z</time>
      </trkpt>
      <trkpt lat="45.6577" lon="5.99822">
        <ele>1369.05</ele>
        <time>2014-02-09T13:05:08Z</time>
      </trkpt>
      <trkpt lat="45.65772" lon="5.99821">
        <ele>1369.05</ele>
        <time>2014-02-09T13:05:09Z</time>
      </trkpt>
      <trkpt lat="45.65773" lon="5.99819">
        <ele>1369.05</ele>
        <time>2014-02-09T13:05:10Z</time>
      </trkpt>
      <trkpt lat="45.65774" lon="5.99818">
        <ele>1369.05</ele>
        <time>2014-02-09T13:05:11Z</time>
      </trkpt>
      <trkpt lat="45.65776" lon="5.99817">
        <ele>1369.05</ele>
        <time>2014-02-09T13:05:12Z</time>
      </trkpt>
      <trkpt lat="45.65777" lon="5.99816">
        <ele>1368.57</ele>
        <time>2014-02-09T13:05:13Z</time>
      </trkpt>
      <trkpt lat="45.65778" lon="5.99814">
        <ele>1368.57</ele>
        <time>2014-02-09T13:05:14Z</time>
      </trkpt>
      <trkpt lat="45.6578" lon="5.99811">
        <ele>1369.05</ele>
        <time>2014-02-09T13:05:15Z</time>
      </trkpt>
      <trkpt lat="45.65781" lon="5.9981">
        <ele>1368.57</ele>
        <time>2014-02-09T13:05:16Z</time>
      </trkpt>
      <trkpt lat="45.65783" lon="5.99807">
        <ele>1368.57</ele>
        <time>2014-02-09T13:05:17Z</time>
      </trkpt>
      <trkpt lat="45.65784" lon="5.99805">
        <ele>1368.57</ele>
        <time>2014-02-09T13:05:18Z</time>
      </trkpt>
      <trkpt lat="45.65786" lon="5.99803">
        <ele>1368.57</ele>
        <time>2014-02-09T13:05:19Z</time>
      </trkpt>
      <trkpt lat="45.65788" lon="5.99802">
        <ele>1368.57</ele>
        <time>2014-02-09T13:05:20Z</time>
      </trkpt>
      <trkpt lat="45.65789" lon="5.998">
        <ele>1368.57</ele>
        <time>2014-02-09T13:05:21Z</time>
      </trkpt>
      <trkpt lat="45.65791" lon="5.99798">
        <ele>1368.57</ele>
        <time>2014-02-09T13:05:22Z</time>
      </trkpt>
      <trkpt lat="45.65793" lon="5.99795">
        <ele>1368.09</ele>
        <time>2014-02-09T13:05:23Z</time>
      </trkpt>
      <trkpt lat="45.65795" lon="5.99793">
        <ele>1368.09</ele>
        <time>2014-02-09T13:05:24Z</time>
      </trkpt>
      <trkpt lat="45.65796" lon="5.99791">
        <ele>1368.09</ele>
        <time>2014-02-09T13:05:25Z</time>
      </trkpt>
      <trkpt lat="45.65798" lon="5.9979">
        <ele>1368.09</ele>
        <time>2014-02-09T13:05:26Z</time>
      </trkpt>
      <trkpt lat="45.658" lon="5.99788">
        <ele>1368.09</ele>
        <time>2014-02-09T13:05:27Z</time>
      </trkpt>
      <trkpt lat="45.65802" lon="5.99787">
        <ele>1368.09</ele>
        <time>2014-02-09T13:05:28Z</time>
      </trkpt>
      <trkpt lat="45.65803" lon="5.99786">
        <ele>1368.09</ele>
        <time>2014-02-09T13:05:29Z</time>
      </trkpt>
      <trkpt lat="45.65805" lon="5.99786">
        <ele>1368.09</ele>
        <time>2014-02-09T13:05:30Z</time>
      </trkpt>
      <trkpt lat="45.65807" lon="5.99785">
        <ele>1367.13</ele>
        <time>2014-02-09T13:05:31Z</time>
      </trkpt>
      <trkpt lat="45.65822" lon="5.99775">
        <ele>1367.61</ele>
        <time>2014-02-09T13:05:37Z</time>
      </trkpt>
      <trkpt lat="45.65829" lon="5.99762">
        <ele>1368.57</ele>
        <time>2014-02-09T13:05:43Z</time>
      </trkpt>
      <trkpt lat="45.65829" lon="5.99759">
        <ele>1369.05</ele>
        <time>2014-02-09T13:05:44Z</time>
      </trkpt>
      <trkpt lat="45.65831" lon="5.99757">
        <ele>1369.54</ele>
        <time>2014-02-09T13:05:45Z</time>
      </trkpt>
      <trkpt lat="45.65832" lon="5.99755">
        <ele>1369.05</ele>
        <time>2014-02-09T13:05:46Z</time>
      </trkpt>
      <trkpt lat="45.65832" lon="5.99753">
        <ele>1369.54</ele>
        <time>2014-02-09T13:05:47Z</time>
      </trkpt>
      <trkpt lat="45.65833" lon="5.9975">
        <ele>1369.54</ele>
        <time>2014-02-09T13:05:48Z</time>
      </trkpt>
      <trkpt lat="45.65834" lon="5.99747">
        <ele>1369.54</ele>
        <time>2014-02-09T13:05:49Z</time>
      </trkpt>
      <trkpt lat="45.65835" lon="5.99744">
        <ele>1369.54</ele>
        <time>2014-02-09T13:05:50Z</time>
      </trkpt>
      <trkpt lat="45.65835" lon="5.99741">
        <ele>1369.54</ele>
        <time>2014-02-09T13:05:51Z</time>
      </trkpt>
      <trkpt lat="45.65836" lon="5.99739">
        <ele>1370.02</ele>
        <time>2014-02-09T13:05:52Z</time>
      </trkpt>
      <trkpt lat="45.65837" lon="5.99735">
        <ele>1369.05</ele>
        <time>2014-02-09T13:05:53Z</time>
      </trkpt>
      <trkpt lat="45.65837" lon="5.99731">
        <ele>1369.05</ele>
        <time>2014-02-09T13:05:54Z</time>
      </trkpt>
      <trkpt lat="45.65838" lon="5.99718">
        <ele>1368.09</ele>
        <time>2014-02-09T13:05:57Z</time>
      </trkpt>
      <trkpt lat="45.65845" lon="5.99675">
        <ele>1368.57</ele>
        <time>2014-02-09T13:06:07Z</time>
      </trkpt>
      <trkpt lat="45.65844" lon="5.99673">
        <ele>1368.57</ele>
        <time>2014-02-09T13:06:08Z</time>
      </trkpt>
      <trkpt lat="45.65844" lon="5.99672">
        <ele>1368.57</ele>
        <time>2014-02-09T13:06:09Z</time>
      </trkpt>
      <trkpt lat="45.65844" lon="5.99668">
        <ele>1369.05</ele>
        <time>2014-02-09T13:06:11Z</time>
      </trkpt>
      <trkpt lat="45.65844" lon="5.99664">
        <ele>1369.54</ele>
        <time>2014-02-09T13:06:13Z</time>
      </trkpt>
      <trkpt lat="45.65844" lon="5.99662">
        <ele>1369.54</ele>
        <time>2014-02-09T13:06:14Z</time>
      </trkpt>
      <trkpt lat="45.65843" lon="5.99659">
        <ele>1370.02</ele>
        <time>2014-02-09T13:06:15Z</time>
      </trkpt>
      <trkpt lat="45.65843" lon="5.99657">
        <ele>1370.02</ele>
        <time>2014-02-09T13:06:16Z</time>
      </trkpt>
      <trkpt lat="45.65843" lon="5.99654">
        <ele>1369.54</ele>
        <time>2014-02-09T13:06:17Z</time>
      </trkpt>
      <trkpt lat="45.65842" lon="5.99651">
        <ele>1369.54</ele>
        <time>2014-02-09T13:06:18Z</time>
      </trkpt>
      <trkpt lat="45.65842" lon="5.99648">
        <ele>1370.02</ele>
        <time>2014-02-09T13:06:19Z</time>
      </trkpt>
      <trkpt lat="45.65838" lon="5.99635">
        <ele>1370.02</ele>
        <time>2014-02-09T13:06:24Z</time>
      </trkpt>
      <trkpt lat="45.65837" lon="5.99633">
        <ele>1370.02</ele>
        <time>2014-02-09T13:06:25Z</time>
      </trkpt>
      <trkpt lat="45.65836" lon="5.99631">
        <ele>1370.5</ele>
        <time>2014-02-09T13:06:26Z</time>
      </trkpt>
      <trkpt lat="45.65836" lon="5.9963">
        <ele>1370.02</ele>
        <time>2014-02-09T13:06:27Z</time>
      </trkpt>
      <trkpt lat="45.65835" lon="5.99629">
        <ele>1370.5</ele>
        <time>2014-02-09T13:06:28Z</time>
      </trkpt>
      <trkpt lat="45.65834" lon="5.99626">
        <ele>1370.5</ele>
        <time>2014-02-09T13:06:29Z</time>
      </trkpt>
      <trkpt lat="45.65834" lon="5.99623">
        <ele>1370.98</ele>
        <time>2014-02-09T13:06:30Z</time>
      </trkpt>
      <trkpt lat="45.65833" lon="5.99614">
        <ele>1370.5</ele>
        <time>2014-02-09T13:06:33Z</time>
      </trkpt>
      <trkpt lat="45.65833" lon="5.9961">
        <ele>1370.5</ele>
        <time>2014-02-09T13:06:34Z</time>
      </trkpt>
      <trkpt lat="45.65833" lon="5.99605">
        <ele>1370.5</ele>
        <time>2014-02-09T13:06:35Z</time>
      </trkpt>
      <trkpt lat="45.65839" lon="5.99584">
        <ele>1370.5</ele>
        <time>2014-02-09T13:06:41Z</time>
      </trkpt>
      <trkpt lat="45.6584" lon="5.99581">
        <ele>1370.5</ele>
        <time>2014-02-09T13:06:42Z</time>
      </trkpt>
      <trkpt lat="45.65841" lon="5.99579">
        <ele>1370.5</ele>
        <time>2014-02-09T13:06:43Z</time>
      </trkpt>
      <trkpt lat="45.65842" lon="5.99576">
        <ele>1370.5</ele>
        <time>2014-02-09T13:06:44Z</time>
      </trkpt>
      <trkpt lat="45.65843" lon="5.99572">
        <ele>1370.5</ele>
        <time>2014-02-09T13:06:45Z</time>
      </trkpt>
      <trkpt lat="45.65844" lon="5.99569">
        <ele>1370.5</ele>
        <time>2014-02-09T13:06:46Z</time>
      </trkpt>
      <trkpt lat="45.65845" lon="5.99566">
        <ele>1370.98</ele>
        <time>2014-02-09T13:06:47Z</time>
      </trkpt>
      <trkpt lat="45.65845" lon="5.99563">
        <ele>1370.98</ele>
        <time>2014-02-09T13:06:48Z</time>
      </trkpt>
      <trkpt lat="45.65846" lon="5.9956">
        <ele>1370.98</ele>
        <time>2014-02-09T13:06:49Z</time>
      </trkpt>
      <trkpt lat="45.65846" lon="5.99557">
        <ele>1370.98</ele>
        <time>2014-02-09T13:06:50Z</time>
      </trkpt>
      <trkpt lat="45.65847" lon="5.99553">
        <ele>1370.5</ele>
        <time>2014-02-09T13:06:51Z</time>
      </trkpt>
      <trkpt lat="45.65848" lon="5.9955">
        <ele>1370.98</ele>
        <time>2014-02-09T13:06:52Z</time>
      </trkpt>
      <trkpt lat="45.65848" lon="5.99547">
        <ele>1370.5</ele>
        <time>2014-02-09T13:06:53Z</time>
      </trkpt>
      <trkpt lat="45.65848" lon="5.99544">
        <ele>1370.98</ele>
        <time>2014-02-09T13:06:54Z</time>
      </trkpt>
      <trkpt lat="45.65849" lon="5.99541">
        <ele>1370.5</ele>
        <time>2014-02-09T13:06:55Z</time>
      </trkpt>
      <trkpt lat="45.6585" lon="5.99538">
        <ele>1370.98</ele>
        <time>2014-02-09T13:06:56Z</time>
      </trkpt>
      <trkpt lat="45.6585" lon="5.99535">
        <ele>1370.98</ele>
        <time>2014-02-09T13:06:57Z</time>
      </trkpt>
      <trkpt lat="45.6585" lon="5.99532">
        <ele>1371.46</ele>
        <time>2014-02-09T13:06:58Z</time>
      </trkpt>
      <trkpt lat="45.65851" lon="5.9953">
        <ele>1370.98</ele>
        <time>2014-02-09T13:06:59Z</time>
      </trkpt>
      <trkpt lat="45.65852" lon="5.99528">
        <ele>1371.46</ele>
        <time>2014-02-09T13:07:00Z</time>
      </trkpt>
      <trkpt lat="45.65852" lon="5.99526">
        <ele>1371.46</ele>
        <time>2014-02-09T13:07:01Z</time>
      </trkpt>
      <trkpt lat="45.65852" lon="5.99522">
        <ele>1371.46</ele>
        <time>2014-02-09T13:07:02Z</time>
      </trkpt>
      <trkpt lat="45.65853" lon="5.99518">
        <ele>1371.46</ele>
        <time>2014-02-09T13:07:03Z</time>
      </trkpt>
      <trkpt lat="45.65853" lon="5.99515">
        <ele>1371.46</ele>
        <time>2014-02-09T13:07:04Z</time>
      </trkpt>
      <trkpt lat="45.65852" lon="5.99513">
        <ele>1371.46</ele>
        <time>2014-02-09T13:07:05Z</time>
      </trkpt>
      <trkpt lat="45.65852" lon="5.99511">
        <ele>1371.46</ele>
        <time>2014-02-09T13:07:06Z</time>
      </trkpt>
      <trkpt lat="45.65851" lon="5.9951">
        <ele>1371.94</ele>
        <time>2014-02-09T13:07:07Z</time>
      </trkpt>
      <trkpt lat="45.65844" lon="5.99501">
        <ele>1371.94</ele>
        <time>2014-02-09T13:07:14Z</time>
      </trkpt>
      <trkpt lat="45.65844" lon="5.99496">
        <ele>1371.46</ele>
        <time>2014-02-09T13:07:15Z</time>
      </trkpt>
      <trkpt lat="45.65844" lon="5.99492">
        <ele>1371.94</ele>
        <time>2014-02-09T13:07:16Z</time>
      </trkpt>
      <trkpt lat="45.65837" lon="5.99453">
        <ele>1370.98</ele>
        <time>2014-02-09T13:07:26Z</time>
      </trkpt>
      <trkpt lat="45.65837" lon="5.9945">
        <ele>1371.46</ele>
        <time>2014-02-09T13:07:27Z</time>
      </trkpt>
      <trkpt lat="45.65837" lon="5.99448">
        <ele>1371.94</ele>
        <time>2014-02-09T13:07:28Z</time>
      </trkpt>
      <trkpt lat="45.65838" lon="5.99445">
        <ele>1371.94</ele>
        <time>2014-02-09T13:07:29Z</time>
      </trkpt>
      <trkpt lat="45.65837" lon="5.99442">
        <ele>1371.94</ele>
        <time>2014-02-09T13:07:30Z</time>
      </trkpt>
      <trkpt lat="45.65836" lon="5.99439">
        <ele>1371.94</ele>
        <time>2014-02-09T13:07:31Z</time>
      </trkpt>
      <trkpt lat="45.65836" lon="5.99437">
        <ele>1371.94</ele>
        <time>2014-02-09T13:07:32Z</time>
      </trkpt>
      <trkpt lat="45.65836" lon="5.99434">
        <ele>1371.94</ele>
        <time>2014-02-09T13:07:33Z</time>
      </trkpt>
      <trkpt lat="45.65836" lon="5.9943">
        <ele>1372.42</ele>
        <time>2014-02-09T13:07:34Z</time>
      </trkpt>
      <trkpt lat="45.65834" lon="5.9942">
        <ele>1372.42</ele>
        <time>2014-02-09T13:07:38Z</time>
      </trkpt>
      <trkpt lat="45.65833" lon="5.99416">
        <ele>1372.42</ele>
        <time>2014-02-09T13:07:39Z</time>
      </trkpt>
      <trkpt lat="45.65833" lon="5.99413">
        <ele>1371.94</ele>
        <time>2014-02-09T13:07:40Z</time>
      </trkpt>
      <trkpt lat="45.65829" lon="5.99388">
        <ele>1371.94</ele>
        <time>2014-02-09T13:07:48Z</time>
      </trkpt>
      <trkpt lat="45.65827" lon="5.99382">
        <ele>1372.9</ele>
        <time>2014-02-09T13:07:51Z</time>
      </trkpt>
      <trkpt lat="45.65828" lon="5.9938">
        <ele>1372.9</ele>
        <time>2014-02-09T13:07:52Z</time>
      </trkpt>
      <trkpt lat="45.65829" lon="5.99376">
        <ele>1372.42</ele>
        <time>2014-02-09T13:07:53Z</time>
      </trkpt>
      <trkpt lat="45.65829" lon="5.99373">
        <ele>1372.9</ele>
        <time>2014-02-09T13:07:54Z</time>
      </trkpt>
      <trkpt lat="45.6583" lon="5.9937">
        <ele>1372.9</ele>
        <time>2014-02-09T13:07:55Z</time>
      </trkpt>
      <trkpt lat="45.65831" lon="5.99366">
        <ele>1373.38</ele>
        <time>2014-02-09T13:07:56Z</time>
      </trkpt>
      <trkpt lat="45.65832" lon="5.99362">
        <ele>1372.9</ele>
        <time>2014-02-09T13:07:57Z</time>
      </trkpt>
      <trkpt lat="45.65833" lon="5.99355">
        <ele>1372.9</ele>
        <time>2014-02-09T13:07:59Z</time>
      </trkpt>
      <trkpt lat="45.65833" lon="5.99352">
        <ele>1373.38</ele>
        <time>2014-02-09T13:08:00Z</time>
      </trkpt>
      <trkpt lat="45.65834" lon="5.99348">
        <ele>1372.42</ele>
        <time>2014-02-09T13:08:01Z</time>
      </trkpt>
      <trkpt lat="45.65835" lon="5.99343">
        <ele>1372.9</ele>
        <time>2014-02-09T13:08:02Z</time>
      </trkpt>
      <trkpt lat="45.65836" lon="5.99339">
        <ele>1372.42</ele>
        <time>2014-02-09T13:08:03Z</time>
      </trkpt>
      <trkpt lat="45.65837" lon="5.99335">
        <ele>1372.9</ele>
        <time>2014-02-09T13:08:04Z</time>
      </trkpt>
      <trkpt lat="45.65838" lon="5.99331">
        <ele>1372.9</ele>
        <time>2014-02-09T13:08:05Z</time>
      </trkpt>
      <trkpt lat="45.65839" lon="5.99326">
        <ele>1372.9</ele>
        <time>2014-02-09T13:08:06Z</time>
      </trkpt>
      <trkpt lat="45.6584" lon="5.99322">
        <ele>1372.9</ele>
        <time>2014-02-09T13:08:07Z</time>
      </trkpt>
      <trkpt lat="45.65841" lon="5.99318">
        <ele>1373.38</ele>
        <time>2014-02-09T13:08:08Z</time>
      </trkpt>
      <trkpt lat="45.65843" lon="5.99315">
        <ele>1372.9</ele>
        <time>2014-02-09T13:08:09Z</time>
      </trkpt>
      <trkpt lat="45.65844" lon="5.99311">
        <ele>1373.38</ele>
        <time>2014-02-09T13:08:10Z</time>
      </trkpt>
      <trkpt lat="45.65844" lon="5.99308">
        <ele>1373.38</ele>
        <time>2014-02-09T13:08:11Z</time>
      </trkpt>
      <trkpt lat="45.65845" lon="5.99305">
        <ele>1372.9</ele>
        <time>2014-02-09T13:08:12Z</time>
      </trkpt>
      <trkpt lat="45.65847" lon="5.99302">
        <ele>1373.38</ele>
        <time>2014-02-09T13:08:13Z</time>
      </trkpt>
      <trkpt lat="45.65848" lon="5.993">
        <ele>1373.86</ele>
        <time>2014-02-09T13:08:14Z</time>
      </trkpt>
      <trkpt lat="45.65849" lon="5.99297">
        <ele>1373.38</ele>
        <time>2014-02-09T13:08:15Z</time>
      </trkpt>
      <trkpt lat="45.65851" lon="5.99293">
        <ele>1373.38</ele>
        <time>2014-02-09T13:08:16Z</time>
      </trkpt>
      <trkpt lat="45.65852" lon="5.9929">
        <ele>1373.38</ele>
        <time>2014-02-09T13:08:17Z</time>
      </trkpt>
      <trkpt lat="45.65853" lon="5.99287">
        <ele>1373.38</ele>
        <time>2014-02-09T13:08:18Z</time>
      </trkpt>
      <trkpt lat="45.65865" lon="5.9925">
        <ele>1371.94</ele>
        <time>2014-02-09T13:08:28Z</time>
      </trkpt>
      <trkpt lat="45.65866" lon="5.99244">
        <ele>1371.46</ele>
        <time>2014-02-09T13:08:30Z</time>
      </trkpt>
      <trkpt lat="45.65867" lon="5.9924">
        <ele>1372.42</ele>
        <time>2014-02-09T13:08:31Z</time>
      </trkpt>
      <trkpt lat="45.65868" lon="5.99236">
        <ele>1371.94</ele>
        <time>2014-02-09T13:08:32Z</time>
      </trkpt>
      <trkpt lat="45.65869" lon="5.99232">
        <ele>1371.94</ele>
        <time>2014-02-09T13:08:33Z</time>
      </trkpt>
      <trkpt lat="45.6587" lon="5.99229">
        <ele>1372.42</ele>
        <time>2014-02-09T13:08:34Z</time>
      </trkpt>
      <trkpt lat="45.6587" lon="5.99225">
        <ele>1371.94</ele>
        <time>2014-02-09T13:08:35Z</time>
      </trkpt>
      <trkpt lat="45.65871" lon="5.99221">
        <ele>1371.94</ele>
        <time>2014-02-09T13:08:36Z</time>
      </trkpt>
      <trkpt lat="45.65871" lon="5.99217">
        <ele>1371.94</ele>
        <time>2014-02-09T13:08:37Z</time>
      </trkpt>
      <trkpt lat="45.65871" lon="5.99214">
        <ele>1372.42</ele>
        <time>2014-02-09T13:08:38Z</time>
      </trkpt>
      <trkpt lat="45.65871" lon="5.99211">
        <ele>1372.42</ele>
        <time>2014-02-09T13:08:39Z</time>
      </trkpt>
      <trkpt lat="45.6587" lon="5.99208">
        <ele>1371.94</ele>
        <time>2014-02-09T13:08:40Z</time>
      </trkpt>
      <trkpt lat="45.6587" lon="5.99205">
        <ele>1371.94</ele>
        <time>2014-02-09T13:08:41Z</time>
      </trkpt>
      <trkpt lat="45.65866" lon="5.99183">
        <ele>1372.9</ele>
        <time>2014-02-09T13:08:48Z</time>
      </trkpt>
      <trkpt lat="45.65866" lon="5.99181">
        <ele>1373.38</ele>
        <time>2014-02-09T13:08:49Z</time>
      </trkpt>
      <trkpt lat="45.65865" lon="5.9918">
        <ele>1373.38</ele>
        <time>2014-02-09T13:08:50Z</time>
      </trkpt>
      <trkpt lat="45.65865" lon="5.99178">
        <ele>1372.9</ele>
        <time>2014-02-09T13:08:51Z</time>
      </trkpt>
      <trkpt lat="45.65864" lon="5.99176">
        <ele>1373.38</ele>
        <time>2014-02-09T13:08:52Z</time>
      </trkpt>
      <trkpt lat="45.65864" lon="5.99173">
        <ele>1373.86</ele>
        <time>2014-02-09T13:08:53Z</time>
      </trkpt>
      <trkpt lat="45.65863" lon="5.99171">
        <ele>1373.86</ele>
        <time>2014-02-09T13:08:54Z</time>
      </trkpt>
      <trkpt lat="45.65862" lon="5.99168">
        <ele>1374.34</ele>
        <time>2014-02-09T13:08:55Z</time>
      </trkpt>
      <trkpt lat="45.65862" lon="5.99165">
        <ele>1374.34</ele>
        <time>2014-02-09T13:08:56Z</time>
      </trkpt>
      <trkpt lat="45.65861" lon="5.99163">
        <ele>1374.34</ele>
        <time>2014-02-09T13:08:57Z</time>
      </trkpt>
      <trkpt lat="45.65861" lon="5.99161">
        <ele>1374.34</ele>
        <time>2014-02-09T13:08:58Z</time>
      </trkpt>
      <trkpt lat="45.6586" lon="5.99158">
        <ele>1374.34</ele>
        <time>2014-02-09T13:08:59Z</time>
      </trkpt>
      <trkpt lat="45.65859" lon="5.99156">
        <ele>1374.34</ele>
        <time>2014-02-09T13:09:00Z</time>
      </trkpt>
      <trkpt lat="45.6586" lon="5.99152">
        <ele>1374.34</ele>
        <time>2014-02-09T13:09:01Z</time>
      </trkpt>
      <trkpt lat="45.65859" lon="5.9915">
        <ele>1374.82</ele>
        <time>2014-02-09T13:09:02Z</time>
      </trkpt>
      <trkpt lat="45.65859" lon="5.99147">
        <ele>1374.82</ele>
        <time>2014-02-09T13:09:03Z</time>
      </trkpt>
      <trkpt lat="45.65859" lon="5.99145">
        <ele>1374.82</ele>
        <time>2014-02-09T13:09:04Z</time>
      </trkpt>
      <trkpt lat="45.65858" lon="5.99142">
        <ele>1374.82</ele>
        <time>2014-02-09T13:09:05Z</time>
      </trkpt>
      <trkpt lat="45.65857" lon="5.99136">
        <ele>1374.82</ele>
        <time>2014-02-09T13:09:07Z</time>
      </trkpt>
      <trkpt lat="45.65855" lon="5.99133">
        <ele>1374.82</ele>
        <time>2014-02-09T13:09:08Z</time>
      </trkpt>
      <trkpt lat="45.65854" lon="5.9913">
        <ele>1375.3</ele>
        <time>2014-02-09T13:09:09Z</time>
      </trkpt>
      <trkpt lat="45.65845" lon="5.99092">
        <ele>1374.34</ele>
        <time>2014-02-09T13:09:20Z</time>
      </trkpt>
      <trkpt lat="45.65843" lon="5.99081">
        <ele>1374.82</ele>
        <time>2014-02-09T13:09:26Z</time>
      </trkpt>
      <trkpt lat="45.65843" lon="5.99079">
        <ele>1375.3</ele>
        <time>2014-02-09T13:09:27Z</time>
      </trkpt>
      <trkpt lat="45.65842" lon="5.99078">
        <ele>1375.3</ele>
        <time>2014-02-09T13:09:28Z</time>
      </trkpt>
      <trkpt lat="45.65839" lon="5.9907">
        <ele>1375.78</ele>
        <time>2014-02-09T13:09:32Z</time>
      </trkpt>
      <trkpt lat="45.65837" lon="5.99069">
        <ele>1376.26</ele>
        <time>2014-02-09T13:09:33Z</time>
      </trkpt>
      <trkpt lat="45.65836" lon="5.99067">
        <ele>1375.78</ele>
        <time>2014-02-09T13:09:34Z</time>
      </trkpt>
      <trkpt lat="45.65835" lon="5.99064">
        <ele>1375.78</ele>
        <time>2014-02-09T13:09:35Z</time>
      </trkpt>
      <trkpt lat="45.65833" lon="5.99062">
        <ele>1375.78</ele>
        <time>2014-02-09T13:09:36Z</time>
      </trkpt>
      <trkpt lat="45.65831" lon="5.9906">
        <ele>1376.26</ele>
        <time>2014-02-09T13:09:37Z</time>
      </trkpt>
      <trkpt lat="45.65829" lon="5.99058">
        <ele>1376.26</ele>
        <time>2014-02-09T13:09:38Z</time>
      </trkpt>
      <trkpt lat="45.65828" lon="5.99056">
        <ele>1376.26</ele>
        <time>2014-02-09T13:09:39Z</time>
      </trkpt>
      <trkpt lat="45.65827" lon="5.99052">
        <ele>1376.26</ele>
        <time>2014-02-09T13:09:40Z</time>
      </trkpt>
      <trkpt lat="45.6582" lon="5.99019">
        <ele>1377.71</ele>
        <time>2014-02-09T13:09:51Z</time>
      </trkpt>
      <trkpt lat="45.65819" lon="5.99017">
        <ele>1377.23</ele>
        <time>2014-02-09T13:09:52Z</time>
      </trkpt>
      <trkpt lat="45.65819" lon="5.99014">
        <ele>1377.23</ele>
        <time>2014-02-09T13:09:53Z</time>
      </trkpt>
      <trkpt lat="45.65818" lon="5.99011">
        <ele>1377.23</ele>
        <time>2014-02-09T13:09:54Z</time>
      </trkpt>
      <trkpt lat="45.65818" lon="5.99008">
        <ele>1377.23</ele>
        <time>2014-02-09T13:09:55Z</time>
      </trkpt>
      <trkpt lat="45.65817" lon="5.99005">
        <ele>1376.75</ele>
        <time>2014-02-09T13:09:56Z</time>
      </trkpt>
      <trkpt lat="45.65817" lon="5.99002">
        <ele>1376.75</ele>
        <time>2014-02-09T13:09:57Z</time>
      </trkpt>
      <trkpt lat="45.65814" lon="5.98992">
        <ele>1376.75</ele>
        <time>2014-02-09T13:10:00Z</time>
      </trkpt>
      <trkpt lat="45.65814" lon="5.98989">
        <ele>1377.23</ele>
        <time>2014-02-09T13:10:01Z</time>
      </trkpt>
      <trkpt lat="45.6581" lon="5.98977">
        <ele>1377.23</ele>
        <time>2014-02-09T13:10:06Z</time>
      </trkpt>
      <trkpt lat="45.65809" lon="5.98975">
        <ele>1378.19</ele>
        <time>2014-02-09T13:10:07Z</time>
      </trkpt>
      <trkpt lat="45.65807" lon="5.9897">
        <ele>1377.71</ele>
        <time>2014-02-09T13:10:09Z</time>
      </trkpt>
      <trkpt lat="45.65807" lon="5.98967">
        <ele>1378.19</ele>
        <time>2014-02-09T13:10:10Z</time>
      </trkpt>
      <trkpt lat="45.65806" lon="5.98964">
        <ele>1378.19</ele>
        <time>2014-02-09T13:10:11Z</time>
      </trkpt>
      <trkpt lat="45.65803" lon="5.98956">
        <ele>1378.19</ele>
        <time>2014-02-09T13:10:15Z</time>
      </trkpt>
      <trkpt lat="45.65803" lon="5.98953">
        <ele>1378.67</ele>
        <time>2014-02-09T13:10:16Z</time>
      </trkpt>
      <trkpt lat="45.65803" lon="5.98951">
        <ele>1378.67</ele>
        <time>2014-02-09T13:10:17Z</time>
      </trkpt>
      <trkpt lat="45.65802" lon="5.9895">
        <ele>1379.15</ele>
        <time>2014-02-09T13:10:18Z</time>
      </trkpt>
      <trkpt lat="45.65802" lon="5.98948">
        <ele>1379.15</ele>
        <time>2014-02-09T13:10:19Z</time>
      </trkpt>
      <trkpt lat="45.65802" lon="5.98945">
        <ele>1379.15</ele>
        <time>2014-02-09T13:10:20Z</time>
      </trkpt>
      <trkpt lat="45.658" lon="5.98938">
        <ele>1379.63</ele>
        <time>2014-02-09T13:10:23Z</time>
      </trkpt>
      <trkpt lat="45.65805" lon="5.98925">
        <ele>1380.11</ele>
        <time>2014-02-09T13:10:36Z</time>
      </trkpt>
      <trkpt lat="45.6581" lon="5.98924">
        <ele>1379.15</ele>
        <time>2014-02-09T13:11:06Z</time>
      </trkpt>
      <trkpt lat="45.65807" lon="5.98918">
        <ele>1379.63</ele>
        <time>2014-02-09T13:11:42Z</time>
      </trkpt>
      <trkpt lat="45.65802" lon="5.98914">
        <ele>1379.63</ele>
        <time>2014-02-09T13:11:55Z</time>
      </trkpt>
      <trkpt lat="45.65801" lon="5.98913">
        <ele>1379.15</ele>
        <time>2014-02-09T13:11:56Z</time>
      </trkpt>
      <trkpt lat="45.658" lon="5.98911">
        <ele>1379.63</ele>
        <time>2014-02-09T13:11:57Z</time>
      </trkpt>
      <trkpt lat="45.65791" lon="5.98873">
        <ele>1376.75</ele>
        <time>2014-02-09T13:12:07Z</time>
      </trkpt>
      <trkpt lat="45.65789" lon="5.98868">
        <ele>1376.75</ele>
        <time>2014-02-09T13:12:08Z</time>
      </trkpt>
      <trkpt lat="45.65782" lon="5.98814">
        <ele>1375.78</ele>
        <time>2014-02-09T13:12:20Z</time>
      </trkpt>
      <trkpt lat="45.65781" lon="5.9881">
        <ele>1376.26</ele>
        <time>2014-02-09T13:12:22Z</time>
      </trkpt>
      <trkpt lat="45.65781" lon="5.98808">
        <ele>1376.26</ele>
        <time>2014-02-09T13:12:23Z</time>
      </trkpt>
      <trkpt lat="45.6578" lon="5.98805">
        <ele>1376.75</ele>
        <time>2014-02-09T13:12:24Z</time>
      </trkpt>
      <trkpt lat="45.6578" lon="5.98802">
        <ele>1376.75</ele>
        <time>2014-02-09T13:12:25Z</time>
      </trkpt>
      <trkpt lat="45.65779" lon="5.988">
        <ele>1377.23</ele>
        <time>2014-02-09T13:12:26Z</time>
      </trkpt>
      <trkpt lat="45.65779" lon="5.98795">
        <ele>1377.71</ele>
        <time>2014-02-09T13:12:27Z</time>
      </trkpt>
      <trkpt lat="45.65779" lon="5.9879">
        <ele>1377.23</ele>
        <time>2014-02-09T13:12:28Z</time>
      </trkpt>
      <trkpt lat="45.65778" lon="5.98787">
        <ele>1377.71</ele>
        <time>2014-02-09T13:12:29Z</time>
      </trkpt>
      <trkpt lat="45.65775" lon="5.98749">
        <ele>1378.19</ele>
        <time>2014-02-09T13:12:40Z</time>
      </trkpt>
      <trkpt lat="45.65775" lon="5.98718">
        <ele>1378.19</ele>
        <time>2014-02-09T13:12:49Z</time>
      </trkpt>
      <trkpt lat="45.65767" lon="5.98682">
        <ele>1376.75</ele>
        <time>2014-02-09T13:12:58Z</time>
      </trkpt>
      <trkpt lat="45.65762" lon="5.98654">
        <ele>1376.75</ele>
        <time>2014-02-09T13:13:05Z</time>
      </trkpt>
      <trkpt lat="45.65762" lon="5.98642">
        <ele>1377.71</ele>
        <time>2014-02-09T13:13:09Z</time>
      </trkpt>
      <trkpt lat="45.65763" lon="5.98639">
        <ele>1377.23</ele>
        <time>2014-02-09T13:13:10Z</time>
      </trkpt>
      <trkpt lat="45.65764" lon="5.98635">
        <ele>1377.71</ele>
        <time>2014-02-09T13:13:11Z</time>
      </trkpt>
      <trkpt lat="45.65764" lon="5.9863">
        <ele>1377.71</ele>
        <time>2014-02-09T13:13:12Z</time>
      </trkpt>
      <trkpt lat="45.65764" lon="5.98626">
        <ele>1377.71</ele>
        <time>2014-02-09T13:13:13Z</time>
      </trkpt>
      <trkpt lat="45.65765" lon="5.98623">
        <ele>1377.71</ele>
        <time>2014-02-09T13:13:14Z</time>
      </trkpt>
      <trkpt lat="45.65765" lon="5.98618">
        <ele>1377.71</ele>
        <time>2014-02-09T13:13:15Z</time>
      </trkpt>
      <trkpt lat="45.65764" lon="5.98614">
        <ele>1377.71</ele>
        <time>2014-02-09T13:13:16Z</time>
      </trkpt>
      <trkpt lat="45.65764" lon="5.9861">
        <ele>1378.19</ele>
        <time>2014-02-09T13:13:17Z</time>
      </trkpt>
      <trkpt lat="45.65764" lon="5.98607">
        <ele>1377.71</ele>
        <time>2014-02-09T13:13:18Z</time>
      </trkpt>
      <trkpt lat="45.65764" lon="5.98604">
        <ele>1378.19</ele>
        <time>2014-02-09T13:13:19Z</time>
      </trkpt>
      <trkpt lat="45.65763" lon="5.98602">
        <ele>1378.19</ele>
        <time>2014-02-09T13:13:20Z</time>
      </trkpt>
      <trkpt lat="45.65762" lon="5.98599">
        <ele>1378.19</ele>
        <time>2014-02-09T13:13:21Z</time>
      </trkpt>
      <trkpt lat="45.65762" lon="5.98596">
        <ele>1378.19</ele>
        <time>2014-02-09T13:13:22Z</time>
      </trkpt>
      <trkpt lat="45.65761" lon="5.98593">
        <ele>1378.19</ele>
        <time>2014-02-09T13:13:23Z</time>
      </trkpt>
      <trkpt lat="45.6576" lon="5.9859">
        <ele>1377.71</ele>
        <time>2014-02-09T13:13:24Z</time>
      </trkpt>
      <trkpt lat="45.65758" lon="5.98582">
        <ele>1379.15</ele>
        <time>2014-02-09T13:13:28Z</time>
      </trkpt>
      <trkpt lat="45.65754" lon="5.98578">
        <ele>1379.63</ele>
        <time>2014-02-09T13:13:32Z</time>
      </trkpt>
      <trkpt lat="45.65753" lon="5.98577">
        <ele>1379.63</ele>
        <time>2014-02-09T13:13:33Z</time>
      </trkpt>
      <trkpt lat="45.65752" lon="5.98576">
        <ele>1379.63</ele>
        <time>2014-02-09T13:13:34Z</time>
      </trkpt>
      <trkpt lat="45.65751" lon="5.98574">
        <ele>1380.11</ele>
        <time>2014-02-09T13:13:35Z</time>
      </trkpt>
      <trkpt lat="45.65748" lon="5.98569">
        <ele>1381.07</ele>
        <time>2014-02-09T13:13:40Z</time>
      </trkpt>
      <trkpt lat="45.6575" lon="5.98554">
        <ele>1381.07</ele>
        <time>2014-02-09T13:13:55Z</time>
      </trkpt>
      <trkpt lat="45.65751" lon="5.98553">
        <ele>1380.59</ele>
        <time>2014-02-09T13:14:17Z</time>
      </trkpt>
      <trkpt lat="45.65745" lon="5.98547">
        <ele>1380.59</ele>
        <time>2014-02-09T13:14:46Z</time>
      </trkpt>
      <trkpt lat="45.65749" lon="5.98541">
        <ele>1381.07</ele>
        <time>2014-02-09T13:15:16Z</time>
      </trkpt>
      <trkpt lat="45.65745" lon="5.98541">
        <ele>1381.07</ele>
        <time>2014-02-09T13:15:43Z</time>
      </trkpt>
      <trkpt lat="45.65744" lon="5.9854">
        <ele>1381.55</ele>
        <time>2014-02-09T13:15:44Z</time>
      </trkpt>
      <trkpt lat="45.65743" lon="5.98539">
        <ele>1381.07</ele>
        <time>2014-02-09T13:15:45Z</time>
      </trkpt>
      <trkpt lat="45.65742" lon="5.98539">
        <ele>1381.07</ele>
        <time>2014-02-09T13:15:46Z</time>
      </trkpt>
      <trkpt lat="45.6574" lon="5.9854">
        <ele>1381.07</ele>
        <time>2014-02-09T13:15:47Z</time>
      </trkpt>
      <trkpt lat="45.65738" lon="5.9854">
        <ele>1381.55</ele>
        <time>2014-02-09T13:15:48Z</time>
      </trkpt>
      <trkpt lat="45.65736" lon="5.9854">
        <ele>1381.55</ele>
        <time>2014-02-09T13:15:49Z</time>
      </trkpt>
      <trkpt lat="45.65735" lon="5.9854">
        <ele>1381.55</ele>
        <time>2014-02-09T13:15:50Z</time>
      </trkpt>
      <trkpt lat="45.65733" lon="5.98539">
        <ele>1382.03</ele>
        <time>2014-02-09T13:15:51Z</time>
      </trkpt>
      <trkpt lat="45.65732" lon="5.9854">
        <ele>1381.55</ele>
        <time>2014-02-09T13:15:52Z</time>
      </trkpt>
      <trkpt lat="45.65731" lon="5.98541">
        <ele>1381.55</ele>
        <time>2014-02-09T13:15:53Z</time>
      </trkpt>
      <trkpt lat="45.65729" lon="5.98541">
        <ele>1382.03</ele>
        <time>2014-02-09T13:15:54Z</time>
      </trkpt>
      <trkpt lat="45.65728" lon="5.98542">
        <ele>1382.03</ele>
        <time>2014-02-09T13:15:55Z</time>
      </trkpt>
      <trkpt lat="45.65726" lon="5.98542">
        <ele>1382.03</ele>
        <time>2014-02-09T13:15:56Z</time>
      </trkpt>
      <trkpt lat="45.65723" lon="5.98542">
        <ele>1382.03</ele>
        <time>2014-02-09T13:15:57Z</time>
      </trkpt>
      <trkpt lat="45.65722" lon="5.98542">
        <ele>1382.51</ele>
        <time>2014-02-09T13:15:58Z</time>
      </trkpt>
      <trkpt lat="45.6572" lon="5.98543">
        <ele>1382.99</ele>
        <time>2014-02-09T13:15:59Z</time>
      </trkpt>
      <trkpt lat="45.65718" lon="5.98542">
        <ele>1382.99</ele>
        <time>2014-02-09T13:16:00Z</time>
      </trkpt>
      <trkpt lat="45.65717" lon="5.98541">
        <ele>1382.99</ele>
        <time>2014-02-09T13:16:01Z</time>
      </trkpt>
      <trkpt lat="45.65715" lon="5.98541">
        <ele>1382.99</ele>
        <time>2014-02-09T13:16:02Z</time>
      </trkpt>
      <trkpt lat="45.65713" lon="5.9854">
        <ele>1382.99</ele>
        <time>2014-02-09T13:16:03Z</time>
      </trkpt>
      <trkpt lat="45.65711" lon="5.98539">
        <ele>1382.99</ele>
        <time>2014-02-09T13:16:04Z</time>
      </trkpt>
      <trkpt lat="45.6569" lon="5.98524">
        <ele>1382.99</ele>
        <time>2014-02-09T13:16:13Z</time>
      </trkpt>
      <trkpt lat="45.65655" lon="5.98499">
        <ele>1382.99</ele>
        <time>2014-02-09T13:16:25Z</time>
      </trkpt>
      <trkpt lat="45.65628" lon="5.98495">
        <ele>1382.51</ele>
        <time>2014-02-09T13:16:34Z</time>
      </trkpt>
      <trkpt lat="45.65591" lon="5.98488">
        <ele>1381.07</ele>
        <time>2014-02-09T13:16:45Z</time>
      </trkpt>
      <trkpt lat="45.65578" lon="5.98483">
        <ele>1380.59</ele>
        <time>2014-02-09T13:16:49Z</time>
      </trkpt>
      <trkpt lat="45.65575" lon="5.98483">
        <ele>1380.59</ele>
        <time>2014-02-09T13:16:50Z</time>
      </trkpt>
      <trkpt lat="45.65573" lon="5.98482">
        <ele>1381.07</ele>
        <time>2014-02-09T13:16:51Z</time>
      </trkpt>
      <trkpt lat="45.6557" lon="5.9848">
        <ele>1381.07</ele>
        <time>2014-02-09T13:16:52Z</time>
      </trkpt>
      <trkpt lat="45.65567" lon="5.98479">
        <ele>1381.07</ele>
        <time>2014-02-09T13:16:53Z</time>
      </trkpt>
      <trkpt lat="45.65564" lon="5.98477">
        <ele>1380.59</ele>
        <time>2014-02-09T13:16:54Z</time>
      </trkpt>
      <trkpt lat="45.65562" lon="5.98476">
        <ele>1380.59</ele>
        <time>2014-02-09T13:16:55Z</time>
      </trkpt>
      <trkpt lat="45.65559" lon="5.98476">
        <ele>1381.55</ele>
        <time>2014-02-09T13:16:56Z</time>
      </trkpt>
      <trkpt lat="45.6555" lon="5.98473">
        <ele>1382.03</ele>
        <time>2014-02-09T13:17:00Z</time>
      </trkpt>
      <trkpt lat="45.65549" lon="5.98473">
        <ele>1382.51</ele>
        <time>2014-02-09T13:17:01Z</time>
      </trkpt>
      <trkpt lat="45.65547" lon="5.98473">
        <ele>1382.51</ele>
        <time>2014-02-09T13:17:02Z</time>
      </trkpt>
      <trkpt lat="45.65546" lon="5.98472">
        <ele>1382.99</ele>
        <time>2014-02-09T13:17:03Z</time>
      </trkpt>
      <trkpt lat="45.65542" lon="5.98473">
        <ele>1382.99</ele>
        <time>2014-02-09T13:17:05Z</time>
      </trkpt>
      <trkpt lat="45.6554" lon="5.98474">
        <ele>1382.99</ele>
        <time>2014-02-09T13:17:06Z</time>
      </trkpt>
      <trkpt lat="45.65538" lon="5.98475">
        <ele>1382.99</ele>
        <time>2014-02-09T13:17:07Z</time>
      </trkpt>
      <trkpt lat="45.65536" lon="5.98475">
        <ele>1382.99</ele>
        <time>2014-02-09T13:17:08Z</time>
      </trkpt>
      <trkpt lat="45.65534" lon="5.98477">
        <ele>1383.47</ele>
        <time>2014-02-09T13:17:09Z</time>
      </trkpt>
      <trkpt lat="45.65532" lon="5.98478">
        <ele>1383.47</ele>
        <time>2014-02-09T13:17:10Z</time>
      </trkpt>
      <trkpt lat="45.65527" lon="5.9848">
        <ele>1383.47</ele>
        <time>2014-02-09T13:17:11Z</time>
      </trkpt>
      <trkpt lat="45.65526" lon="5.98482">
        <ele>1383.47</ele>
        <time>2014-02-09T13:17:12Z</time>
      </trkpt>
      <trkpt lat="45.65526" lon="5.98485">
        <ele>1383.47</ele>
        <time>2014-02-09T13:17:13Z</time>
      </trkpt>
      <trkpt lat="45.65508" lon="5.98506">
        <ele>1383.96</ele>
        <time>2014-02-09T13:17:23Z</time>
      </trkpt>
      <trkpt lat="45.65491" lon="5.98526">
        <ele>1382.99</ele>
        <time>2014-02-09T13:17:31Z</time>
      </trkpt>
      <trkpt lat="45.65482" lon="5.98553">
        <ele>1380.59</ele>
        <time>2014-02-09T13:17:35Z</time>
      </trkpt>
      <trkpt lat="45.65479" lon="5.98567">
        <ele>1380.11</ele>
        <time>2014-02-09T13:17:37Z</time>
      </trkpt>
      <trkpt lat="45.65477" lon="5.98574">
        <ele>1379.63</ele>
        <time>2014-02-09T13:17:38Z</time>
      </trkpt>
      <trkpt lat="45.65475" lon="5.9858">
        <ele>1379.15</ele>
        <time>2014-02-09T13:17:39Z</time>
      </trkpt>
      <trkpt lat="45.65461" lon="5.9863">
        <ele>1376.26</ele>
        <time>2014-02-09T13:17:46Z</time>
      </trkpt>
      <trkpt lat="45.65458" lon="5.98646">
        <ele>1374.82</ele>
        <time>2014-02-09T13:17:48Z</time>
      </trkpt>
      <trkpt lat="45.65456" lon="5.98654">
        <ele>1374.82</ele>
        <time>2014-02-09T13:17:49Z</time>
      </trkpt>
      <trkpt lat="45.65451" lon="5.98683">
        <ele>1373.38</ele>
        <time>2014-02-09T13:17:53Z</time>
      </trkpt>
      <trkpt lat="45.65449" lon="5.98717">
        <ele>1370.5</ele>
        <time>2014-02-09T13:17:57Z</time>
      </trkpt>
      <trkpt lat="45.6545" lon="5.98725">
        <ele>1369.54</ele>
        <time>2014-02-09T13:17:58Z</time>
      </trkpt>
      <trkpt lat="45.65451" lon="5.98733">
        <ele>1369.54</ele>
        <time>2014-02-09T13:17:59Z</time>
      </trkpt>
      <trkpt lat="45.65452" lon="5.98742">
        <ele>1370.02</ele>
        <time>2014-02-09T13:18:00Z</time>
      </trkpt>
      <trkpt lat="45.65452" lon="5.98751">
        <ele>1369.05</ele>
        <time>2014-02-09T13:18:01Z</time>
      </trkpt>
      <trkpt lat="45.65452" lon="5.98759">
        <ele>1367.61</ele>
        <time>2014-02-09T13:18:02Z</time>
      </trkpt>
      <trkpt lat="45.65451" lon="5.98767">
        <ele>1367.13</ele>
        <time>2014-02-09T13:18:03Z</time>
      </trkpt>
      <trkpt lat="45.65449" lon="5.98776">
        <ele>1366.65</ele>
        <time>2014-02-09T13:18:04Z</time>
      </trkpt>
      <trkpt lat="45.65445" lon="5.98793">
        <ele>1366.17</ele>
        <time>2014-02-09T13:18:06Z</time>
      </trkpt>
      <trkpt lat="45.65444" lon="5.98801">
        <ele>1365.69</ele>
        <time>2014-02-09T13:18:07Z</time>
      </trkpt>
      <trkpt lat="45.65442" lon="5.98809">
        <ele>1365.21</ele>
        <time>2014-02-09T13:18:08Z</time>
      </trkpt>
      <trkpt lat="45.65437" lon="5.98831">
        <ele>1364.73</ele>
        <time>2014-02-09T13:18:11Z</time>
      </trkpt>
      <trkpt lat="45.65432" lon="5.9889">
        <ele>1361.84</ele>
        <time>2014-02-09T13:18:19Z</time>
      </trkpt>
      <trkpt lat="45.65431" lon="5.98898">
        <ele>1361.84</ele>
        <time>2014-02-09T13:18:20Z</time>
      </trkpt>
      <trkpt lat="45.6543" lon="5.98904">
        <ele>1361.36</ele>
        <time>2014-02-09T13:18:21Z</time>
      </trkpt>
      <trkpt lat="45.65429" lon="5.9891">
        <ele>1360.88</ele>
        <time>2014-02-09T13:18:22Z</time>
      </trkpt>
      <trkpt lat="45.65427" lon="5.98913">
        <ele>1360.4</ele>
        <time>2014-02-09T13:18:23Z</time>
      </trkpt>
      <trkpt lat="45.65426" lon="5.98917">
        <ele>1360.4</ele>
        <time>2014-02-09T13:18:24Z</time>
      </trkpt>
      <trkpt lat="45.65427" lon="5.98919">
        <ele>1359.92</ele>
        <time>2014-02-09T13:18:25Z</time>
      </trkpt>
      <trkpt lat="45.65427" lon="5.98922">
        <ele>1359.92</ele>
        <time>2014-02-09T13:18:26Z</time>
      </trkpt>
      <trkpt lat="45.65427" lon="5.98922">
        <ele>1359.92</ele>
        <time>2014-02-09T13:18:27Z</time>
      </trkpt>
      <trkpt lat="45.65426" lon="5.98921">
        <ele>1359.92</ele>
        <time>2014-02-09T13:18:28Z</time>
      </trkpt>
      <trkpt lat="45.65425" lon="5.98918">
        <ele>1359.92</ele>
        <time>2014-02-09T13:18:29Z</time>
      </trkpt>
      <trkpt lat="45.65423" lon="5.98915">
        <ele>1359.92</ele>
        <time>2014-02-09T13:18:30Z</time>
      </trkpt>
      <trkpt lat="45.65421" lon="5.98912">
        <ele>1359.44</ele>
        <time>2014-02-09T13:18:31Z</time>
      </trkpt>
      <trkpt lat="45.654" lon="5.98876">
        <ele>1359.92</ele>
        <time>2014-02-09T13:18:44Z</time>
      </trkpt>
      <trkpt lat="45.65395" lon="5.98867">
        <ele>1358.96</ele>
        <time>2014-02-09T13:18:46Z</time>
      </trkpt>
      <trkpt lat="45.65392" lon="5.98863">
        <ele>1358.96</ele>
        <time>2014-02-09T13:18:47Z</time>
      </trkpt>
      <trkpt lat="45.6538" lon="5.98843">
        <ele>1358.96</ele>
        <time>2014-02-09T13:18:51Z</time>
      </trkpt>
      <trkpt lat="45.65377" lon="5.98838">
        <ele>1358.48</ele>
        <time>2014-02-09T13:18:52Z</time>
      </trkpt>
      <trkpt lat="45.65374" lon="5.98833">
        <ele>1358.48</ele>
        <time>2014-02-09T13:18:53Z</time>
      </trkpt>
      <trkpt lat="45.65373" lon="5.98826">
        <ele>1358.48</ele>
        <time>2014-02-09T13:18:54Z</time>
      </trkpt>
      <trkpt lat="45.65371" lon="5.9882">
        <ele>1358</ele>
        <time>2014-02-09T13:18:55Z</time>
      </trkpt>
      <trkpt lat="45.65367" lon="5.98812">
        <ele>1357.04</ele>
        <time>2014-02-09T13:18:57Z</time>
      </trkpt>
      <trkpt lat="45.65342" lon="5.9877">
        <ele>1354.63</ele>
        <time>2014-02-09T13:19:07Z</time>
      </trkpt>
      <trkpt lat="45.65322" lon="5.98759">
        <ele>1354.63</ele>
        <time>2014-02-09T13:19:12Z</time>
      </trkpt>
      <trkpt lat="45.65299" lon="5.98754">
        <ele>1353.67</ele>
        <time>2014-02-09T13:19:18Z</time>
      </trkpt>
      <trkpt lat="45.6528" lon="5.98741">
        <ele>1352.23</ele>
        <time>2014-02-09T13:19:23Z</time>
      </trkpt>
      <trkpt lat="45.65276" lon="5.98738">
        <ele>1351.75</ele>
        <time>2014-02-09T13:19:24Z</time>
      </trkpt>
      <trkpt lat="45.65249" lon="5.98725">
        <ele>1351.75</ele>
        <time>2014-02-09T13:19:31Z</time>
      </trkpt>
      <trkpt lat="45.65245" lon="5.9872">
        <ele>1351.75</ele>
        <time>2014-02-09T13:19:32Z</time>
      </trkpt>
      <trkpt lat="45.65242" lon="5.98715">
        <ele>1351.75</ele>
        <time>2014-02-09T13:19:33Z</time>
      </trkpt>
      <trkpt lat="45.65231" lon="5.98701">
        <ele>1351.27</ele>
        <time>2014-02-09T13:19:36Z</time>
      </trkpt>
      <trkpt lat="45.65226" lon="5.98696">
        <ele>1350.31</ele>
        <time>2014-02-09T13:19:37Z</time>
      </trkpt>
      <trkpt lat="45.65215" lon="5.98687">
        <ele>1348.87</ele>
        <time>2014-02-09T13:19:39Z</time>
      </trkpt>
      <trkpt lat="45.65199" lon="5.98678">
        <ele>1347.43</ele>
        <time>2014-02-09T13:19:42Z</time>
      </trkpt>
      <trkpt lat="45.65194" lon="5.98676">
        <ele>1346.94</ele>
        <time>2014-02-09T13:19:43Z</time>
      </trkpt>
      <trkpt lat="45.65157" lon="5.98665">
        <ele>1346.94</ele>
        <time>2014-02-09T13:19:52Z</time>
      </trkpt>
      <trkpt lat="45.6513" lon="5.98659">
        <ele>1346.46</ele>
        <time>2014-02-09T13:20:00Z</time>
      </trkpt>
      <trkpt lat="45.65104" lon="5.9865">
        <ele>1345.5</ele>
        <time>2014-02-09T13:20:08Z</time>
      </trkpt>
      <trkpt lat="45.65077" lon="5.98634">
        <ele>1345.5</ele>
        <time>2014-02-09T13:20:17Z</time>
      </trkpt>
      <trkpt lat="45.65046" lon="5.98624">
        <ele>1345.5</ele>
        <time>2014-02-09T13:20:26Z</time>
      </trkpt>
      <trkpt lat="45.65037" lon="5.98626">
        <ele>1344.54</ele>
        <time>2014-02-09T13:20:28Z</time>
      </trkpt>
      <trkpt lat="45.65022" lon="5.98632">
        <ele>1344.54</ele>
        <time>2014-02-09T13:20:32Z</time>
      </trkpt>
      <trkpt lat="45.65012" lon="5.98635">
        <ele>1345.5</ele>
        <time>2014-02-09T13:20:35Z</time>
      </trkpt>
      <trkpt lat="45.64964" lon="5.98644">
        <ele>1341.18</ele>
        <time>2014-02-09T13:20:47Z</time>
      </trkpt>
      <trkpt lat="45.64957" lon="5.98644">
        <ele>1340.7</ele>
        <time>2014-02-09T13:20:48Z</time>
      </trkpt>
      <trkpt lat="45.64927" lon="5.98637">
        <ele>1337.81</ele>
        <time>2014-02-09T13:20:52Z</time>
      </trkpt>
      <trkpt lat="45.64906" lon="5.98632">
        <ele>1335.89</ele>
        <time>2014-02-09T13:20:55Z</time>
      </trkpt>
      <trkpt lat="45.64869" lon="5.98635">
        <ele>1332.52</ele>
        <time>2014-02-09T13:21:01Z</time>
      </trkpt>
      <trkpt lat="45.64854" lon="5.98638">
        <ele>1332.52</ele>
        <time>2014-02-09T13:21:05Z</time>
      </trkpt>
      <trkpt lat="45.64842" lon="5.98639">
        <ele>1333.01</ele>
        <time>2014-02-09T13:21:10Z</time>
      </trkpt>
      <trkpt lat="45.64834" lon="5.98637">
        <ele>1332.52</ele>
        <time>2014-02-09T13:21:13Z</time>
      </trkpt>
      <trkpt lat="45.64811" lon="5.98625">
        <ele>1332.52</ele>
        <time>2014-02-09T13:21:22Z</time>
      </trkpt>
      <trkpt lat="45.64796" lon="5.98603">
        <ele>1333.01</ele>
        <time>2014-02-09T13:21:31Z</time>
      </trkpt>
      <trkpt lat="45.64785" lon="5.98579">
        <ele>1334.45</ele>
        <time>2014-02-09T13:21:39Z</time>
      </trkpt>
      <trkpt lat="45.6478" lon="5.98567">
        <ele>1333.97</ele>
        <time>2014-02-09T13:21:50Z</time>
      </trkpt>
      <trkpt lat="45.64778" lon="5.98567">
        <ele>1333.49</ele>
        <time>2014-02-09T13:22:16Z</time>
      </trkpt>
      <trkpt lat="45.64779" lon="5.98566">
        <ele>1333.49</ele>
        <time>2014-02-09T13:22:44Z</time>
      </trkpt>
      <trkpt lat="45.64779" lon="5.98565">
        <ele>1333.97</ele>
        <time>2014-02-09T13:23:07Z</time>
      </trkpt>
      <trkpt lat="45.64779" lon="5.98566">
        <ele>1333.49</ele>
        <time>2014-02-09T13:23:14Z</time>
      </trkpt>
      <trkpt lat="45.64771" lon="5.98546">
        <ele>1333.97</ele>
        <time>2014-02-09T13:23:22Z</time>
      </trkpt>
      <trkpt lat="45.64762" lon="5.98528">
        <ele>1334.45</ele>
        <time>2014-02-09T13:23:28Z</time>
      </trkpt>
      <trkpt lat="45.6475" lon="5.98507">
        <ele>1334.93</ele>
        <time>2014-02-09T13:23:37Z</time>
      </trkpt>
      <trkpt lat="45.6474" lon="5.98499">
        <ele>1334.45</ele>
        <time>2014-02-09T13:23:41Z</time>
      </trkpt>
      <trkpt lat="45.64717" lon="5.9849">
        <ele>1333.49</ele>
        <time>2014-02-09T13:23:48Z</time>
      </trkpt>
      <trkpt lat="45.64706" lon="5.98481">
        <ele>1334.45</ele>
        <time>2014-02-09T13:23:53Z</time>
      </trkpt>
      <trkpt lat="45.64684" lon="5.98459">
        <ele>1335.41</ele>
        <time>2014-02-09T13:24:03Z</time>
      </trkpt>
      <trkpt lat="45.64682" lon="5.98458">
        <ele>1335.41</ele>
        <time>2014-02-09T13:24:04Z</time>
      </trkpt>
      <trkpt lat="45.64678" lon="5.98452">
        <ele>1336.37</ele>
        <time>2014-02-09T13:24:07Z</time>
      </trkpt>
      <trkpt lat="45.64666" lon="5.98437">
        <ele>1337.81</ele>
        <time>2014-02-09T13:24:16Z</time>
      </trkpt>
      <trkpt lat="45.64662" lon="5.98428">
        <ele>1338.29</ele>
        <time>2014-02-09T13:24:31Z</time>
      </trkpt>
      <trkpt lat="45.64666" lon="5.98426">
        <ele>1337.81</ele>
        <time>2014-02-09T13:24:55Z</time>
      </trkpt>
      <trkpt lat="45.64663" lon="5.98425">
        <ele>1338.29</ele>
        <time>2014-02-09T13:25:09Z</time>
      </trkpt>
      <trkpt lat="45.64657" lon="5.98423">
        <ele>1337.81</ele>
        <time>2014-02-09T13:25:40Z</time>
      </trkpt>
      <trkpt lat="45.64651" lon="5.98449">
        <ele>1335.89</ele>
        <time>2014-02-09T13:25:51Z</time>
      </trkpt>
      <trkpt lat="45.64654" lon="5.98477">
        <ele>1333.01</ele>
        <time>2014-02-09T13:25:57Z</time>
      </trkpt>
      <trkpt lat="45.64639" lon="5.98495">
        <ele>1331.08</ele>
        <time>2014-02-09T13:26:02Z</time>
      </trkpt>
      <trkpt lat="45.64617" lon="5.98504">
        <ele>1328.2</ele>
        <time>2014-02-09T13:26:07Z</time>
      </trkpt>
      <trkpt lat="45.64581" lon="5.98537">
        <ele>1324.35</ele>
        <time>2014-02-09T13:26:16Z</time>
      </trkpt>
      <trkpt lat="45.64573" lon="5.98546">
        <ele>1323.39</ele>
        <time>2014-02-09T13:26:18Z</time>
      </trkpt>
      <trkpt lat="45.64541" lon="5.98556">
        <ele>1320.99</ele>
        <time>2014-02-09T13:26:26Z</time>
      </trkpt>
      <trkpt lat="45.64537" lon="5.98556">
        <ele>1320.99</ele>
        <time>2014-02-09T13:26:27Z</time>
      </trkpt>
      <trkpt lat="45.64524" lon="5.98552">
        <ele>1320.51</ele>
        <time>2014-02-09T13:26:31Z</time>
      </trkpt>
      <trkpt lat="45.64499" lon="5.98555">
        <ele>1319.55</ele>
        <time>2014-02-09T13:26:37Z</time>
      </trkpt>
      <trkpt lat="45.64474" lon="5.9855">
        <ele>1318.59</ele>
        <time>2014-02-09T13:26:47Z</time>
      </trkpt>
      <trkpt lat="45.64469" lon="5.98547">
        <ele>1318.59</ele>
        <time>2014-02-09T13:26:58Z</time>
      </trkpt>
      <trkpt lat="45.64468" lon="5.98546">
        <ele>1318.1</ele>
        <time>2014-02-09T13:27:15Z</time>
      </trkpt>
      <trkpt lat="45.64468" lon="5.9855">
        <ele>1318.1</ele>
        <time>2014-02-09T13:27:29Z</time>
      </trkpt>
      <trkpt lat="45.64468" lon="5.98555">
        <ele>1317.62</ele>
        <time>2014-02-09T13:27:41Z</time>
      </trkpt>
      <trkpt lat="45.64468" lon="5.98555">
        <ele>1317.14</ele>
        <time>2014-02-09T13:27:46Z</time>
      </trkpt>
    </trkseg>
  </trk>
</gpx>